<?xml version="1.0" encoding="UTF-8" standalone="no" ?>
<gpx xmlns="http://www.topografix.com/GPX/1/1" xmlns:xsi="http://www.w3.org/2001/XMLSchema-instance" xsi:schemaLocation="http://www.topografix.com/GPX/1/1 http://www.topografix.com/GPX/1/1/gpx.xsd" version="1.1" creator="VisuGPX - https://www.visugpx.com">
  <metadata>
    <name>Surchauffant,Saint Christophe,Château La Tour du Meix,</name>
  </metadata>
  <trk>
    <name><![CDATA[Surchauffant,Saint Christophe,Château La Tour du Meix,_1]]></name>
    <trkseg>
      <trkpt lat="46.52092" lon="5.67105">
        <ele>442.6</ele>
        <time>2020-09-23T08:09:05Z</time>
      </trkpt>
      <trkpt lat="46.52097" lon="5.67104">
        <ele>442.7</ele>
        <time>2020-09-23T08:09:30Z</time>
      </trkpt>
      <trkpt lat="46.521" lon="5.671">
        <ele>439.3</ele>
        <time>2020-09-23T08:09:48Z</time>
      </trkpt>
      <trkpt lat="46.52105" lon="5.67102">
        <ele>439.6</ele>
        <time>2020-09-23T08:09:53Z</time>
      </trkpt>
      <trkpt lat="46.52111" lon="5.67104">
        <ele>439.5</ele>
        <time>2020-09-23T08:09:57Z</time>
      </trkpt>
      <trkpt lat="46.52116" lon="5.67104">
        <ele>440.2</ele>
        <time>2020-09-23T08:10:02Z</time>
      </trkpt>
      <trkpt lat="46.52121" lon="5.67105">
        <ele>441.4</ele>
        <time>2020-09-23T08:10:08Z</time>
      </trkpt>
      <trkpt lat="46.52126" lon="5.67108">
        <ele>443.3</ele>
        <time>2020-09-23T08:10:14Z</time>
      </trkpt>
      <trkpt lat="46.52131" lon="5.6711">
        <ele>444.4</ele>
        <time>2020-09-23T08:10:19Z</time>
      </trkpt>
      <trkpt lat="46.52136" lon="5.67113">
        <ele>445.8</ele>
        <time>2020-09-23T08:10:24Z</time>
      </trkpt>
      <trkpt lat="46.52141" lon="5.67116">
        <ele>446.4</ele>
        <time>2020-09-23T08:10:28Z</time>
      </trkpt>
      <trkpt lat="46.52146" lon="5.67118">
        <ele>446.7</ele>
        <time>2020-09-23T08:10:31Z</time>
      </trkpt>
      <trkpt lat="46.52151" lon="5.67121">
        <ele>447.3</ele>
        <time>2020-09-23T08:10:35Z</time>
      </trkpt>
      <trkpt lat="46.52156" lon="5.67123">
        <ele>446.8</ele>
        <time>2020-09-23T08:10:40Z</time>
      </trkpt>
      <trkpt lat="46.52161" lon="5.67126">
        <ele>446.1</ele>
        <time>2020-09-23T08:10:44Z</time>
      </trkpt>
      <trkpt lat="46.52166" lon="5.67128">
        <ele>445.1</ele>
        <time>2020-09-23T08:10:49Z</time>
      </trkpt>
      <trkpt lat="46.52171" lon="5.6713">
        <ele>444.8</ele>
        <time>2020-09-23T08:10:53Z</time>
      </trkpt>
      <trkpt lat="46.52176" lon="5.67131">
        <ele>444.5</ele>
        <time>2020-09-23T08:10:57Z</time>
      </trkpt>
      <trkpt lat="46.52181" lon="5.67131">
        <ele>443.9</ele>
        <time>2020-09-23T08:11:01Z</time>
      </trkpt>
      <trkpt lat="46.52186" lon="5.67134">
        <ele>443.2</ele>
        <time>2020-09-23T08:11:06Z</time>
      </trkpt>
      <trkpt lat="46.52189" lon="5.67139">
        <ele>442.9</ele>
        <time>2020-09-23T08:11:11Z</time>
      </trkpt>
      <trkpt lat="46.52195" lon="5.67142">
        <ele>442.6</ele>
        <time>2020-09-23T08:11:15Z</time>
      </trkpt>
      <trkpt lat="46.52199" lon="5.67144">
        <ele>442.4</ele>
        <time>2020-09-23T08:11:19Z</time>
      </trkpt>
      <trkpt lat="46.52204" lon="5.67145">
        <ele>442.4</ele>
        <time>2020-09-23T08:11:23Z</time>
      </trkpt>
      <trkpt lat="46.52209" lon="5.67147">
        <ele>442.5</ele>
        <time>2020-09-23T08:11:28Z</time>
      </trkpt>
      <trkpt lat="46.52215" lon="5.67148">
        <ele>441.8</ele>
        <time>2020-09-23T08:11:33Z</time>
      </trkpt>
      <trkpt lat="46.5222" lon="5.67147">
        <ele>439.8</ele>
        <time>2020-09-23T08:11:37Z</time>
      </trkpt>
      <trkpt lat="46.52225" lon="5.67148">
        <ele>437.2</ele>
        <time>2020-09-23T08:11:42Z</time>
      </trkpt>
      <trkpt lat="46.5223" lon="5.67148">
        <ele>435.1</ele>
        <time>2020-09-23T08:11:48Z</time>
      </trkpt>
      <trkpt lat="46.52235" lon="5.67148">
        <ele>434.4</ele>
        <time>2020-09-23T08:11:53Z</time>
      </trkpt>
      <trkpt lat="46.5224" lon="5.6715">
        <ele>435</ele>
        <time>2020-09-23T08:11:57Z</time>
      </trkpt>
      <trkpt lat="46.52244" lon="5.67156">
        <ele>435.7</ele>
        <time>2020-09-23T08:12:01Z</time>
      </trkpt>
      <trkpt lat="46.52246" lon="5.67161">
        <ele>436.3</ele>
        <time>2020-09-23T08:12:05Z</time>
      </trkpt>
      <trkpt lat="46.5225" lon="5.67166">
        <ele>436.6</ele>
        <time>2020-09-23T08:12:09Z</time>
      </trkpt>
      <trkpt lat="46.52254" lon="5.6717">
        <ele>436.6</ele>
        <time>2020-09-23T08:12:13Z</time>
      </trkpt>
      <trkpt lat="46.52259" lon="5.67173">
        <ele>436.5</ele>
        <time>2020-09-23T08:12:17Z</time>
      </trkpt>
      <trkpt lat="46.52264" lon="5.67177">
        <ele>436.6</ele>
        <time>2020-09-23T08:12:21Z</time>
      </trkpt>
      <trkpt lat="46.52268" lon="5.67181">
        <ele>436.4</ele>
        <time>2020-09-23T08:12:25Z</time>
      </trkpt>
      <trkpt lat="46.52271" lon="5.67187">
        <ele>436.1</ele>
        <time>2020-09-23T08:12:29Z</time>
      </trkpt>
      <trkpt lat="46.52275" lon="5.67193">
        <ele>435.9</ele>
        <time>2020-09-23T08:12:33Z</time>
      </trkpt>
      <trkpt lat="46.52278" lon="5.67197">
        <ele>436</ele>
        <time>2020-09-23T08:12:37Z</time>
      </trkpt>
      <trkpt lat="46.52282" lon="5.67202">
        <ele>436.5</ele>
        <time>2020-09-23T08:12:41Z</time>
      </trkpt>
      <trkpt lat="46.52283" lon="5.67208">
        <ele>437</ele>
        <time>2020-09-23T08:12:46Z</time>
      </trkpt>
      <trkpt lat="46.52283" lon="5.67215">
        <ele>437.4</ele>
        <time>2020-09-23T08:12:51Z</time>
      </trkpt>
      <trkpt lat="46.52284" lon="5.67223">
        <ele>437.6</ele>
        <time>2020-09-23T08:12:57Z</time>
      </trkpt>
      <trkpt lat="46.52286" lon="5.67229">
        <ele>437.7</ele>
        <time>2020-09-23T08:13:01Z</time>
      </trkpt>
      <trkpt lat="46.52287" lon="5.67235">
        <ele>437.7</ele>
        <time>2020-09-23T08:13:05Z</time>
      </trkpt>
      <trkpt lat="46.52289" lon="5.67242">
        <ele>437.9</ele>
        <time>2020-09-23T08:13:10Z</time>
      </trkpt>
      <trkpt lat="46.52291" lon="5.6725">
        <ele>438.3</ele>
        <time>2020-09-23T08:13:14Z</time>
      </trkpt>
      <trkpt lat="46.52294" lon="5.67257">
        <ele>438.6</ele>
        <time>2020-09-23T08:13:18Z</time>
      </trkpt>
      <trkpt lat="46.52296" lon="5.67264">
        <ele>438.7</ele>
        <time>2020-09-23T08:13:22Z</time>
      </trkpt>
      <trkpt lat="46.52298" lon="5.67271">
        <ele>439</ele>
        <time>2020-09-23T08:13:26Z</time>
      </trkpt>
      <trkpt lat="46.523" lon="5.67277">
        <ele>439.4</ele>
        <time>2020-09-23T08:13:30Z</time>
      </trkpt>
      <trkpt lat="46.52303" lon="5.67283">
        <ele>439.7</ele>
        <time>2020-09-23T08:13:35Z</time>
      </trkpt>
      <trkpt lat="46.52305" lon="5.6729">
        <ele>440.3</ele>
        <time>2020-09-23T08:13:38Z</time>
      </trkpt>
      <trkpt lat="46.52308" lon="5.67296">
        <ele>442.1</ele>
        <time>2020-09-23T08:13:41Z</time>
      </trkpt>
      <trkpt lat="46.52313" lon="5.67302">
        <ele>444.3</ele>
        <time>2020-09-23T08:13:44Z</time>
      </trkpt>
      <trkpt lat="46.52314" lon="5.67309">
        <ele>447.8</ele>
        <time>2020-09-23T08:13:50Z</time>
      </trkpt>
      <trkpt lat="46.52315" lon="5.67317">
        <ele>449.6</ele>
        <time>2020-09-23T08:13:57Z</time>
      </trkpt>
      <trkpt lat="46.52318" lon="5.67324">
        <ele>449.3</ele>
        <time>2020-09-23T08:14:02Z</time>
      </trkpt>
      <trkpt lat="46.5232" lon="5.6733">
        <ele>448.6</ele>
        <time>2020-09-23T08:14:06Z</time>
      </trkpt>
      <trkpt lat="46.52322" lon="5.67337">
        <ele>447.6</ele>
        <time>2020-09-23T08:14:10Z</time>
      </trkpt>
      <trkpt lat="46.52324" lon="5.67344">
        <ele>446.5</ele>
        <time>2020-09-23T08:14:14Z</time>
      </trkpt>
      <trkpt lat="46.52326" lon="5.6735">
        <ele>446</ele>
        <time>2020-09-23T08:14:18Z</time>
      </trkpt>
      <trkpt lat="46.52322" lon="5.67354">
        <ele>446.5</ele>
        <time>2020-09-23T08:15:27Z</time>
      </trkpt>
      <trkpt lat="46.52324" lon="5.6736">
        <ele>446.3</ele>
        <time>2020-09-23T08:16:30Z</time>
      </trkpt>
      <trkpt lat="46.52327" lon="5.67367">
        <ele>446.2</ele>
        <time>2020-09-23T08:16:34Z</time>
      </trkpt>
      <trkpt lat="46.52329" lon="5.67374">
        <ele>446</ele>
        <time>2020-09-23T08:16:38Z</time>
      </trkpt>
      <trkpt lat="46.52332" lon="5.6738">
        <ele>445.3</ele>
        <time>2020-09-23T08:16:43Z</time>
      </trkpt>
      <trkpt lat="46.52334" lon="5.67387">
        <ele>444.7</ele>
        <time>2020-09-23T08:16:47Z</time>
      </trkpt>
      <trkpt lat="46.52336" lon="5.67394">
        <ele>444.4</ele>
        <time>2020-09-23T08:16:51Z</time>
      </trkpt>
      <trkpt lat="46.52339" lon="5.67399">
        <ele>444.1</ele>
        <time>2020-09-23T08:16:56Z</time>
      </trkpt>
      <trkpt lat="46.52341" lon="5.67406">
        <ele>444</ele>
        <time>2020-09-23T08:17:00Z</time>
      </trkpt>
      <trkpt lat="46.52343" lon="5.67413">
        <ele>444</ele>
        <time>2020-09-23T08:17:04Z</time>
      </trkpt>
      <trkpt lat="46.52346" lon="5.67419">
        <ele>443.7</ele>
        <time>2020-09-23T08:17:08Z</time>
      </trkpt>
      <trkpt lat="46.52348" lon="5.67425">
        <ele>443.5</ele>
        <time>2020-09-23T08:17:14Z</time>
      </trkpt>
      <trkpt lat="46.52351" lon="5.67431">
        <ele>443</ele>
        <time>2020-09-23T08:17:19Z</time>
      </trkpt>
      <trkpt lat="46.52354" lon="5.67437">
        <ele>442.6</ele>
        <time>2020-09-23T08:17:23Z</time>
      </trkpt>
      <trkpt lat="46.52356" lon="5.67443">
        <ele>442</ele>
        <time>2020-09-23T08:17:27Z</time>
      </trkpt>
      <trkpt lat="46.52358" lon="5.6745">
        <ele>441.4</ele>
        <time>2020-09-23T08:17:31Z</time>
      </trkpt>
      <trkpt lat="46.5236" lon="5.67456">
        <ele>440.9</ele>
        <time>2020-09-23T08:17:35Z</time>
      </trkpt>
      <trkpt lat="46.52361" lon="5.67462">
        <ele>440.9</ele>
        <time>2020-09-23T08:17:40Z</time>
      </trkpt>
      <trkpt lat="46.52362" lon="5.67469">
        <ele>441.8</ele>
        <time>2020-09-23T08:17:45Z</time>
      </trkpt>
      <trkpt lat="46.52363" lon="5.67477">
        <ele>442.6</ele>
        <time>2020-09-23T08:17:50Z</time>
      </trkpt>
      <trkpt lat="46.52363" lon="5.67485">
        <ele>443.3</ele>
        <time>2020-09-23T08:17:55Z</time>
      </trkpt>
      <trkpt lat="46.52362" lon="5.67493">
        <ele>443.5</ele>
        <time>2020-09-23T08:17:59Z</time>
      </trkpt>
      <trkpt lat="46.52362" lon="5.67501">
        <ele>443.5</ele>
        <time>2020-09-23T08:18:03Z</time>
      </trkpt>
      <trkpt lat="46.52363" lon="5.67508">
        <ele>443.4</ele>
        <time>2020-09-23T08:18:07Z</time>
      </trkpt>
      <trkpt lat="46.52365" lon="5.67515">
        <ele>443</ele>
        <time>2020-09-23T08:18:11Z</time>
      </trkpt>
      <trkpt lat="46.52367" lon="5.67522">
        <ele>442.5</ele>
        <time>2020-09-23T08:18:15Z</time>
      </trkpt>
      <trkpt lat="46.52369" lon="5.67529">
        <ele>441.6</ele>
        <time>2020-09-23T08:18:19Z</time>
      </trkpt>
      <trkpt lat="46.5237" lon="5.67535">
        <ele>440.6</ele>
        <time>2020-09-23T08:18:24Z</time>
      </trkpt>
      <trkpt lat="46.52372" lon="5.67542">
        <ele>439.8</ele>
        <time>2020-09-23T08:18:29Z</time>
      </trkpt>
      <trkpt lat="46.52373" lon="5.67549">
        <ele>439.1</ele>
        <time>2020-09-23T08:18:33Z</time>
      </trkpt>
      <trkpt lat="46.52374" lon="5.67556">
        <ele>438.8</ele>
        <time>2020-09-23T08:18:37Z</time>
      </trkpt>
      <trkpt lat="46.52374" lon="5.67563">
        <ele>438.6</ele>
        <time>2020-09-23T08:18:41Z</time>
      </trkpt>
      <trkpt lat="46.52373" lon="5.67569">
        <ele>438.3</ele>
        <time>2020-09-23T08:18:45Z</time>
      </trkpt>
      <trkpt lat="46.52371" lon="5.67577">
        <ele>438.1</ele>
        <time>2020-09-23T08:18:49Z</time>
      </trkpt>
      <trkpt lat="46.52369" lon="5.67583">
        <ele>438.3</ele>
        <time>2020-09-23T08:18:53Z</time>
      </trkpt>
      <trkpt lat="46.52367" lon="5.6759">
        <ele>438.8</ele>
        <time>2020-09-23T08:18:59Z</time>
      </trkpt>
      <trkpt lat="46.52366" lon="5.67596">
        <ele>439.1</ele>
        <time>2020-09-23T08:19:04Z</time>
      </trkpt>
      <trkpt lat="46.52364" lon="5.67605">
        <ele>440.9</ele>
        <time>2020-09-23T08:19:10Z</time>
      </trkpt>
      <trkpt lat="46.52364" lon="5.67614">
        <ele>443.9</ele>
        <time>2020-09-23T08:19:13Z</time>
      </trkpt>
      <trkpt lat="46.52363" lon="5.67622">
        <ele>447.8</ele>
        <time>2020-09-23T08:19:18Z</time>
      </trkpt>
      <trkpt lat="46.52361" lon="5.67629">
        <ele>449.5</ele>
        <time>2020-09-23T08:19:23Z</time>
      </trkpt>
      <trkpt lat="46.5236" lon="5.67636">
        <ele>449.9</ele>
        <time>2020-09-23T08:19:28Z</time>
      </trkpt>
      <trkpt lat="46.52358" lon="5.67642">
        <ele>449.7</ele>
        <time>2020-09-23T08:19:33Z</time>
      </trkpt>
      <trkpt lat="46.52356" lon="5.67648">
        <ele>449.1</ele>
        <time>2020-09-23T08:19:38Z</time>
      </trkpt>
      <trkpt lat="46.52353" lon="5.67654">
        <ele>448.5</ele>
        <time>2020-09-23T08:19:42Z</time>
      </trkpt>
      <trkpt lat="46.52351" lon="5.67661">
        <ele>447.7</ele>
        <time>2020-09-23T08:19:47Z</time>
      </trkpt>
      <trkpt lat="46.52349" lon="5.67668">
        <ele>447.4</ele>
        <time>2020-09-23T08:19:52Z</time>
      </trkpt>
      <trkpt lat="46.52351" lon="5.67678">
        <ele>450.3</ele>
        <time>2020-09-23T08:19:59Z</time>
      </trkpt>
      <trkpt lat="46.52354" lon="5.67684">
        <ele>454.4</ele>
        <time>2020-09-23T08:20:03Z</time>
      </trkpt>
      <trkpt lat="46.52352" lon="5.67691">
        <ele>457.8</ele>
        <time>2020-09-23T08:20:09Z</time>
      </trkpt>
      <trkpt lat="46.52349" lon="5.67696">
        <ele>459.7</ele>
        <time>2020-09-23T08:20:16Z</time>
      </trkpt>
      <trkpt lat="46.52346" lon="5.67702">
        <ele>460.5</ele>
        <time>2020-09-23T08:20:24Z</time>
      </trkpt>
      <trkpt lat="46.52345" lon="5.67709">
        <ele>460.5</ele>
        <time>2020-09-23T08:20:28Z</time>
      </trkpt>
      <trkpt lat="46.52343" lon="5.67716">
        <ele>460.3</ele>
        <time>2020-09-23T08:20:34Z</time>
      </trkpt>
      <trkpt lat="46.52341" lon="5.67723">
        <ele>459.7</ele>
        <time>2020-09-23T08:20:40Z</time>
      </trkpt>
      <trkpt lat="46.52341" lon="5.67731">
        <ele>458.5</ele>
        <time>2020-09-23T08:20:43Z</time>
      </trkpt>
      <trkpt lat="46.52341" lon="5.67738">
        <ele>457.1</ele>
        <time>2020-09-23T08:20:47Z</time>
      </trkpt>
      <trkpt lat="46.52337" lon="5.67743">
        <ele>455.8</ele>
        <time>2020-09-23T08:20:52Z</time>
      </trkpt>
      <trkpt lat="46.52334" lon="5.6775">
        <ele>454.4</ele>
        <time>2020-09-23T08:20:58Z</time>
      </trkpt>
      <trkpt lat="46.52332" lon="5.67757">
        <ele>453.2</ele>
        <time>2020-09-23T08:21:03Z</time>
      </trkpt>
      <trkpt lat="46.52329" lon="5.67764">
        <ele>452.1</ele>
        <time>2020-09-23T08:21:08Z</time>
      </trkpt>
      <trkpt lat="46.52327" lon="5.67771">
        <ele>451.5</ele>
        <time>2020-09-23T08:21:13Z</time>
      </trkpt>
      <trkpt lat="46.52325" lon="5.67777">
        <ele>451.3</ele>
        <time>2020-09-23T08:21:18Z</time>
      </trkpt>
      <trkpt lat="46.52324" lon="5.67784">
        <ele>451.2</ele>
        <time>2020-09-23T08:21:23Z</time>
      </trkpt>
      <trkpt lat="46.52324" lon="5.67793">
        <ele>451.4</ele>
        <time>2020-09-23T08:21:28Z</time>
      </trkpt>
      <trkpt lat="46.52324" lon="5.678">
        <ele>452.1</ele>
        <time>2020-09-23T08:21:32Z</time>
      </trkpt>
      <trkpt lat="46.52326" lon="5.67807">
        <ele>452.9</ele>
        <time>2020-09-23T08:21:37Z</time>
      </trkpt>
      <trkpt lat="46.52327" lon="5.67814">
        <ele>453.7</ele>
        <time>2020-09-23T08:21:46Z</time>
      </trkpt>
      <trkpt lat="46.52329" lon="5.67821">
        <ele>453.9</ele>
        <time>2020-09-23T08:21:51Z</time>
      </trkpt>
      <trkpt lat="46.52329" lon="5.67827">
        <ele>454.3</ele>
        <time>2020-09-23T08:21:57Z</time>
      </trkpt>
      <trkpt lat="46.52326" lon="5.67834">
        <ele>455.3</ele>
        <time>2020-09-23T08:22:04Z</time>
      </trkpt>
      <trkpt lat="46.52326" lon="5.67841">
        <ele>456.3</ele>
        <time>2020-09-23T08:22:10Z</time>
      </trkpt>
      <trkpt lat="46.52327" lon="5.67848">
        <ele>457.6</ele>
        <time>2020-09-23T08:22:17Z</time>
      </trkpt>
      <trkpt lat="46.52326" lon="5.67855">
        <ele>458.3</ele>
        <time>2020-09-23T08:22:24Z</time>
      </trkpt>
      <trkpt lat="46.52325" lon="5.67862">
        <ele>458.4</ele>
        <time>2020-09-23T08:22:33Z</time>
      </trkpt>
      <trkpt lat="46.52321" lon="5.67867">
        <ele>458.8</ele>
        <time>2020-09-23T08:22:39Z</time>
      </trkpt>
      <trkpt lat="46.52318" lon="5.67872">
        <ele>460.5</ele>
        <time>2020-09-23T08:22:46Z</time>
      </trkpt>
      <trkpt lat="46.52316" lon="5.67879">
        <ele>459.4</ele>
        <time>2020-09-23T08:22:55Z</time>
      </trkpt>
      <trkpt lat="46.52317" lon="5.67886">
        <ele>458.1</ele>
        <time>2020-09-23T08:23:01Z</time>
      </trkpt>
      <trkpt lat="46.52316" lon="5.67892">
        <ele>457.5</ele>
        <time>2020-09-23T08:23:06Z</time>
      </trkpt>
      <trkpt lat="46.52319" lon="5.67898">
        <ele>457.2</ele>
        <time>2020-09-23T08:23:11Z</time>
      </trkpt>
      <trkpt lat="46.5232" lon="5.67905">
        <ele>457.3</ele>
        <time>2020-09-23T08:23:18Z</time>
      </trkpt>
      <trkpt lat="46.52319" lon="5.67912">
        <ele>457.5</ele>
        <time>2020-09-23T08:23:25Z</time>
      </trkpt>
      <trkpt lat="46.52316" lon="5.67918">
        <ele>457.1</ele>
        <time>2020-09-23T08:23:32Z</time>
      </trkpt>
      <trkpt lat="46.52315" lon="5.67925">
        <ele>456.3</ele>
        <time>2020-09-23T08:23:38Z</time>
      </trkpt>
      <trkpt lat="46.52314" lon="5.67932">
        <ele>455.7</ele>
        <time>2020-09-23T08:23:44Z</time>
      </trkpt>
      <trkpt lat="46.52312" lon="5.67939">
        <ele>455.2</ele>
        <time>2020-09-23T08:23:50Z</time>
      </trkpt>
      <trkpt lat="46.52311" lon="5.67946">
        <ele>455.5</ele>
        <time>2020-09-23T08:23:59Z</time>
      </trkpt>
      <trkpt lat="46.52308" lon="5.67952">
        <ele>455.7</ele>
        <time>2020-09-23T08:24:05Z</time>
      </trkpt>
      <trkpt lat="46.52305" lon="5.67956">
        <ele>455.6</ele>
        <time>2020-09-23T08:24:14Z</time>
      </trkpt>
      <trkpt lat="46.52306" lon="5.67964">
        <ele>455.6</ele>
        <time>2020-09-23T08:24:20Z</time>
      </trkpt>
      <trkpt lat="46.52307" lon="5.67971">
        <ele>455.1</ele>
        <time>2020-09-23T08:24:26Z</time>
      </trkpt>
      <trkpt lat="46.52306" lon="5.67978">
        <ele>454.2</ele>
        <time>2020-09-23T08:24:36Z</time>
      </trkpt>
      <trkpt lat="46.52303" lon="5.67984">
        <ele>454.7</ele>
        <time>2020-09-23T08:24:42Z</time>
      </trkpt>
      <trkpt lat="46.523" lon="5.67989">
        <ele>462.4</ele>
        <time>2020-09-23T08:24:46Z</time>
      </trkpt>
      <trkpt lat="46.52299" lon="5.67996">
        <ele>471.8</ele>
        <time>2020-09-23T08:24:51Z</time>
      </trkpt>
      <trkpt lat="46.52297" lon="5.68002">
        <ele>479.1</ele>
        <time>2020-09-23T08:24:58Z</time>
      </trkpt>
      <trkpt lat="46.52296" lon="5.68009">
        <ele>482.5</ele>
        <time>2020-09-23T08:25:05Z</time>
      </trkpt>
      <trkpt lat="46.52296" lon="5.68016">
        <ele>485.2</ele>
        <time>2020-09-23T08:25:13Z</time>
      </trkpt>
      <trkpt lat="46.52294" lon="5.68022">
        <ele>487.2</ele>
        <time>2020-09-23T08:25:21Z</time>
      </trkpt>
      <trkpt lat="46.5229" lon="5.68023">
        <ele>488</ele>
        <time>2020-09-23T08:25:30Z</time>
      </trkpt>
      <trkpt lat="46.52286" lon="5.68028">
        <ele>489.3</ele>
        <time>2020-09-23T08:25:46Z</time>
      </trkpt>
      <trkpt lat="46.52284" lon="5.68034">
        <ele>489.9</ele>
        <time>2020-09-23T08:25:54Z</time>
      </trkpt>
      <trkpt lat="46.52285" lon="5.68042">
        <ele>489.7</ele>
        <time>2020-09-23T08:26:00Z</time>
      </trkpt>
      <trkpt lat="46.52286" lon="5.68048">
        <ele>489.4</ele>
        <time>2020-09-23T08:26:05Z</time>
      </trkpt>
      <trkpt lat="46.52287" lon="5.68055">
        <ele>488.9</ele>
        <time>2020-09-23T08:26:12Z</time>
      </trkpt>
      <trkpt lat="46.52289" lon="5.68062">
        <ele>488.5</ele>
        <time>2020-09-23T08:26:17Z</time>
      </trkpt>
      <trkpt lat="46.5229" lon="5.68068">
        <ele>488</ele>
        <time>2020-09-23T08:26:23Z</time>
      </trkpt>
      <trkpt lat="46.52294" lon="5.68074">
        <ele>487.9</ele>
        <time>2020-09-23T08:26:30Z</time>
      </trkpt>
      <trkpt lat="46.52297" lon="5.68078">
        <ele>487.7</ele>
        <time>2020-09-23T08:26:35Z</time>
      </trkpt>
      <trkpt lat="46.52301" lon="5.68084">
        <ele>487.3</ele>
        <time>2020-09-23T08:26:41Z</time>
      </trkpt>
      <trkpt lat="46.52303" lon="5.6809">
        <ele>486.7</ele>
        <time>2020-09-23T08:26:47Z</time>
      </trkpt>
      <trkpt lat="46.52304" lon="5.68096">
        <ele>486.1</ele>
        <time>2020-09-23T08:26:53Z</time>
      </trkpt>
      <trkpt lat="46.52307" lon="5.68102">
        <ele>485.5</ele>
        <time>2020-09-23T08:26:58Z</time>
      </trkpt>
      <trkpt lat="46.5231" lon="5.68108">
        <ele>485</ele>
        <time>2020-09-23T08:27:02Z</time>
      </trkpt>
      <trkpt lat="46.52313" lon="5.68112">
        <ele>484.6</ele>
        <time>2020-09-23T08:27:06Z</time>
      </trkpt>
      <trkpt lat="46.52316" lon="5.68118">
        <ele>483.9</ele>
        <time>2020-09-23T08:27:12Z</time>
      </trkpt>
      <trkpt lat="46.52317" lon="5.68124">
        <ele>483.3</ele>
        <time>2020-09-23T08:27:17Z</time>
      </trkpt>
      <trkpt lat="46.52319" lon="5.68132">
        <ele>482.7</ele>
        <time>2020-09-23T08:27:21Z</time>
      </trkpt>
      <trkpt lat="46.52321" lon="5.68139">
        <ele>482.1</ele>
        <time>2020-09-23T08:27:26Z</time>
      </trkpt>
      <trkpt lat="46.52325" lon="5.68141">
        <ele>481.4</ele>
        <time>2020-09-23T08:27:32Z</time>
      </trkpt>
      <trkpt lat="46.52328" lon="5.68146">
        <ele>480.9</ele>
        <time>2020-09-23T08:27:38Z</time>
      </trkpt>
      <trkpt lat="46.52331" lon="5.68153">
        <ele>480.8</ele>
        <time>2020-09-23T08:27:43Z</time>
      </trkpt>
      <trkpt lat="46.52332" lon="5.6816">
        <ele>480.9</ele>
        <time>2020-09-23T08:27:47Z</time>
      </trkpt>
      <trkpt lat="46.52333" lon="5.68167">
        <ele>481.4</ele>
        <time>2020-09-23T08:27:52Z</time>
      </trkpt>
      <trkpt lat="46.52335" lon="5.68173">
        <ele>481.8</ele>
        <time>2020-09-23T08:27:57Z</time>
      </trkpt>
      <trkpt lat="46.52336" lon="5.68181">
        <ele>482.4</ele>
        <time>2020-09-23T08:28:02Z</time>
      </trkpt>
      <trkpt lat="46.52339" lon="5.68187">
        <ele>483</ele>
        <time>2020-09-23T08:28:08Z</time>
      </trkpt>
      <trkpt lat="46.52342" lon="5.68192">
        <ele>482.5</ele>
        <time>2020-09-23T08:28:13Z</time>
      </trkpt>
      <trkpt lat="46.52346" lon="5.68197">
        <ele>479.8</ele>
        <time>2020-09-23T08:28:20Z</time>
      </trkpt>
      <trkpt lat="46.52348" lon="5.68205">
        <ele>478.9</ele>
        <time>2020-09-23T08:28:26Z</time>
      </trkpt>
      <trkpt lat="46.52349" lon="5.68212">
        <ele>479.6</ele>
        <time>2020-09-23T08:28:30Z</time>
      </trkpt>
      <trkpt lat="46.52352" lon="5.68218">
        <ele>480.5</ele>
        <time>2020-09-23T08:28:36Z</time>
      </trkpt>
      <trkpt lat="46.52355" lon="5.68224">
        <ele>481</ele>
        <time>2020-09-23T08:28:41Z</time>
      </trkpt>
      <trkpt lat="46.52358" lon="5.6823">
        <ele>481.7</ele>
        <time>2020-09-23T08:28:44Z</time>
      </trkpt>
      <trkpt lat="46.5236" lon="5.68237">
        <ele>482.7</ele>
        <time>2020-09-23T08:28:48Z</time>
      </trkpt>
      <trkpt lat="46.5236" lon="5.68244">
        <ele>483.8</ele>
        <time>2020-09-23T08:28:51Z</time>
      </trkpt>
      <trkpt lat="46.52361" lon="5.68251">
        <ele>485.5</ele>
        <time>2020-09-23T08:28:56Z</time>
      </trkpt>
      <trkpt lat="46.52364" lon="5.68256">
        <ele>487.1</ele>
        <time>2020-09-23T08:29:10Z</time>
      </trkpt>
      <trkpt lat="46.52366" lon="5.68262">
        <ele>487</ele>
        <time>2020-09-23T08:29:18Z</time>
      </trkpt>
      <trkpt lat="46.52368" lon="5.68269">
        <ele>486.7</ele>
        <time>2020-09-23T08:29:25Z</time>
      </trkpt>
      <trkpt lat="46.52368" lon="5.68276">
        <ele>486.6</ele>
        <time>2020-09-23T08:29:31Z</time>
      </trkpt>
      <trkpt lat="46.52369" lon="5.68283">
        <ele>486.9</ele>
        <time>2020-09-23T08:29:35Z</time>
      </trkpt>
      <trkpt lat="46.52371" lon="5.6829">
        <ele>487.7</ele>
        <time>2020-09-23T08:29:39Z</time>
      </trkpt>
      <trkpt lat="46.52373" lon="5.68296">
        <ele>488.3</ele>
        <time>2020-09-23T08:29:43Z</time>
      </trkpt>
      <trkpt lat="46.52374" lon="5.68303">
        <ele>488.9</ele>
        <time>2020-09-23T08:29:49Z</time>
      </trkpt>
      <trkpt lat="46.52377" lon="5.6831">
        <ele>489.2</ele>
        <time>2020-09-23T08:29:53Z</time>
      </trkpt>
      <trkpt lat="46.52378" lon="5.68316">
        <ele>489.6</ele>
        <time>2020-09-23T08:29:58Z</time>
      </trkpt>
      <trkpt lat="46.52375" lon="5.68325">
        <ele>491.2</ele>
        <time>2020-09-23T08:30:01Z</time>
      </trkpt>
      <trkpt lat="46.52374" lon="5.68332">
        <ele>492.4</ele>
        <time>2020-09-23T08:30:06Z</time>
      </trkpt>
      <trkpt lat="46.52374" lon="5.68338">
        <ele>493.3</ele>
        <time>2020-09-23T08:30:12Z</time>
      </trkpt>
      <trkpt lat="46.52373" lon="5.68346">
        <ele>493.7</ele>
        <time>2020-09-23T08:30:18Z</time>
      </trkpt>
      <trkpt lat="46.52374" lon="5.68353">
        <ele>493.5</ele>
        <time>2020-09-23T08:30:24Z</time>
      </trkpt>
      <trkpt lat="46.52373" lon="5.6836">
        <ele>492.6</ele>
        <time>2020-09-23T08:30:30Z</time>
      </trkpt>
      <trkpt lat="46.52372" lon="5.68367">
        <ele>492.5</ele>
        <time>2020-09-23T08:30:34Z</time>
      </trkpt>
      <trkpt lat="46.52372" lon="5.68375">
        <ele>492.4</ele>
        <time>2020-09-23T08:30:39Z</time>
      </trkpt>
      <trkpt lat="46.52371" lon="5.68381">
        <ele>492.1</ele>
        <time>2020-09-23T08:30:45Z</time>
      </trkpt>
      <trkpt lat="46.52371" lon="5.68389">
        <ele>491.6</ele>
        <time>2020-09-23T08:30:50Z</time>
      </trkpt>
      <trkpt lat="46.52372" lon="5.68396">
        <ele>491.1</ele>
        <time>2020-09-23T08:30:54Z</time>
      </trkpt>
      <trkpt lat="46.52374" lon="5.68402">
        <ele>490.7</ele>
        <time>2020-09-23T08:30:59Z</time>
      </trkpt>
      <trkpt lat="46.52376" lon="5.68409">
        <ele>492.1</ele>
        <time>2020-09-23T08:31:02Z</time>
      </trkpt>
      <trkpt lat="46.52378" lon="5.68416">
        <ele>493.7</ele>
        <time>2020-09-23T08:31:06Z</time>
      </trkpt>
      <trkpt lat="46.52379" lon="5.68423">
        <ele>495</ele>
        <time>2020-09-23T08:31:12Z</time>
      </trkpt>
      <trkpt lat="46.52377" lon="5.6843">
        <ele>495.3</ele>
        <time>2020-09-23T08:31:17Z</time>
      </trkpt>
      <trkpt lat="46.52374" lon="5.68435">
        <ele>495.4</ele>
        <time>2020-09-23T08:31:21Z</time>
      </trkpt>
      <trkpt lat="46.52371" lon="5.68441">
        <ele>495</ele>
        <time>2020-09-23T08:31:25Z</time>
      </trkpt>
      <trkpt lat="46.52371" lon="5.68448">
        <ele>494.2</ele>
        <time>2020-09-23T08:31:31Z</time>
      </trkpt>
      <trkpt lat="46.52371" lon="5.68455">
        <ele>493.7</ele>
        <time>2020-09-23T08:31:36Z</time>
      </trkpt>
      <trkpt lat="46.52373" lon="5.68462">
        <ele>493.2</ele>
        <time>2020-09-23T08:31:42Z</time>
      </trkpt>
      <trkpt lat="46.52373" lon="5.68469">
        <ele>492.9</ele>
        <time>2020-09-23T08:31:48Z</time>
      </trkpt>
      <trkpt lat="46.52373" lon="5.68476">
        <ele>492.8</ele>
        <time>2020-09-23T08:31:52Z</time>
      </trkpt>
      <trkpt lat="46.52373" lon="5.68483">
        <ele>492.5</ele>
        <time>2020-09-23T08:31:56Z</time>
      </trkpt>
      <trkpt lat="46.52371" lon="5.68489">
        <ele>491.9</ele>
        <time>2020-09-23T08:32:08Z</time>
      </trkpt>
      <trkpt lat="46.5237" lon="5.68496">
        <ele>492.7</ele>
        <time>2020-09-23T08:32:13Z</time>
      </trkpt>
      <trkpt lat="46.52371" lon="5.68503">
        <ele>493.9</ele>
        <time>2020-09-23T08:32:17Z</time>
      </trkpt>
      <trkpt lat="46.52372" lon="5.68509">
        <ele>495.1</ele>
        <time>2020-09-23T08:32:21Z</time>
      </trkpt>
      <trkpt lat="46.52372" lon="5.68517">
        <ele>496.2</ele>
        <time>2020-09-23T08:32:25Z</time>
      </trkpt>
      <trkpt lat="46.52372" lon="5.68525">
        <ele>497.1</ele>
        <time>2020-09-23T08:32:29Z</time>
      </trkpt>
      <trkpt lat="46.5237" lon="5.68532">
        <ele>498.1</ele>
        <time>2020-09-23T08:32:34Z</time>
      </trkpt>
      <trkpt lat="46.52368" lon="5.68538">
        <ele>498.8</ele>
        <time>2020-09-23T08:32:39Z</time>
      </trkpt>
      <trkpt lat="46.52367" lon="5.68546">
        <ele>499.3</ele>
        <time>2020-09-23T08:32:45Z</time>
      </trkpt>
      <trkpt lat="46.52366" lon="5.68552">
        <ele>499.4</ele>
        <time>2020-09-23T08:32:51Z</time>
      </trkpt>
      <trkpt lat="46.52364" lon="5.68559">
        <ele>499.2</ele>
        <time>2020-09-23T08:32:58Z</time>
      </trkpt>
      <trkpt lat="46.52365" lon="5.68565">
        <ele>498.5</ele>
        <time>2020-09-23T08:33:03Z</time>
      </trkpt>
      <trkpt lat="46.52364" lon="5.68572">
        <ele>498.2</ele>
        <time>2020-09-23T08:33:07Z</time>
      </trkpt>
      <trkpt lat="46.52364" lon="5.68579">
        <ele>497.4</ele>
        <time>2020-09-23T08:33:11Z</time>
      </trkpt>
      <trkpt lat="46.52362" lon="5.68587">
        <ele>496.6</ele>
        <time>2020-09-23T08:33:16Z</time>
      </trkpt>
      <trkpt lat="46.52362" lon="5.68595">
        <ele>495.5</ele>
        <time>2020-09-23T08:33:21Z</time>
      </trkpt>
      <trkpt lat="46.52361" lon="5.68602">
        <ele>494.5</ele>
        <time>2020-09-23T08:33:26Z</time>
      </trkpt>
      <trkpt lat="46.52361" lon="5.68609">
        <ele>493.1</ele>
        <time>2020-09-23T08:33:31Z</time>
      </trkpt>
      <trkpt lat="46.52362" lon="5.68616">
        <ele>491.4</ele>
        <time>2020-09-23T08:33:37Z</time>
      </trkpt>
      <trkpt lat="46.52361" lon="5.68624">
        <ele>489.8</ele>
        <time>2020-09-23T08:33:43Z</time>
      </trkpt>
      <trkpt lat="46.5236" lon="5.68631">
        <ele>488.3</ele>
        <time>2020-09-23T08:33:49Z</time>
      </trkpt>
      <trkpt lat="46.5236" lon="5.68638">
        <ele>486.8</ele>
        <time>2020-09-23T08:33:57Z</time>
      </trkpt>
      <trkpt lat="46.52359" lon="5.68645">
        <ele>486</ele>
        <time>2020-09-23T08:34:03Z</time>
      </trkpt>
      <trkpt lat="46.52358" lon="5.68652">
        <ele>485.6</ele>
        <time>2020-09-23T08:34:08Z</time>
      </trkpt>
      <trkpt lat="46.52356" lon="5.68659">
        <ele>487.1</ele>
        <time>2020-09-23T08:34:12Z</time>
      </trkpt>
      <trkpt lat="46.52354" lon="5.68665">
        <ele>488.8</ele>
        <time>2020-09-23T08:34:16Z</time>
      </trkpt>
      <trkpt lat="46.52351" lon="5.68672">
        <ele>489.9</ele>
        <time>2020-09-23T08:34:22Z</time>
      </trkpt>
      <trkpt lat="46.52351" lon="5.68681">
        <ele>492.3</ele>
        <time>2020-09-23T08:34:27Z</time>
      </trkpt>
      <trkpt lat="46.52351" lon="5.68688">
        <ele>494.5</ele>
        <time>2020-09-23T08:34:31Z</time>
      </trkpt>
      <trkpt lat="46.52349" lon="5.68695">
        <ele>496.5</ele>
        <time>2020-09-23T08:34:37Z</time>
      </trkpt>
      <trkpt lat="46.52347" lon="5.68701">
        <ele>497</ele>
        <time>2020-09-23T08:34:45Z</time>
      </trkpt>
      <trkpt lat="46.52349" lon="5.68708">
        <ele>497</ele>
        <time>2020-09-23T08:34:51Z</time>
      </trkpt>
      <trkpt lat="46.52348" lon="5.68715">
        <ele>497.4</ele>
        <time>2020-09-23T08:34:56Z</time>
      </trkpt>
      <trkpt lat="46.52346" lon="5.68722">
        <ele>497.6</ele>
        <time>2020-09-23T08:35:01Z</time>
      </trkpt>
      <trkpt lat="46.52347" lon="5.68729">
        <ele>497.8</ele>
        <time>2020-09-23T08:35:05Z</time>
      </trkpt>
      <trkpt lat="46.52347" lon="5.68737">
        <ele>497.8</ele>
        <time>2020-09-23T08:35:10Z</time>
      </trkpt>
      <trkpt lat="46.52348" lon="5.68743">
        <ele>497.5</ele>
        <time>2020-09-23T08:35:15Z</time>
      </trkpt>
      <trkpt lat="46.52349" lon="5.68749">
        <ele>497.3</ele>
        <time>2020-09-23T08:35:20Z</time>
      </trkpt>
      <trkpt lat="46.52354" lon="5.68757">
        <ele>498.3</ele>
        <time>2020-09-23T08:35:25Z</time>
      </trkpt>
      <trkpt lat="46.52357" lon="5.68762">
        <ele>499</ele>
        <time>2020-09-23T08:35:28Z</time>
      </trkpt>
      <trkpt lat="46.52356" lon="5.68769">
        <ele>500.1</ele>
        <time>2020-09-23T08:35:34Z</time>
      </trkpt>
      <trkpt lat="46.52356" lon="5.68776">
        <ele>500.9</ele>
        <time>2020-09-23T08:35:41Z</time>
      </trkpt>
      <trkpt lat="46.52357" lon="5.68783">
        <ele>501.7</ele>
        <time>2020-09-23T08:35:48Z</time>
      </trkpt>
      <trkpt lat="46.52358" lon="5.68791">
        <ele>501.8</ele>
        <time>2020-09-23T08:35:56Z</time>
      </trkpt>
      <trkpt lat="46.52358" lon="5.68797">
        <ele>501.9</ele>
        <time>2020-09-23T08:36:02Z</time>
      </trkpt>
      <trkpt lat="46.5236" lon="5.68803">
        <ele>501.3</ele>
        <time>2020-09-23T08:36:09Z</time>
      </trkpt>
      <trkpt lat="46.52362" lon="5.6881">
        <ele>500.7</ele>
        <time>2020-09-23T08:36:15Z</time>
      </trkpt>
      <trkpt lat="46.52366" lon="5.68814">
        <ele>500.5</ele>
        <time>2020-09-23T08:36:19Z</time>
      </trkpt>
      <trkpt lat="46.52369" lon="5.68822">
        <ele>502.9</ele>
        <time>2020-09-23T08:36:22Z</time>
      </trkpt>
      <trkpt lat="46.52372" lon="5.68828">
        <ele>504.9</ele>
        <time>2020-09-23T08:36:25Z</time>
      </trkpt>
      <trkpt lat="46.52376" lon="5.68832">
        <ele>508</ele>
        <time>2020-09-23T08:36:31Z</time>
      </trkpt>
      <trkpt lat="46.5238" lon="5.68835">
        <ele>510.7</ele>
        <time>2020-09-23T08:36:40Z</time>
      </trkpt>
      <trkpt lat="46.52385" lon="5.68837">
        <ele>511.6</ele>
        <time>2020-09-23T08:36:46Z</time>
      </trkpt>
      <trkpt lat="46.5239" lon="5.68838">
        <ele>511.9</ele>
        <time>2020-09-23T08:36:51Z</time>
      </trkpt>
      <trkpt lat="46.52395" lon="5.6884">
        <ele>512.2</ele>
        <time>2020-09-23T08:36:56Z</time>
      </trkpt>
      <trkpt lat="46.524" lon="5.68841">
        <ele>512.5</ele>
        <time>2020-09-23T08:37:01Z</time>
      </trkpt>
      <trkpt lat="46.52404" lon="5.68841">
        <ele>512.8</ele>
        <time>2020-09-23T08:37:06Z</time>
      </trkpt>
      <trkpt lat="46.52413" lon="5.6884">
        <ele>514.1</ele>
        <time>2020-09-23T08:37:11Z</time>
      </trkpt>
      <trkpt lat="46.52419" lon="5.68838">
        <ele>515.3</ele>
        <time>2020-09-23T08:37:14Z</time>
      </trkpt>
      <trkpt lat="46.52423" lon="5.68836">
        <ele>517.8</ele>
        <time>2020-09-23T08:37:21Z</time>
      </trkpt>
      <trkpt lat="46.52428" lon="5.68832">
        <ele>519.8</ele>
        <time>2020-09-23T08:37:34Z</time>
      </trkpt>
      <trkpt lat="46.52432" lon="5.68831">
        <ele>519.5</ele>
        <time>2020-09-23T08:37:40Z</time>
      </trkpt>
      <trkpt lat="46.52438" lon="5.6883">
        <ele>517.8</ele>
        <time>2020-09-23T08:37:48Z</time>
      </trkpt>
      <trkpt lat="46.52443" lon="5.68828">
        <ele>516.8</ele>
        <time>2020-09-23T08:37:52Z</time>
      </trkpt>
      <trkpt lat="46.52447" lon="5.68826">
        <ele>515.9</ele>
        <time>2020-09-23T08:37:56Z</time>
      </trkpt>
      <trkpt lat="46.52452" lon="5.68823">
        <ele>515.3</ele>
        <time>2020-09-23T08:38:00Z</time>
      </trkpt>
      <trkpt lat="46.52455" lon="5.68818">
        <ele>515</ele>
        <time>2020-09-23T08:38:04Z</time>
      </trkpt>
      <trkpt lat="46.52459" lon="5.68813">
        <ele>513.7</ele>
        <time>2020-09-23T08:38:09Z</time>
      </trkpt>
      <trkpt lat="46.52462" lon="5.68808">
        <ele>511.3</ele>
        <time>2020-09-23T08:38:17Z</time>
      </trkpt>
      <trkpt lat="46.52461" lon="5.68802">
        <ele>515.8</ele>
        <time>2020-09-23T08:39:27Z</time>
      </trkpt>
      <trkpt lat="46.5246" lon="5.68795">
        <ele>512.6</ele>
        <time>2020-09-23T08:39:38Z</time>
      </trkpt>
      <trkpt lat="46.52462" lon="5.68789">
        <ele>511.6</ele>
        <time>2020-09-23T08:39:46Z</time>
      </trkpt>
      <trkpt lat="46.52463" lon="5.68783">
        <ele>511.8</ele>
        <time>2020-09-23T08:39:56Z</time>
      </trkpt>
      <trkpt lat="46.52464" lon="5.68775">
        <ele>512.1</ele>
        <time>2020-09-23T08:40:03Z</time>
      </trkpt>
      <trkpt lat="46.52465" lon="5.68768">
        <ele>517.1</ele>
        <time>2020-09-23T08:40:08Z</time>
      </trkpt>
      <trkpt lat="46.52468" lon="5.68762">
        <ele>525.2</ele>
        <time>2020-09-23T08:40:15Z</time>
      </trkpt>
      <trkpt lat="46.52473" lon="5.68758">
        <ele>527.9</ele>
        <time>2020-09-23T08:40:22Z</time>
      </trkpt>
      <trkpt lat="46.52472" lon="5.68751">
        <ele>528.5</ele>
        <time>2020-09-23T08:40:28Z</time>
      </trkpt>
      <trkpt lat="46.5247" lon="5.68745">
        <ele>528.2</ele>
        <time>2020-09-23T08:40:34Z</time>
      </trkpt>
      <trkpt lat="46.52468" lon="5.68739">
        <ele>528</ele>
        <time>2020-09-23T08:40:39Z</time>
      </trkpt>
      <trkpt lat="46.52466" lon="5.68732">
        <ele>527.8</ele>
        <time>2020-09-23T08:40:44Z</time>
      </trkpt>
      <trkpt lat="46.52463" lon="5.68727">
        <ele>527.6</ele>
        <time>2020-09-23T08:40:51Z</time>
      </trkpt>
      <trkpt lat="46.5246" lon="5.68721">
        <ele>527.6</ele>
        <time>2020-09-23T08:40:56Z</time>
      </trkpt>
      <trkpt lat="46.52459" lon="5.68715">
        <ele>527.5</ele>
        <time>2020-09-23T08:41:00Z</time>
      </trkpt>
      <trkpt lat="46.52456" lon="5.68709">
        <ele>527.5</ele>
        <time>2020-09-23T08:41:04Z</time>
      </trkpt>
      <trkpt lat="46.52452" lon="5.68705">
        <ele>527.6</ele>
        <time>2020-09-23T08:41:09Z</time>
      </trkpt>
      <trkpt lat="46.52451" lon="5.68697">
        <ele>527.6</ele>
        <time>2020-09-23T08:41:15Z</time>
      </trkpt>
      <trkpt lat="46.5245" lon="5.6869">
        <ele>526.8</ele>
        <time>2020-09-23T08:41:19Z</time>
      </trkpt>
      <trkpt lat="46.52451" lon="5.68683">
        <ele>525.5</ele>
        <time>2020-09-23T08:41:24Z</time>
      </trkpt>
      <trkpt lat="46.52451" lon="5.68676">
        <ele>524.5</ele>
        <time>2020-09-23T08:41:29Z</time>
      </trkpt>
      <trkpt lat="46.52449" lon="5.6867">
        <ele>524</ele>
        <time>2020-09-23T08:41:33Z</time>
      </trkpt>
      <trkpt lat="46.52447" lon="5.68663">
        <ele>524</ele>
        <time>2020-09-23T08:41:38Z</time>
      </trkpt>
      <trkpt lat="46.52447" lon="5.68656">
        <ele>524.2</ele>
        <time>2020-09-23T08:41:43Z</time>
      </trkpt>
      <trkpt lat="46.52447" lon="5.68649">
        <ele>522.9</ele>
        <time>2020-09-23T08:41:49Z</time>
      </trkpt>
      <trkpt lat="46.52447" lon="5.68642">
        <ele>522.5</ele>
        <time>2020-09-23T08:41:54Z</time>
      </trkpt>
      <trkpt lat="46.5245" lon="5.68635">
        <ele>523.1</ele>
        <time>2020-09-23T08:42:01Z</time>
      </trkpt>
      <trkpt lat="46.52451" lon="5.68628">
        <ele>523.2</ele>
        <time>2020-09-23T08:42:06Z</time>
      </trkpt>
      <trkpt lat="46.5245" lon="5.68621">
        <ele>523.3</ele>
        <time>2020-09-23T08:42:10Z</time>
      </trkpt>
      <trkpt lat="46.52449" lon="5.68615">
        <ele>523.5</ele>
        <time>2020-09-23T08:42:14Z</time>
      </trkpt>
      <trkpt lat="46.52447" lon="5.68608">
        <ele>524.2</ele>
        <time>2020-09-23T08:42:18Z</time>
      </trkpt>
      <trkpt lat="46.52447" lon="5.686">
        <ele>525.9</ele>
        <time>2020-09-23T08:42:22Z</time>
      </trkpt>
      <trkpt lat="46.52447" lon="5.68593">
        <ele>528</ele>
        <time>2020-09-23T08:42:27Z</time>
      </trkpt>
      <trkpt lat="46.52445" lon="5.68587">
        <ele>529.2</ele>
        <time>2020-09-23T08:42:31Z</time>
      </trkpt>
      <trkpt lat="46.52442" lon="5.68581">
        <ele>529.9</ele>
        <time>2020-09-23T08:42:35Z</time>
      </trkpt>
      <trkpt lat="46.5244" lon="5.68574">
        <ele>530.7</ele>
        <time>2020-09-23T08:42:40Z</time>
      </trkpt>
      <trkpt lat="46.52439" lon="5.68567">
        <ele>531.8</ele>
        <time>2020-09-23T08:42:46Z</time>
      </trkpt>
      <trkpt lat="46.52439" lon="5.68561">
        <ele>532.9</ele>
        <time>2020-09-23T08:42:52Z</time>
      </trkpt>
      <trkpt lat="46.52438" lon="5.68554">
        <ele>533.3</ele>
        <time>2020-09-23T08:42:57Z</time>
      </trkpt>
      <trkpt lat="46.52437" lon="5.68547">
        <ele>533.6</ele>
        <time>2020-09-23T08:43:03Z</time>
      </trkpt>
      <trkpt lat="46.52437" lon="5.6854">
        <ele>532.7</ele>
        <time>2020-09-23T08:43:10Z</time>
      </trkpt>
      <trkpt lat="46.52436" lon="5.68534">
        <ele>531.2</ele>
        <time>2020-09-23T08:43:18Z</time>
      </trkpt>
      <trkpt lat="46.52436" lon="5.68527">
        <ele>530.1</ele>
        <time>2020-09-23T08:43:26Z</time>
      </trkpt>
      <trkpt lat="46.52434" lon="5.68521">
        <ele>528.9</ele>
        <time>2020-09-23T08:43:35Z</time>
      </trkpt>
      <trkpt lat="46.52431" lon="5.68515">
        <ele>527.5</ele>
        <time>2020-09-23T08:43:43Z</time>
      </trkpt>
      <trkpt lat="46.52428" lon="5.6851">
        <ele>527.3</ele>
        <time>2020-09-23T08:43:49Z</time>
      </trkpt>
      <trkpt lat="46.52424" lon="5.68505">
        <ele>527.2</ele>
        <time>2020-09-23T08:43:55Z</time>
      </trkpt>
      <trkpt lat="46.52423" lon="5.68498">
        <ele>527.1</ele>
        <time>2020-09-23T08:44:01Z</time>
      </trkpt>
      <trkpt lat="46.52423" lon="5.68491">
        <ele>527.4</ele>
        <time>2020-09-23T08:44:07Z</time>
      </trkpt>
      <trkpt lat="46.52423" lon="5.68484">
        <ele>528</ele>
        <time>2020-09-23T08:44:14Z</time>
      </trkpt>
      <trkpt lat="46.52422" lon="5.68477">
        <ele>529.3</ele>
        <time>2020-09-23T08:45:18Z</time>
      </trkpt>
      <trkpt lat="46.52423" lon="5.6847">
        <ele>529.9</ele>
        <time>2020-09-23T08:45:24Z</time>
      </trkpt>
      <trkpt lat="46.52423" lon="5.68462">
        <ele>530.6</ele>
        <time>2020-09-23T08:45:30Z</time>
      </trkpt>
      <trkpt lat="46.52424" lon="5.68455">
        <ele>530.6</ele>
        <time>2020-09-23T08:45:36Z</time>
      </trkpt>
      <trkpt lat="46.52424" lon="5.68448">
        <ele>530.9</ele>
        <time>2020-09-23T08:45:41Z</time>
      </trkpt>
      <trkpt lat="46.52424" lon="5.68442">
        <ele>531.2</ele>
        <time>2020-09-23T08:45:45Z</time>
      </trkpt>
      <trkpt lat="46.52424" lon="5.68434">
        <ele>532.2</ele>
        <time>2020-09-23T08:45:50Z</time>
      </trkpt>
      <trkpt lat="46.52424" lon="5.68427">
        <ele>533.1</ele>
        <time>2020-09-23T08:45:55Z</time>
      </trkpt>
      <trkpt lat="46.52423" lon="5.6842">
        <ele>533.5</ele>
        <time>2020-09-23T08:46:00Z</time>
      </trkpt>
      <trkpt lat="46.52423" lon="5.68413">
        <ele>533.7</ele>
        <time>2020-09-23T08:46:05Z</time>
      </trkpt>
      <trkpt lat="46.52422" lon="5.68406">
        <ele>533.5</ele>
        <time>2020-09-23T08:46:10Z</time>
      </trkpt>
      <trkpt lat="46.52422" lon="5.68399">
        <ele>533.4</ele>
        <time>2020-09-23T08:46:15Z</time>
      </trkpt>
      <trkpt lat="46.52424" lon="5.68391">
        <ele>532.6</ele>
        <time>2020-09-23T08:46:20Z</time>
      </trkpt>
      <trkpt lat="46.52425" lon="5.68384">
        <ele>531.5</ele>
        <time>2020-09-23T08:46:26Z</time>
      </trkpt>
      <trkpt lat="46.52426" lon="5.68378">
        <ele>530.9</ele>
        <time>2020-09-23T08:46:31Z</time>
      </trkpt>
      <trkpt lat="46.52428" lon="5.68371">
        <ele>530.1</ele>
        <time>2020-09-23T08:46:36Z</time>
      </trkpt>
      <trkpt lat="46.5243" lon="5.68366">
        <ele>529.2</ele>
        <time>2020-09-23T08:46:41Z</time>
      </trkpt>
      <trkpt lat="46.52433" lon="5.6836">
        <ele>528.3</ele>
        <time>2020-09-23T08:46:47Z</time>
      </trkpt>
      <trkpt lat="46.52437" lon="5.68355">
        <ele>527.4</ele>
        <time>2020-09-23T08:46:53Z</time>
      </trkpt>
      <trkpt lat="46.52439" lon="5.68349">
        <ele>527.1</ele>
        <time>2020-09-23T08:46:58Z</time>
      </trkpt>
      <trkpt lat="46.52439" lon="5.68341">
        <ele>526.9</ele>
        <time>2020-09-23T08:47:04Z</time>
      </trkpt>
      <trkpt lat="46.52438" lon="5.68334">
        <ele>526.7</ele>
        <time>2020-09-23T08:47:09Z</time>
      </trkpt>
      <trkpt lat="46.52437" lon="5.68327">
        <ele>526.6</ele>
        <time>2020-09-23T08:47:14Z</time>
      </trkpt>
      <trkpt lat="46.52436" lon="5.68321">
        <ele>526.4</ele>
        <time>2020-09-23T08:47:19Z</time>
      </trkpt>
      <trkpt lat="46.52434" lon="5.68312">
        <ele>526</ele>
        <time>2020-09-23T08:47:24Z</time>
      </trkpt>
      <trkpt lat="46.52433" lon="5.68305">
        <ele>525.4</ele>
        <time>2020-09-23T08:47:28Z</time>
      </trkpt>
      <trkpt lat="46.52434" lon="5.68298">
        <ele>524.9</ele>
        <time>2020-09-23T08:47:33Z</time>
      </trkpt>
      <trkpt lat="46.52434" lon="5.68291">
        <ele>524.4</ele>
        <time>2020-09-23T08:47:40Z</time>
      </trkpt>
      <trkpt lat="46.5243" lon="5.68287">
        <ele>526.2</ele>
        <time>2020-09-23T08:48:59Z</time>
      </trkpt>
      <trkpt lat="46.5243" lon="5.6828">
        <ele>526.7</ele>
        <time>2020-09-23T08:49:05Z</time>
      </trkpt>
      <trkpt lat="46.52428" lon="5.68273">
        <ele>527</ele>
        <time>2020-09-23T08:49:10Z</time>
      </trkpt>
      <trkpt lat="46.52426" lon="5.68266">
        <ele>527.1</ele>
        <time>2020-09-23T08:49:16Z</time>
      </trkpt>
      <trkpt lat="46.52424" lon="5.6826">
        <ele>526.9</ele>
        <time>2020-09-23T08:49:23Z</time>
      </trkpt>
      <trkpt lat="46.52421" lon="5.68253">
        <ele>526.5</ele>
        <time>2020-09-23T08:49:28Z</time>
      </trkpt>
      <trkpt lat="46.52419" lon="5.68247">
        <ele>526.1</ele>
        <time>2020-09-23T08:49:32Z</time>
      </trkpt>
      <trkpt lat="46.52415" lon="5.68241">
        <ele>526</ele>
        <time>2020-09-23T08:49:37Z</time>
      </trkpt>
      <trkpt lat="46.52413" lon="5.68235">
        <ele>526.2</ele>
        <time>2020-09-23T08:49:42Z</time>
      </trkpt>
      <trkpt lat="46.52413" lon="5.68227">
        <ele>526.9</ele>
        <time>2020-09-23T08:49:47Z</time>
      </trkpt>
      <trkpt lat="46.52413" lon="5.6822">
        <ele>527.4</ele>
        <time>2020-09-23T08:49:52Z</time>
      </trkpt>
      <trkpt lat="46.52413" lon="5.68213">
        <ele>528</ele>
        <time>2020-09-23T08:49:58Z</time>
      </trkpt>
      <trkpt lat="46.52414" lon="5.68205">
        <ele>528.2</ele>
        <time>2020-09-23T08:50:04Z</time>
      </trkpt>
      <trkpt lat="46.52415" lon="5.68198">
        <ele>528.3</ele>
        <time>2020-09-23T08:50:10Z</time>
      </trkpt>
      <trkpt lat="46.52415" lon="5.68191">
        <ele>528.1</ele>
        <time>2020-09-23T08:50:15Z</time>
      </trkpt>
      <trkpt lat="46.52413" lon="5.68185">
        <ele>527.6</ele>
        <time>2020-09-23T08:50:19Z</time>
      </trkpt>
      <trkpt lat="46.52412" lon="5.68178">
        <ele>526.9</ele>
        <time>2020-09-23T08:50:23Z</time>
      </trkpt>
      <trkpt lat="46.5241" lon="5.68171">
        <ele>526.3</ele>
        <time>2020-09-23T08:50:27Z</time>
      </trkpt>
      <trkpt lat="46.5241" lon="5.68164">
        <ele>525.6</ele>
        <time>2020-09-23T08:50:32Z</time>
      </trkpt>
      <trkpt lat="46.52409" lon="5.68157">
        <ele>525.5</ele>
        <time>2020-09-23T08:50:38Z</time>
      </trkpt>
      <trkpt lat="46.52406" lon="5.6815">
        <ele>525.5</ele>
        <time>2020-09-23T08:50:43Z</time>
      </trkpt>
      <trkpt lat="46.52403" lon="5.68144">
        <ele>525.2</ele>
        <time>2020-09-23T08:50:48Z</time>
      </trkpt>
      <trkpt lat="46.52401" lon="5.68137">
        <ele>524.5</ele>
        <time>2020-09-23T08:50:54Z</time>
      </trkpt>
      <trkpt lat="46.52398" lon="5.68132">
        <ele>524</ele>
        <time>2020-09-23T08:50:59Z</time>
      </trkpt>
      <trkpt lat="46.52397" lon="5.68124">
        <ele>522.9</ele>
        <time>2020-09-23T08:51:06Z</time>
      </trkpt>
      <trkpt lat="46.52399" lon="5.68117">
        <ele>522</ele>
        <time>2020-09-23T08:51:11Z</time>
      </trkpt>
      <trkpt lat="46.52401" lon="5.68109">
        <ele>521.1</ele>
        <time>2020-09-23T08:51:16Z</time>
      </trkpt>
      <trkpt lat="46.52403" lon="5.68103">
        <ele>520.3</ele>
        <time>2020-09-23T08:51:21Z</time>
      </trkpt>
      <trkpt lat="46.52406" lon="5.68097">
        <ele>519.5</ele>
        <time>2020-09-23T08:51:26Z</time>
      </trkpt>
      <trkpt lat="46.52408" lon="5.6809">
        <ele>518.7</ele>
        <time>2020-09-23T08:51:31Z</time>
      </trkpt>
      <trkpt lat="46.52409" lon="5.68083">
        <ele>518.1</ele>
        <time>2020-09-23T08:51:35Z</time>
      </trkpt>
      <trkpt lat="46.5241" lon="5.68076">
        <ele>517.4</ele>
        <time>2020-09-23T08:51:39Z</time>
      </trkpt>
      <trkpt lat="46.52411" lon="5.68069">
        <ele>516.7</ele>
        <time>2020-09-23T08:51:44Z</time>
      </trkpt>
      <trkpt lat="46.52413" lon="5.68061">
        <ele>516</ele>
        <time>2020-09-23T08:51:49Z</time>
      </trkpt>
      <trkpt lat="46.52413" lon="5.68054">
        <ele>515.8</ele>
        <time>2020-09-23T08:51:53Z</time>
      </trkpt>
      <trkpt lat="46.52414" lon="5.68048">
        <ele>515.9</ele>
        <time>2020-09-23T08:51:58Z</time>
      </trkpt>
      <trkpt lat="46.52415" lon="5.6804">
        <ele>516.2</ele>
        <time>2020-09-23T08:52:03Z</time>
      </trkpt>
      <trkpt lat="46.52419" lon="5.68036">
        <ele>516.5</ele>
        <time>2020-09-23T08:52:09Z</time>
      </trkpt>
      <trkpt lat="46.52423" lon="5.68032">
        <ele>515.6</ele>
        <time>2020-09-23T08:52:16Z</time>
      </trkpt>
      <trkpt lat="46.52427" lon="5.68028">
        <ele>514.8</ele>
        <time>2020-09-23T08:52:21Z</time>
      </trkpt>
      <trkpt lat="46.52433" lon="5.68026">
        <ele>514.5</ele>
        <time>2020-09-23T08:52:26Z</time>
      </trkpt>
      <trkpt lat="46.52438" lon="5.68024">
        <ele>514.9</ele>
        <time>2020-09-23T08:52:30Z</time>
      </trkpt>
      <trkpt lat="46.52442" lon="5.68021">
        <ele>514.9</ele>
        <time>2020-09-23T08:52:35Z</time>
      </trkpt>
      <trkpt lat="46.52446" lon="5.68017">
        <ele>515</ele>
        <time>2020-09-23T08:52:40Z</time>
      </trkpt>
      <trkpt lat="46.5245" lon="5.68012">
        <ele>515.2</ele>
        <time>2020-09-23T08:52:46Z</time>
      </trkpt>
      <trkpt lat="46.52454" lon="5.68007">
        <ele>515.7</ele>
        <time>2020-09-23T08:52:52Z</time>
      </trkpt>
      <trkpt lat="46.52457" lon="5.68002">
        <ele>516.4</ele>
        <time>2020-09-23T08:52:58Z</time>
      </trkpt>
      <trkpt lat="46.52462" lon="5.67998">
        <ele>516.6</ele>
        <time>2020-09-23T08:53:02Z</time>
      </trkpt>
      <trkpt lat="46.52466" lon="5.67996">
        <ele>516.5</ele>
        <time>2020-09-23T08:53:07Z</time>
      </trkpt>
      <trkpt lat="46.52471" lon="5.67993">
        <ele>516.5</ele>
        <time>2020-09-23T08:53:13Z</time>
      </trkpt>
      <trkpt lat="46.52474" lon="5.67989">
        <ele>516.5</ele>
        <time>2020-09-23T08:53:18Z</time>
      </trkpt>
      <trkpt lat="46.52476" lon="5.67982">
        <ele>516.5</ele>
        <time>2020-09-23T08:53:24Z</time>
      </trkpt>
      <trkpt lat="46.52479" lon="5.67976">
        <ele>516.6</ele>
        <time>2020-09-23T08:53:29Z</time>
      </trkpt>
      <trkpt lat="46.52479" lon="5.67969">
        <ele>516.6</ele>
        <time>2020-09-23T08:53:36Z</time>
      </trkpt>
      <trkpt lat="46.52478" lon="5.67962">
        <ele>516.5</ele>
        <time>2020-09-23T08:53:43Z</time>
      </trkpt>
      <trkpt lat="46.52477" lon="5.67955">
        <ele>516.1</ele>
        <time>2020-09-23T08:53:49Z</time>
      </trkpt>
      <trkpt lat="46.52475" lon="5.67947">
        <ele>515.7</ele>
        <time>2020-09-23T08:53:55Z</time>
      </trkpt>
      <trkpt lat="46.52475" lon="5.6794">
        <ele>515.2</ele>
        <time>2020-09-23T08:54:00Z</time>
      </trkpt>
      <trkpt lat="46.52474" lon="5.67934">
        <ele>515.5</ele>
        <time>2020-09-23T08:54:03Z</time>
      </trkpt>
      <trkpt lat="46.52475" lon="5.67927">
        <ele>515.8</ele>
        <time>2020-09-23T08:54:07Z</time>
      </trkpt>
      <trkpt lat="46.52478" lon="5.6792">
        <ele>516</ele>
        <time>2020-09-23T08:54:13Z</time>
      </trkpt>
      <trkpt lat="46.5248" lon="5.67913">
        <ele>516.3</ele>
        <time>2020-09-23T08:54:19Z</time>
      </trkpt>
      <trkpt lat="46.52482" lon="5.67907">
        <ele>516.7</ele>
        <time>2020-09-23T08:54:24Z</time>
      </trkpt>
      <trkpt lat="46.52486" lon="5.67902">
        <ele>517.4</ele>
        <time>2020-09-23T08:54:29Z</time>
      </trkpt>
      <trkpt lat="46.52489" lon="5.67896">
        <ele>518</ele>
        <time>2020-09-23T08:54:34Z</time>
      </trkpt>
      <trkpt lat="46.52492" lon="5.6789">
        <ele>518.6</ele>
        <time>2020-09-23T08:54:39Z</time>
      </trkpt>
      <trkpt lat="46.52495" lon="5.67885">
        <ele>519</ele>
        <time>2020-09-23T08:54:43Z</time>
      </trkpt>
      <trkpt lat="46.52499" lon="5.67881">
        <ele>519.7</ele>
        <time>2020-09-23T08:54:48Z</time>
      </trkpt>
      <trkpt lat="46.52503" lon="5.67876">
        <ele>520.8</ele>
        <time>2020-09-23T08:54:54Z</time>
      </trkpt>
      <trkpt lat="46.52507" lon="5.67874">
        <ele>521.8</ele>
        <time>2020-09-23T08:55:01Z</time>
      </trkpt>
      <trkpt lat="46.52512" lon="5.67871">
        <ele>522.4</ele>
        <time>2020-09-23T08:55:08Z</time>
      </trkpt>
      <trkpt lat="46.52516" lon="5.67865">
        <ele>524.2</ele>
        <time>2020-09-23T08:55:11Z</time>
      </trkpt>
      <trkpt lat="46.5252" lon="5.6786">
        <ele>526</ele>
        <time>2020-09-23T08:55:14Z</time>
      </trkpt>
      <trkpt lat="46.52525" lon="5.67857">
        <ele>528.8</ele>
        <time>2020-09-23T08:55:19Z</time>
      </trkpt>
      <trkpt lat="46.5253" lon="5.67855">
        <ele>530.8</ele>
        <time>2020-09-23T08:55:24Z</time>
      </trkpt>
      <trkpt lat="46.52535" lon="5.67853">
        <ele>531.9</ele>
        <time>2020-09-23T08:55:29Z</time>
      </trkpt>
      <trkpt lat="46.5254" lon="5.67852">
        <ele>532.6</ele>
        <time>2020-09-23T08:55:35Z</time>
      </trkpt>
      <trkpt lat="46.52545" lon="5.67851">
        <ele>532.9</ele>
        <time>2020-09-23T08:55:40Z</time>
      </trkpt>
      <trkpt lat="46.52548" lon="5.67847">
        <ele>533</ele>
        <time>2020-09-23T08:55:45Z</time>
      </trkpt>
      <trkpt lat="46.52551" lon="5.67842">
        <ele>533.1</ele>
        <time>2020-09-23T08:55:50Z</time>
      </trkpt>
      <trkpt lat="46.52554" lon="5.67837">
        <ele>533.1</ele>
        <time>2020-09-23T08:55:55Z</time>
      </trkpt>
      <trkpt lat="46.52557" lon="5.6783">
        <ele>532.8</ele>
        <time>2020-09-23T08:56:00Z</time>
      </trkpt>
      <trkpt lat="46.52558" lon="5.67824">
        <ele>532.5</ele>
        <time>2020-09-23T08:56:05Z</time>
      </trkpt>
      <trkpt lat="46.52559" lon="5.67817">
        <ele>532.1</ele>
        <time>2020-09-23T08:56:09Z</time>
      </trkpt>
      <trkpt lat="46.52562" lon="5.6781">
        <ele>531.3</ele>
        <time>2020-09-23T08:56:14Z</time>
      </trkpt>
      <trkpt lat="46.52565" lon="5.67804">
        <ele>530.3</ele>
        <time>2020-09-23T08:56:19Z</time>
      </trkpt>
      <trkpt lat="46.52569" lon="5.678">
        <ele>529.2</ele>
        <time>2020-09-23T08:56:25Z</time>
      </trkpt>
      <trkpt lat="46.52573" lon="5.67797">
        <ele>528.1</ele>
        <time>2020-09-23T08:56:31Z</time>
      </trkpt>
      <trkpt lat="46.52578" lon="5.67793">
        <ele>526.6</ele>
        <time>2020-09-23T08:56:37Z</time>
      </trkpt>
      <trkpt lat="46.52582" lon="5.6779">
        <ele>525.5</ele>
        <time>2020-09-23T08:56:41Z</time>
      </trkpt>
      <trkpt lat="46.52586" lon="5.67786">
        <ele>524.3</ele>
        <time>2020-09-23T08:56:45Z</time>
      </trkpt>
      <trkpt lat="46.5259" lon="5.67782">
        <ele>523.1</ele>
        <time>2020-09-23T08:56:49Z</time>
      </trkpt>
      <trkpt lat="46.52593" lon="5.67777">
        <ele>521.8</ele>
        <time>2020-09-23T08:56:54Z</time>
      </trkpt>
      <trkpt lat="46.52598" lon="5.67773">
        <ele>520.6</ele>
        <time>2020-09-23T08:56:59Z</time>
      </trkpt>
      <trkpt lat="46.52601" lon="5.67769">
        <ele>519.5</ele>
        <time>2020-09-23T08:57:04Z</time>
      </trkpt>
      <trkpt lat="46.52605" lon="5.67765">
        <ele>517.8</ele>
        <time>2020-09-23T08:57:10Z</time>
      </trkpt>
      <trkpt lat="46.52611" lon="5.67764">
        <ele>516</ele>
        <time>2020-09-23T08:57:16Z</time>
      </trkpt>
      <trkpt lat="46.52616" lon="5.67762">
        <ele>517.2</ele>
        <time>2020-09-23T08:57:19Z</time>
      </trkpt>
      <trkpt lat="46.52621" lon="5.6776">
        <ele>516.6</ele>
        <time>2020-09-23T08:57:25Z</time>
      </trkpt>
      <trkpt lat="46.52626" lon="5.67756">
        <ele>516.9</ele>
        <time>2020-09-23T08:57:30Z</time>
      </trkpt>
      <trkpt lat="46.52631" lon="5.67753">
        <ele>516.4</ele>
        <time>2020-09-23T08:57:35Z</time>
      </trkpt>
      <trkpt lat="46.52636" lon="5.6775">
        <ele>515.7</ele>
        <time>2020-09-23T08:57:39Z</time>
      </trkpt>
      <trkpt lat="46.5264" lon="5.67748">
        <ele>515.2</ele>
        <time>2020-09-23T08:57:42Z</time>
      </trkpt>
      <trkpt lat="46.52644" lon="5.67743">
        <ele>514.6</ele>
        <time>2020-09-23T08:57:46Z</time>
      </trkpt>
      <trkpt lat="46.52648" lon="5.67739">
        <ele>514.2</ele>
        <time>2020-09-23T08:57:50Z</time>
      </trkpt>
      <trkpt lat="46.52653" lon="5.67735">
        <ele>514.1</ele>
        <time>2020-09-23T08:57:54Z</time>
      </trkpt>
      <trkpt lat="46.52655" lon="5.67725">
        <ele>515.7</ele>
        <time>2020-09-23T08:57:57Z</time>
      </trkpt>
      <trkpt lat="46.52659" lon="5.67719">
        <ele>517.1</ele>
        <time>2020-09-23T08:58:01Z</time>
      </trkpt>
      <trkpt lat="46.52663" lon="5.67716">
        <ele>517.9</ele>
        <time>2020-09-23T08:58:06Z</time>
      </trkpt>
      <trkpt lat="46.52668" lon="5.67716">
        <ele>518.3</ele>
        <time>2020-09-23T08:58:11Z</time>
      </trkpt>
      <trkpt lat="46.52673" lon="5.67716">
        <ele>518.7</ele>
        <time>2020-09-23T08:58:17Z</time>
      </trkpt>
      <trkpt lat="46.52678" lon="5.67717">
        <ele>518.9</ele>
        <time>2020-09-23T08:58:22Z</time>
      </trkpt>
      <trkpt lat="46.52684" lon="5.67718">
        <ele>519.6</ele>
        <time>2020-09-23T08:58:26Z</time>
      </trkpt>
      <trkpt lat="46.5269" lon="5.67721">
        <ele>520.7</ele>
        <time>2020-09-23T08:58:30Z</time>
      </trkpt>
      <trkpt lat="46.52694" lon="5.67725">
        <ele>522.1</ele>
        <time>2020-09-23T08:58:34Z</time>
      </trkpt>
      <trkpt lat="46.52698" lon="5.6773">
        <ele>523.7</ele>
        <time>2020-09-23T08:58:38Z</time>
      </trkpt>
      <trkpt lat="46.52701" lon="5.67735">
        <ele>525.4</ele>
        <time>2020-09-23T08:58:42Z</time>
      </trkpt>
      <trkpt lat="46.52703" lon="5.67742">
        <ele>527.4</ele>
        <time>2020-09-23T08:58:47Z</time>
      </trkpt>
      <trkpt lat="46.52704" lon="5.67749">
        <ele>528.7</ele>
        <time>2020-09-23T08:58:51Z</time>
      </trkpt>
      <trkpt lat="46.52706" lon="5.67755">
        <ele>529.9</ele>
        <time>2020-09-23T08:58:55Z</time>
      </trkpt>
      <trkpt lat="46.52709" lon="5.67761">
        <ele>531.1</ele>
        <time>2020-09-23T08:59:00Z</time>
      </trkpt>
      <trkpt lat="46.52712" lon="5.67767">
        <ele>531.8</ele>
        <time>2020-09-23T08:59:06Z</time>
      </trkpt>
      <trkpt lat="46.52715" lon="5.67774">
        <ele>531.8</ele>
        <time>2020-09-23T08:59:12Z</time>
      </trkpt>
      <trkpt lat="46.52717" lon="5.6778">
        <ele>532.9</ele>
        <time>2020-09-23T08:59:26Z</time>
      </trkpt>
      <trkpt lat="46.5272" lon="5.67786">
        <ele>532.9</ele>
        <time>2020-09-23T08:59:31Z</time>
      </trkpt>
      <trkpt lat="46.52724" lon="5.67791">
        <ele>532.9</ele>
        <time>2020-09-23T08:59:35Z</time>
      </trkpt>
      <trkpt lat="46.52727" lon="5.67796">
        <ele>532.8</ele>
        <time>2020-09-23T08:59:39Z</time>
      </trkpt>
      <trkpt lat="46.52731" lon="5.67801">
        <ele>532.6</ele>
        <time>2020-09-23T08:59:43Z</time>
      </trkpt>
      <trkpt lat="46.52734" lon="5.67805">
        <ele>532.6</ele>
        <time>2020-09-23T08:59:47Z</time>
      </trkpt>
      <trkpt lat="46.52739" lon="5.67809">
        <ele>532.4</ele>
        <time>2020-09-23T08:59:52Z</time>
      </trkpt>
      <trkpt lat="46.52743" lon="5.67814">
        <ele>532</ele>
        <time>2020-09-23T08:59:57Z</time>
      </trkpt>
      <trkpt lat="46.52745" lon="5.6782">
        <ele>531.6</ele>
        <time>2020-09-23T09:00:02Z</time>
      </trkpt>
      <trkpt lat="46.52743" lon="5.67826">
        <ele>530.8</ele>
        <time>2020-09-23T09:00:12Z</time>
      </trkpt>
      <trkpt lat="46.5274" lon="5.67832">
        <ele>529.5</ele>
        <time>2020-09-23T09:00:18Z</time>
      </trkpt>
      <trkpt lat="46.52736" lon="5.67837">
        <ele>528.5</ele>
        <time>2020-09-23T09:00:23Z</time>
      </trkpt>
      <trkpt lat="46.52733" lon="5.67842">
        <ele>527.9</ele>
        <time>2020-09-23T09:00:27Z</time>
      </trkpt>
      <trkpt lat="46.5273" lon="5.67849">
        <ele>528</ele>
        <time>2020-09-23T09:00:31Z</time>
      </trkpt>
      <trkpt lat="46.52727" lon="5.67855">
        <ele>528.8</ele>
        <time>2020-09-23T09:00:35Z</time>
      </trkpt>
      <trkpt lat="46.52723" lon="5.67861">
        <ele>529.9</ele>
        <time>2020-09-23T09:00:39Z</time>
      </trkpt>
      <trkpt lat="46.5272" lon="5.67866">
        <ele>530.9</ele>
        <time>2020-09-23T09:00:43Z</time>
      </trkpt>
      <trkpt lat="46.52717" lon="5.6787">
        <ele>531.9</ele>
        <time>2020-09-23T09:00:47Z</time>
      </trkpt>
      <trkpt lat="46.52714" lon="5.67876">
        <ele>533</ele>
        <time>2020-09-23T09:00:52Z</time>
      </trkpt>
      <trkpt lat="46.52709" lon="5.67876">
        <ele>534.1</ele>
        <time>2020-09-23T09:00:57Z</time>
      </trkpt>
      <trkpt lat="46.52704" lon="5.67875">
        <ele>534.5</ele>
        <time>2020-09-23T09:01:01Z</time>
      </trkpt>
      <trkpt lat="46.527" lon="5.67873">
        <ele>534.3</ele>
        <time>2020-09-23T09:01:15Z</time>
      </trkpt>
      <trkpt lat="46.52699" lon="5.6788">
        <ele>533.8</ele>
        <time>2020-09-23T09:01:21Z</time>
      </trkpt>
      <trkpt lat="46.527" lon="5.67887">
        <ele>533.1</ele>
        <time>2020-09-23T09:01:27Z</time>
      </trkpt>
      <trkpt lat="46.52698" lon="5.67894">
        <ele>532.2</ele>
        <time>2020-09-23T09:01:33Z</time>
      </trkpt>
      <trkpt lat="46.52696" lon="5.679">
        <ele>532</ele>
        <time>2020-09-23T09:01:39Z</time>
      </trkpt>
      <trkpt lat="46.52693" lon="5.67906">
        <ele>532</ele>
        <time>2020-09-23T09:01:45Z</time>
      </trkpt>
      <trkpt lat="46.52689" lon="5.6791">
        <ele>531.8</ele>
        <time>2020-09-23T09:01:50Z</time>
      </trkpt>
      <trkpt lat="46.52686" lon="5.67915">
        <ele>531.9</ele>
        <time>2020-09-23T09:01:54Z</time>
      </trkpt>
      <trkpt lat="46.52684" lon="5.67922">
        <ele>532.2</ele>
        <time>2020-09-23T09:01:59Z</time>
      </trkpt>
      <trkpt lat="46.52682" lon="5.67928">
        <ele>532.1</ele>
        <time>2020-09-23T09:02:04Z</time>
      </trkpt>
      <trkpt lat="46.52681" lon="5.67935">
        <ele>531.9</ele>
        <time>2020-09-23T09:02:09Z</time>
      </trkpt>
      <trkpt lat="46.52681" lon="5.67942">
        <ele>531</ele>
        <time>2020-09-23T09:02:13Z</time>
      </trkpt>
      <trkpt lat="46.52681" lon="5.6795">
        <ele>530.1</ele>
        <time>2020-09-23T09:02:18Z</time>
      </trkpt>
      <trkpt lat="46.52678" lon="5.67956">
        <ele>529.6</ele>
        <time>2020-09-23T09:02:24Z</time>
      </trkpt>
      <trkpt lat="46.52678" lon="5.67963">
        <ele>530.4</ele>
        <time>2020-09-23T09:02:31Z</time>
      </trkpt>
      <trkpt lat="46.52677" lon="5.67971">
        <ele>531</ele>
        <time>2020-09-23T09:02:36Z</time>
      </trkpt>
      <trkpt lat="46.52675" lon="5.67977">
        <ele>531</ele>
        <time>2020-09-23T09:02:40Z</time>
      </trkpt>
      <trkpt lat="46.52673" lon="5.67982">
        <ele>530.7</ele>
        <time>2020-09-23T09:02:46Z</time>
      </trkpt>
      <trkpt lat="46.5267" lon="5.67988">
        <ele>530.8</ele>
        <time>2020-09-23T09:02:51Z</time>
      </trkpt>
      <trkpt lat="46.52668" lon="5.67996">
        <ele>531.7</ele>
        <time>2020-09-23T09:02:54Z</time>
      </trkpt>
      <trkpt lat="46.52665" lon="5.68001">
        <ele>532.7</ele>
        <time>2020-09-23T09:02:58Z</time>
      </trkpt>
      <trkpt lat="46.52662" lon="5.68007">
        <ele>534.3</ele>
        <time>2020-09-23T09:03:04Z</time>
      </trkpt>
      <trkpt lat="46.5266" lon="5.68014">
        <ele>535.6</ele>
        <time>2020-09-23T09:03:09Z</time>
      </trkpt>
      <trkpt lat="46.52655" lon="5.68018">
        <ele>536.5</ele>
        <time>2020-09-23T09:03:14Z</time>
      </trkpt>
      <trkpt lat="46.52651" lon="5.68021">
        <ele>536.3</ele>
        <time>2020-09-23T09:03:19Z</time>
      </trkpt>
      <trkpt lat="46.52646" lon="5.68023">
        <ele>535.5</ele>
        <time>2020-09-23T09:03:24Z</time>
      </trkpt>
      <trkpt lat="46.52641" lon="5.68025">
        <ele>535</ele>
        <time>2020-09-23T09:03:28Z</time>
      </trkpt>
      <trkpt lat="46.52637" lon="5.68028">
        <ele>534.4</ele>
        <time>2020-09-23T09:03:31Z</time>
      </trkpt>
      <trkpt lat="46.52632" lon="5.68031">
        <ele>533.5</ele>
        <time>2020-09-23T09:03:35Z</time>
      </trkpt>
      <trkpt lat="46.52627" lon="5.68034">
        <ele>531.8</ele>
        <time>2020-09-23T09:03:40Z</time>
      </trkpt>
      <trkpt lat="46.52622" lon="5.68036">
        <ele>530.2</ele>
        <time>2020-09-23T09:03:45Z</time>
      </trkpt>
      <trkpt lat="46.52617" lon="5.68038">
        <ele>529.1</ele>
        <time>2020-09-23T09:03:49Z</time>
      </trkpt>
      <trkpt lat="46.52613" lon="5.68043">
        <ele>528.2</ele>
        <time>2020-09-23T09:03:54Z</time>
      </trkpt>
      <trkpt lat="46.52612" lon="5.6805">
        <ele>527.6</ele>
        <time>2020-09-23T09:03:59Z</time>
      </trkpt>
      <trkpt lat="46.52609" lon="5.68056">
        <ele>527.3</ele>
        <time>2020-09-23T09:04:04Z</time>
      </trkpt>
      <trkpt lat="46.52605" lon="5.6806">
        <ele>526.9</ele>
        <time>2020-09-23T09:04:09Z</time>
      </trkpt>
      <trkpt lat="46.52601" lon="5.68065">
        <ele>526.2</ele>
        <time>2020-09-23T09:04:13Z</time>
      </trkpt>
      <trkpt lat="46.52598" lon="5.6807">
        <ele>525.3</ele>
        <time>2020-09-23T09:04:17Z</time>
      </trkpt>
      <trkpt lat="46.52595" lon="5.68076">
        <ele>524.5</ele>
        <time>2020-09-23T09:04:22Z</time>
      </trkpt>
      <trkpt lat="46.52592" lon="5.68083">
        <ele>524.3</ele>
        <time>2020-09-23T09:04:26Z</time>
      </trkpt>
      <trkpt lat="46.52589" lon="5.68089">
        <ele>524</ele>
        <time>2020-09-23T09:04:30Z</time>
      </trkpt>
      <trkpt lat="46.52587" lon="5.68095">
        <ele>524.4</ele>
        <time>2020-09-23T09:04:34Z</time>
      </trkpt>
      <trkpt lat="46.52584" lon="5.68101">
        <ele>525.5</ele>
        <time>2020-09-23T09:04:39Z</time>
      </trkpt>
      <trkpt lat="46.52582" lon="5.68107">
        <ele>526.9</ele>
        <time>2020-09-23T09:04:45Z</time>
      </trkpt>
      <trkpt lat="46.5258" lon="5.68115">
        <ele>527.7</ele>
        <time>2020-09-23T09:04:51Z</time>
      </trkpt>
      <trkpt lat="46.52579" lon="5.68122">
        <ele>528.2</ele>
        <time>2020-09-23T09:04:56Z</time>
      </trkpt>
      <trkpt lat="46.52577" lon="5.68129">
        <ele>528.9</ele>
        <time>2020-09-23T09:05:02Z</time>
      </trkpt>
      <trkpt lat="46.52576" lon="5.68137">
        <ele>529.4</ele>
        <time>2020-09-23T09:05:07Z</time>
      </trkpt>
      <trkpt lat="46.52575" lon="5.68144">
        <ele>529.4</ele>
        <time>2020-09-23T09:05:12Z</time>
      </trkpt>
      <trkpt lat="46.52574" lon="5.6815">
        <ele>529.4</ele>
        <time>2020-09-23T09:05:16Z</time>
      </trkpt>
      <trkpt lat="46.52572" lon="5.68158">
        <ele>528.7</ele>
        <time>2020-09-23T09:05:21Z</time>
      </trkpt>
      <trkpt lat="46.5257" lon="5.68166">
        <ele>528.1</ele>
        <time>2020-09-23T09:05:26Z</time>
      </trkpt>
      <trkpt lat="46.52569" lon="5.68173">
        <ele>527.7</ele>
        <time>2020-09-23T09:05:31Z</time>
      </trkpt>
      <trkpt lat="46.52568" lon="5.6818">
        <ele>527.5</ele>
        <time>2020-09-23T09:05:35Z</time>
      </trkpt>
      <trkpt lat="46.52567" lon="5.68187">
        <ele>527.7</ele>
        <time>2020-09-23T09:05:39Z</time>
      </trkpt>
      <trkpt lat="46.52566" lon="5.68194">
        <ele>528</ele>
        <time>2020-09-23T09:05:43Z</time>
      </trkpt>
      <trkpt lat="46.52565" lon="5.68201">
        <ele>528.8</ele>
        <time>2020-09-23T09:05:47Z</time>
      </trkpt>
      <trkpt lat="46.52565" lon="5.68208">
        <ele>529.7</ele>
        <time>2020-09-23T09:05:51Z</time>
      </trkpt>
      <trkpt lat="46.52566" lon="5.68216">
        <ele>530.8</ele>
        <time>2020-09-23T09:05:56Z</time>
      </trkpt>
      <trkpt lat="46.52567" lon="5.68223">
        <ele>531.7</ele>
        <time>2020-09-23T09:06:00Z</time>
      </trkpt>
      <trkpt lat="46.52566" lon="5.6823">
        <ele>532.6</ele>
        <time>2020-09-23T09:06:06Z</time>
      </trkpt>
      <trkpt lat="46.52565" lon="5.68238">
        <ele>532.8</ele>
        <time>2020-09-23T09:06:11Z</time>
      </trkpt>
      <trkpt lat="46.52564" lon="5.68245">
        <ele>532.9</ele>
        <time>2020-09-23T09:06:16Z</time>
      </trkpt>
      <trkpt lat="46.52562" lon="5.68252">
        <ele>533</ele>
        <time>2020-09-23T09:06:21Z</time>
      </trkpt>
      <trkpt lat="46.52561" lon="5.6826">
        <ele>533</ele>
        <time>2020-09-23T09:06:26Z</time>
      </trkpt>
      <trkpt lat="46.52561" lon="5.68266">
        <ele>533.1</ele>
        <time>2020-09-23T09:06:30Z</time>
      </trkpt>
      <trkpt lat="46.52561" lon="5.68273">
        <ele>532.7</ele>
        <time>2020-09-23T09:06:35Z</time>
      </trkpt>
      <trkpt lat="46.52561" lon="5.68281">
        <ele>532.1</ele>
        <time>2020-09-23T09:06:40Z</time>
      </trkpt>
      <trkpt lat="46.52561" lon="5.68287">
        <ele>531.3</ele>
        <time>2020-09-23T09:06:44Z</time>
      </trkpt>
      <trkpt lat="46.52561" lon="5.68294">
        <ele>530.6</ele>
        <time>2020-09-23T09:06:48Z</time>
      </trkpt>
      <trkpt lat="46.5256" lon="5.68302">
        <ele>530.3</ele>
        <time>2020-09-23T09:06:53Z</time>
      </trkpt>
      <trkpt lat="46.52558" lon="5.68308">
        <ele>530</ele>
        <time>2020-09-23T09:06:58Z</time>
      </trkpt>
      <trkpt lat="46.52557" lon="5.68315">
        <ele>529.8</ele>
        <time>2020-09-23T09:07:02Z</time>
      </trkpt>
      <trkpt lat="46.52557" lon="5.68322">
        <ele>530</ele>
        <time>2020-09-23T09:07:07Z</time>
      </trkpt>
      <trkpt lat="46.52555" lon="5.68328">
        <ele>530.2</ele>
        <time>2020-09-23T09:07:12Z</time>
      </trkpt>
      <trkpt lat="46.52554" lon="5.68335">
        <ele>530.8</ele>
        <time>2020-09-23T09:07:16Z</time>
      </trkpt>
      <trkpt lat="46.52552" lon="5.68341">
        <ele>531.3</ele>
        <time>2020-09-23T09:07:20Z</time>
      </trkpt>
      <trkpt lat="46.52551" lon="5.68348">
        <ele>531.6</ele>
        <time>2020-09-23T09:07:25Z</time>
      </trkpt>
      <trkpt lat="46.5255" lon="5.68355">
        <ele>531.4</ele>
        <time>2020-09-23T09:07:29Z</time>
      </trkpt>
      <trkpt lat="46.52549" lon="5.68363">
        <ele>531.1</ele>
        <time>2020-09-23T09:07:33Z</time>
      </trkpt>
      <trkpt lat="46.52547" lon="5.6837">
        <ele>530.6</ele>
        <time>2020-09-23T09:07:38Z</time>
      </trkpt>
      <trkpt lat="46.52544" lon="5.68376">
        <ele>530.1</ele>
        <time>2020-09-23T09:07:43Z</time>
      </trkpt>
      <trkpt lat="46.5254" lon="5.68382">
        <ele>529.8</ele>
        <time>2020-09-23T09:07:48Z</time>
      </trkpt>
      <trkpt lat="46.52537" lon="5.68388">
        <ele>529.8</ele>
        <time>2020-09-23T09:07:52Z</time>
      </trkpt>
      <trkpt lat="46.52534" lon="5.68393">
        <ele>529.4</ele>
        <time>2020-09-23T09:07:56Z</time>
      </trkpt>
      <trkpt lat="46.52534" lon="5.68401">
        <ele>530</ele>
        <time>2020-09-23T09:08:19Z</time>
      </trkpt>
      <trkpt lat="46.52533" lon="5.68409">
        <ele>531.9</ele>
        <time>2020-09-23T09:08:24Z</time>
      </trkpt>
      <trkpt lat="46.52532" lon="5.68416">
        <ele>533.2</ele>
        <time>2020-09-23T09:08:28Z</time>
      </trkpt>
      <trkpt lat="46.52531" lon="5.68423">
        <ele>533.4</ele>
        <time>2020-09-23T09:08:33Z</time>
      </trkpt>
      <trkpt lat="46.52528" lon="5.68429">
        <ele>532.1</ele>
        <time>2020-09-23T09:08:38Z</time>
      </trkpt>
      <trkpt lat="46.52526" lon="5.68436">
        <ele>530.7</ele>
        <time>2020-09-23T09:08:43Z</time>
      </trkpt>
      <trkpt lat="46.52523" lon="5.68442">
        <ele>529.9</ele>
        <time>2020-09-23T09:08:47Z</time>
      </trkpt>
      <trkpt lat="46.52521" lon="5.68448">
        <ele>529.4</ele>
        <time>2020-09-23T09:08:51Z</time>
      </trkpt>
      <trkpt lat="46.52518" lon="5.68453">
        <ele>529.3</ele>
        <time>2020-09-23T09:08:55Z</time>
      </trkpt>
      <trkpt lat="46.52514" lon="5.68458">
        <ele>529.6</ele>
        <time>2020-09-23T09:08:59Z</time>
      </trkpt>
      <trkpt lat="46.5251" lon="5.68463">
        <ele>530</ele>
        <time>2020-09-23T09:09:03Z</time>
      </trkpt>
      <trkpt lat="46.52507" lon="5.68469">
        <ele>530.4</ele>
        <time>2020-09-23T09:09:08Z</time>
      </trkpt>
      <trkpt lat="46.52504" lon="5.68475">
        <ele>530.2</ele>
        <time>2020-09-23T09:09:13Z</time>
      </trkpt>
      <trkpt lat="46.52501" lon="5.68481">
        <ele>529.8</ele>
        <time>2020-09-23T09:09:18Z</time>
      </trkpt>
      <trkpt lat="46.52499" lon="5.68487">
        <ele>529.9</ele>
        <time>2020-09-23T09:09:22Z</time>
      </trkpt>
      <trkpt lat="46.52494" lon="5.68492">
        <ele>529.7</ele>
        <time>2020-09-23T09:09:28Z</time>
      </trkpt>
      <trkpt lat="46.52489" lon="5.68495">
        <ele>529.2</ele>
        <time>2020-09-23T09:09:33Z</time>
      </trkpt>
      <trkpt lat="46.52485" lon="5.68498">
        <ele>528.4</ele>
        <time>2020-09-23T09:09:37Z</time>
      </trkpt>
      <trkpt lat="46.5248" lon="5.685">
        <ele>527.9</ele>
        <time>2020-09-23T09:09:41Z</time>
      </trkpt>
      <trkpt lat="46.52476" lon="5.68504">
        <ele>527.5</ele>
        <time>2020-09-23T09:09:46Z</time>
      </trkpt>
      <trkpt lat="46.52473" lon="5.68509">
        <ele>527.2</ele>
        <time>2020-09-23T09:09:50Z</time>
      </trkpt>
      <trkpt lat="46.5247" lon="5.68514">
        <ele>527</ele>
        <time>2020-09-23T09:09:54Z</time>
      </trkpt>
      <trkpt lat="46.52466" lon="5.68518">
        <ele>527.4</ele>
        <time>2020-09-23T09:09:59Z</time>
      </trkpt>
      <trkpt lat="46.52462" lon="5.68522">
        <ele>528.2</ele>
        <time>2020-09-23T09:10:04Z</time>
      </trkpt>
      <trkpt lat="46.52458" lon="5.68525">
        <ele>529.1</ele>
        <time>2020-09-23T09:10:10Z</time>
      </trkpt>
      <trkpt lat="46.52454" lon="5.68528">
        <ele>529.9</ele>
        <time>2020-09-23T09:10:16Z</time>
      </trkpt>
      <trkpt lat="46.52449" lon="5.6853">
        <ele>530.2</ele>
        <time>2020-09-23T09:10:21Z</time>
      </trkpt>
      <trkpt lat="46.52444" lon="5.68532">
        <ele>530.3</ele>
        <time>2020-09-23T09:10:25Z</time>
      </trkpt>
      <trkpt lat="46.52439" lon="5.68535">
        <ele>530.9</ele>
        <time>2020-09-23T09:10:32Z</time>
      </trkpt>
      <trkpt lat="46.52437" lon="5.68541">
        <ele>531.7</ele>
        <time>2020-09-23T09:10:40Z</time>
      </trkpt>
      <trkpt lat="46.52437" lon="5.68548">
        <ele>531.9</ele>
        <time>2020-09-23T09:10:46Z</time>
      </trkpt>
      <trkpt lat="46.52436" lon="5.68556">
        <ele>531.6</ele>
        <time>2020-09-23T09:10:52Z</time>
      </trkpt>
      <trkpt lat="46.52437" lon="5.68563">
        <ele>531.4</ele>
        <time>2020-09-23T09:10:57Z</time>
      </trkpt>
      <trkpt lat="46.52438" lon="5.6857">
        <ele>531.2</ele>
        <time>2020-09-23T09:11:02Z</time>
      </trkpt>
      <trkpt lat="46.52439" lon="5.68577">
        <ele>531.7</ele>
        <time>2020-09-23T09:11:07Z</time>
      </trkpt>
      <trkpt lat="46.52441" lon="5.68583">
        <ele>532.2</ele>
        <time>2020-09-23T09:11:11Z</time>
      </trkpt>
      <trkpt lat="46.52444" lon="5.6859">
        <ele>533</ele>
        <time>2020-09-23T09:11:16Z</time>
      </trkpt>
      <trkpt lat="46.52446" lon="5.68596">
        <ele>533.2</ele>
        <time>2020-09-23T09:11:20Z</time>
      </trkpt>
      <trkpt lat="46.52447" lon="5.68603">
        <ele>533.6</ele>
        <time>2020-09-23T09:11:24Z</time>
      </trkpt>
      <trkpt lat="46.52446" lon="5.6861">
        <ele>534.2</ele>
        <time>2020-09-23T09:11:28Z</time>
      </trkpt>
      <trkpt lat="46.52447" lon="5.68618">
        <ele>534.9</ele>
        <time>2020-09-23T09:11:35Z</time>
      </trkpt>
      <trkpt lat="46.52446" lon="5.68624">
        <ele>535.1</ele>
        <time>2020-09-23T09:11:40Z</time>
      </trkpt>
      <trkpt lat="46.52446" lon="5.68632">
        <ele>534.7</ele>
        <time>2020-09-23T09:11:45Z</time>
      </trkpt>
      <trkpt lat="46.52444" lon="5.68639">
        <ele>534.2</ele>
        <time>2020-09-23T09:11:50Z</time>
      </trkpt>
      <trkpt lat="46.52442" lon="5.68644">
        <ele>533.7</ele>
        <time>2020-09-23T09:11:56Z</time>
      </trkpt>
      <trkpt lat="46.52441" lon="5.68652">
        <ele>533.1</ele>
        <time>2020-09-23T09:12:01Z</time>
      </trkpt>
      <trkpt lat="46.52443" lon="5.68659">
        <ele>532.5</ele>
        <time>2020-09-23T09:12:06Z</time>
      </trkpt>
      <trkpt lat="46.52444" lon="5.68666">
        <ele>531.9</ele>
        <time>2020-09-23T09:12:12Z</time>
      </trkpt>
      <trkpt lat="46.52444" lon="5.68674">
        <ele>531.7</ele>
        <time>2020-09-23T09:12:18Z</time>
      </trkpt>
      <trkpt lat="46.52445" lon="5.68681">
        <ele>531.7</ele>
        <time>2020-09-23T09:12:22Z</time>
      </trkpt>
      <trkpt lat="46.52446" lon="5.68687">
        <ele>531.7</ele>
        <time>2020-09-23T09:12:27Z</time>
      </trkpt>
      <trkpt lat="46.5245" lon="5.68695">
        <ele>531.7</ele>
        <time>2020-09-23T09:12:34Z</time>
      </trkpt>
      <trkpt lat="46.52452" lon="5.68701">
        <ele>531.5</ele>
        <time>2020-09-23T09:12:38Z</time>
      </trkpt>
      <trkpt lat="46.52456" lon="5.68707">
        <ele>531.5</ele>
        <time>2020-09-23T09:12:41Z</time>
      </trkpt>
      <trkpt lat="46.52459" lon="5.68713">
        <ele>531.5</ele>
        <time>2020-09-23T09:12:45Z</time>
      </trkpt>
      <trkpt lat="46.52461" lon="5.68719">
        <ele>531.8</ele>
        <time>2020-09-23T09:12:50Z</time>
      </trkpt>
      <trkpt lat="46.52462" lon="5.68726">
        <ele>532</ele>
        <time>2020-09-23T09:12:56Z</time>
      </trkpt>
      <trkpt lat="46.52464" lon="5.68733">
        <ele>532</ele>
        <time>2020-09-23T09:13:01Z</time>
      </trkpt>
      <trkpt lat="46.52466" lon="5.68741">
        <ele>531.8</ele>
        <time>2020-09-23T09:13:25Z</time>
      </trkpt>
      <trkpt lat="46.52468" lon="5.68748">
        <ele>530.6</ele>
        <time>2020-09-23T09:13:38Z</time>
      </trkpt>
      <trkpt lat="46.52464" lon="5.68752">
        <ele>530.2</ele>
        <time>2020-09-23T09:13:50Z</time>
      </trkpt>
      <trkpt lat="46.5246" lon="5.68756">
        <ele>530.7</ele>
        <time>2020-09-23T09:13:58Z</time>
      </trkpt>
      <trkpt lat="46.52457" lon="5.68762">
        <ele>531.2</ele>
        <time>2020-09-23T09:14:05Z</time>
      </trkpt>
      <trkpt lat="46.52457" lon="5.68769">
        <ele>532.4</ele>
        <time>2020-09-23T09:14:12Z</time>
      </trkpt>
      <trkpt lat="46.52461" lon="5.68779">
        <ele>531.9</ele>
        <time>2020-09-23T09:14:16Z</time>
      </trkpt>
      <trkpt lat="46.52463" lon="5.68787">
        <ele>532</ele>
        <time>2020-09-23T09:14:19Z</time>
      </trkpt>
      <trkpt lat="46.52463" lon="5.68795">
        <ele>532.7</ele>
        <time>2020-09-23T09:14:24Z</time>
      </trkpt>
      <trkpt lat="46.52463" lon="5.68801">
        <ele>533.6</ele>
        <time>2020-09-23T09:14:29Z</time>
      </trkpt>
      <trkpt lat="46.52463" lon="5.68808">
        <ele>534.7</ele>
        <time>2020-09-23T09:14:35Z</time>
      </trkpt>
      <trkpt lat="46.52467" lon="5.68812">
        <ele>536.3</ele>
        <time>2020-09-23T09:14:42Z</time>
      </trkpt>
      <trkpt lat="46.52472" lon="5.68811">
        <ele>537.2</ele>
        <time>2020-09-23T09:14:49Z</time>
      </trkpt>
      <trkpt lat="46.52477" lon="5.68808">
        <ele>536.9</ele>
        <time>2020-09-23T09:14:55Z</time>
      </trkpt>
      <trkpt lat="46.52481" lon="5.68809">
        <ele>536.3</ele>
        <time>2020-09-23T09:15:02Z</time>
      </trkpt>
      <trkpt lat="46.52486" lon="5.68807">
        <ele>534.8</ele>
        <time>2020-09-23T09:15:13Z</time>
      </trkpt>
      <trkpt lat="46.5249" lon="5.68811">
        <ele>534.3</ele>
        <time>2020-09-23T09:15:18Z</time>
      </trkpt>
      <trkpt lat="46.52494" lon="5.68814">
        <ele>533.8</ele>
        <time>2020-09-23T09:15:22Z</time>
      </trkpt>
      <trkpt lat="46.52497" lon="5.6882">
        <ele>533.5</ele>
        <time>2020-09-23T09:15:27Z</time>
      </trkpt>
      <trkpt lat="46.525" lon="5.68826">
        <ele>533.5</ele>
        <time>2020-09-23T09:15:32Z</time>
      </trkpt>
      <trkpt lat="46.52503" lon="5.68832">
        <ele>533.7</ele>
        <time>2020-09-23T09:15:37Z</time>
      </trkpt>
      <trkpt lat="46.52504" lon="5.68839">
        <ele>533.6</ele>
        <time>2020-09-23T09:15:41Z</time>
      </trkpt>
      <trkpt lat="46.52504" lon="5.68846">
        <ele>533.7</ele>
        <time>2020-09-23T09:15:45Z</time>
      </trkpt>
      <trkpt lat="46.52503" lon="5.68854">
        <ele>533.8</ele>
        <time>2020-09-23T09:15:51Z</time>
      </trkpt>
      <trkpt lat="46.52504" lon="5.68861">
        <ele>533.6</ele>
        <time>2020-09-23T09:15:57Z</time>
      </trkpt>
      <trkpt lat="46.52506" lon="5.68867">
        <ele>533.1</ele>
        <time>2020-09-23T09:16:01Z</time>
      </trkpt>
      <trkpt lat="46.52509" lon="5.68873">
        <ele>531.8</ele>
        <time>2020-09-23T09:16:05Z</time>
      </trkpt>
      <trkpt lat="46.52511" lon="5.68879">
        <ele>531.4</ele>
        <time>2020-09-23T09:16:08Z</time>
      </trkpt>
      <trkpt lat="46.52514" lon="5.68884">
        <ele>530.8</ele>
        <time>2020-09-23T09:16:12Z</time>
      </trkpt>
      <trkpt lat="46.52516" lon="5.6889">
        <ele>530.1</ele>
        <time>2020-09-23T09:16:17Z</time>
      </trkpt>
      <trkpt lat="46.52517" lon="5.68897">
        <ele>528.7</ele>
        <time>2020-09-23T09:16:24Z</time>
      </trkpt>
      <trkpt lat="46.52517" lon="5.68904">
        <ele>527.3</ele>
        <time>2020-09-23T09:16:36Z</time>
      </trkpt>
      <trkpt lat="46.52519" lon="5.68911">
        <ele>527.1</ele>
        <time>2020-09-23T09:16:43Z</time>
      </trkpt>
      <trkpt lat="46.52522" lon="5.68916">
        <ele>526.8</ele>
        <time>2020-09-23T09:16:49Z</time>
      </trkpt>
      <trkpt lat="46.52524" lon="5.68923">
        <ele>526.3</ele>
        <time>2020-09-23T09:16:54Z</time>
      </trkpt>
      <trkpt lat="46.52525" lon="5.68931">
        <ele>525.8</ele>
        <time>2020-09-23T09:16:58Z</time>
      </trkpt>
      <trkpt lat="46.52525" lon="5.68938">
        <ele>525.4</ele>
        <time>2020-09-23T09:17:03Z</time>
      </trkpt>
      <trkpt lat="46.52528" lon="5.68945">
        <ele>526.1</ele>
        <time>2020-09-23T09:17:06Z</time>
      </trkpt>
      <trkpt lat="46.52531" lon="5.68952">
        <ele>527.4</ele>
        <time>2020-09-23T09:17:09Z</time>
      </trkpt>
      <trkpt lat="46.52533" lon="5.68959">
        <ele>528.9</ele>
        <time>2020-09-23T09:17:14Z</time>
      </trkpt>
      <trkpt lat="46.52533" lon="5.68966">
        <ele>530</ele>
        <time>2020-09-23T09:17:24Z</time>
      </trkpt>
      <trkpt lat="46.52531" lon="5.68972">
        <ele>530.1</ele>
        <time>2020-09-23T09:17:33Z</time>
      </trkpt>
      <trkpt lat="46.52531" lon="5.6898">
        <ele>530</ele>
        <time>2020-09-23T09:17:40Z</time>
      </trkpt>
      <trkpt lat="46.52534" lon="5.68989">
        <ele>528.2</ele>
        <time>2020-09-23T09:17:43Z</time>
      </trkpt>
      <trkpt lat="46.52535" lon="5.68996">
        <ele>526.8</ele>
        <time>2020-09-23T09:17:48Z</time>
      </trkpt>
      <trkpt lat="46.52536" lon="5.69003">
        <ele>525.7</ele>
        <time>2020-09-23T09:17:55Z</time>
      </trkpt>
      <trkpt lat="46.52536" lon="5.6901">
        <ele>525</ele>
        <time>2020-09-23T09:18:00Z</time>
      </trkpt>
      <trkpt lat="46.52535" lon="5.69018">
        <ele>524.4</ele>
        <time>2020-09-23T09:18:05Z</time>
      </trkpt>
      <trkpt lat="46.52537" lon="5.69025">
        <ele>524</ele>
        <time>2020-09-23T09:18:09Z</time>
      </trkpt>
      <trkpt lat="46.52538" lon="5.69032">
        <ele>523.6</ele>
        <time>2020-09-23T09:18:13Z</time>
      </trkpt>
      <trkpt lat="46.52538" lon="5.6904">
        <ele>523.3</ele>
        <time>2020-09-23T09:18:19Z</time>
      </trkpt>
      <trkpt lat="46.5254" lon="5.69046">
        <ele>523.3</ele>
        <time>2020-09-23T09:18:23Z</time>
      </trkpt>
      <trkpt lat="46.52542" lon="5.69053">
        <ele>523.5</ele>
        <time>2020-09-23T09:18:28Z</time>
      </trkpt>
      <trkpt lat="46.52544" lon="5.69059">
        <ele>523.5</ele>
        <time>2020-09-23T09:18:33Z</time>
      </trkpt>
      <trkpt lat="46.52545" lon="5.69066">
        <ele>523.4</ele>
        <time>2020-09-23T09:18:38Z</time>
      </trkpt>
      <trkpt lat="46.52545" lon="5.69075">
        <ele>523.1</ele>
        <time>2020-09-23T09:18:44Z</time>
      </trkpt>
      <trkpt lat="46.52545" lon="5.69082">
        <ele>522.8</ele>
        <time>2020-09-23T09:18:49Z</time>
      </trkpt>
      <trkpt lat="46.5255" lon="5.69092">
        <ele>524.4</ele>
        <time>2020-09-23T09:18:52Z</time>
      </trkpt>
      <trkpt lat="46.52552" lon="5.69098">
        <ele>525.3</ele>
        <time>2020-09-23T09:18:55Z</time>
      </trkpt>
      <trkpt lat="46.52554" lon="5.69105">
        <ele>526.1</ele>
        <time>2020-09-23T09:19:00Z</time>
      </trkpt>
      <trkpt lat="46.52555" lon="5.69112">
        <ele>526.3</ele>
        <time>2020-09-23T09:19:05Z</time>
      </trkpt>
      <trkpt lat="46.52555" lon="5.69119">
        <ele>526.3</ele>
        <time>2020-09-23T09:19:10Z</time>
      </trkpt>
      <trkpt lat="46.52555" lon="5.69127">
        <ele>526.2</ele>
        <time>2020-09-23T09:19:16Z</time>
      </trkpt>
      <trkpt lat="46.52556" lon="5.69133">
        <ele>525.6</ele>
        <time>2020-09-23T09:19:21Z</time>
      </trkpt>
      <trkpt lat="46.52557" lon="5.69142">
        <ele>524.7</ele>
        <time>2020-09-23T09:19:26Z</time>
      </trkpt>
      <trkpt lat="46.52559" lon="5.69149">
        <ele>524.1</ele>
        <time>2020-09-23T09:19:30Z</time>
      </trkpt>
      <trkpt lat="46.5256" lon="5.69156">
        <ele>524</ele>
        <time>2020-09-23T09:19:35Z</time>
      </trkpt>
      <trkpt lat="46.5256" lon="5.69163">
        <ele>523.8</ele>
        <time>2020-09-23T09:19:40Z</time>
      </trkpt>
      <trkpt lat="46.52559" lon="5.69171">
        <ele>523.1</ele>
        <time>2020-09-23T09:19:46Z</time>
      </trkpt>
      <trkpt lat="46.52557" lon="5.69178">
        <ele>522.4</ele>
        <time>2020-09-23T09:19:51Z</time>
      </trkpt>
      <trkpt lat="46.52554" lon="5.69186">
        <ele>521.1</ele>
        <time>2020-09-23T09:19:57Z</time>
      </trkpt>
      <trkpt lat="46.52552" lon="5.69193">
        <ele>520.2</ele>
        <time>2020-09-23T09:20:01Z</time>
      </trkpt>
      <trkpt lat="46.52551" lon="5.69199">
        <ele>519.8</ele>
        <time>2020-09-23T09:20:05Z</time>
      </trkpt>
      <trkpt lat="46.5255" lon="5.69206">
        <ele>519.2</ele>
        <time>2020-09-23T09:20:11Z</time>
      </trkpt>
      <trkpt lat="46.52549" lon="5.69213">
        <ele>518.9</ele>
        <time>2020-09-23T09:20:17Z</time>
      </trkpt>
      <trkpt lat="46.52548" lon="5.6922">
        <ele>518.7</ele>
        <time>2020-09-23T09:20:23Z</time>
      </trkpt>
      <trkpt lat="46.52545" lon="5.69227">
        <ele>518.4</ele>
        <time>2020-09-23T09:20:28Z</time>
      </trkpt>
      <trkpt lat="46.52543" lon="5.69233">
        <ele>518</ele>
        <time>2020-09-23T09:20:34Z</time>
      </trkpt>
      <trkpt lat="46.5254" lon="5.69239">
        <ele>517.6</ele>
        <time>2020-09-23T09:20:39Z</time>
      </trkpt>
      <trkpt lat="46.52538" lon="5.69245">
        <ele>517.2</ele>
        <time>2020-09-23T09:20:43Z</time>
      </trkpt>
      <trkpt lat="46.52535" lon="5.6925">
        <ele>516.5</ele>
        <time>2020-09-23T09:20:50Z</time>
      </trkpt>
      <trkpt lat="46.52531" lon="5.69257">
        <ele>515.9</ele>
        <time>2020-09-23T09:20:57Z</time>
      </trkpt>
      <trkpt lat="46.52526" lon="5.69266">
        <ele>515.3</ele>
        <time>2020-09-23T09:21:02Z</time>
      </trkpt>
      <trkpt lat="46.52523" lon="5.69272">
        <ele>514.7</ele>
        <time>2020-09-23T09:21:06Z</time>
      </trkpt>
      <trkpt lat="46.52519" lon="5.69278">
        <ele>513.8</ele>
        <time>2020-09-23T09:21:12Z</time>
      </trkpt>
      <trkpt lat="46.52514" lon="5.69283">
        <ele>513.3</ele>
        <time>2020-09-23T09:21:15Z</time>
      </trkpt>
      <trkpt lat="46.52511" lon="5.69287">
        <ele>512.6</ele>
        <time>2020-09-23T09:21:19Z</time>
      </trkpt>
      <trkpt lat="46.52508" lon="5.69293">
        <ele>512.2</ele>
        <time>2020-09-23T09:21:25Z</time>
      </trkpt>
      <trkpt lat="46.52505" lon="5.69299">
        <ele>511.6</ele>
        <time>2020-09-23T09:21:32Z</time>
      </trkpt>
      <trkpt lat="46.525" lon="5.69303">
        <ele>511.4</ele>
        <time>2020-09-23T09:21:38Z</time>
      </trkpt>
      <trkpt lat="46.52495" lon="5.69305">
        <ele>511.4</ele>
        <time>2020-09-23T09:21:42Z</time>
      </trkpt>
      <trkpt lat="46.52491" lon="5.69306">
        <ele>511.4</ele>
        <time>2020-09-23T09:21:49Z</time>
      </trkpt>
      <trkpt lat="46.52486" lon="5.69306">
        <ele>511.4</ele>
        <time>2020-09-23T09:21:56Z</time>
      </trkpt>
      <trkpt lat="46.52481" lon="5.69306">
        <ele>511.6</ele>
        <time>2020-09-23T09:22:01Z</time>
      </trkpt>
      <trkpt lat="46.52476" lon="5.69304">
        <ele>511.3</ele>
        <time>2020-09-23T09:22:05Z</time>
      </trkpt>
      <trkpt lat="46.52468" lon="5.69304">
        <ele>510.7</ele>
        <time>2020-09-23T09:22:10Z</time>
      </trkpt>
      <trkpt lat="46.52463" lon="5.69305">
        <ele>510.2</ele>
        <time>2020-09-23T09:22:13Z</time>
      </trkpt>
      <trkpt lat="46.52458" lon="5.69304">
        <ele>509.1</ele>
        <time>2020-09-23T09:22:19Z</time>
      </trkpt>
      <trkpt lat="46.52454" lon="5.69302">
        <ele>508.7</ele>
        <time>2020-09-23T09:22:24Z</time>
      </trkpt>
      <trkpt lat="46.52449" lon="5.69298">
        <ele>507.8</ele>
        <time>2020-09-23T09:22:30Z</time>
      </trkpt>
      <trkpt lat="46.52445" lon="5.69295">
        <ele>507</ele>
        <time>2020-09-23T09:22:35Z</time>
      </trkpt>
      <trkpt lat="46.52441" lon="5.69292">
        <ele>506.7</ele>
        <time>2020-09-23T09:22:39Z</time>
      </trkpt>
      <trkpt lat="46.52436" lon="5.6929">
        <ele>504.7</ele>
        <time>2020-09-23T09:22:50Z</time>
      </trkpt>
      <trkpt lat="46.52433" lon="5.69296">
        <ele>505.1</ele>
        <time>2020-09-23T09:23:03Z</time>
      </trkpt>
      <trkpt lat="46.52428" lon="5.69294">
        <ele>509.5</ele>
        <time>2020-09-23T09:23:25Z</time>
      </trkpt>
      <trkpt lat="46.52424" lon="5.69293">
        <ele>509.8</ele>
        <time>2020-09-23T09:23:29Z</time>
      </trkpt>
      <trkpt lat="46.5242" lon="5.6929">
        <ele>510.3</ele>
        <time>2020-09-23T09:23:34Z</time>
      </trkpt>
      <trkpt lat="46.52415" lon="5.69287">
        <ele>511.1</ele>
        <time>2020-09-23T09:23:40Z</time>
      </trkpt>
      <trkpt lat="46.52411" lon="5.69285">
        <ele>511.8</ele>
        <time>2020-09-23T09:23:44Z</time>
      </trkpt>
      <trkpt lat="46.52406" lon="5.69283">
        <ele>511.8</ele>
        <time>2020-09-23T09:23:50Z</time>
      </trkpt>
      <trkpt lat="46.52402" lon="5.69279">
        <ele>509.9</ele>
        <time>2020-09-23T09:23:55Z</time>
      </trkpt>
      <trkpt lat="46.52397" lon="5.69284">
        <ele>507.9</ele>
        <time>2020-09-23T09:23:59Z</time>
      </trkpt>
      <trkpt lat="46.52396" lon="5.6929">
        <ele>506.7</ele>
        <time>2020-09-23T09:24:05Z</time>
      </trkpt>
      <trkpt lat="46.52393" lon="5.69296">
        <ele>507.3</ele>
        <time>2020-09-23T09:24:10Z</time>
      </trkpt>
      <trkpt lat="46.52391" lon="5.69302">
        <ele>508.5</ele>
        <time>2020-09-23T09:24:16Z</time>
      </trkpt>
      <trkpt lat="46.52389" lon="5.69309">
        <ele>509.5</ele>
        <time>2020-09-23T09:24:21Z</time>
      </trkpt>
      <trkpt lat="46.52387" lon="5.69315">
        <ele>510.8</ele>
        <time>2020-09-23T09:24:27Z</time>
      </trkpt>
      <trkpt lat="46.52385" lon="5.69321">
        <ele>511.3</ele>
        <time>2020-09-23T09:24:33Z</time>
      </trkpt>
      <trkpt lat="46.52381" lon="5.69326">
        <ele>511.2</ele>
        <time>2020-09-23T09:24:38Z</time>
      </trkpt>
      <trkpt lat="46.52376" lon="5.69331">
        <ele>510.9</ele>
        <time>2020-09-23T09:24:44Z</time>
      </trkpt>
      <trkpt lat="46.52373" lon="5.69337">
        <ele>510.4</ele>
        <time>2020-09-23T09:24:49Z</time>
      </trkpt>
      <trkpt lat="46.52369" lon="5.69342">
        <ele>509.8</ele>
        <time>2020-09-23T09:24:53Z</time>
      </trkpt>
      <trkpt lat="46.52365" lon="5.69348">
        <ele>508.6</ele>
        <time>2020-09-23T09:24:59Z</time>
      </trkpt>
      <trkpt lat="46.52362" lon="5.69354">
        <ele>507.4</ele>
        <time>2020-09-23T09:25:04Z</time>
      </trkpt>
      <trkpt lat="46.5236" lon="5.69361">
        <ele>505.6</ele>
        <time>2020-09-23T09:25:08Z</time>
      </trkpt>
      <trkpt lat="46.52357" lon="5.69366">
        <ele>503.9</ele>
        <time>2020-09-23T09:25:12Z</time>
      </trkpt>
      <trkpt lat="46.52354" lon="5.69373">
        <ele>502.2</ele>
        <time>2020-09-23T09:25:17Z</time>
      </trkpt>
      <trkpt lat="46.5235" lon="5.69381">
        <ele>502.2</ele>
        <time>2020-09-23T09:25:22Z</time>
      </trkpt>
      <trkpt lat="46.52348" lon="5.69387">
        <ele>502.7</ele>
        <time>2020-09-23T09:25:25Z</time>
      </trkpt>
      <trkpt lat="46.52345" lon="5.69392">
        <ele>503.3</ele>
        <time>2020-09-23T09:25:29Z</time>
      </trkpt>
      <trkpt lat="46.52342" lon="5.69398">
        <ele>503.6</ele>
        <time>2020-09-23T09:25:34Z</time>
      </trkpt>
      <trkpt lat="46.52337" lon="5.69397">
        <ele>504.3</ele>
        <time>2020-09-23T09:25:44Z</time>
      </trkpt>
      <trkpt lat="46.52333" lon="5.69393">
        <ele>504.1</ele>
        <time>2020-09-23T09:25:53Z</time>
      </trkpt>
      <trkpt lat="46.52336" lon="5.69399">
        <ele>506.3</ele>
        <time>2020-09-23T09:26:38Z</time>
      </trkpt>
      <trkpt lat="46.52339" lon="5.69405">
        <ele>506.6</ele>
        <time>2020-09-23T09:26:45Z</time>
      </trkpt>
      <trkpt lat="46.52341" lon="5.69411">
        <ele>506.7</ele>
        <time>2020-09-23T09:26:51Z</time>
      </trkpt>
      <trkpt lat="46.52342" lon="5.69418">
        <ele>506.7</ele>
        <time>2020-09-23T09:26:56Z</time>
      </trkpt>
      <trkpt lat="46.52343" lon="5.69424">
        <ele>506.4</ele>
        <time>2020-09-23T09:27:01Z</time>
      </trkpt>
      <trkpt lat="46.52344" lon="5.69432">
        <ele>506</ele>
        <time>2020-09-23T09:27:06Z</time>
      </trkpt>
      <trkpt lat="46.52344" lon="5.6944">
        <ele>505.4</ele>
        <time>2020-09-23T09:27:12Z</time>
      </trkpt>
      <trkpt lat="46.52346" lon="5.69447">
        <ele>504.9</ele>
        <time>2020-09-23T09:27:17Z</time>
      </trkpt>
      <trkpt lat="46.52348" lon="5.69454">
        <ele>504.5</ele>
        <time>2020-09-23T09:27:22Z</time>
      </trkpt>
      <trkpt lat="46.52348" lon="5.69461">
        <ele>504.3</ele>
        <time>2020-09-23T09:27:27Z</time>
      </trkpt>
      <trkpt lat="46.52349" lon="5.69467">
        <ele>504.6</ele>
        <time>2020-09-23T09:27:32Z</time>
      </trkpt>
      <trkpt lat="46.52348" lon="5.69474">
        <ele>504.7</ele>
        <time>2020-09-23T09:27:38Z</time>
      </trkpt>
      <trkpt lat="46.52346" lon="5.6948">
        <ele>503.9</ele>
        <time>2020-09-23T09:27:44Z</time>
      </trkpt>
      <trkpt lat="46.52344" lon="5.69486">
        <ele>502.9</ele>
        <time>2020-09-23T09:27:49Z</time>
      </trkpt>
      <trkpt lat="46.52341" lon="5.69492">
        <ele>502.7</ele>
        <time>2020-09-23T09:27:53Z</time>
      </trkpt>
      <trkpt lat="46.52339" lon="5.69498">
        <ele>502.9</ele>
        <time>2020-09-23T09:27:57Z</time>
      </trkpt>
      <trkpt lat="46.52338" lon="5.69505">
        <ele>505.2</ele>
        <time>2020-09-23T09:28:31Z</time>
      </trkpt>
      <trkpt lat="46.52339" lon="5.69512">
        <ele>506.4</ele>
        <time>2020-09-23T09:28:37Z</time>
      </trkpt>
      <trkpt lat="46.52341" lon="5.69518">
        <ele>507</ele>
        <time>2020-09-23T09:28:44Z</time>
      </trkpt>
      <trkpt lat="46.52345" lon="5.69524">
        <ele>507.1</ele>
        <time>2020-09-23T09:28:50Z</time>
      </trkpt>
      <trkpt lat="46.52349" lon="5.69528">
        <ele>507.1</ele>
        <time>2020-09-23T09:28:54Z</time>
      </trkpt>
      <trkpt lat="46.52353" lon="5.69533">
        <ele>507.1</ele>
        <time>2020-09-23T09:28:59Z</time>
      </trkpt>
      <trkpt lat="46.52356" lon="5.69537">
        <ele>507.1</ele>
        <time>2020-09-23T09:29:04Z</time>
      </trkpt>
      <trkpt lat="46.5236" lon="5.69541">
        <ele>507.4</ele>
        <time>2020-09-23T09:29:10Z</time>
      </trkpt>
      <trkpt lat="46.52364" lon="5.69547">
        <ele>507.7</ele>
        <time>2020-09-23T09:29:15Z</time>
      </trkpt>
      <trkpt lat="46.52367" lon="5.69551">
        <ele>507.7</ele>
        <time>2020-09-23T09:29:19Z</time>
      </trkpt>
      <trkpt lat="46.5237" lon="5.69557">
        <ele>507.3</ele>
        <time>2020-09-23T09:29:23Z</time>
      </trkpt>
      <trkpt lat="46.52373" lon="5.69563">
        <ele>506.1</ele>
        <time>2020-09-23T09:29:28Z</time>
      </trkpt>
      <trkpt lat="46.52377" lon="5.69566">
        <ele>505.1</ele>
        <time>2020-09-23T09:29:33Z</time>
      </trkpt>
      <trkpt lat="46.52382" lon="5.6957">
        <ele>503.8</ele>
        <time>2020-09-23T09:29:39Z</time>
      </trkpt>
      <trkpt lat="46.52386" lon="5.69574">
        <ele>502.4</ele>
        <time>2020-09-23T09:29:45Z</time>
      </trkpt>
      <trkpt lat="46.52391" lon="5.69576">
        <ele>503.1</ele>
        <time>2020-09-23T09:29:49Z</time>
      </trkpt>
      <trkpt lat="46.52395" lon="5.69577">
        <ele>503.7</ele>
        <time>2020-09-23T09:29:54Z</time>
      </trkpt>
      <trkpt lat="46.52401" lon="5.69578">
        <ele>503.6</ele>
        <time>2020-09-23T09:30:00Z</time>
      </trkpt>
      <trkpt lat="46.52405" lon="5.69579">
        <ele>503.1</ele>
        <time>2020-09-23T09:30:06Z</time>
      </trkpt>
      <trkpt lat="46.5241" lon="5.69581">
        <ele>502.1</ele>
        <time>2020-09-23T09:30:14Z</time>
      </trkpt>
      <trkpt lat="46.52415" lon="5.6958">
        <ele>501.2</ele>
        <time>2020-09-23T09:30:21Z</time>
      </trkpt>
      <trkpt lat="46.5242" lon="5.69581">
        <ele>500.6</ele>
        <time>2020-09-23T09:30:27Z</time>
      </trkpt>
      <trkpt lat="46.52425" lon="5.6958">
        <ele>500.3</ele>
        <time>2020-09-23T09:30:32Z</time>
      </trkpt>
      <trkpt lat="46.5243" lon="5.6958">
        <ele>499.8</ele>
        <time>2020-09-23T09:30:39Z</time>
      </trkpt>
      <trkpt lat="46.52436" lon="5.69581">
        <ele>501.3</ele>
        <time>2020-09-23T09:30:44Z</time>
      </trkpt>
      <trkpt lat="46.52444" lon="5.69584">
        <ele>503.9</ele>
        <time>2020-09-23T09:30:47Z</time>
      </trkpt>
      <trkpt lat="46.52449" lon="5.69585">
        <ele>506.2</ele>
        <time>2020-09-23T09:30:51Z</time>
      </trkpt>
      <trkpt lat="46.52454" lon="5.69587">
        <ele>507.6</ele>
        <time>2020-09-23T09:30:57Z</time>
      </trkpt>
      <trkpt lat="46.52458" lon="5.69588">
        <ele>507.8</ele>
        <time>2020-09-23T09:31:04Z</time>
      </trkpt>
      <trkpt lat="46.52464" lon="5.6959">
        <ele>508</ele>
        <time>2020-09-23T09:31:10Z</time>
      </trkpt>
      <trkpt lat="46.52469" lon="5.69592">
        <ele>508.5</ele>
        <time>2020-09-23T09:31:13Z</time>
      </trkpt>
      <trkpt lat="46.52473" lon="5.69597">
        <ele>509.1</ele>
        <time>2020-09-23T09:31:19Z</time>
      </trkpt>
      <trkpt lat="46.5248" lon="5.69602">
        <ele>510.9</ele>
        <time>2020-09-23T09:31:32Z</time>
      </trkpt>
      <trkpt lat="46.52484" lon="5.69605">
        <ele>512.6</ele>
        <time>2020-09-23T09:31:36Z</time>
      </trkpt>
      <trkpt lat="46.52488" lon="5.6961">
        <ele>514.3</ele>
        <time>2020-09-23T09:31:45Z</time>
      </trkpt>
      <trkpt lat="46.5249" lon="5.69617">
        <ele>515.1</ele>
        <time>2020-09-23T09:31:54Z</time>
      </trkpt>
      <trkpt lat="46.52494" lon="5.69621">
        <ele>515.3</ele>
        <time>2020-09-23T09:32:01Z</time>
      </trkpt>
      <trkpt lat="46.52498" lon="5.69623">
        <ele>515.3</ele>
        <time>2020-09-23T09:32:07Z</time>
      </trkpt>
      <trkpt lat="46.52507" lon="5.69623">
        <ele>513.9</ele>
        <time>2020-09-23T09:32:39Z</time>
      </trkpt>
      <trkpt lat="46.52511" lon="5.69621">
        <ele>513</ele>
        <time>2020-09-23T09:32:42Z</time>
      </trkpt>
      <trkpt lat="46.52517" lon="5.69623">
        <ele>511.6</ele>
        <time>2020-09-23T09:32:47Z</time>
      </trkpt>
      <trkpt lat="46.52522" lon="5.69625">
        <ele>507.9</ele>
        <time>2020-09-23T09:32:56Z</time>
      </trkpt>
      <trkpt lat="46.52526" lon="5.6963">
        <ele>505.8</ele>
        <time>2020-09-23T09:33:02Z</time>
      </trkpt>
      <trkpt lat="46.5253" lon="5.69633">
        <ele>504.3</ele>
        <time>2020-09-23T09:33:08Z</time>
      </trkpt>
      <trkpt lat="46.52534" lon="5.69639">
        <ele>502.1</ele>
        <time>2020-09-23T09:33:18Z</time>
      </trkpt>
      <trkpt lat="46.52536" lon="5.69645">
        <ele>501.4</ele>
        <time>2020-09-23T09:33:23Z</time>
      </trkpt>
      <trkpt lat="46.52537" lon="5.69651">
        <ele>500.7</ele>
        <time>2020-09-23T09:33:29Z</time>
      </trkpt>
      <trkpt lat="46.52541" lon="5.69657">
        <ele>499.6</ele>
        <time>2020-09-23T09:33:36Z</time>
      </trkpt>
      <trkpt lat="46.52548" lon="5.69662">
        <ele>498.7</ele>
        <time>2020-09-23T09:34:11Z</time>
      </trkpt>
      <trkpt lat="46.52553" lon="5.69663">
        <ele>498.2</ele>
        <time>2020-09-23T09:34:15Z</time>
      </trkpt>
      <trkpt lat="46.52556" lon="5.69658">
        <ele>493.1</ele>
        <time>2020-09-23T09:34:59Z</time>
      </trkpt>
      <trkpt lat="46.5256" lon="5.69653">
        <ele>492.5</ele>
        <time>2020-09-23T09:35:02Z</time>
      </trkpt>
      <trkpt lat="46.52564" lon="5.6965">
        <ele>491.4</ele>
        <time>2020-09-23T09:35:07Z</time>
      </trkpt>
      <trkpt lat="46.52569" lon="5.69649">
        <ele>490.1</ele>
        <time>2020-09-23T09:35:14Z</time>
      </trkpt>
      <trkpt lat="46.52574" lon="5.69648">
        <ele>488.9</ele>
        <time>2020-09-23T09:35:20Z</time>
      </trkpt>
      <trkpt lat="46.52578" lon="5.69648">
        <ele>487.8</ele>
        <time>2020-09-23T09:35:26Z</time>
      </trkpt>
      <trkpt lat="46.52584" lon="5.69647">
        <ele>485.7</ele>
        <time>2020-09-23T09:35:44Z</time>
      </trkpt>
      <trkpt lat="46.52589" lon="5.69647">
        <ele>484.3</ele>
        <time>2020-09-23T09:35:49Z</time>
      </trkpt>
      <trkpt lat="46.52594" lon="5.69646">
        <ele>477.1</ele>
        <time>2020-09-23T09:36:16Z</time>
      </trkpt>
      <trkpt lat="46.52597" lon="5.6964">
        <ele>476.6</ele>
        <time>2020-09-23T09:36:23Z</time>
      </trkpt>
      <trkpt lat="46.526" lon="5.69634">
        <ele>476.3</ele>
        <time>2020-09-23T09:36:32Z</time>
      </trkpt>
      <trkpt lat="46.52598" lon="5.69625">
        <ele>475.6</ele>
        <time>2020-09-23T09:36:58Z</time>
      </trkpt>
      <trkpt lat="46.52598" lon="5.69618">
        <ele>475.3</ele>
        <time>2020-09-23T09:37:03Z</time>
      </trkpt>
      <trkpt lat="46.52597" lon="5.69612">
        <ele>474.8</ele>
        <time>2020-09-23T09:37:14Z</time>
      </trkpt>
      <trkpt lat="46.52599" lon="5.69605">
        <ele>474.2</ele>
        <time>2020-09-23T09:37:33Z</time>
      </trkpt>
      <trkpt lat="46.52602" lon="5.69599">
        <ele>473.7</ele>
        <time>2020-09-23T09:37:40Z</time>
      </trkpt>
      <trkpt lat="46.52603" lon="5.69591">
        <ele>472.3</ele>
        <time>2020-09-23T09:37:56Z</time>
      </trkpt>
      <trkpt lat="46.52606" lon="5.69586">
        <ele>472.1</ele>
        <time>2020-09-23T09:38:04Z</time>
      </trkpt>
      <trkpt lat="46.5261" lon="5.69583">
        <ele>472.2</ele>
        <time>2020-09-23T09:38:11Z</time>
      </trkpt>
      <trkpt lat="46.5261" lon="5.69576">
        <ele>472.6</ele>
        <time>2020-09-23T09:38:22Z</time>
      </trkpt>
      <trkpt lat="46.52605" lon="5.69568">
        <ele>469.3</ele>
        <time>2020-09-23T09:38:26Z</time>
      </trkpt>
      <trkpt lat="46.52602" lon="5.69563">
        <ele>466.6</ele>
        <time>2020-09-23T09:38:29Z</time>
      </trkpt>
      <trkpt lat="46.52606" lon="5.69559">
        <ele>461.9</ele>
        <time>2020-09-23T09:38:43Z</time>
      </trkpt>
      <trkpt lat="46.5261" lon="5.69555">
        <ele>462.3</ele>
        <time>2020-09-23T09:38:47Z</time>
      </trkpt>
      <trkpt lat="46.52614" lon="5.69551">
        <ele>462.9</ele>
        <time>2020-09-23T09:38:54Z</time>
      </trkpt>
      <trkpt lat="46.52617" lon="5.69546">
        <ele>462.4</ele>
        <time>2020-09-23T09:39:02Z</time>
      </trkpt>
      <trkpt lat="46.52621" lon="5.69542">
        <ele>461.6</ele>
        <time>2020-09-23T09:39:08Z</time>
      </trkpt>
      <trkpt lat="46.52624" lon="5.69536">
        <ele>461</ele>
        <time>2020-09-23T09:39:14Z</time>
      </trkpt>
      <trkpt lat="46.52628" lon="5.69532">
        <ele>460.8</ele>
        <time>2020-09-23T09:39:19Z</time>
      </trkpt>
      <trkpt lat="46.52632" lon="5.69529">
        <ele>461.1</ele>
        <time>2020-09-23T09:39:25Z</time>
      </trkpt>
      <trkpt lat="46.52634" lon="5.69522">
        <ele>461.2</ele>
        <time>2020-09-23T09:39:32Z</time>
      </trkpt>
      <trkpt lat="46.52636" lon="5.69516">
        <ele>461</ele>
        <time>2020-09-23T09:39:38Z</time>
      </trkpt>
      <trkpt lat="46.52637" lon="5.69509">
        <ele>460.9</ele>
        <time>2020-09-23T09:39:45Z</time>
      </trkpt>
      <trkpt lat="46.52641" lon="5.69503">
        <ele>460.6</ele>
        <time>2020-09-23T09:39:51Z</time>
      </trkpt>
      <trkpt lat="46.52646" lon="5.69499">
        <ele>459.7</ele>
        <time>2020-09-23T09:39:56Z</time>
      </trkpt>
      <trkpt lat="46.52648" lon="5.69493">
        <ele>458.2</ele>
        <time>2020-09-23T09:40:02Z</time>
      </trkpt>
      <trkpt lat="46.52652" lon="5.69489">
        <ele>456.7</ele>
        <time>2020-09-23T09:40:08Z</time>
      </trkpt>
      <trkpt lat="46.52654" lon="5.69482">
        <ele>455.6</ele>
        <time>2020-09-23T09:40:13Z</time>
      </trkpt>
      <trkpt lat="46.52654" lon="5.69475">
        <ele>454.8</ele>
        <time>2020-09-23T09:40:17Z</time>
      </trkpt>
      <trkpt lat="46.52656" lon="5.69469">
        <ele>453.2</ele>
        <time>2020-09-23T09:40:25Z</time>
      </trkpt>
      <trkpt lat="46.52659" lon="5.69463">
        <ele>451.7</ele>
        <time>2020-09-23T09:40:33Z</time>
      </trkpt>
      <trkpt lat="46.5266" lon="5.69456">
        <ele>450.7</ele>
        <time>2020-09-23T09:40:41Z</time>
      </trkpt>
      <trkpt lat="46.5266" lon="5.69449">
        <ele>449.9</ele>
        <time>2020-09-23T09:40:49Z</time>
      </trkpt>
      <trkpt lat="46.52663" lon="5.69443">
        <ele>449.2</ele>
        <time>2020-09-23T09:40:56Z</time>
      </trkpt>
      <trkpt lat="46.52667" lon="5.6944">
        <ele>449.3</ele>
        <time>2020-09-23T09:41:02Z</time>
      </trkpt>
      <trkpt lat="46.52669" lon="5.69434">
        <ele>450.1</ele>
        <time>2020-09-23T09:41:07Z</time>
      </trkpt>
      <trkpt lat="46.52674" lon="5.69433">
        <ele>450.6</ele>
        <time>2020-09-23T09:41:13Z</time>
      </trkpt>
      <trkpt lat="46.52679" lon="5.69434">
        <ele>450.7</ele>
        <time>2020-09-23T09:41:17Z</time>
      </trkpt>
      <trkpt lat="46.52684" lon="5.69433">
        <ele>450.6</ele>
        <time>2020-09-23T09:41:22Z</time>
      </trkpt>
      <trkpt lat="46.52689" lon="5.69433">
        <ele>450.2</ele>
        <time>2020-09-23T09:41:28Z</time>
      </trkpt>
      <trkpt lat="46.52693" lon="5.69437">
        <ele>449.6</ele>
        <time>2020-09-23T09:41:36Z</time>
      </trkpt>
      <trkpt lat="46.52698" lon="5.69441">
        <ele>449.2</ele>
        <time>2020-09-23T09:41:42Z</time>
      </trkpt>
      <trkpt lat="46.52702" lon="5.69445">
        <ele>448.8</ele>
        <time>2020-09-23T09:41:47Z</time>
      </trkpt>
      <trkpt lat="46.52706" lon="5.6945">
        <ele>448.3</ele>
        <time>2020-09-23T09:41:52Z</time>
      </trkpt>
      <trkpt lat="46.52709" lon="5.69455">
        <ele>448.1</ele>
        <time>2020-09-23T09:41:58Z</time>
      </trkpt>
      <trkpt lat="46.52713" lon="5.69458">
        <ele>446.6</ele>
        <time>2020-09-23T09:42:06Z</time>
      </trkpt>
      <trkpt lat="46.52708" lon="5.69456">
        <ele>445.1</ele>
        <time>2020-09-23T09:42:11Z</time>
      </trkpt>
      <trkpt lat="46.52706" lon="5.69451">
        <ele>430.2</ele>
        <time>2020-09-23T09:42:55Z</time>
      </trkpt>
      <trkpt lat="46.52706" lon="5.69458">
        <ele>432.8</ele>
        <time>2020-09-23T09:43:29Z</time>
      </trkpt>
      <trkpt lat="46.52702" lon="5.69455">
        <ele>430.4</ele>
        <time>2020-09-23T09:43:52Z</time>
      </trkpt>
      <trkpt lat="46.527" lon="5.69449">
        <ele>425.2</ele>
        <time>2020-09-23T09:44:17Z</time>
      </trkpt>
      <trkpt lat="46.52696" lon="5.69445">
        <ele>424.6</ele>
        <time>2020-09-23T09:44:27Z</time>
      </trkpt>
      <trkpt lat="46.52693" lon="5.69439">
        <ele>424.8</ele>
        <time>2020-09-23T09:44:35Z</time>
      </trkpt>
      <trkpt lat="46.5269" lon="5.69434">
        <ele>424.9</ele>
        <time>2020-09-23T09:44:43Z</time>
      </trkpt>
      <trkpt lat="46.52693" lon="5.69428">
        <ele>442.3</ele>
        <time>2020-09-23T09:45:26Z</time>
      </trkpt>
      <trkpt lat="46.52695" lon="5.69421">
        <ele>445.5</ele>
        <time>2020-09-23T09:45:32Z</time>
      </trkpt>
      <trkpt lat="46.52696" lon="5.69414">
        <ele>447.1</ele>
        <time>2020-09-23T09:45:38Z</time>
      </trkpt>
      <trkpt lat="46.52693" lon="5.69409">
        <ele>448.8</ele>
        <time>2020-09-23T09:45:51Z</time>
      </trkpt>
      <trkpt lat="46.52694" lon="5.69401">
        <ele>448.5</ele>
        <time>2020-09-23T09:46:02Z</time>
      </trkpt>
      <trkpt lat="46.52695" lon="5.69394">
        <ele>449.7</ele>
        <time>2020-09-23T09:46:08Z</time>
      </trkpt>
      <trkpt lat="46.52698" lon="5.69387">
        <ele>451.2</ele>
        <time>2020-09-23T09:46:14Z</time>
      </trkpt>
      <trkpt lat="46.527" lon="5.69381">
        <ele>452.1</ele>
        <time>2020-09-23T09:46:17Z</time>
      </trkpt>
      <trkpt lat="46.52703" lon="5.69376">
        <ele>453.6</ele>
        <time>2020-09-23T09:46:31Z</time>
      </trkpt>
      <trkpt lat="46.52705" lon="5.69369">
        <ele>452.6</ele>
        <time>2020-09-23T09:47:05Z</time>
      </trkpt>
      <trkpt lat="46.52709" lon="5.69366">
        <ele>452.2</ele>
        <time>2020-09-23T09:47:11Z</time>
      </trkpt>
      <trkpt lat="46.52711" lon="5.6936">
        <ele>452</ele>
        <time>2020-09-23T09:47:17Z</time>
      </trkpt>
      <trkpt lat="46.52712" lon="5.69353">
        <ele>451.8</ele>
        <time>2020-09-23T09:47:23Z</time>
      </trkpt>
      <trkpt lat="46.52714" lon="5.69347">
        <ele>450.5</ele>
        <time>2020-09-23T09:47:39Z</time>
      </trkpt>
      <trkpt lat="46.52716" lon="5.6934">
        <ele>449.7</ele>
        <time>2020-09-23T09:47:45Z</time>
      </trkpt>
      <trkpt lat="46.5272" lon="5.69335">
        <ele>448.9</ele>
        <time>2020-09-23T09:47:50Z</time>
      </trkpt>
      <trkpt lat="46.52724" lon="5.69331">
        <ele>448.4</ele>
        <time>2020-09-23T09:47:55Z</time>
      </trkpt>
      <trkpt lat="46.52728" lon="5.69325">
        <ele>448.3</ele>
        <time>2020-09-23T09:48:00Z</time>
      </trkpt>
      <trkpt lat="46.52732" lon="5.6932">
        <ele>448</ele>
        <time>2020-09-23T09:48:05Z</time>
      </trkpt>
      <trkpt lat="46.52736" lon="5.69318">
        <ele>447.3</ele>
        <time>2020-09-23T09:48:10Z</time>
      </trkpt>
      <trkpt lat="46.5274" lon="5.69313">
        <ele>446.4</ele>
        <time>2020-09-23T09:48:17Z</time>
      </trkpt>
      <trkpt lat="46.52743" lon="5.69307">
        <ele>445.7</ele>
        <time>2020-09-23T09:48:22Z</time>
      </trkpt>
      <trkpt lat="46.52747" lon="5.69301">
        <ele>445.2</ele>
        <time>2020-09-23T09:48:28Z</time>
      </trkpt>
      <trkpt lat="46.52751" lon="5.69298">
        <ele>444.9</ele>
        <time>2020-09-23T09:48:32Z</time>
      </trkpt>
      <trkpt lat="46.52756" lon="5.69294">
        <ele>444.5</ele>
        <time>2020-09-23T09:48:37Z</time>
      </trkpt>
      <trkpt lat="46.5276" lon="5.6929">
        <ele>443.9</ele>
        <time>2020-09-23T09:48:44Z</time>
      </trkpt>
      <trkpt lat="46.52765" lon="5.69284">
        <ele>445.6</ele>
        <time>2020-09-23T09:48:47Z</time>
      </trkpt>
      <trkpt lat="46.5277" lon="5.69278">
        <ele>448</ele>
        <time>2020-09-23T09:48:50Z</time>
      </trkpt>
      <trkpt lat="46.52773" lon="5.69274">
        <ele>450.3</ele>
        <time>2020-09-23T09:48:53Z</time>
      </trkpt>
      <trkpt lat="46.52777" lon="5.69269">
        <ele>453.3</ele>
        <time>2020-09-23T09:48:57Z</time>
      </trkpt>
      <trkpt lat="46.52781" lon="5.69264">
        <ele>456.6</ele>
        <time>2020-09-23T09:49:02Z</time>
      </trkpt>
      <trkpt lat="46.52784" lon="5.69259">
        <ele>458.9</ele>
        <time>2020-09-23T09:49:06Z</time>
      </trkpt>
      <trkpt lat="46.52786" lon="5.69252">
        <ele>461.2</ele>
        <time>2020-09-23T09:49:11Z</time>
      </trkpt>
      <trkpt lat="46.52789" lon="5.69248">
        <ele>462.5</ele>
        <time>2020-09-23T09:49:16Z</time>
      </trkpt>
      <trkpt lat="46.52792" lon="5.69242">
        <ele>464.3</ele>
        <time>2020-09-23T09:49:24Z</time>
      </trkpt>
      <trkpt lat="46.52795" lon="5.69236">
        <ele>465.4</ele>
        <time>2020-09-23T09:49:30Z</time>
      </trkpt>
      <trkpt lat="46.52797" lon="5.69229">
        <ele>466.5</ele>
        <time>2020-09-23T09:49:36Z</time>
      </trkpt>
      <trkpt lat="46.52799" lon="5.69222">
        <ele>467.1</ele>
        <time>2020-09-23T09:49:41Z</time>
      </trkpt>
      <trkpt lat="46.52795" lon="5.69212">
        <ele>467</ele>
        <time>2020-09-23T09:49:44Z</time>
      </trkpt>
      <trkpt lat="46.52796" lon="5.69205">
        <ele>467.4</ele>
        <time>2020-09-23T09:49:49Z</time>
      </trkpt>
      <trkpt lat="46.52799" lon="5.69199">
        <ele>468.3</ele>
        <time>2020-09-23T09:49:56Z</time>
      </trkpt>
      <trkpt lat="46.52801" lon="5.69193">
        <ele>469.3</ele>
        <time>2020-09-23T09:50:03Z</time>
      </trkpt>
      <trkpt lat="46.52804" lon="5.69186">
        <ele>469.9</ele>
        <time>2020-09-23T09:50:10Z</time>
      </trkpt>
      <trkpt lat="46.52807" lon="5.6918">
        <ele>469.8</ele>
        <time>2020-09-23T09:50:14Z</time>
      </trkpt>
      <trkpt lat="46.5281" lon="5.69176">
        <ele>469.6</ele>
        <time>2020-09-23T09:50:20Z</time>
      </trkpt>
      <trkpt lat="46.52814" lon="5.69171">
        <ele>469.5</ele>
        <time>2020-09-23T09:50:24Z</time>
      </trkpt>
      <trkpt lat="46.52817" lon="5.69165">
        <ele>469</ele>
        <time>2020-09-23T09:50:27Z</time>
      </trkpt>
      <trkpt lat="46.5282" lon="5.69159">
        <ele>468.5</ele>
        <time>2020-09-23T09:50:31Z</time>
      </trkpt>
      <trkpt lat="46.52822" lon="5.69153">
        <ele>468.1</ele>
        <time>2020-09-23T09:50:35Z</time>
      </trkpt>
      <trkpt lat="46.52821" lon="5.69143">
        <ele>466.5</ele>
        <time>2020-09-23T09:50:38Z</time>
      </trkpt>
      <trkpt lat="46.5282" lon="5.69136">
        <ele>465.2</ele>
        <time>2020-09-23T09:50:41Z</time>
      </trkpt>
      <trkpt lat="46.52822" lon="5.6913">
        <ele>462.9</ele>
        <time>2020-09-23T09:50:46Z</time>
      </trkpt>
      <trkpt lat="46.52825" lon="5.69123">
        <ele>460.8</ele>
        <time>2020-09-23T09:50:51Z</time>
      </trkpt>
      <trkpt lat="46.52827" lon="5.69117">
        <ele>459</ele>
        <time>2020-09-23T09:50:55Z</time>
      </trkpt>
      <trkpt lat="46.5283" lon="5.69111">
        <ele>457.1</ele>
        <time>2020-09-23T09:50:59Z</time>
      </trkpt>
      <trkpt lat="46.52828" lon="5.691">
        <ele>452.5</ele>
        <time>2020-09-23T09:51:02Z</time>
      </trkpt>
      <trkpt lat="46.52829" lon="5.69092">
        <ele>447.7</ele>
        <time>2020-09-23T09:51:08Z</time>
      </trkpt>
      <trkpt lat="46.52832" lon="5.69088">
        <ele>444.3</ele>
        <time>2020-09-23T09:51:15Z</time>
      </trkpt>
      <trkpt lat="46.52836" lon="5.69082">
        <ele>442.5</ele>
        <time>2020-09-23T09:51:20Z</time>
      </trkpt>
      <trkpt lat="46.52838" lon="5.69076">
        <ele>441.3</ele>
        <time>2020-09-23T09:51:24Z</time>
      </trkpt>
      <trkpt lat="46.52839" lon="5.6907">
        <ele>439.6</ele>
        <time>2020-09-23T09:51:30Z</time>
      </trkpt>
      <trkpt lat="46.52839" lon="5.69063">
        <ele>438.1</ele>
        <time>2020-09-23T09:51:36Z</time>
      </trkpt>
      <trkpt lat="46.52836" lon="5.69057">
        <ele>437.3</ele>
        <time>2020-09-23T09:51:40Z</time>
      </trkpt>
      <trkpt lat="46.52834" lon="5.69051">
        <ele>436.8</ele>
        <time>2020-09-23T09:51:43Z</time>
      </trkpt>
      <trkpt lat="46.52832" lon="5.69045">
        <ele>436.5</ele>
        <time>2020-09-23T09:51:46Z</time>
      </trkpt>
      <trkpt lat="46.52828" lon="5.6904">
        <ele>435.9</ele>
        <time>2020-09-23T09:51:50Z</time>
      </trkpt>
      <trkpt lat="46.52825" lon="5.69035">
        <ele>435.5</ele>
        <time>2020-09-23T09:51:54Z</time>
      </trkpt>
      <trkpt lat="46.52821" lon="5.6903">
        <ele>435.1</ele>
        <time>2020-09-23T09:51:58Z</time>
      </trkpt>
      <trkpt lat="46.52817" lon="5.69025">
        <ele>435</ele>
        <time>2020-09-23T09:52:02Z</time>
      </trkpt>
      <trkpt lat="46.52813" lon="5.69021">
        <ele>434.8</ele>
        <time>2020-09-23T09:52:06Z</time>
      </trkpt>
      <trkpt lat="46.52813" lon="5.69012">
        <ele>437.1</ele>
        <time>2020-09-23T09:52:11Z</time>
      </trkpt>
      <trkpt lat="46.52812" lon="5.69005">
        <ele>439.6</ele>
        <time>2020-09-23T09:52:16Z</time>
      </trkpt>
      <trkpt lat="46.5281" lon="5.68999">
        <ele>441.4</ele>
        <time>2020-09-23T09:52:21Z</time>
      </trkpt>
      <trkpt lat="46.52808" lon="5.68992">
        <ele>443.7</ele>
        <time>2020-09-23T09:52:27Z</time>
      </trkpt>
      <trkpt lat="46.52805" lon="5.68986">
        <ele>445.9</ele>
        <time>2020-09-23T09:52:33Z</time>
      </trkpt>
      <trkpt lat="46.52803" lon="5.6898">
        <ele>448.2</ele>
        <time>2020-09-23T09:52:39Z</time>
      </trkpt>
      <trkpt lat="46.52801" lon="5.68973">
        <ele>449.6</ele>
        <time>2020-09-23T09:52:44Z</time>
      </trkpt>
      <trkpt lat="46.52799" lon="5.68966">
        <ele>450.4</ele>
        <time>2020-09-23T09:52:51Z</time>
      </trkpt>
      <trkpt lat="46.52797" lon="5.6896">
        <ele>450.8</ele>
        <time>2020-09-23T09:52:56Z</time>
      </trkpt>
      <trkpt lat="46.52796" lon="5.68952">
        <ele>451.3</ele>
        <time>2020-09-23T09:53:02Z</time>
      </trkpt>
      <trkpt lat="46.52795" lon="5.68945">
        <ele>452.2</ele>
        <time>2020-09-23T09:53:10Z</time>
      </trkpt>
      <trkpt lat="46.52792" lon="5.68939">
        <ele>451.9</ele>
        <time>2020-09-23T09:53:15Z</time>
      </trkpt>
      <trkpt lat="46.52792" lon="5.68932">
        <ele>451.5</ele>
        <time>2020-09-23T09:53:19Z</time>
      </trkpt>
      <trkpt lat="46.5279" lon="5.68925">
        <ele>450.9</ele>
        <time>2020-09-23T09:53:23Z</time>
      </trkpt>
      <trkpt lat="46.52787" lon="5.68918">
        <ele>450.4</ele>
        <time>2020-09-23T09:53:27Z</time>
      </trkpt>
      <trkpt lat="46.52784" lon="5.68913">
        <ele>450</ele>
        <time>2020-09-23T09:53:31Z</time>
      </trkpt>
      <trkpt lat="46.52781" lon="5.68906">
        <ele>449.3</ele>
        <time>2020-09-23T09:53:36Z</time>
      </trkpt>
      <trkpt lat="46.52781" lon="5.68899">
        <ele>449</ele>
        <time>2020-09-23T09:53:41Z</time>
      </trkpt>
      <trkpt lat="46.5278" lon="5.68893">
        <ele>448.5</ele>
        <time>2020-09-23T09:53:46Z</time>
      </trkpt>
      <trkpt lat="46.52779" lon="5.68886">
        <ele>448</ele>
        <time>2020-09-23T09:53:51Z</time>
      </trkpt>
      <trkpt lat="46.5278" lon="5.68879">
        <ele>447.7</ele>
        <time>2020-09-23T09:53:56Z</time>
      </trkpt>
      <trkpt lat="46.5278" lon="5.68872">
        <ele>447.5</ele>
        <time>2020-09-23T09:54:04Z</time>
      </trkpt>
      <trkpt lat="46.52779" lon="5.68865">
        <ele>447.5</ele>
        <time>2020-09-23T09:54:11Z</time>
      </trkpt>
      <trkpt lat="46.5278" lon="5.68856">
        <ele>449.7</ele>
        <time>2020-09-23T09:54:14Z</time>
      </trkpt>
      <trkpt lat="46.52781" lon="5.68849">
        <ele>451.9</ele>
        <time>2020-09-23T09:54:18Z</time>
      </trkpt>
      <trkpt lat="46.5278" lon="5.68842">
        <ele>453.7</ele>
        <time>2020-09-23T09:54:24Z</time>
      </trkpt>
      <trkpt lat="46.5278" lon="5.68835">
        <ele>454.5</ele>
        <time>2020-09-23T09:54:29Z</time>
      </trkpt>
      <trkpt lat="46.52779" lon="5.68828">
        <ele>455.2</ele>
        <time>2020-09-23T09:54:34Z</time>
      </trkpt>
      <trkpt lat="46.52778" lon="5.6882">
        <ele>455.7</ele>
        <time>2020-09-23T09:54:40Z</time>
      </trkpt>
      <trkpt lat="46.52778" lon="5.68813">
        <ele>455.8</ele>
        <time>2020-09-23T09:54:45Z</time>
      </trkpt>
      <trkpt lat="46.52777" lon="5.68806">
        <ele>455.1</ele>
        <time>2020-09-23T09:54:50Z</time>
      </trkpt>
      <trkpt lat="46.52774" lon="5.68799">
        <ele>453.8</ele>
        <time>2020-09-23T09:54:56Z</time>
      </trkpt>
      <trkpt lat="46.52772" lon="5.68792">
        <ele>452.3</ele>
        <time>2020-09-23T09:55:01Z</time>
      </trkpt>
      <trkpt lat="46.52771" lon="5.68786">
        <ele>451</ele>
        <time>2020-09-23T09:55:06Z</time>
      </trkpt>
      <trkpt lat="46.5277" lon="5.68779">
        <ele>450.8</ele>
        <time>2020-09-23T09:55:12Z</time>
      </trkpt>
      <trkpt lat="46.52767" lon="5.68771">
        <ele>451.2</ele>
        <time>2020-09-23T09:55:15Z</time>
      </trkpt>
      <trkpt lat="46.52766" lon="5.68763">
        <ele>452</ele>
        <time>2020-09-23T09:55:19Z</time>
      </trkpt>
      <trkpt lat="46.52766" lon="5.68757">
        <ele>453.2</ele>
        <time>2020-09-23T09:55:24Z</time>
      </trkpt>
      <trkpt lat="46.52766" lon="5.68749">
        <ele>454.5</ele>
        <time>2020-09-23T09:55:29Z</time>
      </trkpt>
      <trkpt lat="46.52765" lon="5.68742">
        <ele>455.5</ele>
        <time>2020-09-23T09:55:34Z</time>
      </trkpt>
      <trkpt lat="46.52763" lon="5.68735">
        <ele>456.3</ele>
        <time>2020-09-23T09:55:39Z</time>
      </trkpt>
      <trkpt lat="46.52761" lon="5.68729">
        <ele>456.9</ele>
        <time>2020-09-23T09:55:44Z</time>
      </trkpt>
      <trkpt lat="46.52758" lon="5.68724">
        <ele>457.4</ele>
        <time>2020-09-23T09:55:49Z</time>
      </trkpt>
      <trkpt lat="46.52757" lon="5.68717">
        <ele>457.8</ele>
        <time>2020-09-23T09:55:56Z</time>
      </trkpt>
      <trkpt lat="46.52755" lon="5.6871">
        <ele>457.4</ele>
        <time>2020-09-23T09:56:01Z</time>
      </trkpt>
      <trkpt lat="46.52752" lon="5.68704">
        <ele>456.7</ele>
        <time>2020-09-23T09:56:04Z</time>
      </trkpt>
      <trkpt lat="46.52751" lon="5.68698">
        <ele>455.3</ele>
        <time>2020-09-23T09:56:08Z</time>
      </trkpt>
      <trkpt lat="46.5275" lon="5.6869">
        <ele>453</ele>
        <time>2020-09-23T09:56:13Z</time>
      </trkpt>
      <trkpt lat="46.52751" lon="5.68683">
        <ele>449.9</ele>
        <time>2020-09-23T09:56:21Z</time>
      </trkpt>
      <trkpt lat="46.52751" lon="5.68676">
        <ele>447.9</ele>
        <time>2020-09-23T09:56:29Z</time>
      </trkpt>
      <trkpt lat="46.52751" lon="5.68669">
        <ele>447.5</ele>
        <time>2020-09-23T09:56:33Z</time>
      </trkpt>
      <trkpt lat="46.5275" lon="5.68661">
        <ele>447.2</ele>
        <time>2020-09-23T09:56:38Z</time>
      </trkpt>
      <trkpt lat="46.52749" lon="5.68653">
        <ele>447</ele>
        <time>2020-09-23T09:56:43Z</time>
      </trkpt>
      <trkpt lat="46.52749" lon="5.68645">
        <ele>447</ele>
        <time>2020-09-23T09:56:47Z</time>
      </trkpt>
      <trkpt lat="46.52747" lon="5.68638">
        <ele>447.2</ele>
        <time>2020-09-23T09:56:51Z</time>
      </trkpt>
      <trkpt lat="46.52745" lon="5.68631">
        <ele>447.6</ele>
        <time>2020-09-23T09:56:56Z</time>
      </trkpt>
      <trkpt lat="46.52745" lon="5.68624">
        <ele>448</ele>
        <time>2020-09-23T09:57:03Z</time>
      </trkpt>
      <trkpt lat="46.52747" lon="5.68617">
        <ele>448.1</ele>
        <time>2020-09-23T09:57:08Z</time>
      </trkpt>
      <trkpt lat="46.52748" lon="5.6861">
        <ele>447.9</ele>
        <time>2020-09-23T09:57:13Z</time>
      </trkpt>
      <trkpt lat="46.52745" lon="5.68604">
        <ele>448.1</ele>
        <time>2020-09-23T09:57:23Z</time>
      </trkpt>
      <trkpt lat="46.52747" lon="5.68598">
        <ele>447.6</ele>
        <time>2020-09-23T09:57:28Z</time>
      </trkpt>
      <trkpt lat="46.52749" lon="5.68592">
        <ele>447.1</ele>
        <time>2020-09-23T09:57:33Z</time>
      </trkpt>
      <trkpt lat="46.52749" lon="5.68585">
        <ele>446</ele>
        <time>2020-09-23T09:57:51Z</time>
      </trkpt>
      <trkpt lat="46.5275" lon="5.68578">
        <ele>445.8</ele>
        <time>2020-09-23T09:57:57Z</time>
      </trkpt>
      <trkpt lat="46.52752" lon="5.68571">
        <ele>445.4</ele>
        <time>2020-09-23T09:58:05Z</time>
      </trkpt>
      <trkpt lat="46.52752" lon="5.68564">
        <ele>445.3</ele>
        <time>2020-09-23T09:58:09Z</time>
      </trkpt>
      <trkpt lat="46.52752" lon="5.68556">
        <ele>445.1</ele>
        <time>2020-09-23T09:58:13Z</time>
      </trkpt>
      <trkpt lat="46.52752" lon="5.68547">
        <ele>445</ele>
        <time>2020-09-23T09:58:17Z</time>
      </trkpt>
      <trkpt lat="46.52751" lon="5.6854">
        <ele>444.5</ele>
        <time>2020-09-23T09:58:20Z</time>
      </trkpt>
      <trkpt lat="46.5275" lon="5.68532">
        <ele>444</ele>
        <time>2020-09-23T09:58:25Z</time>
      </trkpt>
      <trkpt lat="46.52749" lon="5.68525">
        <ele>443</ele>
        <time>2020-09-23T09:58:32Z</time>
      </trkpt>
      <trkpt lat="46.52745" lon="5.68521">
        <ele>439.6</ele>
        <time>2020-09-23T09:58:49Z</time>
      </trkpt>
      <trkpt lat="46.52748" lon="5.68516">
        <ele>439.7</ele>
        <time>2020-09-23T09:58:59Z</time>
      </trkpt>
      <trkpt lat="46.52746" lon="5.68511">
        <ele>438.8</ele>
        <time>2020-09-23T09:59:08Z</time>
      </trkpt>
      <trkpt lat="46.52742" lon="5.68506">
        <ele>438.2</ele>
        <time>2020-09-23T09:59:30Z</time>
      </trkpt>
      <trkpt lat="46.52742" lon="5.68499">
        <ele>438.9</ele>
        <time>2020-09-23T09:59:54Z</time>
      </trkpt>
      <trkpt lat="46.52742" lon="5.68492">
        <ele>440.3</ele>
        <time>2020-09-23T10:00:06Z</time>
      </trkpt>
      <trkpt lat="46.52743" lon="5.68485">
        <ele>441.2</ele>
        <time>2020-09-23T10:00:12Z</time>
      </trkpt>
      <trkpt lat="46.52744" lon="5.68478">
        <ele>441.6</ele>
        <time>2020-09-23T10:00:17Z</time>
      </trkpt>
      <trkpt lat="46.52741" lon="5.68473">
        <ele>441.8</ele>
        <time>2020-09-23T10:00:25Z</time>
      </trkpt>
      <trkpt lat="46.52742" lon="5.68466">
        <ele>441.4</ele>
        <time>2020-09-23T10:00:42Z</time>
      </trkpt>
      <trkpt lat="46.52746" lon="5.68462">
        <ele>442.7</ele>
        <time>2020-09-23T10:00:47Z</time>
      </trkpt>
      <trkpt lat="46.52748" lon="5.68455">
        <ele>445.2</ele>
        <time>2020-09-23T10:00:52Z</time>
      </trkpt>
      <trkpt lat="46.5275" lon="5.68448">
        <ele>447.2</ele>
        <time>2020-09-23T10:00:57Z</time>
      </trkpt>
      <trkpt lat="46.52751" lon="5.6844">
        <ele>449.5</ele>
        <time>2020-09-23T10:01:02Z</time>
      </trkpt>
      <trkpt lat="46.52753" lon="5.68434">
        <ele>451.7</ele>
        <time>2020-09-23T10:01:07Z</time>
      </trkpt>
      <trkpt lat="46.52756" lon="5.68428">
        <ele>453</ele>
        <time>2020-09-23T10:01:12Z</time>
      </trkpt>
      <trkpt lat="46.52758" lon="5.6842">
        <ele>453</ele>
        <time>2020-09-23T10:01:17Z</time>
      </trkpt>
      <trkpt lat="46.52759" lon="5.68413">
        <ele>452.7</ele>
        <time>2020-09-23T10:01:22Z</time>
      </trkpt>
      <trkpt lat="46.5276" lon="5.68406">
        <ele>453</ele>
        <time>2020-09-23T10:01:27Z</time>
      </trkpt>
      <trkpt lat="46.52762" lon="5.68399">
        <ele>454</ele>
        <time>2020-09-23T10:01:31Z</time>
      </trkpt>
      <trkpt lat="46.52764" lon="5.68392">
        <ele>455.5</ele>
        <time>2020-09-23T10:01:36Z</time>
      </trkpt>
      <trkpt lat="46.52766" lon="5.68386">
        <ele>457</ele>
        <time>2020-09-23T10:01:40Z</time>
      </trkpt>
      <trkpt lat="46.52769" lon="5.68381">
        <ele>457.6</ele>
        <time>2020-09-23T10:01:44Z</time>
      </trkpt>
      <trkpt lat="46.52772" lon="5.68375">
        <ele>458.4</ele>
        <time>2020-09-23T10:01:48Z</time>
      </trkpt>
      <trkpt lat="46.52775" lon="5.68368">
        <ele>459.5</ele>
        <time>2020-09-23T10:01:52Z</time>
      </trkpt>
      <trkpt lat="46.52778" lon="5.68361">
        <ele>460.8</ele>
        <time>2020-09-23T10:01:56Z</time>
      </trkpt>
      <trkpt lat="46.52779" lon="5.68354">
        <ele>460.5</ele>
        <time>2020-09-23T10:02:01Z</time>
      </trkpt>
      <trkpt lat="46.52777" lon="5.68347">
        <ele>458.3</ele>
        <time>2020-09-23T10:02:07Z</time>
      </trkpt>
      <trkpt lat="46.52776" lon="5.6834">
        <ele>456.7</ele>
        <time>2020-09-23T10:02:11Z</time>
      </trkpt>
      <trkpt lat="46.52777" lon="5.68333">
        <ele>455.1</ele>
        <time>2020-09-23T10:02:16Z</time>
      </trkpt>
      <trkpt lat="46.5278" lon="5.68328">
        <ele>454.3</ele>
        <time>2020-09-23T10:02:20Z</time>
      </trkpt>
      <trkpt lat="46.52782" lon="5.68322">
        <ele>453.7</ele>
        <time>2020-09-23T10:02:25Z</time>
      </trkpt>
      <trkpt lat="46.52782" lon="5.68315">
        <ele>452.8</ele>
        <time>2020-09-23T10:02:30Z</time>
      </trkpt>
      <trkpt lat="46.52783" lon="5.68308">
        <ele>450.6</ele>
        <time>2020-09-23T10:02:35Z</time>
      </trkpt>
      <trkpt lat="46.52785" lon="5.68302">
        <ele>449</ele>
        <time>2020-09-23T10:02:39Z</time>
      </trkpt>
      <trkpt lat="46.5279" lon="5.68298">
        <ele>448.8</ele>
        <time>2020-09-23T10:02:42Z</time>
      </trkpt>
      <trkpt lat="46.52796" lon="5.68294">
        <ele>450</ele>
        <time>2020-09-23T10:02:45Z</time>
      </trkpt>
      <trkpt lat="46.52798" lon="5.68288">
        <ele>450.4</ele>
        <time>2020-09-23T10:02:50Z</time>
      </trkpt>
      <trkpt lat="46.52798" lon="5.68281">
        <ele>449.6</ele>
        <time>2020-09-23T10:02:57Z</time>
      </trkpt>
      <trkpt lat="46.52799" lon="5.68273">
        <ele>447.3</ele>
        <time>2020-09-23T10:03:04Z</time>
      </trkpt>
      <trkpt lat="46.52804" lon="5.68267">
        <ele>446.6</ele>
        <time>2020-09-23T10:03:09Z</time>
      </trkpt>
      <trkpt lat="46.52808" lon="5.68263">
        <ele>447.3</ele>
        <time>2020-09-23T10:03:12Z</time>
      </trkpt>
      <trkpt lat="46.5281" lon="5.68256">
        <ele>447.2</ele>
        <time>2020-09-23T10:03:17Z</time>
      </trkpt>
      <trkpt lat="46.52813" lon="5.68249">
        <ele>446.5</ele>
        <time>2020-09-23T10:03:22Z</time>
      </trkpt>
      <trkpt lat="46.52814" lon="5.68241">
        <ele>446.8</ele>
        <time>2020-09-23T10:03:25Z</time>
      </trkpt>
      <trkpt lat="46.52817" lon="5.68235">
        <ele>446.4</ele>
        <time>2020-09-23T10:03:30Z</time>
      </trkpt>
      <trkpt lat="46.5282" lon="5.6823">
        <ele>446</ele>
        <time>2020-09-23T10:03:34Z</time>
      </trkpt>
      <trkpt lat="46.52822" lon="5.68224">
        <ele>445.9</ele>
        <time>2020-09-23T10:03:38Z</time>
      </trkpt>
      <trkpt lat="46.52826" lon="5.68218">
        <ele>447.2</ele>
        <time>2020-09-23T10:03:42Z</time>
      </trkpt>
      <trkpt lat="46.5283" lon="5.68213">
        <ele>449</ele>
        <time>2020-09-23T10:03:46Z</time>
      </trkpt>
      <trkpt lat="46.52835" lon="5.6821">
        <ele>450.4</ele>
        <time>2020-09-23T10:03:49Z</time>
      </trkpt>
      <trkpt lat="46.5284" lon="5.68207">
        <ele>451.9</ele>
        <time>2020-09-23T10:03:52Z</time>
      </trkpt>
      <trkpt lat="46.52843" lon="5.68201">
        <ele>453.7</ele>
        <time>2020-09-23T10:03:57Z</time>
      </trkpt>
      <trkpt lat="46.52844" lon="5.68194">
        <ele>454.7</ele>
        <time>2020-09-23T10:04:02Z</time>
      </trkpt>
      <trkpt lat="46.52846" lon="5.68188">
        <ele>454.7</ele>
        <time>2020-09-23T10:04:06Z</time>
      </trkpt>
      <trkpt lat="46.52847" lon="5.68182">
        <ele>453.9</ele>
        <time>2020-09-23T10:04:10Z</time>
      </trkpt>
      <trkpt lat="46.5285" lon="5.68176">
        <ele>453.4</ele>
        <time>2020-09-23T10:04:14Z</time>
      </trkpt>
      <trkpt lat="46.52855" lon="5.68172">
        <ele>453</ele>
        <time>2020-09-23T10:04:18Z</time>
      </trkpt>
      <trkpt lat="46.52859" lon="5.68166">
        <ele>452.9</ele>
        <time>2020-09-23T10:04:22Z</time>
      </trkpt>
      <trkpt lat="46.52861" lon="5.6816">
        <ele>452.9</ele>
        <time>2020-09-23T10:04:27Z</time>
      </trkpt>
      <trkpt lat="46.52863" lon="5.68154">
        <ele>452.2</ele>
        <time>2020-09-23T10:04:32Z</time>
      </trkpt>
      <trkpt lat="46.52867" lon="5.68148">
        <ele>451.5</ele>
        <time>2020-09-23T10:04:38Z</time>
      </trkpt>
      <trkpt lat="46.52869" lon="5.68142">
        <ele>450.9</ele>
        <time>2020-09-23T10:04:43Z</time>
      </trkpt>
      <trkpt lat="46.52873" lon="5.68137">
        <ele>450.2</ele>
        <time>2020-09-23T10:04:50Z</time>
      </trkpt>
      <trkpt lat="46.52877" lon="5.68132">
        <ele>450.3</ele>
        <time>2020-09-23T10:04:55Z</time>
      </trkpt>
      <trkpt lat="46.52883" lon="5.68128">
        <ele>452.3</ele>
        <time>2020-09-23T10:04:58Z</time>
      </trkpt>
      <trkpt lat="46.52888" lon="5.68124">
        <ele>453.9</ele>
        <time>2020-09-23T10:05:01Z</time>
      </trkpt>
      <trkpt lat="46.52892" lon="5.68121">
        <ele>456.2</ele>
        <time>2020-09-23T10:05:06Z</time>
      </trkpt>
      <trkpt lat="46.52896" lon="5.68115">
        <ele>458.3</ele>
        <time>2020-09-23T10:05:13Z</time>
      </trkpt>
      <trkpt lat="46.52899" lon="5.6811">
        <ele>458.8</ele>
        <time>2020-09-23T10:05:18Z</time>
      </trkpt>
      <trkpt lat="46.52903" lon="5.68106">
        <ele>456.7</ele>
        <time>2020-09-23T10:05:22Z</time>
      </trkpt>
      <trkpt lat="46.52906" lon="5.68101">
        <ele>454.5</ele>
        <time>2020-09-23T10:05:27Z</time>
      </trkpt>
      <trkpt lat="46.52911" lon="5.68098">
        <ele>453</ele>
        <time>2020-09-23T10:05:33Z</time>
      </trkpt>
      <trkpt lat="46.52915" lon="5.68095">
        <ele>451.9</ele>
        <time>2020-09-23T10:05:38Z</time>
      </trkpt>
      <trkpt lat="46.52913" lon="5.68086">
        <ele>448.5</ele>
        <time>2020-09-23T10:05:41Z</time>
      </trkpt>
      <trkpt lat="46.52914" lon="5.68079">
        <ele>444.7</ele>
        <time>2020-09-23T10:05:47Z</time>
      </trkpt>
      <trkpt lat="46.52918" lon="5.68074">
        <ele>442.8</ele>
        <time>2020-09-23T10:05:51Z</time>
      </trkpt>
      <trkpt lat="46.52925" lon="5.68069">
        <ele>444.2</ele>
        <time>2020-09-23T10:05:54Z</time>
      </trkpt>
      <trkpt lat="46.5293" lon="5.68065">
        <ele>445.1</ele>
        <time>2020-09-23T10:05:58Z</time>
      </trkpt>
      <trkpt lat="46.52934" lon="5.6806">
        <ele>445.5</ele>
        <time>2020-09-23T10:06:02Z</time>
      </trkpt>
      <trkpt lat="46.52938" lon="5.68056">
        <ele>445.6</ele>
        <time>2020-09-23T10:06:05Z</time>
      </trkpt>
      <trkpt lat="46.52941" lon="5.6805">
        <ele>445.6</ele>
        <time>2020-09-23T10:06:10Z</time>
      </trkpt>
      <trkpt lat="46.52942" lon="5.68043">
        <ele>445.3</ele>
        <time>2020-09-23T10:06:16Z</time>
      </trkpt>
      <trkpt lat="46.52945" lon="5.68037">
        <ele>444.7</ele>
        <time>2020-09-23T10:06:22Z</time>
      </trkpt>
      <trkpt lat="46.52948" lon="5.68032">
        <ele>444.4</ele>
        <time>2020-09-23T10:06:27Z</time>
      </trkpt>
      <trkpt lat="46.52952" lon="5.68026">
        <ele>443.9</ele>
        <time>2020-09-23T10:06:34Z</time>
      </trkpt>
      <trkpt lat="46.52957" lon="5.68022">
        <ele>443.1</ele>
        <time>2020-09-23T10:06:39Z</time>
      </trkpt>
      <trkpt lat="46.52961" lon="5.68017">
        <ele>442.2</ele>
        <time>2020-09-23T10:06:44Z</time>
      </trkpt>
      <trkpt lat="46.52966" lon="5.68015">
        <ele>441.7</ele>
        <time>2020-09-23T10:06:49Z</time>
      </trkpt>
      <trkpt lat="46.5297" lon="5.68012">
        <ele>441.5</ele>
        <time>2020-09-23T10:06:54Z</time>
      </trkpt>
      <trkpt lat="46.52972" lon="5.68005">
        <ele>440.7</ele>
        <time>2020-09-23T10:07:01Z</time>
      </trkpt>
      <trkpt lat="46.52976" lon="5.67998">
        <ele>440.4</ele>
        <time>2020-09-23T10:07:05Z</time>
      </trkpt>
      <trkpt lat="46.5298" lon="5.67995">
        <ele>440.3</ele>
        <time>2020-09-23T10:07:09Z</time>
      </trkpt>
      <trkpt lat="46.52983" lon="5.67989">
        <ele>438.9</ele>
        <time>2020-09-23T10:07:16Z</time>
      </trkpt>
      <trkpt lat="46.52986" lon="5.67983">
        <ele>436.6</ele>
        <time>2020-09-23T10:07:22Z</time>
      </trkpt>
      <trkpt lat="46.5299" lon="5.67978">
        <ele>435.4</ele>
        <time>2020-09-23T10:07:26Z</time>
      </trkpt>
      <trkpt lat="46.52995" lon="5.67977">
        <ele>434.3</ele>
        <time>2020-09-23T10:07:30Z</time>
      </trkpt>
      <trkpt lat="46.52999" lon="5.67973">
        <ele>433.3</ele>
        <time>2020-09-23T10:07:35Z</time>
      </trkpt>
      <trkpt lat="46.53002" lon="5.67967">
        <ele>432.3</ele>
        <time>2020-09-23T10:07:40Z</time>
      </trkpt>
      <trkpt lat="46.53008" lon="5.67964">
        <ele>431.7</ele>
        <time>2020-09-23T10:07:45Z</time>
      </trkpt>
      <trkpt lat="46.53013" lon="5.67964">
        <ele>431.2</ele>
        <time>2020-09-23T10:07:50Z</time>
      </trkpt>
      <trkpt lat="46.53021" lon="5.67962">
        <ele>432.2</ele>
        <time>2020-09-23T10:07:54Z</time>
      </trkpt>
      <trkpt lat="46.53027" lon="5.67962">
        <ele>433</ele>
        <time>2020-09-23T10:07:57Z</time>
      </trkpt>
      <trkpt lat="46.53031" lon="5.6796">
        <ele>433.8</ele>
        <time>2020-09-23T10:08:02Z</time>
      </trkpt>
      <trkpt lat="46.53035" lon="5.67957">
        <ele>434.3</ele>
        <time>2020-09-23T10:08:06Z</time>
      </trkpt>
      <trkpt lat="46.53039" lon="5.67953">
        <ele>434.5</ele>
        <time>2020-09-23T10:08:10Z</time>
      </trkpt>
      <trkpt lat="46.53044" lon="5.67951">
        <ele>434.5</ele>
        <time>2020-09-23T10:08:15Z</time>
      </trkpt>
      <trkpt lat="46.53048" lon="5.67948">
        <ele>434.6</ele>
        <time>2020-09-23T10:08:20Z</time>
      </trkpt>
      <trkpt lat="46.53051" lon="5.67941">
        <ele>434.8</ele>
        <time>2020-09-23T10:08:29Z</time>
      </trkpt>
      <trkpt lat="46.53054" lon="5.67935">
        <ele>434.5</ele>
        <time>2020-09-23T10:08:34Z</time>
      </trkpt>
      <trkpt lat="46.53057" lon="5.67929">
        <ele>434.2</ele>
        <time>2020-09-23T10:08:37Z</time>
      </trkpt>
      <trkpt lat="46.53059" lon="5.67923">
        <ele>433.6</ele>
        <time>2020-09-23T10:08:42Z</time>
      </trkpt>
      <trkpt lat="46.53062" lon="5.67917">
        <ele>432.9</ele>
        <time>2020-09-23T10:08:48Z</time>
      </trkpt>
      <trkpt lat="46.53067" lon="5.67913">
        <ele>432.4</ele>
        <time>2020-09-23T10:08:54Z</time>
      </trkpt>
      <trkpt lat="46.53072" lon="5.67908">
        <ele>432.2</ele>
        <time>2020-09-23T10:08:58Z</time>
      </trkpt>
      <trkpt lat="46.53078" lon="5.67906">
        <ele>432.2</ele>
        <time>2020-09-23T10:09:01Z</time>
      </trkpt>
      <trkpt lat="46.53082" lon="5.67902">
        <ele>432.2</ele>
        <time>2020-09-23T10:09:05Z</time>
      </trkpt>
      <trkpt lat="46.53085" lon="5.67897">
        <ele>432</ele>
        <time>2020-09-23T10:09:11Z</time>
      </trkpt>
      <trkpt lat="46.53088" lon="5.67892">
        <ele>431.6</ele>
        <time>2020-09-23T10:09:16Z</time>
      </trkpt>
      <trkpt lat="46.53092" lon="5.67887">
        <ele>431.3</ele>
        <time>2020-09-23T10:09:21Z</time>
      </trkpt>
      <trkpt lat="46.53096" lon="5.67884">
        <ele>431.2</ele>
        <time>2020-09-23T10:09:27Z</time>
      </trkpt>
      <trkpt lat="46.53101" lon="5.67881">
        <ele>432.1</ele>
        <time>2020-09-23T10:09:43Z</time>
      </trkpt>
      <trkpt lat="46.53097" lon="5.67878">
        <ele>433.2</ele>
        <time>2020-09-23T10:10:03Z</time>
      </trkpt>
      <trkpt lat="46.53099" lon="5.6787">
        <ele>433.6</ele>
        <time>2020-09-23T10:10:13Z</time>
      </trkpt>
      <trkpt lat="46.53103" lon="5.67865">
        <ele>434</ele>
        <time>2020-09-23T10:10:16Z</time>
      </trkpt>
      <trkpt lat="46.53107" lon="5.67861">
        <ele>434.3</ele>
        <time>2020-09-23T10:10:20Z</time>
      </trkpt>
      <trkpt lat="46.53111" lon="5.67857">
        <ele>434.6</ele>
        <time>2020-09-23T10:10:25Z</time>
      </trkpt>
      <trkpt lat="46.53116" lon="5.67853">
        <ele>435.6</ele>
        <time>2020-09-23T10:10:31Z</time>
      </trkpt>
      <trkpt lat="46.53118" lon="5.67847">
        <ele>435.9</ele>
        <time>2020-09-23T10:10:37Z</time>
      </trkpt>
      <trkpt lat="46.53123" lon="5.67844">
        <ele>436.1</ele>
        <time>2020-09-23T10:10:46Z</time>
      </trkpt>
      <trkpt lat="46.53128" lon="5.67841">
        <ele>436.6</ele>
        <time>2020-09-23T10:10:51Z</time>
      </trkpt>
      <trkpt lat="46.53133" lon="5.67838">
        <ele>437.6</ele>
        <time>2020-09-23T10:10:56Z</time>
      </trkpt>
      <trkpt lat="46.53136" lon="5.67833">
        <ele>438.3</ele>
        <time>2020-09-23T10:11:03Z</time>
      </trkpt>
      <trkpt lat="46.53146" lon="5.67829">
        <ele>439.8</ele>
        <time>2020-09-23T10:11:07Z</time>
      </trkpt>
      <trkpt lat="46.53152" lon="5.67826">
        <ele>441</ele>
        <time>2020-09-23T10:11:10Z</time>
      </trkpt>
      <trkpt lat="46.53155" lon="5.6782">
        <ele>442.8</ele>
        <time>2020-09-23T10:11:16Z</time>
      </trkpt>
      <trkpt lat="46.53161" lon="5.67822">
        <ele>447.2</ele>
        <time>2020-09-23T10:11:20Z</time>
      </trkpt>
      <trkpt lat="46.53166" lon="5.67825">
        <ele>450.7</ele>
        <time>2020-09-23T10:11:23Z</time>
      </trkpt>
      <trkpt lat="46.53171" lon="5.67823">
        <ele>456.3</ele>
        <time>2020-09-23T10:11:29Z</time>
      </trkpt>
      <trkpt lat="46.53176" lon="5.6782">
        <ele>459.4</ele>
        <time>2020-09-23T10:11:34Z</time>
      </trkpt>
      <trkpt lat="46.53182" lon="5.67817">
        <ele>461.4</ele>
        <time>2020-09-23T10:11:39Z</time>
      </trkpt>
      <trkpt lat="46.53186" lon="5.67813">
        <ele>462.5</ele>
        <time>2020-09-23T10:11:44Z</time>
      </trkpt>
      <trkpt lat="46.53191" lon="5.67812">
        <ele>462.8</ele>
        <time>2020-09-23T10:11:50Z</time>
      </trkpt>
      <trkpt lat="46.53195" lon="5.6781">
        <ele>462</ele>
        <time>2020-09-23T10:11:57Z</time>
      </trkpt>
      <trkpt lat="46.532" lon="5.67807">
        <ele>460.8</ele>
        <time>2020-09-23T10:12:01Z</time>
      </trkpt>
      <trkpt lat="46.53204" lon="5.67805">
        <ele>459.5</ele>
        <time>2020-09-23T10:12:05Z</time>
      </trkpt>
      <trkpt lat="46.5321" lon="5.67802">
        <ele>457.7</ele>
        <time>2020-09-23T10:12:09Z</time>
      </trkpt>
      <trkpt lat="46.53215" lon="5.67798">
        <ele>455.7</ele>
        <time>2020-09-23T10:12:13Z</time>
      </trkpt>
      <trkpt lat="46.53219" lon="5.67795">
        <ele>453.4</ele>
        <time>2020-09-23T10:12:19Z</time>
      </trkpt>
      <trkpt lat="46.53223" lon="5.6779">
        <ele>451.8</ele>
        <time>2020-09-23T10:12:24Z</time>
      </trkpt>
      <trkpt lat="46.53227" lon="5.67785">
        <ele>450.6</ele>
        <time>2020-09-23T10:12:29Z</time>
      </trkpt>
      <trkpt lat="46.5323" lon="5.67781">
        <ele>449.7</ele>
        <time>2020-09-23T10:12:33Z</time>
      </trkpt>
      <trkpt lat="46.53234" lon="5.67777">
        <ele>449</ele>
        <time>2020-09-23T10:12:38Z</time>
      </trkpt>
      <trkpt lat="46.53238" lon="5.67773">
        <ele>448.7</ele>
        <time>2020-09-23T10:12:42Z</time>
      </trkpt>
      <trkpt lat="46.53242" lon="5.67767">
        <ele>448.2</ele>
        <time>2020-09-23T10:12:46Z</time>
      </trkpt>
      <trkpt lat="46.53246" lon="5.67762">
        <ele>447.6</ele>
        <time>2020-09-23T10:12:50Z</time>
      </trkpt>
      <trkpt lat="46.5325" lon="5.67759">
        <ele>447.2</ele>
        <time>2020-09-23T10:12:53Z</time>
      </trkpt>
      <trkpt lat="46.53254" lon="5.67755">
        <ele>446.6</ele>
        <time>2020-09-23T10:12:57Z</time>
      </trkpt>
      <trkpt lat="46.53258" lon="5.67751">
        <ele>446.5</ele>
        <time>2020-09-23T10:13:01Z</time>
      </trkpt>
      <trkpt lat="46.53262" lon="5.67746">
        <ele>445.8</ele>
        <time>2020-09-23T10:13:08Z</time>
      </trkpt>
      <trkpt lat="46.53266" lon="5.67745">
        <ele>444.8</ele>
        <time>2020-09-23T10:13:13Z</time>
      </trkpt>
      <trkpt lat="46.5327" lon="5.6774">
        <ele>443.8</ele>
        <time>2020-09-23T10:13:18Z</time>
      </trkpt>
      <trkpt lat="46.53276" lon="5.67739">
        <ele>443.4</ele>
        <time>2020-09-23T10:13:21Z</time>
      </trkpt>
      <trkpt lat="46.53281" lon="5.67736">
        <ele>443</ele>
        <time>2020-09-23T10:13:26Z</time>
      </trkpt>
      <trkpt lat="46.53285" lon="5.67733">
        <ele>443</ele>
        <time>2020-09-23T10:13:30Z</time>
      </trkpt>
      <trkpt lat="46.53289" lon="5.67729">
        <ele>442.6</ele>
        <time>2020-09-23T10:13:34Z</time>
      </trkpt>
      <trkpt lat="46.53294" lon="5.67727">
        <ele>442</ele>
        <time>2020-09-23T10:13:38Z</time>
      </trkpt>
      <trkpt lat="46.53299" lon="5.67724">
        <ele>442</ele>
        <time>2020-09-23T10:13:42Z</time>
      </trkpt>
      <trkpt lat="46.53305" lon="5.67721">
        <ele>441.5</ele>
        <time>2020-09-23T10:13:47Z</time>
      </trkpt>
      <trkpt lat="46.5331" lon="5.6772">
        <ele>441.7</ele>
        <time>2020-09-23T10:13:51Z</time>
      </trkpt>
      <trkpt lat="46.53315" lon="5.67718">
        <ele>442.1</ele>
        <time>2020-09-23T10:13:55Z</time>
      </trkpt>
      <trkpt lat="46.53319" lon="5.67714">
        <ele>442.3</ele>
        <time>2020-09-23T10:14:00Z</time>
      </trkpt>
      <trkpt lat="46.53324" lon="5.6771">
        <ele>441.8</ele>
        <time>2020-09-23T10:14:07Z</time>
      </trkpt>
      <trkpt lat="46.53328" lon="5.67707">
        <ele>441.1</ele>
        <time>2020-09-23T10:14:12Z</time>
      </trkpt>
      <trkpt lat="46.53333" lon="5.67706">
        <ele>441.3</ele>
        <time>2020-09-23T10:14:17Z</time>
      </trkpt>
      <trkpt lat="46.53339" lon="5.67705">
        <ele>442.3</ele>
        <time>2020-09-23T10:14:22Z</time>
      </trkpt>
      <trkpt lat="46.53343" lon="5.67701">
        <ele>443</ele>
        <time>2020-09-23T10:14:26Z</time>
      </trkpt>
      <trkpt lat="46.53347" lon="5.677">
        <ele>444.9</ele>
        <time>2020-09-23T10:14:30Z</time>
      </trkpt>
      <trkpt lat="46.53351" lon="5.67696">
        <ele>447.4</ele>
        <time>2020-09-23T10:14:38Z</time>
      </trkpt>
      <trkpt lat="46.53358" lon="5.67693">
        <ele>449.4</ele>
        <time>2020-09-23T10:14:45Z</time>
      </trkpt>
      <trkpt lat="46.53364" lon="5.67692">
        <ele>451.4</ele>
        <time>2020-09-23T10:14:48Z</time>
      </trkpt>
      <trkpt lat="46.53369" lon="5.67692">
        <ele>455.6</ele>
        <time>2020-09-23T10:14:53Z</time>
      </trkpt>
      <trkpt lat="46.53373" lon="5.67689">
        <ele>460.8</ele>
        <time>2020-09-23T10:15:00Z</time>
      </trkpt>
      <trkpt lat="46.53378" lon="5.67687">
        <ele>463.8</ele>
        <time>2020-09-23T10:15:05Z</time>
      </trkpt>
      <trkpt lat="46.53383" lon="5.67684">
        <ele>466.4</ele>
        <time>2020-09-23T10:15:10Z</time>
      </trkpt>
      <trkpt lat="46.53387" lon="5.67681">
        <ele>468.2</ele>
        <time>2020-09-23T10:15:16Z</time>
      </trkpt>
      <trkpt lat="46.53391" lon="5.67679">
        <ele>469.8</ele>
        <time>2020-09-23T10:15:21Z</time>
      </trkpt>
      <trkpt lat="46.53396" lon="5.67677">
        <ele>471.1</ele>
        <time>2020-09-23T10:15:27Z</time>
      </trkpt>
      <trkpt lat="46.53401" lon="5.67674">
        <ele>472.3</ele>
        <time>2020-09-23T10:15:34Z</time>
      </trkpt>
      <trkpt lat="46.53405" lon="5.67672">
        <ele>472.4</ele>
        <time>2020-09-23T10:15:38Z</time>
      </trkpt>
      <trkpt lat="46.5341" lon="5.6767">
        <ele>472.4</ele>
        <time>2020-09-23T10:15:43Z</time>
      </trkpt>
      <trkpt lat="46.53414" lon="5.67665">
        <ele>471.6</ele>
        <time>2020-09-23T10:15:50Z</time>
      </trkpt>
      <trkpt lat="46.53419" lon="5.67662">
        <ele>471.2</ele>
        <time>2020-09-23T10:15:54Z</time>
      </trkpt>
      <trkpt lat="46.53423" lon="5.67659">
        <ele>470.9</ele>
        <time>2020-09-23T10:15:59Z</time>
      </trkpt>
      <trkpt lat="46.53427" lon="5.67655">
        <ele>470.7</ele>
        <time>2020-09-23T10:16:04Z</time>
      </trkpt>
      <trkpt lat="46.53431" lon="5.67651">
        <ele>470.6</ele>
        <time>2020-09-23T10:16:07Z</time>
      </trkpt>
      <trkpt lat="46.53434" lon="5.67645">
        <ele>470</ele>
        <time>2020-09-23T10:16:13Z</time>
      </trkpt>
      <trkpt lat="46.53439" lon="5.67641">
        <ele>468.7</ele>
        <time>2020-09-23T10:16:19Z</time>
      </trkpt>
      <trkpt lat="46.53443" lon="5.67637">
        <ele>467.4</ele>
        <time>2020-09-23T10:16:24Z</time>
      </trkpt>
      <trkpt lat="46.53447" lon="5.67634">
        <ele>466.8</ele>
        <time>2020-09-23T10:16:27Z</time>
      </trkpt>
      <trkpt lat="46.53459" lon="5.67628">
        <ele>465.2</ele>
        <time>2020-09-23T10:16:30Z</time>
      </trkpt>
      <trkpt lat="46.53463" lon="5.67626">
        <ele>464</ele>
        <time>2020-09-23T10:16:34Z</time>
      </trkpt>
      <trkpt lat="46.53468" lon="5.67623">
        <ele>462.5</ele>
        <time>2020-09-23T10:16:42Z</time>
      </trkpt>
      <trkpt lat="46.53472" lon="5.6762">
        <ele>461.7</ele>
        <time>2020-09-23T10:16:48Z</time>
      </trkpt>
      <trkpt lat="46.53475" lon="5.67614">
        <ele>461.1</ele>
        <time>2020-09-23T10:16:55Z</time>
      </trkpt>
      <trkpt lat="46.53479" lon="5.67609">
        <ele>461</ele>
        <time>2020-09-23T10:17:01Z</time>
      </trkpt>
      <trkpt lat="46.53482" lon="5.67605">
        <ele>461.2</ele>
        <time>2020-09-23T10:17:06Z</time>
      </trkpt>
      <trkpt lat="46.53486" lon="5.67599">
        <ele>461.5</ele>
        <time>2020-09-23T10:17:11Z</time>
      </trkpt>
      <trkpt lat="46.5349" lon="5.67595">
        <ele>461.8</ele>
        <time>2020-09-23T10:17:17Z</time>
      </trkpt>
      <trkpt lat="46.53494" lon="5.67593">
        <ele>461.9</ele>
        <time>2020-09-23T10:17:23Z</time>
      </trkpt>
      <trkpt lat="46.53499" lon="5.6759">
        <ele>461.7</ele>
        <time>2020-09-23T10:17:29Z</time>
      </trkpt>
      <trkpt lat="46.53504" lon="5.67588">
        <ele>461.4</ele>
        <time>2020-09-23T10:17:33Z</time>
      </trkpt>
      <trkpt lat="46.53509" lon="5.67586">
        <ele>461.3</ele>
        <time>2020-09-23T10:17:39Z</time>
      </trkpt>
      <trkpt lat="46.53514" lon="5.67585">
        <ele>461.6</ele>
        <time>2020-09-23T10:17:44Z</time>
      </trkpt>
      <trkpt lat="46.53518" lon="5.67584">
        <ele>462.1</ele>
        <time>2020-09-23T10:17:51Z</time>
      </trkpt>
      <trkpt lat="46.53528" lon="5.67584">
        <ele>465.1</ele>
        <time>2020-09-23T10:17:54Z</time>
      </trkpt>
      <trkpt lat="46.53533" lon="5.67583">
        <ele>467.7</ele>
        <time>2020-09-23T10:17:59Z</time>
      </trkpt>
      <trkpt lat="46.53538" lon="5.6758">
        <ele>469</ele>
        <time>2020-09-23T10:18:05Z</time>
      </trkpt>
      <trkpt lat="46.53543" lon="5.67578">
        <ele>470.1</ele>
        <time>2020-09-23T10:18:10Z</time>
      </trkpt>
      <trkpt lat="46.53547" lon="5.67575">
        <ele>471.1</ele>
        <time>2020-09-23T10:18:15Z</time>
      </trkpt>
      <trkpt lat="46.53551" lon="5.67569">
        <ele>471.6</ele>
        <time>2020-09-23T10:18:21Z</time>
      </trkpt>
      <trkpt lat="46.53555" lon="5.67565">
        <ele>471.8</ele>
        <time>2020-09-23T10:18:26Z</time>
      </trkpt>
      <trkpt lat="46.53559" lon="5.67561">
        <ele>471.9</ele>
        <time>2020-09-23T10:18:32Z</time>
      </trkpt>
      <trkpt lat="46.53563" lon="5.67559">
        <ele>471.6</ele>
        <time>2020-09-23T10:18:38Z</time>
      </trkpt>
      <trkpt lat="46.53567" lon="5.67555">
        <ele>471</ele>
        <time>2020-09-23T10:18:43Z</time>
      </trkpt>
      <trkpt lat="46.53572" lon="5.6755">
        <ele>470.5</ele>
        <time>2020-09-23T10:18:47Z</time>
      </trkpt>
      <trkpt lat="46.53576" lon="5.67547">
        <ele>469.6</ele>
        <time>2020-09-23T10:18:54Z</time>
      </trkpt>
      <trkpt lat="46.53581" lon="5.67543">
        <ele>469.2</ele>
        <time>2020-09-23T10:18:59Z</time>
      </trkpt>
      <trkpt lat="46.53586" lon="5.67539">
        <ele>468.8</ele>
        <time>2020-09-23T10:19:03Z</time>
      </trkpt>
      <trkpt lat="46.53591" lon="5.67537">
        <ele>468</ele>
        <time>2020-09-23T10:19:09Z</time>
      </trkpt>
      <trkpt lat="46.53595" lon="5.67535">
        <ele>467.4</ele>
        <time>2020-09-23T10:19:14Z</time>
      </trkpt>
      <trkpt lat="46.536" lon="5.67532">
        <ele>467</ele>
        <time>2020-09-23T10:19:18Z</time>
      </trkpt>
      <trkpt lat="46.53604" lon="5.67528">
        <ele>466.7</ele>
        <time>2020-09-23T10:19:22Z</time>
      </trkpt>
      <trkpt lat="46.53607" lon="5.67524">
        <ele>465.7</ele>
        <time>2020-09-23T10:19:29Z</time>
      </trkpt>
      <trkpt lat="46.53619" lon="5.67527">
        <ele>471.1</ele>
        <time>2020-09-23T10:19:32Z</time>
      </trkpt>
      <trkpt lat="46.53624" lon="5.67527">
        <ele>474.8</ele>
        <time>2020-09-23T10:19:35Z</time>
      </trkpt>
      <trkpt lat="46.53628" lon="5.67522">
        <ele>478.5</ele>
        <time>2020-09-23T10:19:40Z</time>
      </trkpt>
      <trkpt lat="46.53631" lon="5.67517">
        <ele>480.6</ele>
        <time>2020-09-23T10:19:47Z</time>
      </trkpt>
      <trkpt lat="46.53634" lon="5.67512">
        <ele>480.9</ele>
        <time>2020-09-23T10:19:52Z</time>
      </trkpt>
      <trkpt lat="46.53636" lon="5.67505">
        <ele>480.8</ele>
        <time>2020-09-23T10:19:57Z</time>
      </trkpt>
      <trkpt lat="46.53635" lon="5.67498">
        <ele>481</ele>
        <time>2020-09-23T10:20:01Z</time>
      </trkpt>
      <trkpt lat="46.53633" lon="5.67492">
        <ele>481.2</ele>
        <time>2020-09-23T10:20:07Z</time>
      </trkpt>
      <trkpt lat="46.53636" lon="5.67486">
        <ele>481.4</ele>
        <time>2020-09-23T10:20:16Z</time>
      </trkpt>
      <trkpt lat="46.5364" lon="5.67482">
        <ele>481.9</ele>
        <time>2020-09-23T10:20:24Z</time>
      </trkpt>
      <trkpt lat="46.53645" lon="5.67481">
        <ele>483.1</ele>
        <time>2020-09-23T10:20:45Z</time>
      </trkpt>
      <trkpt lat="46.53649" lon="5.67477">
        <ele>483.3</ele>
        <time>2020-09-23T10:20:49Z</time>
      </trkpt>
      <trkpt lat="46.53653" lon="5.67473">
        <ele>483.7</ele>
        <time>2020-09-23T10:20:55Z</time>
      </trkpt>
      <trkpt lat="46.53657" lon="5.6747">
        <ele>484.2</ele>
        <time>2020-09-23T10:21:00Z</time>
      </trkpt>
      <trkpt lat="46.53662" lon="5.67469">
        <ele>483.4</ele>
        <time>2020-09-23T10:21:06Z</time>
      </trkpt>
      <trkpt lat="46.53665" lon="5.67474">
        <ele>482.4</ele>
        <time>2020-09-23T10:21:23Z</time>
      </trkpt>
      <trkpt lat="46.53669" lon="5.67477">
        <ele>481.8</ele>
        <time>2020-09-23T10:21:31Z</time>
      </trkpt>
      <trkpt lat="46.53674" lon="5.6748">
        <ele>480.7</ele>
        <time>2020-09-23T10:21:40Z</time>
      </trkpt>
      <trkpt lat="46.53678" lon="5.67484">
        <ele>480.2</ele>
        <time>2020-09-23T10:21:45Z</time>
      </trkpt>
      <trkpt lat="46.53682" lon="5.67488">
        <ele>479.9</ele>
        <time>2020-09-23T10:21:52Z</time>
      </trkpt>
      <trkpt lat="46.53686" lon="5.6749">
        <ele>480.2</ele>
        <time>2020-09-23T10:22:01Z</time>
      </trkpt>
      <trkpt lat="46.53692" lon="5.6749">
        <ele>480.6</ele>
        <time>2020-09-23T10:22:06Z</time>
      </trkpt>
      <trkpt lat="46.53696" lon="5.67488">
        <ele>480.7</ele>
        <time>2020-09-23T10:22:10Z</time>
      </trkpt>
      <trkpt lat="46.537" lon="5.67484">
        <ele>480.2</ele>
        <time>2020-09-23T10:22:18Z</time>
      </trkpt>
      <trkpt lat="46.53711" lon="5.67481">
        <ele>482.9</ele>
        <time>2020-09-23T10:22:25Z</time>
      </trkpt>
      <trkpt lat="46.53718" lon="5.67481">
        <ele>485.5</ele>
        <time>2020-09-23T10:22:28Z</time>
      </trkpt>
      <trkpt lat="46.53722" lon="5.67483">
        <ele>489.4</ele>
        <time>2020-09-23T10:22:33Z</time>
      </trkpt>
      <trkpt lat="46.53727" lon="5.67482">
        <ele>492.1</ele>
        <time>2020-09-23T10:22:38Z</time>
      </trkpt>
      <trkpt lat="46.53732" lon="5.67482">
        <ele>494.3</ele>
        <time>2020-09-23T10:22:44Z</time>
      </trkpt>
      <trkpt lat="46.53736" lon="5.67479">
        <ele>496.3</ele>
        <time>2020-09-23T10:22:50Z</time>
      </trkpt>
      <trkpt lat="46.5374" lon="5.67475">
        <ele>497.8</ele>
        <time>2020-09-23T10:22:57Z</time>
      </trkpt>
      <trkpt lat="46.53745" lon="5.67473">
        <ele>498.3</ele>
        <time>2020-09-23T10:23:04Z</time>
      </trkpt>
      <trkpt lat="46.53749" lon="5.67468">
        <ele>496.5</ele>
        <time>2020-09-23T10:23:11Z</time>
      </trkpt>
      <trkpt lat="46.53759" lon="5.67464">
        <ele>496.2</ele>
        <time>2020-09-23T10:23:14Z</time>
      </trkpt>
      <trkpt lat="46.53765" lon="5.67462">
        <ele>494.7</ele>
        <time>2020-09-23T10:23:18Z</time>
      </trkpt>
      <trkpt lat="46.53769" lon="5.67458">
        <ele>490.4</ele>
        <time>2020-09-23T10:23:26Z</time>
      </trkpt>
      <trkpt lat="46.53773" lon="5.67454">
        <ele>486.7</ele>
        <time>2020-09-23T10:23:33Z</time>
      </trkpt>
      <trkpt lat="46.53777" lon="5.67455">
        <ele>484.6</ele>
        <time>2020-09-23T10:23:39Z</time>
      </trkpt>
      <trkpt lat="46.53783" lon="5.67456">
        <ele>484.5</ele>
        <time>2020-09-23T10:23:47Z</time>
      </trkpt>
      <trkpt lat="46.53788" lon="5.67454">
        <ele>483.6</ele>
        <time>2020-09-23T10:23:56Z</time>
      </trkpt>
      <trkpt lat="46.53792" lon="5.67451">
        <ele>481.7</ele>
        <time>2020-09-23T10:24:03Z</time>
      </trkpt>
      <trkpt lat="46.53797" lon="5.67449">
        <ele>480.9</ele>
        <time>2020-09-23T10:24:08Z</time>
      </trkpt>
      <trkpt lat="46.53802" lon="5.67448">
        <ele>480.5</ele>
        <time>2020-09-23T10:24:14Z</time>
      </trkpt>
      <trkpt lat="46.53813" lon="5.67455">
        <ele>491.2</ele>
        <time>2020-09-23T10:24:17Z</time>
      </trkpt>
      <trkpt lat="46.53818" lon="5.67454">
        <ele>496.9</ele>
        <time>2020-09-23T10:24:20Z</time>
      </trkpt>
      <trkpt lat="46.53823" lon="5.67453">
        <ele>502.8</ele>
        <time>2020-09-23T10:24:25Z</time>
      </trkpt>
      <trkpt lat="46.53828" lon="5.67452">
        <ele>506.5</ele>
        <time>2020-09-23T10:24:30Z</time>
      </trkpt>
      <trkpt lat="46.53833" lon="5.67451">
        <ele>508.5</ele>
        <time>2020-09-23T10:24:34Z</time>
      </trkpt>
      <trkpt lat="46.53838" lon="5.67451">
        <ele>510.5</ele>
        <time>2020-09-23T10:24:39Z</time>
      </trkpt>
      <trkpt lat="46.53843" lon="5.6745">
        <ele>511.8</ele>
        <time>2020-09-23T10:24:44Z</time>
      </trkpt>
      <trkpt lat="46.53848" lon="5.67449">
        <ele>512.8</ele>
        <time>2020-09-23T10:24:50Z</time>
      </trkpt>
      <trkpt lat="46.53853" lon="5.67446">
        <ele>513.5</ele>
        <time>2020-09-23T10:24:55Z</time>
      </trkpt>
      <trkpt lat="46.53857" lon="5.67444">
        <ele>514</ele>
        <time>2020-09-23T10:25:00Z</time>
      </trkpt>
      <trkpt lat="46.53862" lon="5.67442">
        <ele>513.8</ele>
        <time>2020-09-23T10:25:09Z</time>
      </trkpt>
      <trkpt lat="46.53866" lon="5.67439">
        <ele>513.7</ele>
        <time>2020-09-23T10:25:15Z</time>
      </trkpt>
      <trkpt lat="46.53871" lon="5.67436">
        <ele>513.5</ele>
        <time>2020-09-23T10:25:21Z</time>
      </trkpt>
      <trkpt lat="46.53875" lon="5.67434">
        <ele>513</ele>
        <time>2020-09-23T10:25:29Z</time>
      </trkpt>
      <trkpt lat="46.5388" lon="5.67434">
        <ele>512.4</ele>
        <time>2020-09-23T10:25:37Z</time>
      </trkpt>
      <trkpt lat="46.53885" lon="5.6743">
        <ele>511.7</ele>
        <time>2020-09-23T10:25:44Z</time>
      </trkpt>
      <trkpt lat="46.53889" lon="5.67426">
        <ele>511.4</ele>
        <time>2020-09-23T10:25:47Z</time>
      </trkpt>
      <trkpt lat="46.53893" lon="5.67422">
        <ele>511</ele>
        <time>2020-09-23T10:25:51Z</time>
      </trkpt>
      <trkpt lat="46.53898" lon="5.67421">
        <ele>510.4</ele>
        <time>2020-09-23T10:25:56Z</time>
      </trkpt>
      <trkpt lat="46.53902" lon="5.67418">
        <ele>509.4</ele>
        <time>2020-09-23T10:26:02Z</time>
      </trkpt>
      <trkpt lat="46.53908" lon="5.67414">
        <ele>509.1</ele>
        <time>2020-09-23T10:26:14Z</time>
      </trkpt>
      <trkpt lat="46.53912" lon="5.67412">
        <ele>509.7</ele>
        <time>2020-09-23T10:26:18Z</time>
      </trkpt>
      <trkpt lat="46.53917" lon="5.67417">
        <ele>513.3</ele>
        <time>2020-09-23T10:28:02Z</time>
      </trkpt>
      <trkpt lat="46.53919" lon="5.67423">
        <ele>518.3</ele>
        <time>2020-09-23T10:28:20Z</time>
      </trkpt>
      <trkpt lat="46.53917" lon="5.67428">
        <ele>519.1</ele>
        <time>2020-09-23T10:28:41Z</time>
      </trkpt>
      <trkpt lat="46.53917" lon="5.6742">
        <ele>520</ele>
        <time>2020-09-23T10:29:11Z</time>
      </trkpt>
      <trkpt lat="46.53922" lon="5.67415">
        <ele>520</ele>
        <time>2020-09-23T10:29:15Z</time>
      </trkpt>
      <trkpt lat="46.53926" lon="5.6741">
        <ele>519.8</ele>
        <time>2020-09-23T10:29:20Z</time>
      </trkpt>
      <trkpt lat="46.53929" lon="5.67405">
        <ele>519.5</ele>
        <time>2020-09-23T10:29:27Z</time>
      </trkpt>
      <trkpt lat="46.53933" lon="5.67404">
        <ele>518.8</ele>
        <time>2020-09-23T10:29:34Z</time>
      </trkpt>
      <trkpt lat="46.53938" lon="5.67403">
        <ele>518.3</ele>
        <time>2020-09-23T10:29:38Z</time>
      </trkpt>
      <trkpt lat="46.53944" lon="5.674">
        <ele>518.3</ele>
        <time>2020-09-23T10:29:42Z</time>
      </trkpt>
      <trkpt lat="46.53948" lon="5.67399">
        <ele>518.3</ele>
        <time>2020-09-23T10:29:45Z</time>
      </trkpt>
      <trkpt lat="46.53953" lon="5.67397">
        <ele>518.2</ele>
        <time>2020-09-23T10:29:50Z</time>
      </trkpt>
      <trkpt lat="46.53958" lon="5.67397">
        <ele>518.2</ele>
        <time>2020-09-23T10:29:58Z</time>
      </trkpt>
      <trkpt lat="46.53962" lon="5.67397">
        <ele>518.7</ele>
        <time>2020-09-23T10:30:05Z</time>
      </trkpt>
      <trkpt lat="46.53968" lon="5.67398">
        <ele>519.1</ele>
        <time>2020-09-23T10:30:11Z</time>
      </trkpt>
      <trkpt lat="46.53973" lon="5.674">
        <ele>519.3</ele>
        <time>2020-09-23T10:30:16Z</time>
      </trkpt>
      <trkpt lat="46.53978" lon="5.67402">
        <ele>519.5</ele>
        <time>2020-09-23T10:30:21Z</time>
      </trkpt>
      <trkpt lat="46.53983" lon="5.67401">
        <ele>519.6</ele>
        <time>2020-09-23T10:30:26Z</time>
      </trkpt>
      <trkpt lat="46.53988" lon="5.67401">
        <ele>519.4</ele>
        <time>2020-09-23T10:30:31Z</time>
      </trkpt>
      <trkpt lat="46.53992" lon="5.67402">
        <ele>519.4</ele>
        <time>2020-09-23T10:30:36Z</time>
      </trkpt>
      <trkpt lat="46.53998" lon="5.67399">
        <ele>519.3</ele>
        <time>2020-09-23T10:30:41Z</time>
      </trkpt>
      <trkpt lat="46.54002" lon="5.67396">
        <ele>519.3</ele>
        <time>2020-09-23T10:30:45Z</time>
      </trkpt>
      <trkpt lat="46.54006" lon="5.67393">
        <ele>519.5</ele>
        <time>2020-09-23T10:30:48Z</time>
      </trkpt>
      <trkpt lat="46.54012" lon="5.67393">
        <ele>519.9</ele>
        <time>2020-09-23T10:30:52Z</time>
      </trkpt>
      <trkpt lat="46.54017" lon="5.67391">
        <ele>520.5</ele>
        <time>2020-09-23T10:30:56Z</time>
      </trkpt>
      <trkpt lat="46.54021" lon="5.67387">
        <ele>520.9</ele>
        <time>2020-09-23T10:31:01Z</time>
      </trkpt>
      <trkpt lat="46.54025" lon="5.67383">
        <ele>521.2</ele>
        <time>2020-09-23T10:31:08Z</time>
      </trkpt>
      <trkpt lat="46.5403" lon="5.67383">
        <ele>521.7</ele>
        <time>2020-09-23T10:31:17Z</time>
      </trkpt>
      <trkpt lat="46.54035" lon="5.67381">
        <ele>521.6</ele>
        <time>2020-09-23T10:31:24Z</time>
      </trkpt>
      <trkpt lat="46.5404" lon="5.67378">
        <ele>521.5</ele>
        <time>2020-09-23T10:31:30Z</time>
      </trkpt>
      <trkpt lat="46.54044" lon="5.67375">
        <ele>521.8</ele>
        <time>2020-09-23T10:31:35Z</time>
      </trkpt>
      <trkpt lat="46.54049" lon="5.67371">
        <ele>521.9</ele>
        <time>2020-09-23T10:31:42Z</time>
      </trkpt>
      <trkpt lat="46.54053" lon="5.67367">
        <ele>522.2</ele>
        <time>2020-09-23T10:31:47Z</time>
      </trkpt>
      <trkpt lat="46.54057" lon="5.67364">
        <ele>522.6</ele>
        <time>2020-09-23T10:31:51Z</time>
      </trkpt>
      <trkpt lat="46.54062" lon="5.67359">
        <ele>523.5</ele>
        <time>2020-09-23T10:31:56Z</time>
      </trkpt>
      <trkpt lat="46.54064" lon="5.67353">
        <ele>525.1</ele>
        <time>2020-09-23T10:32:02Z</time>
      </trkpt>
      <trkpt lat="46.54066" lon="5.67346">
        <ele>526.3</ele>
        <time>2020-09-23T10:32:08Z</time>
      </trkpt>
      <trkpt lat="46.54067" lon="5.67338">
        <ele>527.3</ele>
        <time>2020-09-23T10:32:14Z</time>
      </trkpt>
      <trkpt lat="46.54069" lon="5.67332">
        <ele>527.8</ele>
        <time>2020-09-23T10:32:19Z</time>
      </trkpt>
      <trkpt lat="46.5407" lon="5.67325">
        <ele>527.9</ele>
        <time>2020-09-23T10:32:25Z</time>
      </trkpt>
      <trkpt lat="46.54069" lon="5.67318">
        <ele>528.1</ele>
        <time>2020-09-23T10:32:30Z</time>
      </trkpt>
      <trkpt lat="46.54068" lon="5.67311">
        <ele>528.4</ele>
        <time>2020-09-23T10:32:35Z</time>
      </trkpt>
      <trkpt lat="46.54067" lon="5.67305">
        <ele>529.1</ele>
        <time>2020-09-23T10:32:41Z</time>
      </trkpt>
      <trkpt lat="46.54067" lon="5.67298">
        <ele>529.3</ele>
        <time>2020-09-23T10:32:49Z</time>
      </trkpt>
      <trkpt lat="46.54066" lon="5.67292">
        <ele>528.7</ele>
        <time>2020-09-23T10:32:55Z</time>
      </trkpt>
      <trkpt lat="46.54065" lon="5.67285">
        <ele>528.3</ele>
        <time>2020-09-23T10:33:02Z</time>
      </trkpt>
      <trkpt lat="46.54065" lon="5.67277">
        <ele>529</ele>
        <time>2020-09-23T10:33:08Z</time>
      </trkpt>
      <trkpt lat="46.54065" lon="5.6727">
        <ele>530.3</ele>
        <time>2020-09-23T10:33:13Z</time>
      </trkpt>
      <trkpt lat="46.54062" lon="5.67264">
        <ele>532.3</ele>
        <time>2020-09-23T10:33:20Z</time>
      </trkpt>
      <trkpt lat="46.5406" lon="5.67259">
        <ele>533.8</ele>
        <time>2020-09-23T10:33:26Z</time>
      </trkpt>
      <trkpt lat="46.54056" lon="5.67255">
        <ele>534.8</ele>
        <time>2020-09-23T10:33:31Z</time>
      </trkpt>
      <trkpt lat="46.54052" lon="5.67251">
        <ele>536.2</ele>
        <time>2020-09-23T10:33:37Z</time>
      </trkpt>
      <trkpt lat="46.54047" lon="5.67249">
        <ele>538</ele>
        <time>2020-09-23T10:33:43Z</time>
      </trkpt>
      <trkpt lat="46.54043" lon="5.67248">
        <ele>539.1</ele>
        <time>2020-09-23T10:33:48Z</time>
      </trkpt>
      <trkpt lat="46.54037" lon="5.67248">
        <ele>539.2</ele>
        <time>2020-09-23T10:33:53Z</time>
      </trkpt>
      <trkpt lat="46.54033" lon="5.67246">
        <ele>538.5</ele>
        <time>2020-09-23T10:33:59Z</time>
      </trkpt>
      <trkpt lat="46.54028" lon="5.67247">
        <ele>537.5</ele>
        <time>2020-09-23T10:34:04Z</time>
      </trkpt>
      <trkpt lat="46.54022" lon="5.67248">
        <ele>535.9</ele>
        <time>2020-09-23T10:34:09Z</time>
      </trkpt>
      <trkpt lat="46.54018" lon="5.67247">
        <ele>534.6</ele>
        <time>2020-09-23T10:34:13Z</time>
      </trkpt>
      <trkpt lat="46.54013" lon="5.67246">
        <ele>533.7</ele>
        <time>2020-09-23T10:34:18Z</time>
      </trkpt>
      <trkpt lat="46.54008" lon="5.67247">
        <ele>533.4</ele>
        <time>2020-09-23T10:34:23Z</time>
      </trkpt>
      <trkpt lat="46.54003" lon="5.67246">
        <ele>533.2</ele>
        <time>2020-09-23T10:34:28Z</time>
      </trkpt>
      <trkpt lat="46.53997" lon="5.67245">
        <ele>531.8</ele>
        <time>2020-09-23T10:34:33Z</time>
      </trkpt>
      <trkpt lat="46.53992" lon="5.67243">
        <ele>530.6</ele>
        <time>2020-09-23T10:34:36Z</time>
      </trkpt>
      <trkpt lat="46.53987" lon="5.67242">
        <ele>528.8</ele>
        <time>2020-09-23T10:34:44Z</time>
      </trkpt>
      <trkpt lat="46.53982" lon="5.67243">
        <ele>528</ele>
        <time>2020-09-23T10:34:51Z</time>
      </trkpt>
      <trkpt lat="46.53973" lon="5.67242">
        <ele>528</ele>
        <time>2020-09-23T10:34:54Z</time>
      </trkpt>
      <trkpt lat="46.53968" lon="5.67242">
        <ele>528</ele>
        <time>2020-09-23T10:34:57Z</time>
      </trkpt>
      <trkpt lat="46.53963" lon="5.67243">
        <ele>527.9</ele>
        <time>2020-09-23T10:35:03Z</time>
      </trkpt>
      <trkpt lat="46.53958" lon="5.67244">
        <ele>528</ele>
        <time>2020-09-23T10:35:09Z</time>
      </trkpt>
      <trkpt lat="46.53953" lon="5.67242">
        <ele>528.7</ele>
        <time>2020-09-23T10:35:13Z</time>
      </trkpt>
      <trkpt lat="46.53949" lon="5.67238">
        <ele>529.6</ele>
        <time>2020-09-23T10:35:18Z</time>
      </trkpt>
      <trkpt lat="46.53947" lon="5.67232">
        <ele>531.5</ele>
        <time>2020-09-23T10:35:31Z</time>
      </trkpt>
      <trkpt lat="46.53948" lon="5.67225">
        <ele>531.7</ele>
        <time>2020-09-23T10:35:36Z</time>
      </trkpt>
      <trkpt lat="46.53948" lon="5.67218">
        <ele>531.6</ele>
        <time>2020-09-23T10:35:41Z</time>
      </trkpt>
      <trkpt lat="46.53947" lon="5.67211">
        <ele>531.4</ele>
        <time>2020-09-23T10:35:46Z</time>
      </trkpt>
      <trkpt lat="46.53947" lon="5.67204">
        <ele>531.1</ele>
        <time>2020-09-23T10:35:50Z</time>
      </trkpt>
      <trkpt lat="46.53946" lon="5.67197">
        <ele>530.9</ele>
        <time>2020-09-23T10:35:54Z</time>
      </trkpt>
      <trkpt lat="46.53946" lon="5.67189">
        <ele>530.7</ele>
        <time>2020-09-23T10:35:58Z</time>
      </trkpt>
      <trkpt lat="46.53946" lon="5.67182">
        <ele>530.5</ele>
        <time>2020-09-23T10:36:02Z</time>
      </trkpt>
      <trkpt lat="46.53946" lon="5.67174">
        <ele>530.3</ele>
        <time>2020-09-23T10:36:07Z</time>
      </trkpt>
      <trkpt lat="46.53946" lon="5.67166">
        <ele>530.2</ele>
        <time>2020-09-23T10:36:12Z</time>
      </trkpt>
      <trkpt lat="46.53945" lon="5.67157">
        <ele>530.9</ele>
        <time>2020-09-23T10:36:16Z</time>
      </trkpt>
      <trkpt lat="46.53945" lon="5.6715">
        <ele>531.6</ele>
        <time>2020-09-23T10:36:21Z</time>
      </trkpt>
      <trkpt lat="46.53945" lon="5.6714">
        <ele>532.2</ele>
        <time>2020-09-23T10:36:31Z</time>
      </trkpt>
      <trkpt lat="46.53945" lon="5.67134">
        <ele>533.2</ele>
        <time>2020-09-23T10:36:35Z</time>
      </trkpt>
      <trkpt lat="46.53944" lon="5.67126">
        <ele>534.6</ele>
        <time>2020-09-23T10:36:41Z</time>
      </trkpt>
      <trkpt lat="46.53942" lon="5.67119">
        <ele>535</ele>
        <time>2020-09-23T10:36:46Z</time>
      </trkpt>
      <trkpt lat="46.5394" lon="5.67111">
        <ele>535.2</ele>
        <time>2020-09-23T10:36:50Z</time>
      </trkpt>
      <trkpt lat="46.53938" lon="5.67104">
        <ele>535.6</ele>
        <time>2020-09-23T10:36:53Z</time>
      </trkpt>
      <trkpt lat="46.53935" lon="5.67097">
        <ele>536.2</ele>
        <time>2020-09-23T10:36:57Z</time>
      </trkpt>
      <trkpt lat="46.53931" lon="5.67091">
        <ele>537.6</ele>
        <time>2020-09-23T10:37:01Z</time>
      </trkpt>
      <trkpt lat="46.53927" lon="5.67086">
        <ele>539.4</ele>
        <time>2020-09-23T10:37:05Z</time>
      </trkpt>
      <trkpt lat="46.53925" lon="5.67079">
        <ele>542.2</ele>
        <time>2020-09-23T10:37:10Z</time>
      </trkpt>
      <trkpt lat="46.53923" lon="5.67073">
        <ele>544.9</ele>
        <time>2020-09-23T10:37:15Z</time>
      </trkpt>
      <trkpt lat="46.53921" lon="5.67066">
        <ele>547.8</ele>
        <time>2020-09-23T10:37:23Z</time>
      </trkpt>
      <trkpt lat="46.53921" lon="5.6706">
        <ele>548.2</ele>
        <time>2020-09-23T10:37:29Z</time>
      </trkpt>
      <trkpt lat="46.53919" lon="5.67053">
        <ele>546.4</ele>
        <time>2020-09-23T10:37:55Z</time>
      </trkpt>
      <trkpt lat="46.53917" lon="5.67047">
        <ele>545.9</ele>
        <time>2020-09-23T10:38:01Z</time>
      </trkpt>
      <trkpt lat="46.53912" lon="5.67044">
        <ele>545.5</ele>
        <time>2020-09-23T10:38:06Z</time>
      </trkpt>
      <trkpt lat="46.53909" lon="5.67041">
        <ele>545.3</ele>
        <time>2020-09-23T10:38:12Z</time>
      </trkpt>
      <trkpt lat="46.53905" lon="5.67035">
        <ele>545.2</ele>
        <time>2020-09-23T10:38:18Z</time>
      </trkpt>
      <trkpt lat="46.53901" lon="5.6703">
        <ele>545</ele>
        <time>2020-09-23T10:38:23Z</time>
      </trkpt>
      <trkpt lat="46.53898" lon="5.67026">
        <ele>544.7</ele>
        <time>2020-09-23T10:38:28Z</time>
      </trkpt>
      <trkpt lat="46.53893" lon="5.67021">
        <ele>544.5</ele>
        <time>2020-09-23T10:38:33Z</time>
      </trkpt>
      <trkpt lat="46.53889" lon="5.67018">
        <ele>544.5</ele>
        <time>2020-09-23T10:38:37Z</time>
      </trkpt>
      <trkpt lat="46.53884" lon="5.67014">
        <ele>544.4</ele>
        <time>2020-09-23T10:38:41Z</time>
      </trkpt>
      <trkpt lat="46.5388" lon="5.6701">
        <ele>544.1</ele>
        <time>2020-09-23T10:38:45Z</time>
      </trkpt>
      <trkpt lat="46.53876" lon="5.67007">
        <ele>543.7</ele>
        <time>2020-09-23T10:38:49Z</time>
      </trkpt>
      <trkpt lat="46.53872" lon="5.67003">
        <ele>543.2</ele>
        <time>2020-09-23T10:38:53Z</time>
      </trkpt>
      <trkpt lat="46.53867" lon="5.67001">
        <ele>542.5</ele>
        <time>2020-09-23T10:38:58Z</time>
      </trkpt>
      <trkpt lat="46.53862" lon="5.66997">
        <ele>542.3</ele>
        <time>2020-09-23T10:39:02Z</time>
      </trkpt>
      <trkpt lat="46.53858" lon="5.66993">
        <ele>542.2</ele>
        <time>2020-09-23T10:39:06Z</time>
      </trkpt>
      <trkpt lat="46.53853" lon="5.66989">
        <ele>542.2</ele>
        <time>2020-09-23T10:39:10Z</time>
      </trkpt>
      <trkpt lat="46.53848" lon="5.66985">
        <ele>542.1</ele>
        <time>2020-09-23T10:39:15Z</time>
      </trkpt>
      <trkpt lat="46.53844" lon="5.6698">
        <ele>542.2</ele>
        <time>2020-09-23T10:39:20Z</time>
      </trkpt>
      <trkpt lat="46.53839" lon="5.66978">
        <ele>542.5</ele>
        <time>2020-09-23T10:39:24Z</time>
      </trkpt>
      <trkpt lat="46.53834" lon="5.66975">
        <ele>542.7</ele>
        <time>2020-09-23T10:39:29Z</time>
      </trkpt>
      <trkpt lat="46.53829" lon="5.66973">
        <ele>543.2</ele>
        <time>2020-09-23T10:39:36Z</time>
      </trkpt>
      <trkpt lat="46.53824" lon="5.6697">
        <ele>543.4</ele>
        <time>2020-09-23T10:39:41Z</time>
      </trkpt>
      <trkpt lat="46.5382" lon="5.66966">
        <ele>543.5</ele>
        <time>2020-09-23T10:39:45Z</time>
      </trkpt>
      <trkpt lat="46.53815" lon="5.66963">
        <ele>543.4</ele>
        <time>2020-09-23T10:39:49Z</time>
      </trkpt>
      <trkpt lat="46.53811" lon="5.6696">
        <ele>542.9</ele>
        <time>2020-09-23T10:39:53Z</time>
      </trkpt>
      <trkpt lat="46.53806" lon="5.66955">
        <ele>542.5</ele>
        <time>2020-09-23T10:39:57Z</time>
      </trkpt>
      <trkpt lat="46.53802" lon="5.66951">
        <ele>542.3</ele>
        <time>2020-09-23T10:40:01Z</time>
      </trkpt>
      <trkpt lat="46.53797" lon="5.66949">
        <ele>542.1</ele>
        <time>2020-09-23T10:40:05Z</time>
      </trkpt>
      <trkpt lat="46.53792" lon="5.66946">
        <ele>542</ele>
        <time>2020-09-23T10:40:10Z</time>
      </trkpt>
      <trkpt lat="46.53788" lon="5.66942">
        <ele>542</ele>
        <time>2020-09-23T10:40:15Z</time>
      </trkpt>
      <trkpt lat="46.53784" lon="5.66939">
        <ele>541.7</ele>
        <time>2020-09-23T10:40:20Z</time>
      </trkpt>
      <trkpt lat="46.53779" lon="5.66935">
        <ele>541.4</ele>
        <time>2020-09-23T10:40:24Z</time>
      </trkpt>
      <trkpt lat="46.53775" lon="5.66932">
        <ele>541.3</ele>
        <time>2020-09-23T10:40:27Z</time>
      </trkpt>
      <trkpt lat="46.5377" lon="5.66928">
        <ele>541</ele>
        <time>2020-09-23T10:40:31Z</time>
      </trkpt>
      <trkpt lat="46.53765" lon="5.66925">
        <ele>540.9</ele>
        <time>2020-09-23T10:40:35Z</time>
      </trkpt>
      <trkpt lat="46.53761" lon="5.66921">
        <ele>540.8</ele>
        <time>2020-09-23T10:40:40Z</time>
      </trkpt>
      <trkpt lat="46.53757" lon="5.66917">
        <ele>540.6</ele>
        <time>2020-09-23T10:40:44Z</time>
      </trkpt>
      <trkpt lat="46.53752" lon="5.66914">
        <ele>540.3</ele>
        <time>2020-09-23T10:40:48Z</time>
      </trkpt>
      <trkpt lat="46.53749" lon="5.66909">
        <ele>539.8</ele>
        <time>2020-09-23T10:40:52Z</time>
      </trkpt>
      <trkpt lat="46.53745" lon="5.66904">
        <ele>539.2</ele>
        <time>2020-09-23T10:40:56Z</time>
      </trkpt>
      <trkpt lat="46.53741" lon="5.669">
        <ele>538.7</ele>
        <time>2020-09-23T10:41:00Z</time>
      </trkpt>
      <trkpt lat="46.53736" lon="5.66896">
        <ele>538.4</ele>
        <time>2020-09-23T10:41:05Z</time>
      </trkpt>
      <trkpt lat="46.53731" lon="5.66891">
        <ele>538.2</ele>
        <time>2020-09-23T10:41:09Z</time>
      </trkpt>
      <trkpt lat="46.53728" lon="5.66888">
        <ele>538.2</ele>
        <time>2020-09-23T10:41:13Z</time>
      </trkpt>
      <trkpt lat="46.53723" lon="5.66885">
        <ele>538</ele>
        <time>2020-09-23T10:41:17Z</time>
      </trkpt>
      <trkpt lat="46.53719" lon="5.66881">
        <ele>537.8</ele>
        <time>2020-09-23T10:41:21Z</time>
      </trkpt>
      <trkpt lat="46.53716" lon="5.66875">
        <ele>537.7</ele>
        <time>2020-09-23T10:41:25Z</time>
      </trkpt>
      <trkpt lat="46.53712" lon="5.6687">
        <ele>537.7</ele>
        <time>2020-09-23T10:41:30Z</time>
      </trkpt>
      <trkpt lat="46.53708" lon="5.66865">
        <ele>537.9</ele>
        <time>2020-09-23T10:41:35Z</time>
      </trkpt>
      <trkpt lat="46.53704" lon="5.6686">
        <ele>538.2</ele>
        <time>2020-09-23T10:41:39Z</time>
      </trkpt>
      <trkpt lat="46.53701" lon="5.66856">
        <ele>538.8</ele>
        <time>2020-09-23T10:41:43Z</time>
      </trkpt>
      <trkpt lat="46.53697" lon="5.66851">
        <ele>539.3</ele>
        <time>2020-09-23T10:41:47Z</time>
      </trkpt>
      <trkpt lat="46.53693" lon="5.66845">
        <ele>540</ele>
        <time>2020-09-23T10:41:52Z</time>
      </trkpt>
      <trkpt lat="46.53689" lon="5.6684">
        <ele>540.4</ele>
        <time>2020-09-23T10:41:57Z</time>
      </trkpt>
      <trkpt lat="46.53685" lon="5.66836">
        <ele>540.2</ele>
        <time>2020-09-23T10:42:03Z</time>
      </trkpt>
      <trkpt lat="46.53681" lon="5.66832">
        <ele>540</ele>
        <time>2020-09-23T10:42:08Z</time>
      </trkpt>
      <trkpt lat="46.53677" lon="5.66828">
        <ele>539.6</ele>
        <time>2020-09-23T10:42:12Z</time>
      </trkpt>
      <trkpt lat="46.53673" lon="5.66823">
        <ele>539.3</ele>
        <time>2020-09-23T10:42:16Z</time>
      </trkpt>
      <trkpt lat="46.53669" lon="5.66819">
        <ele>539.2</ele>
        <time>2020-09-23T10:42:20Z</time>
      </trkpt>
      <trkpt lat="46.53664" lon="5.66817">
        <ele>539.3</ele>
        <time>2020-09-23T10:42:24Z</time>
      </trkpt>
      <trkpt lat="46.5366" lon="5.66814">
        <ele>539.8</ele>
        <time>2020-09-23T10:42:28Z</time>
      </trkpt>
      <trkpt lat="46.53656" lon="5.66811">
        <ele>540.2</ele>
        <time>2020-09-23T10:42:32Z</time>
      </trkpt>
      <trkpt lat="46.53651" lon="5.66809">
        <ele>540.6</ele>
        <time>2020-09-23T10:42:36Z</time>
      </trkpt>
      <trkpt lat="46.53646" lon="5.66807">
        <ele>541.3</ele>
        <time>2020-09-23T10:42:40Z</time>
      </trkpt>
      <trkpt lat="46.53641" lon="5.66804">
        <ele>541.6</ele>
        <time>2020-09-23T10:42:44Z</time>
      </trkpt>
      <trkpt lat="46.53637" lon="5.66802">
        <ele>542</ele>
        <time>2020-09-23T10:42:48Z</time>
      </trkpt>
      <trkpt lat="46.53631" lon="5.66799">
        <ele>542.5</ele>
        <time>2020-09-23T10:42:53Z</time>
      </trkpt>
      <trkpt lat="46.53627" lon="5.66797">
        <ele>543</ele>
        <time>2020-09-23T10:42:57Z</time>
      </trkpt>
      <trkpt lat="46.53622" lon="5.66795">
        <ele>543.4</ele>
        <time>2020-09-23T10:43:02Z</time>
      </trkpt>
      <trkpt lat="46.53617" lon="5.66794">
        <ele>543.7</ele>
        <time>2020-09-23T10:43:07Z</time>
      </trkpt>
      <trkpt lat="46.53612" lon="5.66794">
        <ele>543.8</ele>
        <time>2020-09-23T10:43:12Z</time>
      </trkpt>
      <trkpt lat="46.53608" lon="5.66793">
        <ele>543.9</ele>
        <time>2020-09-23T10:43:16Z</time>
      </trkpt>
      <trkpt lat="46.53602" lon="5.66791">
        <ele>544.2</ele>
        <time>2020-09-23T10:43:20Z</time>
      </trkpt>
      <trkpt lat="46.53597" lon="5.66788">
        <ele>544.7</ele>
        <time>2020-09-23T10:43:24Z</time>
      </trkpt>
      <trkpt lat="46.53593" lon="5.66786">
        <ele>545</ele>
        <time>2020-09-23T10:43:28Z</time>
      </trkpt>
      <trkpt lat="46.53588" lon="5.66786">
        <ele>545.4</ele>
        <time>2020-09-23T10:43:33Z</time>
      </trkpt>
      <trkpt lat="46.53583" lon="5.66785">
        <ele>546.4</ele>
        <time>2020-09-23T10:43:38Z</time>
      </trkpt>
      <trkpt lat="46.53577" lon="5.66784">
        <ele>547.1</ele>
        <time>2020-09-23T10:43:43Z</time>
      </trkpt>
      <trkpt lat="46.53573" lon="5.6678">
        <ele>547.3</ele>
        <time>2020-09-23T10:43:48Z</time>
      </trkpt>
      <trkpt lat="46.53567" lon="5.66778">
        <ele>547.9</ele>
        <time>2020-09-23T10:43:53Z</time>
      </trkpt>
      <trkpt lat="46.53563" lon="5.66777">
        <ele>548.2</ele>
        <time>2020-09-23T10:43:57Z</time>
      </trkpt>
      <trkpt lat="46.53558" lon="5.66776">
        <ele>549.2</ele>
        <time>2020-09-23T10:44:02Z</time>
      </trkpt>
      <trkpt lat="46.53554" lon="5.66772">
        <ele>548.5</ele>
        <time>2020-09-23T10:44:06Z</time>
      </trkpt>
      <trkpt lat="46.5355" lon="5.66768">
        <ele>547.1</ele>
        <time>2020-09-23T10:44:11Z</time>
      </trkpt>
      <trkpt lat="46.53545" lon="5.66767">
        <ele>546.1</ele>
        <time>2020-09-23T10:44:16Z</time>
      </trkpt>
      <trkpt lat="46.5354" lon="5.66767">
        <ele>545</ele>
        <time>2020-09-23T10:44:21Z</time>
      </trkpt>
      <trkpt lat="46.53535" lon="5.66764">
        <ele>543.7</ele>
        <time>2020-09-23T10:44:27Z</time>
      </trkpt>
      <trkpt lat="46.53532" lon="5.66759">
        <ele>540.6</ele>
        <time>2020-09-23T10:45:58Z</time>
      </trkpt>
      <trkpt lat="46.53527" lon="5.66757">
        <ele>539.7</ele>
        <time>2020-09-23T10:46:34Z</time>
      </trkpt>
      <trkpt lat="46.53524" lon="5.66753">
        <ele>539.9</ele>
        <time>2020-09-23T10:46:39Z</time>
      </trkpt>
      <trkpt lat="46.53519" lon="5.66751">
        <ele>540.3</ele>
        <time>2020-09-23T10:46:45Z</time>
      </trkpt>
      <trkpt lat="46.53515" lon="5.66747">
        <ele>541.4</ele>
        <time>2020-09-23T10:47:11Z</time>
      </trkpt>
      <trkpt lat="46.53516" lon="5.66754">
        <ele>541.5</ele>
        <time>2020-09-23T10:47:18Z</time>
      </trkpt>
      <trkpt lat="46.53521" lon="5.66757">
        <ele>541</ele>
        <time>2020-09-23T10:47:26Z</time>
      </trkpt>
      <trkpt lat="46.53539" lon="5.66746">
        <ele>549.5</ele>
        <time>2020-09-23T11:18:35Z</time>
      </trkpt>
      <trkpt lat="46.53539" lon="5.66756">
        <ele>552.8</ele>
        <time>2020-09-23T11:18:38Z</time>
      </trkpt>
      <trkpt lat="46.53533" lon="5.66755">
        <ele>551.8</ele>
        <time>2020-09-23T11:18:41Z</time>
      </trkpt>
      <trkpt lat="46.53527" lon="5.66753">
        <ele>551.4</ele>
        <time>2020-09-23T11:18:57Z</time>
      </trkpt>
      <trkpt lat="46.53528" lon="5.6676">
        <ele>548.4</ele>
        <time>2020-09-23T11:23:37Z</time>
      </trkpt>
      <trkpt lat="46.53528" lon="5.66767">
        <ele>545.7</ele>
        <time>2020-09-23T11:23:55Z</time>
      </trkpt>
      <trkpt lat="46.53524" lon="5.66764">
        <ele>546.5</ele>
        <time>2020-09-23T11:24:34Z</time>
      </trkpt>
      <trkpt lat="46.5352" lon="5.66759">
        <ele>541.9</ele>
        <time>2020-09-23T11:25:08Z</time>
      </trkpt>
      <trkpt lat="46.53517" lon="5.66753">
        <ele>541.3</ele>
        <time>2020-09-23T11:25:13Z</time>
      </trkpt>
      <trkpt lat="46.53515" lon="5.66747">
        <ele>540</ele>
        <time>2020-09-23T11:25:30Z</time>
      </trkpt>
      <trkpt lat="46.53513" lon="5.6674">
        <ele>540</ele>
        <time>2020-09-23T11:25:43Z</time>
      </trkpt>
      <trkpt lat="46.53509" lon="5.66737">
        <ele>540.6</ele>
        <time>2020-09-23T11:25:48Z</time>
      </trkpt>
      <trkpt lat="46.53505" lon="5.66734">
        <ele>540.7</ele>
        <time>2020-09-23T11:25:53Z</time>
      </trkpt>
      <trkpt lat="46.53501" lon="5.66731">
        <ele>540.7</ele>
        <time>2020-09-23T11:25:58Z</time>
      </trkpt>
      <trkpt lat="46.53496" lon="5.66727">
        <ele>540.9</ele>
        <time>2020-09-23T11:26:03Z</time>
      </trkpt>
      <trkpt lat="46.53492" lon="5.66724">
        <ele>541.9</ele>
        <time>2020-09-23T11:26:09Z</time>
      </trkpt>
      <trkpt lat="46.53488" lon="5.66721">
        <ele>543.8</ele>
        <time>2020-09-23T11:26:14Z</time>
      </trkpt>
      <trkpt lat="46.53483" lon="5.66717">
        <ele>545.9</ele>
        <time>2020-09-23T11:26:19Z</time>
      </trkpt>
      <trkpt lat="46.53479" lon="5.66713">
        <ele>547.8</ele>
        <time>2020-09-23T11:26:24Z</time>
      </trkpt>
      <trkpt lat="46.53476" lon="5.66708">
        <ele>549.3</ele>
        <time>2020-09-23T11:26:29Z</time>
      </trkpt>
      <trkpt lat="46.53473" lon="5.66702">
        <ele>550.6</ele>
        <time>2020-09-23T11:26:34Z</time>
      </trkpt>
      <trkpt lat="46.5347" lon="5.66698">
        <ele>551.6</ele>
        <time>2020-09-23T11:26:39Z</time>
      </trkpt>
      <trkpt lat="46.53466" lon="5.66693">
        <ele>552.3</ele>
        <time>2020-09-23T11:26:44Z</time>
      </trkpt>
      <trkpt lat="46.53462" lon="5.66688">
        <ele>553</ele>
        <time>2020-09-23T11:26:49Z</time>
      </trkpt>
      <trkpt lat="46.5346" lon="5.66681">
        <ele>553.4</ele>
        <time>2020-09-23T11:26:54Z</time>
      </trkpt>
      <trkpt lat="46.53459" lon="5.66675">
        <ele>553.5</ele>
        <time>2020-09-23T11:26:58Z</time>
      </trkpt>
      <trkpt lat="46.53457" lon="5.66668">
        <ele>553.4</ele>
        <time>2020-09-23T11:27:02Z</time>
      </trkpt>
      <trkpt lat="46.53456" lon="5.66661">
        <ele>553.5</ele>
        <time>2020-09-23T11:27:07Z</time>
      </trkpt>
      <trkpt lat="46.53454" lon="5.66653">
        <ele>553.2</ele>
        <time>2020-09-23T11:27:13Z</time>
      </trkpt>
      <trkpt lat="46.53453" lon="5.66647">
        <ele>552.8</ele>
        <time>2020-09-23T11:27:17Z</time>
      </trkpt>
      <trkpt lat="46.53454" lon="5.66639">
        <ele>552.3</ele>
        <time>2020-09-23T11:27:22Z</time>
      </trkpt>
      <trkpt lat="46.53457" lon="5.66633">
        <ele>551.9</ele>
        <time>2020-09-23T11:27:28Z</time>
      </trkpt>
      <trkpt lat="46.53456" lon="5.66627">
        <ele>551.8</ele>
        <time>2020-09-23T11:27:34Z</time>
      </trkpt>
      <trkpt lat="46.53454" lon="5.6662">
        <ele>551.7</ele>
        <time>2020-09-23T11:27:39Z</time>
      </trkpt>
      <trkpt lat="46.53453" lon="5.66613">
        <ele>551.1</ele>
        <time>2020-09-23T11:27:43Z</time>
      </trkpt>
      <trkpt lat="46.53452" lon="5.66606">
        <ele>550.5</ele>
        <time>2020-09-23T11:27:47Z</time>
      </trkpt>
      <trkpt lat="46.53453" lon="5.66599">
        <ele>549.5</ele>
        <time>2020-09-23T11:27:52Z</time>
      </trkpt>
      <trkpt lat="46.53452" lon="5.66592">
        <ele>549</ele>
        <time>2020-09-23T11:27:56Z</time>
      </trkpt>
      <trkpt lat="46.53452" lon="5.66585">
        <ele>548.9</ele>
        <time>2020-09-23T11:28:00Z</time>
      </trkpt>
      <trkpt lat="46.53452" lon="5.66577">
        <ele>549.1</ele>
        <time>2020-09-23T11:28:05Z</time>
      </trkpt>
      <trkpt lat="46.53452" lon="5.6657">
        <ele>549.4</ele>
        <time>2020-09-23T11:28:09Z</time>
      </trkpt>
      <trkpt lat="46.53453" lon="5.66562">
        <ele>549.6</ele>
        <time>2020-09-23T11:28:14Z</time>
      </trkpt>
      <trkpt lat="46.53452" lon="5.66554">
        <ele>549.5</ele>
        <time>2020-09-23T11:28:18Z</time>
      </trkpt>
      <trkpt lat="46.53451" lon="5.66547">
        <ele>549.5</ele>
        <time>2020-09-23T11:28:22Z</time>
      </trkpt>
      <trkpt lat="46.5345" lon="5.6654">
        <ele>549.7</ele>
        <time>2020-09-23T11:28:27Z</time>
      </trkpt>
      <trkpt lat="46.53451" lon="5.66534">
        <ele>550.3</ele>
        <time>2020-09-23T11:28:31Z</time>
      </trkpt>
      <trkpt lat="46.53452" lon="5.66527">
        <ele>550.9</ele>
        <time>2020-09-23T11:28:35Z</time>
      </trkpt>
      <trkpt lat="46.53453" lon="5.66519">
        <ele>550.4</ele>
        <time>2020-09-23T11:28:40Z</time>
      </trkpt>
      <trkpt lat="46.53454" lon="5.66512">
        <ele>549.5</ele>
        <time>2020-09-23T11:28:45Z</time>
      </trkpt>
      <trkpt lat="46.53454" lon="5.66505">
        <ele>548.6</ele>
        <time>2020-09-23T11:28:49Z</time>
      </trkpt>
      <trkpt lat="46.53455" lon="5.66498">
        <ele>547.9</ele>
        <time>2020-09-23T11:28:53Z</time>
      </trkpt>
      <trkpt lat="46.53458" lon="5.66493">
        <ele>546.8</ele>
        <time>2020-09-23T11:28:59Z</time>
      </trkpt>
      <trkpt lat="46.53461" lon="5.66487">
        <ele>545.6</ele>
        <time>2020-09-23T11:29:08Z</time>
      </trkpt>
      <trkpt lat="46.53462" lon="5.66481">
        <ele>543.6</ele>
        <time>2020-09-23T11:29:14Z</time>
      </trkpt>
      <trkpt lat="46.5346" lon="5.66474">
        <ele>542.4</ele>
        <time>2020-09-23T11:29:20Z</time>
      </trkpt>
      <trkpt lat="46.53454" lon="5.66463">
        <ele>543</ele>
        <time>2020-09-23T11:29:34Z</time>
      </trkpt>
      <trkpt lat="46.53451" lon="5.66458">
        <ele>543.2</ele>
        <time>2020-09-23T11:29:37Z</time>
      </trkpt>
      <trkpt lat="46.53455" lon="5.66453">
        <ele>543.8</ele>
        <time>2020-09-23T11:29:50Z</time>
      </trkpt>
      <trkpt lat="46.53459" lon="5.6645">
        <ele>544.6</ele>
        <time>2020-09-23T11:29:59Z</time>
      </trkpt>
      <trkpt lat="46.53464" lon="5.66447">
        <ele>546.8</ele>
        <time>2020-09-23T11:30:04Z</time>
      </trkpt>
      <trkpt lat="46.5347" lon="5.66446">
        <ele>549.5</ele>
        <time>2020-09-23T11:30:09Z</time>
      </trkpt>
      <trkpt lat="46.53475" lon="5.66443">
        <ele>549.7</ele>
        <time>2020-09-23T11:30:15Z</time>
      </trkpt>
      <trkpt lat="46.5348" lon="5.66439">
        <ele>548.7</ele>
        <time>2020-09-23T11:30:20Z</time>
      </trkpt>
      <trkpt lat="46.53484" lon="5.66436">
        <ele>548.3</ele>
        <time>2020-09-23T11:30:26Z</time>
      </trkpt>
      <trkpt lat="46.53488" lon="5.66432">
        <ele>549.2</ele>
        <time>2020-09-23T11:30:31Z</time>
      </trkpt>
      <trkpt lat="46.53492" lon="5.66428">
        <ele>552</ele>
        <time>2020-09-23T11:30:39Z</time>
      </trkpt>
      <trkpt lat="46.53497" lon="5.66425">
        <ele>556</ele>
        <time>2020-09-23T11:31:01Z</time>
      </trkpt>
      <trkpt lat="46.53501" lon="5.66422">
        <ele>557.2</ele>
        <time>2020-09-23T11:31:06Z</time>
      </trkpt>
      <trkpt lat="46.53503" lon="5.66415">
        <ele>558.5</ele>
        <time>2020-09-23T11:31:10Z</time>
      </trkpt>
      <trkpt lat="46.53506" lon="5.66409">
        <ele>560.4</ele>
        <time>2020-09-23T11:31:16Z</time>
      </trkpt>
      <trkpt lat="46.53509" lon="5.66402">
        <ele>561.6</ele>
        <time>2020-09-23T11:31:21Z</time>
      </trkpt>
      <trkpt lat="46.53511" lon="5.66396">
        <ele>563</ele>
        <time>2020-09-23T11:31:26Z</time>
      </trkpt>
      <trkpt lat="46.53513" lon="5.6639">
        <ele>564.6</ele>
        <time>2020-09-23T11:31:31Z</time>
      </trkpt>
      <trkpt lat="46.53514" lon="5.66383">
        <ele>565.8</ele>
        <time>2020-09-23T11:31:36Z</time>
      </trkpt>
      <trkpt lat="46.53516" lon="5.66377">
        <ele>565.9</ele>
        <time>2020-09-23T11:31:40Z</time>
      </trkpt>
      <trkpt lat="46.53518" lon="5.6637">
        <ele>565.5</ele>
        <time>2020-09-23T11:31:45Z</time>
      </trkpt>
      <trkpt lat="46.5352" lon="5.66364">
        <ele>565.4</ele>
        <time>2020-09-23T11:31:49Z</time>
      </trkpt>
      <trkpt lat="46.53522" lon="5.66357">
        <ele>566.2</ele>
        <time>2020-09-23T11:31:54Z</time>
      </trkpt>
      <trkpt lat="46.53523" lon="5.66351">
        <ele>568.8</ele>
        <time>2020-09-23T11:32:08Z</time>
      </trkpt>
      <trkpt lat="46.53528" lon="5.66347">
        <ele>568.5</ele>
        <time>2020-09-23T11:32:26Z</time>
      </trkpt>
      <trkpt lat="46.53532" lon="5.66352">
        <ele>567.8</ele>
        <time>2020-09-23T11:32:32Z</time>
      </trkpt>
      <trkpt lat="46.53537" lon="5.6635">
        <ele>566.9</ele>
        <time>2020-09-23T11:32:37Z</time>
      </trkpt>
      <trkpt lat="46.53543" lon="5.66349">
        <ele>566.2</ele>
        <time>2020-09-23T11:32:42Z</time>
      </trkpt>
      <trkpt lat="46.53547" lon="5.66348">
        <ele>565.1</ele>
        <time>2020-09-23T11:32:47Z</time>
      </trkpt>
      <trkpt lat="46.5355" lon="5.66342">
        <ele>564.8</ele>
        <time>2020-09-23T11:32:51Z</time>
      </trkpt>
      <trkpt lat="46.53551" lon="5.66335">
        <ele>565</ele>
        <time>2020-09-23T11:32:55Z</time>
      </trkpt>
      <trkpt lat="46.53552" lon="5.66328">
        <ele>566.6</ele>
        <time>2020-09-23T11:33:02Z</time>
      </trkpt>
      <trkpt lat="46.53548" lon="5.66325">
        <ele>568.6</ele>
        <time>2020-09-23T11:33:13Z</time>
      </trkpt>
      <trkpt lat="46.53543" lon="5.66327">
        <ele>569.8</ele>
        <time>2020-09-23T11:33:19Z</time>
      </trkpt>
      <trkpt lat="46.53539" lon="5.6633">
        <ele>571</ele>
        <time>2020-09-23T11:33:24Z</time>
      </trkpt>
      <trkpt lat="46.53534" lon="5.66334">
        <ele>572.5</ele>
        <time>2020-09-23T11:33:29Z</time>
      </trkpt>
      <trkpt lat="46.5353" lon="5.66338">
        <ele>573.9</ele>
        <time>2020-09-23T11:33:34Z</time>
      </trkpt>
      <trkpt lat="46.53526" lon="5.66341">
        <ele>574.5</ele>
        <time>2020-09-23T11:33:39Z</time>
      </trkpt>
      <trkpt lat="46.53523" lon="5.66346">
        <ele>574.8</ele>
        <time>2020-09-23T11:33:43Z</time>
      </trkpt>
      <trkpt lat="46.53518" lon="5.66347">
        <ele>569.2</ele>
        <time>2020-09-23T11:34:41Z</time>
      </trkpt>
      <trkpt lat="46.53513" lon="5.66348">
        <ele>569.1</ele>
        <time>2020-09-23T11:34:47Z</time>
      </trkpt>
      <trkpt lat="46.53518" lon="5.66351">
        <ele>568.8</ele>
        <time>2020-09-23T11:35:07Z</time>
      </trkpt>
      <trkpt lat="46.53518" lon="5.66358">
        <ele>567.5</ele>
        <time>2020-09-23T11:35:14Z</time>
      </trkpt>
      <trkpt lat="46.53517" lon="5.66365">
        <ele>566.5</ele>
        <time>2020-09-23T11:35:19Z</time>
      </trkpt>
      <trkpt lat="46.53514" lon="5.66371">
        <ele>565.4</ele>
        <time>2020-09-23T11:35:24Z</time>
      </trkpt>
      <trkpt lat="46.53513" lon="5.66378">
        <ele>564.2</ele>
        <time>2020-09-23T11:35:29Z</time>
      </trkpt>
      <trkpt lat="46.53511" lon="5.66385">
        <ele>563.5</ele>
        <time>2020-09-23T11:35:34Z</time>
      </trkpt>
      <trkpt lat="46.53509" lon="5.66392">
        <ele>563.1</ele>
        <time>2020-09-23T11:35:39Z</time>
      </trkpt>
      <trkpt lat="46.53506" lon="5.66398">
        <ele>562.4</ele>
        <time>2020-09-23T11:35:45Z</time>
      </trkpt>
      <trkpt lat="46.53503" lon="5.66404">
        <ele>561.9</ele>
        <time>2020-09-23T11:35:53Z</time>
      </trkpt>
      <trkpt lat="46.535" lon="5.66409">
        <ele>562.1</ele>
        <time>2020-09-23T11:35:57Z</time>
      </trkpt>
      <trkpt lat="46.53496" lon="5.66413">
        <ele>562.1</ele>
        <time>2020-09-23T11:36:01Z</time>
      </trkpt>
      <trkpt lat="46.53492" lon="5.66418">
        <ele>562.1</ele>
        <time>2020-09-23T11:36:06Z</time>
      </trkpt>
      <trkpt lat="46.53488" lon="5.66422">
        <ele>561.3</ele>
        <time>2020-09-23T11:36:11Z</time>
      </trkpt>
      <trkpt lat="46.53484" lon="5.66425">
        <ele>558.7</ele>
        <time>2020-09-23T11:36:18Z</time>
      </trkpt>
      <trkpt lat="46.5348" lon="5.66428">
        <ele>557.8</ele>
        <time>2020-09-23T11:36:22Z</time>
      </trkpt>
      <trkpt lat="46.53475" lon="5.66433">
        <ele>557.7</ele>
        <time>2020-09-23T11:36:26Z</time>
      </trkpt>
      <trkpt lat="46.53471" lon="5.66436">
        <ele>558</ele>
        <time>2020-09-23T11:36:30Z</time>
      </trkpt>
      <trkpt lat="46.53466" lon="5.66439">
        <ele>558.4</ele>
        <time>2020-09-23T11:36:35Z</time>
      </trkpt>
      <trkpt lat="46.53462" lon="5.66442">
        <ele>558</ele>
        <time>2020-09-23T11:36:40Z</time>
      </trkpt>
      <trkpt lat="46.53457" lon="5.66445">
        <ele>556.6</ele>
        <time>2020-09-23T11:36:45Z</time>
      </trkpt>
      <trkpt lat="46.53452" lon="5.66447">
        <ele>555.1</ele>
        <time>2020-09-23T11:36:50Z</time>
      </trkpt>
      <trkpt lat="46.53448" lon="5.6645">
        <ele>553.8</ele>
        <time>2020-09-23T11:36:55Z</time>
      </trkpt>
      <trkpt lat="46.53443" lon="5.66452">
        <ele>553.1</ele>
        <time>2020-09-23T11:37:00Z</time>
      </trkpt>
      <trkpt lat="46.53438" lon="5.66453">
        <ele>552.8</ele>
        <time>2020-09-23T11:37:06Z</time>
      </trkpt>
      <trkpt lat="46.53433" lon="5.66457">
        <ele>551.9</ele>
        <time>2020-09-23T11:37:11Z</time>
      </trkpt>
      <trkpt lat="46.53428" lon="5.66458">
        <ele>550.7</ele>
        <time>2020-09-23T11:37:16Z</time>
      </trkpt>
      <trkpt lat="46.53423" lon="5.66459">
        <ele>550.1</ele>
        <time>2020-09-23T11:37:21Z</time>
      </trkpt>
      <trkpt lat="46.53418" lon="5.66463">
        <ele>551.1</ele>
        <time>2020-09-23T11:37:26Z</time>
      </trkpt>
      <trkpt lat="46.53414" lon="5.66467">
        <ele>552.4</ele>
        <time>2020-09-23T11:37:31Z</time>
      </trkpt>
      <trkpt lat="46.5341" lon="5.66472">
        <ele>553.8</ele>
        <time>2020-09-23T11:37:36Z</time>
      </trkpt>
      <trkpt lat="46.53405" lon="5.66476">
        <ele>555.6</ele>
        <time>2020-09-23T11:37:41Z</time>
      </trkpt>
      <trkpt lat="46.534" lon="5.66479">
        <ele>556.8</ele>
        <time>2020-09-23T11:37:45Z</time>
      </trkpt>
      <trkpt lat="46.53397" lon="5.66484">
        <ele>557.8</ele>
        <time>2020-09-23T11:37:49Z</time>
      </trkpt>
      <trkpt lat="46.53393" lon="5.66487">
        <ele>558.2</ele>
        <time>2020-09-23T11:37:53Z</time>
      </trkpt>
      <trkpt lat="46.53388" lon="5.6649">
        <ele>557.8</ele>
        <time>2020-09-23T11:37:58Z</time>
      </trkpt>
      <trkpt lat="46.53384" lon="5.66495">
        <ele>556.1</ele>
        <time>2020-09-23T11:38:04Z</time>
      </trkpt>
      <trkpt lat="46.5338" lon="5.66499">
        <ele>553.9</ele>
        <time>2020-09-23T11:38:09Z</time>
      </trkpt>
      <trkpt lat="46.53377" lon="5.66504">
        <ele>552.4</ele>
        <time>2020-09-23T11:38:13Z</time>
      </trkpt>
      <trkpt lat="46.53373" lon="5.66508">
        <ele>550.6</ele>
        <time>2020-09-23T11:38:19Z</time>
      </trkpt>
      <trkpt lat="46.5337" lon="5.66513">
        <ele>550.5</ele>
        <time>2020-09-23T11:38:29Z</time>
      </trkpt>
      <trkpt lat="46.53366" lon="5.66516">
        <ele>551</ele>
        <time>2020-09-23T11:38:34Z</time>
      </trkpt>
      <trkpt lat="46.53362" lon="5.6652">
        <ele>551.8</ele>
        <time>2020-09-23T11:38:38Z</time>
      </trkpt>
      <trkpt lat="46.53358" lon="5.66524">
        <ele>552.6</ele>
        <time>2020-09-23T11:38:42Z</time>
      </trkpt>
      <trkpt lat="46.53354" lon="5.66528">
        <ele>552.8</ele>
        <time>2020-09-23T11:38:47Z</time>
      </trkpt>
      <trkpt lat="46.53349" lon="5.6653">
        <ele>551.4</ele>
        <time>2020-09-23T11:38:52Z</time>
      </trkpt>
      <trkpt lat="46.53345" lon="5.66532">
        <ele>549.3</ele>
        <time>2020-09-23T11:38:57Z</time>
      </trkpt>
      <trkpt lat="46.5334" lon="5.66535">
        <ele>547.1</ele>
        <time>2020-09-23T11:39:02Z</time>
      </trkpt>
      <trkpt lat="46.53335" lon="5.66535">
        <ele>545.7</ele>
        <time>2020-09-23T11:39:06Z</time>
      </trkpt>
      <trkpt lat="46.53331" lon="5.66533">
        <ele>544.8</ele>
        <time>2020-09-23T11:39:10Z</time>
      </trkpt>
      <trkpt lat="46.53327" lon="5.6653">
        <ele>544.5</ele>
        <time>2020-09-23T11:39:14Z</time>
      </trkpt>
      <trkpt lat="46.53323" lon="5.66525">
        <ele>544.7</ele>
        <time>2020-09-23T11:39:18Z</time>
      </trkpt>
      <trkpt lat="46.53321" lon="5.6652">
        <ele>545.4</ele>
        <time>2020-09-23T11:39:22Z</time>
      </trkpt>
      <trkpt lat="46.53317" lon="5.66513">
        <ele>546.6</ele>
        <time>2020-09-23T11:39:27Z</time>
      </trkpt>
      <trkpt lat="46.53314" lon="5.66507">
        <ele>548</ele>
        <time>2020-09-23T11:39:32Z</time>
      </trkpt>
      <trkpt lat="46.53311" lon="5.66501">
        <ele>549.6</ele>
        <time>2020-09-23T11:39:39Z</time>
      </trkpt>
      <trkpt lat="46.53308" lon="5.66495">
        <ele>549.3</ele>
        <time>2020-09-23T11:39:51Z</time>
      </trkpt>
      <trkpt lat="46.53305" lon="5.6649">
        <ele>549.4</ele>
        <time>2020-09-23T11:39:58Z</time>
      </trkpt>
      <trkpt lat="46.53301" lon="5.66485">
        <ele>549.1</ele>
        <time>2020-09-23T11:40:06Z</time>
      </trkpt>
      <trkpt lat="46.53297" lon="5.66481">
        <ele>548.6</ele>
        <time>2020-09-23T11:40:12Z</time>
      </trkpt>
      <trkpt lat="46.53293" lon="5.66476">
        <ele>548.3</ele>
        <time>2020-09-23T11:40:18Z</time>
      </trkpt>
      <trkpt lat="46.53289" lon="5.66473">
        <ele>548.1</ele>
        <time>2020-09-23T11:40:23Z</time>
      </trkpt>
      <trkpt lat="46.53284" lon="5.6647">
        <ele>548</ele>
        <time>2020-09-23T11:40:28Z</time>
      </trkpt>
      <trkpt lat="46.53279" lon="5.66466">
        <ele>548.7</ele>
        <time>2020-09-23T11:40:33Z</time>
      </trkpt>
      <trkpt lat="46.53274" lon="5.66462">
        <ele>549.5</ele>
        <time>2020-09-23T11:40:39Z</time>
      </trkpt>
      <trkpt lat="46.53269" lon="5.66459">
        <ele>549.2</ele>
        <time>2020-09-23T11:40:44Z</time>
      </trkpt>
      <trkpt lat="46.53265" lon="5.66455">
        <ele>549.2</ele>
        <time>2020-09-23T11:40:48Z</time>
      </trkpt>
      <trkpt lat="46.53262" lon="5.6645">
        <ele>549.6</ele>
        <time>2020-09-23T11:40:52Z</time>
      </trkpt>
      <trkpt lat="46.53258" lon="5.66446">
        <ele>550.5</ele>
        <time>2020-09-23T11:40:57Z</time>
      </trkpt>
      <trkpt lat="46.53254" lon="5.66442">
        <ele>549.9</ele>
        <time>2020-09-23T11:41:05Z</time>
      </trkpt>
      <trkpt lat="46.53249" lon="5.66439">
        <ele>549</ele>
        <time>2020-09-23T11:41:10Z</time>
      </trkpt>
      <trkpt lat="46.53244" lon="5.66437">
        <ele>548.9</ele>
        <time>2020-09-23T11:41:15Z</time>
      </trkpt>
      <trkpt lat="46.5324" lon="5.66434">
        <ele>548.6</ele>
        <time>2020-09-23T11:41:20Z</time>
      </trkpt>
      <trkpt lat="46.53236" lon="5.66429">
        <ele>549</ele>
        <time>2020-09-23T11:41:25Z</time>
      </trkpt>
      <trkpt lat="46.53231" lon="5.66426">
        <ele>549.4</ele>
        <time>2020-09-23T11:41:31Z</time>
      </trkpt>
      <trkpt lat="46.53227" lon="5.66423">
        <ele>547.6</ele>
        <time>2020-09-23T11:41:37Z</time>
      </trkpt>
      <trkpt lat="46.53222" lon="5.66423">
        <ele>544.9</ele>
        <time>2020-09-23T11:41:42Z</time>
      </trkpt>
      <trkpt lat="46.53218" lon="5.66422">
        <ele>541.8</ele>
        <time>2020-09-23T11:41:47Z</time>
      </trkpt>
      <trkpt lat="46.53213" lon="5.6642">
        <ele>539</ele>
        <time>2020-09-23T11:41:53Z</time>
      </trkpt>
      <trkpt lat="46.53209" lon="5.66417">
        <ele>538.2</ele>
        <time>2020-09-23T11:41:57Z</time>
      </trkpt>
      <trkpt lat="46.53204" lon="5.66414">
        <ele>538</ele>
        <time>2020-09-23T11:42:01Z</time>
      </trkpt>
      <trkpt lat="46.53199" lon="5.66415">
        <ele>538.6</ele>
        <time>2020-09-23T11:42:06Z</time>
      </trkpt>
      <trkpt lat="46.53194" lon="5.66417">
        <ele>539.2</ele>
        <time>2020-09-23T11:42:10Z</time>
      </trkpt>
      <trkpt lat="46.53189" lon="5.66416">
        <ele>538</ele>
        <time>2020-09-23T11:42:18Z</time>
      </trkpt>
      <trkpt lat="46.53184" lon="5.66417">
        <ele>536</ele>
        <time>2020-09-23T11:42:35Z</time>
      </trkpt>
      <trkpt lat="46.5318" lon="5.6642">
        <ele>535.3</ele>
        <time>2020-09-23T11:42:42Z</time>
      </trkpt>
      <trkpt lat="46.53176" lon="5.66423">
        <ele>534.8</ele>
        <time>2020-09-23T11:42:48Z</time>
      </trkpt>
      <trkpt lat="46.53172" lon="5.66427">
        <ele>533.4</ele>
        <time>2020-09-23T11:42:56Z</time>
      </trkpt>
      <trkpt lat="46.53169" lon="5.66433">
        <ele>532.5</ele>
        <time>2020-09-23T11:43:02Z</time>
      </trkpt>
      <trkpt lat="46.53164" lon="5.66435">
        <ele>533.4</ele>
        <time>2020-09-23T11:43:11Z</time>
      </trkpt>
      <trkpt lat="46.53159" lon="5.66436">
        <ele>533.8</ele>
        <time>2020-09-23T11:43:16Z</time>
      </trkpt>
      <trkpt lat="46.53154" lon="5.66439">
        <ele>534.2</ele>
        <time>2020-09-23T11:43:21Z</time>
      </trkpt>
      <trkpt lat="46.53149" lon="5.66443">
        <ele>533.7</ele>
        <time>2020-09-23T11:43:26Z</time>
      </trkpt>
      <trkpt lat="46.53144" lon="5.66445">
        <ele>533.7</ele>
        <time>2020-09-23T11:43:32Z</time>
      </trkpt>
      <trkpt lat="46.53141" lon="5.66449">
        <ele>533.6</ele>
        <time>2020-09-23T11:43:37Z</time>
      </trkpt>
      <trkpt lat="46.53137" lon="5.66455">
        <ele>533</ele>
        <time>2020-09-23T11:43:43Z</time>
      </trkpt>
      <trkpt lat="46.53132" lon="5.66457">
        <ele>532.3</ele>
        <time>2020-09-23T11:43:49Z</time>
      </trkpt>
      <trkpt lat="46.53127" lon="5.66457">
        <ele>532.5</ele>
        <time>2020-09-23T11:43:53Z</time>
      </trkpt>
      <trkpt lat="46.53122" lon="5.66457">
        <ele>533.2</ele>
        <time>2020-09-23T11:43:58Z</time>
      </trkpt>
      <trkpt lat="46.53118" lon="5.66459">
        <ele>533.5</ele>
        <time>2020-09-23T11:44:03Z</time>
      </trkpt>
      <trkpt lat="46.53113" lon="5.66462">
        <ele>534.6</ele>
        <time>2020-09-23T11:44:09Z</time>
      </trkpt>
      <trkpt lat="46.53108" lon="5.66463">
        <ele>536.4</ele>
        <time>2020-09-23T11:44:16Z</time>
      </trkpt>
      <trkpt lat="46.53103" lon="5.66463">
        <ele>537.7</ele>
        <time>2020-09-23T11:44:21Z</time>
      </trkpt>
      <trkpt lat="46.53097" lon="5.66464">
        <ele>539.1</ele>
        <time>2020-09-23T11:44:26Z</time>
      </trkpt>
      <trkpt lat="46.53094" lon="5.66469">
        <ele>538.9</ele>
        <time>2020-09-23T11:44:48Z</time>
      </trkpt>
      <trkpt lat="46.53089" lon="5.66471">
        <ele>539.7</ele>
        <time>2020-09-23T11:44:53Z</time>
      </trkpt>
      <trkpt lat="46.53084" lon="5.66472">
        <ele>540.6</ele>
        <time>2020-09-23T11:44:57Z</time>
      </trkpt>
      <trkpt lat="46.53079" lon="5.66474">
        <ele>541.7</ele>
        <time>2020-09-23T11:45:01Z</time>
      </trkpt>
      <trkpt lat="46.53075" lon="5.66477">
        <ele>542.9</ele>
        <time>2020-09-23T11:45:05Z</time>
      </trkpt>
      <trkpt lat="46.5307" lon="5.66481">
        <ele>544.7</ele>
        <time>2020-09-23T11:45:10Z</time>
      </trkpt>
      <trkpt lat="46.53066" lon="5.66485">
        <ele>546</ele>
        <time>2020-09-23T11:45:15Z</time>
      </trkpt>
      <trkpt lat="46.53063" lon="5.66491">
        <ele>547</ele>
        <time>2020-09-23T11:45:20Z</time>
      </trkpt>
      <trkpt lat="46.5306" lon="5.66497">
        <ele>547.7</ele>
        <time>2020-09-23T11:45:25Z</time>
      </trkpt>
      <trkpt lat="46.53059" lon="5.66505">
        <ele>548.4</ele>
        <time>2020-09-23T11:45:30Z</time>
      </trkpt>
      <trkpt lat="46.53057" lon="5.66512">
        <ele>548.7</ele>
        <time>2020-09-23T11:45:35Z</time>
      </trkpt>
      <trkpt lat="46.53056" lon="5.66519">
        <ele>548.7</ele>
        <time>2020-09-23T11:45:39Z</time>
      </trkpt>
      <trkpt lat="46.53053" lon="5.66526">
        <ele>548.5</ele>
        <time>2020-09-23T11:45:43Z</time>
      </trkpt>
      <trkpt lat="46.53051" lon="5.66532">
        <ele>548</ele>
        <time>2020-09-23T11:45:47Z</time>
      </trkpt>
      <trkpt lat="46.53048" lon="5.66538">
        <ele>547.4</ele>
        <time>2020-09-23T11:45:52Z</time>
      </trkpt>
      <trkpt lat="46.53044" lon="5.66542">
        <ele>546.2</ele>
        <time>2020-09-23T11:45:57Z</time>
      </trkpt>
      <trkpt lat="46.53041" lon="5.66547">
        <ele>545.8</ele>
        <time>2020-09-23T11:46:00Z</time>
      </trkpt>
      <trkpt lat="46.53037" lon="5.66551">
        <ele>546.2</ele>
        <time>2020-09-23T11:46:05Z</time>
      </trkpt>
      <trkpt lat="46.53032" lon="5.66552">
        <ele>547</ele>
        <time>2020-09-23T11:46:09Z</time>
      </trkpt>
      <trkpt lat="46.53027" lon="5.66553">
        <ele>547.7</ele>
        <time>2020-09-23T11:46:13Z</time>
      </trkpt>
      <trkpt lat="46.53023" lon="5.66552">
        <ele>548.3</ele>
        <time>2020-09-23T11:46:18Z</time>
      </trkpt>
      <trkpt lat="46.53018" lon="5.66549">
        <ele>547.7</ele>
        <time>2020-09-23T11:46:22Z</time>
      </trkpt>
      <trkpt lat="46.53014" lon="5.66547">
        <ele>547</ele>
        <time>2020-09-23T11:46:26Z</time>
      </trkpt>
      <trkpt lat="46.53008" lon="5.66544">
        <ele>546.6</ele>
        <time>2020-09-23T11:46:31Z</time>
      </trkpt>
      <trkpt lat="46.53004" lon="5.66542">
        <ele>546.5</ele>
        <time>2020-09-23T11:46:35Z</time>
      </trkpt>
      <trkpt lat="46.52999" lon="5.6654">
        <ele>546.4</ele>
        <time>2020-09-23T11:46:40Z</time>
      </trkpt>
      <trkpt lat="46.52994" lon="5.66539">
        <ele>546.5</ele>
        <time>2020-09-23T11:46:44Z</time>
      </trkpt>
      <trkpt lat="46.52989" lon="5.66538">
        <ele>546.6</ele>
        <time>2020-09-23T11:46:48Z</time>
      </trkpt>
      <trkpt lat="46.52983" lon="5.66536">
        <ele>546.3</ele>
        <time>2020-09-23T11:46:53Z</time>
      </trkpt>
      <trkpt lat="46.52978" lon="5.66536">
        <ele>545.3</ele>
        <time>2020-09-23T11:46:58Z</time>
      </trkpt>
      <trkpt lat="46.52973" lon="5.66536">
        <ele>544.1</ele>
        <time>2020-09-23T11:47:03Z</time>
      </trkpt>
      <trkpt lat="46.52968" lon="5.66534">
        <ele>543.3</ele>
        <time>2020-09-23T11:47:08Z</time>
      </trkpt>
      <trkpt lat="46.52963" lon="5.66535">
        <ele>543.1</ele>
        <time>2020-09-23T11:47:12Z</time>
      </trkpt>
      <trkpt lat="46.52959" lon="5.66536">
        <ele>542.8</ele>
        <time>2020-09-23T11:47:16Z</time>
      </trkpt>
      <trkpt lat="46.52954" lon="5.66538">
        <ele>542.7</ele>
        <time>2020-09-23T11:47:20Z</time>
      </trkpt>
      <trkpt lat="46.52949" lon="5.66539">
        <ele>542.8</ele>
        <time>2020-09-23T11:47:25Z</time>
      </trkpt>
      <trkpt lat="46.52944" lon="5.6654">
        <ele>543</ele>
        <time>2020-09-23T11:47:29Z</time>
      </trkpt>
      <trkpt lat="46.52939" lon="5.66541">
        <ele>543.3</ele>
        <time>2020-09-23T11:47:33Z</time>
      </trkpt>
      <trkpt lat="46.52934" lon="5.66543">
        <ele>543.4</ele>
        <time>2020-09-23T11:47:37Z</time>
      </trkpt>
      <trkpt lat="46.5293" lon="5.66544">
        <ele>543.5</ele>
        <time>2020-09-23T11:47:41Z</time>
      </trkpt>
      <trkpt lat="46.52925" lon="5.66545">
        <ele>543.6</ele>
        <time>2020-09-23T11:47:45Z</time>
      </trkpt>
      <trkpt lat="46.5292" lon="5.66546">
        <ele>543.2</ele>
        <time>2020-09-23T11:47:50Z</time>
      </trkpt>
      <trkpt lat="46.52915" lon="5.66546">
        <ele>542.8</ele>
        <time>2020-09-23T11:47:55Z</time>
      </trkpt>
      <trkpt lat="46.5291" lon="5.66547">
        <ele>542.7</ele>
        <time>2020-09-23T11:48:01Z</time>
      </trkpt>
      <trkpt lat="46.52905" lon="5.66547">
        <ele>542.8</ele>
        <time>2020-09-23T11:48:07Z</time>
      </trkpt>
      <trkpt lat="46.529" lon="5.66548">
        <ele>542.4</ele>
        <time>2020-09-23T11:48:13Z</time>
      </trkpt>
      <trkpt lat="46.52895" lon="5.66549">
        <ele>541.5</ele>
        <time>2020-09-23T11:48:21Z</time>
      </trkpt>
      <trkpt lat="46.5289" lon="5.66548">
        <ele>541.1</ele>
        <time>2020-09-23T11:48:26Z</time>
      </trkpt>
      <trkpt lat="46.52885" lon="5.66549">
        <ele>540.8</ele>
        <time>2020-09-23T11:48:31Z</time>
      </trkpt>
      <trkpt lat="46.5288" lon="5.6655">
        <ele>540.3</ele>
        <time>2020-09-23T11:48:36Z</time>
      </trkpt>
      <trkpt lat="46.52876" lon="5.66554">
        <ele>539.2</ele>
        <time>2020-09-23T11:48:42Z</time>
      </trkpt>
      <trkpt lat="46.52871" lon="5.66555">
        <ele>537.6</ele>
        <time>2020-09-23T11:48:47Z</time>
      </trkpt>
      <trkpt lat="46.52866" lon="5.66558">
        <ele>535.5</ele>
        <time>2020-09-23T11:48:53Z</time>
      </trkpt>
      <trkpt lat="46.52861" lon="5.66558">
        <ele>533.7</ele>
        <time>2020-09-23T11:48:59Z</time>
      </trkpt>
      <trkpt lat="46.52856" lon="5.66559">
        <ele>532.2</ele>
        <time>2020-09-23T11:49:06Z</time>
      </trkpt>
      <trkpt lat="46.52851" lon="5.66559">
        <ele>531.1</ele>
        <time>2020-09-23T11:49:11Z</time>
      </trkpt>
      <trkpt lat="46.52846" lon="5.66558">
        <ele>530.3</ele>
        <time>2020-09-23T11:49:16Z</time>
      </trkpt>
      <trkpt lat="46.52837" lon="5.66565">
        <ele>534.8</ele>
        <time>2020-09-23T11:49:19Z</time>
      </trkpt>
      <trkpt lat="46.52832" lon="5.66565">
        <ele>537.9</ele>
        <time>2020-09-23T11:49:23Z</time>
      </trkpt>
      <trkpt lat="46.52827" lon="5.66562">
        <ele>540.1</ele>
        <time>2020-09-23T11:49:28Z</time>
      </trkpt>
      <trkpt lat="46.52822" lon="5.66561">
        <ele>541.5</ele>
        <time>2020-09-23T11:49:34Z</time>
      </trkpt>
      <trkpt lat="46.52817" lon="5.66562">
        <ele>542.2</ele>
        <time>2020-09-23T11:49:39Z</time>
      </trkpt>
      <trkpt lat="46.52811" lon="5.66561">
        <ele>542.4</ele>
        <time>2020-09-23T11:49:44Z</time>
      </trkpt>
      <trkpt lat="46.52806" lon="5.66558">
        <ele>542.6</ele>
        <time>2020-09-23T11:49:50Z</time>
      </trkpt>
      <trkpt lat="46.52802" lon="5.66556">
        <ele>542.9</ele>
        <time>2020-09-23T11:49:56Z</time>
      </trkpt>
      <trkpt lat="46.52798" lon="5.66553">
        <ele>542.3</ele>
        <time>2020-09-23T11:50:01Z</time>
      </trkpt>
      <trkpt lat="46.52793" lon="5.66552">
        <ele>541.3</ele>
        <time>2020-09-23T11:50:07Z</time>
      </trkpt>
      <trkpt lat="46.52788" lon="5.66552">
        <ele>540.4</ele>
        <time>2020-09-23T11:50:13Z</time>
      </trkpt>
      <trkpt lat="46.52783" lon="5.66552">
        <ele>539.2</ele>
        <time>2020-09-23T11:50:19Z</time>
      </trkpt>
      <trkpt lat="46.52779" lon="5.66551">
        <ele>537.9</ele>
        <time>2020-09-23T11:50:26Z</time>
      </trkpt>
      <trkpt lat="46.52774" lon="5.6655">
        <ele>536.9</ele>
        <time>2020-09-23T11:50:39Z</time>
      </trkpt>
      <trkpt lat="46.52769" lon="5.6655">
        <ele>537.1</ele>
        <time>2020-09-23T11:50:45Z</time>
      </trkpt>
      <trkpt lat="46.52774" lon="5.66547">
        <ele>541.3</ele>
        <time>2020-09-23T11:51:22Z</time>
      </trkpt>
      <trkpt lat="46.5277" lon="5.66552">
        <ele>547</ele>
        <time>2020-09-23T11:59:19Z</time>
      </trkpt>
      <trkpt lat="46.52765" lon="5.66552">
        <ele>545.8</ele>
        <time>2020-09-23T11:59:28Z</time>
      </trkpt>
      <trkpt lat="46.5276" lon="5.66554">
        <ele>544.9</ele>
        <time>2020-09-23T11:59:36Z</time>
      </trkpt>
      <trkpt lat="46.52756" lon="5.66555">
        <ele>544</ele>
        <time>2020-09-23T11:59:43Z</time>
      </trkpt>
      <trkpt lat="46.52751" lon="5.66554">
        <ele>542.7</ele>
        <time>2020-09-23T11:59:51Z</time>
      </trkpt>
      <trkpt lat="46.52746" lon="5.66556">
        <ele>541.5</ele>
        <time>2020-09-23T11:59:56Z</time>
      </trkpt>
      <trkpt lat="46.52741" lon="5.66559">
        <ele>540.5</ele>
        <time>2020-09-23T12:00:02Z</time>
      </trkpt>
      <trkpt lat="46.52737" lon="5.66561">
        <ele>539.5</ele>
        <time>2020-09-23T12:00:08Z</time>
      </trkpt>
      <trkpt lat="46.52733" lon="5.66555">
        <ele>538.3</ele>
        <time>2020-09-23T12:00:24Z</time>
      </trkpt>
      <trkpt lat="46.5273" lon="5.66551">
        <ele>538.3</ele>
        <time>2020-09-23T12:00:30Z</time>
      </trkpt>
      <trkpt lat="46.52733" lon="5.66555">
        <ele>536.7</ele>
        <time>2020-09-23T12:02:00Z</time>
      </trkpt>
      <trkpt lat="46.52733" lon="5.66562">
        <ele>535.7</ele>
        <time>2020-09-23T12:02:14Z</time>
      </trkpt>
      <trkpt lat="46.5273" lon="5.66568">
        <ele>536.2</ele>
        <time>2020-09-23T12:02:42Z</time>
      </trkpt>
      <trkpt lat="46.5273" lon="5.66575">
        <ele>535.6</ele>
        <time>2020-09-23T12:02:57Z</time>
      </trkpt>
      <trkpt lat="46.52725" lon="5.66575">
        <ele>537.2</ele>
        <time>2020-09-23T12:03:14Z</time>
      </trkpt>
      <trkpt lat="46.52729" lon="5.66581">
        <ele>536.8</ele>
        <time>2020-09-23T12:03:54Z</time>
      </trkpt>
      <trkpt lat="46.52731" lon="5.66586">
        <ele>536.6</ele>
        <time>2020-09-23T12:04:01Z</time>
      </trkpt>
      <trkpt lat="46.52735" lon="5.6659">
        <ele>534.7</ele>
        <time>2020-09-23T12:04:27Z</time>
      </trkpt>
      <trkpt lat="46.52734" lon="5.66597">
        <ele>533.4</ele>
        <time>2020-09-23T12:04:42Z</time>
      </trkpt>
      <trkpt lat="46.52729" lon="5.66599">
        <ele>530.4</ele>
        <time>2020-09-23T12:05:14Z</time>
      </trkpt>
      <trkpt lat="46.52725" lon="5.66596">
        <ele>527.4</ele>
        <time>2020-09-23T12:05:30Z</time>
      </trkpt>
      <trkpt lat="46.5272" lon="5.66597">
        <ele>526.7</ele>
        <time>2020-09-23T12:05:37Z</time>
      </trkpt>
      <trkpt lat="46.52715" lon="5.66595">
        <ele>526.9</ele>
        <time>2020-09-23T12:05:54Z</time>
      </trkpt>
      <trkpt lat="46.52711" lon="5.66592">
        <ele>526.7</ele>
        <time>2020-09-23T12:06:07Z</time>
      </trkpt>
      <trkpt lat="46.52707" lon="5.66591">
        <ele>525.9</ele>
        <time>2020-09-23T12:06:17Z</time>
      </trkpt>
      <trkpt lat="46.52702" lon="5.66595">
        <ele>523.5</ele>
        <time>2020-09-23T12:06:35Z</time>
      </trkpt>
      <trkpt lat="46.52698" lon="5.66598">
        <ele>521.5</ele>
        <time>2020-09-23T12:06:43Z</time>
      </trkpt>
      <trkpt lat="46.52694" lon="5.66601">
        <ele>519.2</ele>
        <time>2020-09-23T12:06:56Z</time>
      </trkpt>
      <trkpt lat="46.5269" lon="5.66604">
        <ele>518.4</ele>
        <time>2020-09-23T12:07:04Z</time>
      </trkpt>
      <trkpt lat="46.52687" lon="5.66609">
        <ele>517.9</ele>
        <time>2020-09-23T12:07:12Z</time>
      </trkpt>
      <trkpt lat="46.52686" lon="5.66616">
        <ele>517.3</ele>
        <time>2020-09-23T12:07:53Z</time>
      </trkpt>
      <trkpt lat="46.52682" lon="5.66616">
        <ele>519.3</ele>
        <time>2020-09-23T12:09:39Z</time>
      </trkpt>
      <trkpt lat="46.52678" lon="5.66613">
        <ele>519.1</ele>
        <time>2020-09-23T12:09:47Z</time>
      </trkpt>
      <trkpt lat="46.52673" lon="5.66611">
        <ele>518.7</ele>
        <time>2020-09-23T12:10:13Z</time>
      </trkpt>
      <trkpt lat="46.52669" lon="5.66608">
        <ele>516.7</ele>
        <time>2020-09-23T12:10:32Z</time>
      </trkpt>
      <trkpt lat="46.52664" lon="5.66606">
        <ele>515.9</ele>
        <time>2020-09-23T12:10:38Z</time>
      </trkpt>
      <trkpt lat="46.5266" lon="5.66603">
        <ele>515.8</ele>
        <time>2020-09-23T12:10:43Z</time>
      </trkpt>
      <trkpt lat="46.52655" lon="5.66601">
        <ele>515.9</ele>
        <time>2020-09-23T12:10:49Z</time>
      </trkpt>
      <trkpt lat="46.5265" lon="5.66601">
        <ele>514.7</ele>
        <time>2020-09-23T12:10:54Z</time>
      </trkpt>
      <trkpt lat="46.52645" lon="5.666">
        <ele>512.6</ele>
        <time>2020-09-23T12:10:59Z</time>
      </trkpt>
      <trkpt lat="46.5264" lon="5.666">
        <ele>511.4</ele>
        <time>2020-09-23T12:11:04Z</time>
      </trkpt>
      <trkpt lat="46.52636" lon="5.66598">
        <ele>510.7</ele>
        <time>2020-09-23T12:11:09Z</time>
      </trkpt>
      <trkpt lat="46.52631" lon="5.66596">
        <ele>509.7</ele>
        <time>2020-09-23T12:11:15Z</time>
      </trkpt>
      <trkpt lat="46.52627" lon="5.66594">
        <ele>508.7</ele>
        <time>2020-09-23T12:11:21Z</time>
      </trkpt>
      <trkpt lat="46.52621" lon="5.66595">
        <ele>507.3</ele>
        <time>2020-09-23T12:11:27Z</time>
      </trkpt>
      <trkpt lat="46.52616" lon="5.66593">
        <ele>506.9</ele>
        <time>2020-09-23T12:11:33Z</time>
      </trkpt>
      <trkpt lat="46.52611" lon="5.66591">
        <ele>505.8</ele>
        <time>2020-09-23T12:11:39Z</time>
      </trkpt>
      <trkpt lat="46.52607" lon="5.66588">
        <ele>505.7</ele>
        <time>2020-09-23T12:11:44Z</time>
      </trkpt>
      <trkpt lat="46.52605" lon="5.66582">
        <ele>506</ele>
        <time>2020-09-23T12:11:49Z</time>
      </trkpt>
      <trkpt lat="46.52605" lon="5.66575">
        <ele>506.1</ele>
        <time>2020-09-23T12:11:55Z</time>
      </trkpt>
      <trkpt lat="46.52604" lon="5.66567">
        <ele>505.8</ele>
        <time>2020-09-23T12:12:04Z</time>
      </trkpt>
      <trkpt lat="46.52602" lon="5.6656">
        <ele>505.4</ele>
        <time>2020-09-23T12:12:09Z</time>
      </trkpt>
      <trkpt lat="46.52604" lon="5.66554">
        <ele>504.7</ele>
        <time>2020-09-23T12:12:15Z</time>
      </trkpt>
      <trkpt lat="46.52605" lon="5.66547">
        <ele>503.5</ele>
        <time>2020-09-23T12:12:22Z</time>
      </trkpt>
      <trkpt lat="46.52606" lon="5.66541">
        <ele>502.2</ele>
        <time>2020-09-23T12:12:30Z</time>
      </trkpt>
      <trkpt lat="46.52608" lon="5.66535">
        <ele>501.6</ele>
        <time>2020-09-23T12:12:36Z</time>
      </trkpt>
      <trkpt lat="46.5261" lon="5.66528">
        <ele>501.2</ele>
        <time>2020-09-23T12:12:42Z</time>
      </trkpt>
      <trkpt lat="46.52607" lon="5.66523">
        <ele>500.9</ele>
        <time>2020-09-23T12:12:48Z</time>
      </trkpt>
      <trkpt lat="46.52602" lon="5.66524">
        <ele>500.3</ele>
        <time>2020-09-23T12:12:54Z</time>
      </trkpt>
      <trkpt lat="46.52597" lon="5.66523">
        <ele>499.7</ele>
        <time>2020-09-23T12:13:01Z</time>
      </trkpt>
      <trkpt lat="46.52593" lon="5.66519">
        <ele>499.1</ele>
        <time>2020-09-23T12:13:09Z</time>
      </trkpt>
      <trkpt lat="46.52591" lon="5.66511">
        <ele>498.7</ele>
        <time>2020-09-23T12:13:15Z</time>
      </trkpt>
      <trkpt lat="46.52588" lon="5.66505">
        <ele>497.9</ele>
        <time>2020-09-23T12:13:21Z</time>
      </trkpt>
      <trkpt lat="46.52585" lon="5.66499">
        <ele>497</ele>
        <time>2020-09-23T12:13:26Z</time>
      </trkpt>
      <trkpt lat="46.52583" lon="5.66491">
        <ele>495.1</ele>
        <time>2020-09-23T12:13:33Z</time>
      </trkpt>
      <trkpt lat="46.52582" lon="5.66484">
        <ele>493.8</ele>
        <time>2020-09-23T12:13:38Z</time>
      </trkpt>
      <trkpt lat="46.52583" lon="5.66478">
        <ele>492</ele>
        <time>2020-09-23T12:13:43Z</time>
      </trkpt>
      <trkpt lat="46.52586" lon="5.66471">
        <ele>490.1</ele>
        <time>2020-09-23T12:13:48Z</time>
      </trkpt>
      <trkpt lat="46.52588" lon="5.66464">
        <ele>488.3</ele>
        <time>2020-09-23T12:13:53Z</time>
      </trkpt>
      <trkpt lat="46.52589" lon="5.66456">
        <ele>487.1</ele>
        <time>2020-09-23T12:13:57Z</time>
      </trkpt>
      <trkpt lat="46.52592" lon="5.6645">
        <ele>486.5</ele>
        <time>2020-09-23T12:14:02Z</time>
      </trkpt>
      <trkpt lat="46.52595" lon="5.66444">
        <ele>484.5</ele>
        <time>2020-09-23T12:14:08Z</time>
      </trkpt>
      <trkpt lat="46.52596" lon="5.66436">
        <ele>482.3</ele>
        <time>2020-09-23T12:14:14Z</time>
      </trkpt>
      <trkpt lat="46.52596" lon="5.66428">
        <ele>480.6</ele>
        <time>2020-09-23T12:14:19Z</time>
      </trkpt>
      <trkpt lat="46.52596" lon="5.66421">
        <ele>479.6</ele>
        <time>2020-09-23T12:14:24Z</time>
      </trkpt>
      <trkpt lat="46.52595" lon="5.66415">
        <ele>478.4</ele>
        <time>2020-09-23T12:14:29Z</time>
      </trkpt>
      <trkpt lat="46.52592" lon="5.66409">
        <ele>477.5</ele>
        <time>2020-09-23T12:14:34Z</time>
      </trkpt>
      <trkpt lat="46.52589" lon="5.66404">
        <ele>477.3</ele>
        <time>2020-09-23T12:14:43Z</time>
      </trkpt>
      <trkpt lat="46.52588" lon="5.66397">
        <ele>478.2</ele>
        <time>2020-09-23T12:14:50Z</time>
      </trkpt>
      <trkpt lat="46.52584" lon="5.66397">
        <ele>478.6</ele>
        <time>2020-09-23T12:14:56Z</time>
      </trkpt>
      <trkpt lat="46.5258" lon="5.664">
        <ele>478.8</ele>
        <time>2020-09-23T12:15:01Z</time>
      </trkpt>
      <trkpt lat="46.52574" lon="5.66401">
        <ele>479</ele>
        <time>2020-09-23T12:15:08Z</time>
      </trkpt>
      <trkpt lat="46.5257" lon="5.66398">
        <ele>479</ele>
        <time>2020-09-23T12:15:12Z</time>
      </trkpt>
      <trkpt lat="46.52566" lon="5.66394">
        <ele>479.1</ele>
        <time>2020-09-23T12:15:15Z</time>
      </trkpt>
      <trkpt lat="46.52561" lon="5.66393">
        <ele>478.6</ele>
        <time>2020-09-23T12:15:19Z</time>
      </trkpt>
      <trkpt lat="46.52556" lon="5.66394">
        <ele>478.2</ele>
        <time>2020-09-23T12:15:24Z</time>
      </trkpt>
      <trkpt lat="46.52552" lon="5.66394">
        <ele>478.1</ele>
        <time>2020-09-23T12:15:28Z</time>
      </trkpt>
      <trkpt lat="46.52547" lon="5.66394">
        <ele>477.9</ele>
        <time>2020-09-23T12:15:32Z</time>
      </trkpt>
      <trkpt lat="46.52543" lon="5.66394">
        <ele>477.6</ele>
        <time>2020-09-23T12:15:36Z</time>
      </trkpt>
      <trkpt lat="46.52538" lon="5.66395">
        <ele>477.3</ele>
        <time>2020-09-23T12:15:41Z</time>
      </trkpt>
      <trkpt lat="46.52532" lon="5.66396">
        <ele>477.3</ele>
        <time>2020-09-23T12:15:46Z</time>
      </trkpt>
      <trkpt lat="46.52528" lon="5.66394">
        <ele>477.2</ele>
        <time>2020-09-23T12:15:51Z</time>
      </trkpt>
      <trkpt lat="46.52523" lon="5.66394">
        <ele>477.1</ele>
        <time>2020-09-23T12:15:55Z</time>
      </trkpt>
      <trkpt lat="46.52518" lon="5.66394">
        <ele>476.9</ele>
        <time>2020-09-23T12:16:00Z</time>
      </trkpt>
      <trkpt lat="46.52513" lon="5.66393">
        <ele>476.3</ele>
        <time>2020-09-23T12:16:05Z</time>
      </trkpt>
      <trkpt lat="46.52508" lon="5.66393">
        <ele>475.7</ele>
        <time>2020-09-23T12:16:09Z</time>
      </trkpt>
      <trkpt lat="46.52504" lon="5.66391">
        <ele>475.1</ele>
        <time>2020-09-23T12:16:13Z</time>
      </trkpt>
      <trkpt lat="46.52499" lon="5.66391">
        <ele>475</ele>
        <time>2020-09-23T12:16:17Z</time>
      </trkpt>
      <trkpt lat="46.52494" lon="5.6639">
        <ele>475.1</ele>
        <time>2020-09-23T12:16:21Z</time>
      </trkpt>
      <trkpt lat="46.52489" lon="5.66389">
        <ele>475.3</ele>
        <time>2020-09-23T12:16:24Z</time>
      </trkpt>
      <trkpt lat="46.52484" lon="5.66391">
        <ele>475.5</ele>
        <time>2020-09-23T12:16:30Z</time>
      </trkpt>
      <trkpt lat="46.52479" lon="5.66391">
        <ele>475.2</ele>
        <time>2020-09-23T12:16:38Z</time>
      </trkpt>
      <trkpt lat="46.52474" lon="5.66388">
        <ele>475.4</ele>
        <time>2020-09-23T12:16:44Z</time>
      </trkpt>
      <trkpt lat="46.52469" lon="5.66387">
        <ele>475.1</ele>
        <time>2020-09-23T12:16:48Z</time>
      </trkpt>
      <trkpt lat="46.52464" lon="5.66386">
        <ele>474.6</ele>
        <time>2020-09-23T12:16:53Z</time>
      </trkpt>
      <trkpt lat="46.52459" lon="5.66386">
        <ele>474.2</ele>
        <time>2020-09-23T12:16:57Z</time>
      </trkpt>
      <trkpt lat="46.52454" lon="5.66386">
        <ele>473.6</ele>
        <time>2020-09-23T12:17:01Z</time>
      </trkpt>
      <trkpt lat="46.52449" lon="5.66386">
        <ele>472.9</ele>
        <time>2020-09-23T12:17:07Z</time>
      </trkpt>
      <trkpt lat="46.52444" lon="5.66384">
        <ele>472.5</ele>
        <time>2020-09-23T12:17:13Z</time>
      </trkpt>
      <trkpt lat="46.52439" lon="5.66384">
        <ele>472.6</ele>
        <time>2020-09-23T12:17:17Z</time>
      </trkpt>
      <trkpt lat="46.52435" lon="5.66383">
        <ele>472.5</ele>
        <time>2020-09-23T12:17:21Z</time>
      </trkpt>
      <trkpt lat="46.5243" lon="5.66382">
        <ele>472.5</ele>
        <time>2020-09-23T12:17:25Z</time>
      </trkpt>
      <trkpt lat="46.52425" lon="5.66382">
        <ele>472.3</ele>
        <time>2020-09-23T12:17:30Z</time>
      </trkpt>
      <trkpt lat="46.5242" lon="5.66381">
        <ele>472.1</ele>
        <time>2020-09-23T12:17:35Z</time>
      </trkpt>
      <trkpt lat="46.52415" lon="5.66381">
        <ele>472.2</ele>
        <time>2020-09-23T12:17:39Z</time>
      </trkpt>
      <trkpt lat="46.5241" lon="5.66379">
        <ele>471.7</ele>
        <time>2020-09-23T12:17:44Z</time>
      </trkpt>
      <trkpt lat="46.52405" lon="5.66376">
        <ele>471.2</ele>
        <time>2020-09-23T12:17:49Z</time>
      </trkpt>
      <trkpt lat="46.524" lon="5.66378">
        <ele>470.2</ele>
        <time>2020-09-23T12:17:54Z</time>
      </trkpt>
      <trkpt lat="46.52396" lon="5.66379">
        <ele>468.8</ele>
        <time>2020-09-23T12:17:59Z</time>
      </trkpt>
      <trkpt lat="46.5239" lon="5.66379">
        <ele>467.3</ele>
        <time>2020-09-23T12:18:04Z</time>
      </trkpt>
      <trkpt lat="46.52385" lon="5.66381">
        <ele>465.8</ele>
        <time>2020-09-23T12:18:09Z</time>
      </trkpt>
      <trkpt lat="46.5238" lon="5.66384">
        <ele>464.2</ele>
        <time>2020-09-23T12:18:14Z</time>
      </trkpt>
      <trkpt lat="46.52376" lon="5.66389">
        <ele>461.9</ele>
        <time>2020-09-23T12:18:19Z</time>
      </trkpt>
      <trkpt lat="46.52373" lon="5.66394">
        <ele>459.4</ele>
        <time>2020-09-23T12:18:24Z</time>
      </trkpt>
      <trkpt lat="46.5237" lon="5.664">
        <ele>457.4</ele>
        <time>2020-09-23T12:18:29Z</time>
      </trkpt>
      <trkpt lat="46.52366" lon="5.66405">
        <ele>456.4</ele>
        <time>2020-09-23T12:18:33Z</time>
      </trkpt>
      <trkpt lat="46.52362" lon="5.66411">
        <ele>455.3</ele>
        <time>2020-09-23T12:18:38Z</time>
      </trkpt>
      <trkpt lat="46.52359" lon="5.66416">
        <ele>454.4</ele>
        <time>2020-09-23T12:18:43Z</time>
      </trkpt>
      <trkpt lat="46.52355" lon="5.6642">
        <ele>453.7</ele>
        <time>2020-09-23T12:18:48Z</time>
      </trkpt>
      <trkpt lat="46.5235" lon="5.66424">
        <ele>452.9</ele>
        <time>2020-09-23T12:18:53Z</time>
      </trkpt>
      <trkpt lat="46.52347" lon="5.66428">
        <ele>452.5</ele>
        <time>2020-09-23T12:18:58Z</time>
      </trkpt>
      <trkpt lat="46.52344" lon="5.66434">
        <ele>452</ele>
        <time>2020-09-23T12:19:03Z</time>
      </trkpt>
      <trkpt lat="46.52341" lon="5.66439">
        <ele>451.7</ele>
        <time>2020-09-23T12:19:09Z</time>
      </trkpt>
      <trkpt lat="46.52336" lon="5.66443">
        <ele>451.8</ele>
        <time>2020-09-23T12:19:15Z</time>
      </trkpt>
      <trkpt lat="46.52331" lon="5.66444">
        <ele>451.3</ele>
        <time>2020-09-23T12:19:19Z</time>
      </trkpt>
      <trkpt lat="46.52327" lon="5.66448">
        <ele>450.7</ele>
        <time>2020-09-23T12:19:23Z</time>
      </trkpt>
      <trkpt lat="46.52323" lon="5.66453">
        <ele>449.9</ele>
        <time>2020-09-23T12:19:27Z</time>
      </trkpt>
      <trkpt lat="46.5232" lon="5.66457">
        <ele>449.3</ele>
        <time>2020-09-23T12:19:31Z</time>
      </trkpt>
      <trkpt lat="46.52317" lon="5.66463">
        <ele>448.6</ele>
        <time>2020-09-23T12:19:36Z</time>
      </trkpt>
      <trkpt lat="46.52314" lon="5.66468">
        <ele>448.2</ele>
        <time>2020-09-23T12:19:41Z</time>
      </trkpt>
      <trkpt lat="46.52309" lon="5.66472">
        <ele>447.4</ele>
        <time>2020-09-23T12:19:46Z</time>
      </trkpt>
      <trkpt lat="46.52304" lon="5.66476">
        <ele>446.3</ele>
        <time>2020-09-23T12:19:51Z</time>
      </trkpt>
      <trkpt lat="46.52301" lon="5.66481">
        <ele>445.5</ele>
        <time>2020-09-23T12:19:56Z</time>
      </trkpt>
      <trkpt lat="46.52297" lon="5.66486">
        <ele>444.7</ele>
        <time>2020-09-23T12:20:01Z</time>
      </trkpt>
      <trkpt lat="46.52293" lon="5.66489">
        <ele>444.1</ele>
        <time>2020-09-23T12:20:05Z</time>
      </trkpt>
      <trkpt lat="46.52289" lon="5.66493">
        <ele>443.4</ele>
        <time>2020-09-23T12:20:10Z</time>
      </trkpt>
      <trkpt lat="46.52284" lon="5.66497">
        <ele>442.9</ele>
        <time>2020-09-23T12:20:15Z</time>
      </trkpt>
      <trkpt lat="46.5228" lon="5.665">
        <ele>442.4</ele>
        <time>2020-09-23T12:20:19Z</time>
      </trkpt>
      <trkpt lat="46.52275" lon="5.66503">
        <ele>442.4</ele>
        <time>2020-09-23T12:20:24Z</time>
      </trkpt>
      <trkpt lat="46.52271" lon="5.66506">
        <ele>442.8</ele>
        <time>2020-09-23T12:20:29Z</time>
      </trkpt>
      <trkpt lat="46.52265" lon="5.66505">
        <ele>443.3</ele>
        <time>2020-09-23T12:20:34Z</time>
      </trkpt>
      <trkpt lat="46.5226" lon="5.66504">
        <ele>443.8</ele>
        <time>2020-09-23T12:20:39Z</time>
      </trkpt>
      <trkpt lat="46.52256" lon="5.66499">
        <ele>443.4</ele>
        <time>2020-09-23T12:20:46Z</time>
      </trkpt>
      <trkpt lat="46.52252" lon="5.66494">
        <ele>442.7</ele>
        <time>2020-09-23T12:20:51Z</time>
      </trkpt>
      <trkpt lat="46.52249" lon="5.66489">
        <ele>441.9</ele>
        <time>2020-09-23T12:20:56Z</time>
      </trkpt>
      <trkpt lat="46.52244" lon="5.66486">
        <ele>441.3</ele>
        <time>2020-09-23T12:21:00Z</time>
      </trkpt>
      <trkpt lat="46.52239" lon="5.66484">
        <ele>440.8</ele>
        <time>2020-09-23T12:21:04Z</time>
      </trkpt>
      <trkpt lat="46.52235" lon="5.66483">
        <ele>440.3</ele>
        <time>2020-09-23T12:21:08Z</time>
      </trkpt>
      <trkpt lat="46.5223" lon="5.66483">
        <ele>440</ele>
        <time>2020-09-23T12:21:12Z</time>
      </trkpt>
      <trkpt lat="46.52226" lon="5.66482">
        <ele>439.8</ele>
        <time>2020-09-23T12:21:16Z</time>
      </trkpt>
      <trkpt lat="46.5222" lon="5.66481">
        <ele>439.4</ele>
        <time>2020-09-23T12:21:21Z</time>
      </trkpt>
      <trkpt lat="46.52216" lon="5.6648">
        <ele>439.2</ele>
        <time>2020-09-23T12:21:25Z</time>
      </trkpt>
      <trkpt lat="46.5221" lon="5.66478">
        <ele>438.8</ele>
        <time>2020-09-23T12:21:30Z</time>
      </trkpt>
      <trkpt lat="46.52205" lon="5.66479">
        <ele>438.9</ele>
        <time>2020-09-23T12:21:33Z</time>
      </trkpt>
      <trkpt lat="46.522" lon="5.66478">
        <ele>439.1</ele>
        <time>2020-09-23T12:21:37Z</time>
      </trkpt>
      <trkpt lat="46.52195" lon="5.66476">
        <ele>438.5</ele>
        <time>2020-09-23T12:21:42Z</time>
      </trkpt>
      <trkpt lat="46.52191" lon="5.66474">
        <ele>437.8</ele>
        <time>2020-09-23T12:21:46Z</time>
      </trkpt>
      <trkpt lat="46.52186" lon="5.66473">
        <ele>437.2</ele>
        <time>2020-09-23T12:21:50Z</time>
      </trkpt>
      <trkpt lat="46.52181" lon="5.66474">
        <ele>436.9</ele>
        <time>2020-09-23T12:21:54Z</time>
      </trkpt>
      <trkpt lat="46.52177" lon="5.66475">
        <ele>437</ele>
        <time>2020-09-23T12:21:58Z</time>
      </trkpt>
      <trkpt lat="46.52172" lon="5.66476">
        <ele>437.1</ele>
        <time>2020-09-23T12:22:02Z</time>
      </trkpt>
      <trkpt lat="46.52167" lon="5.66476">
        <ele>437.3</ele>
        <time>2020-09-23T12:22:06Z</time>
      </trkpt>
      <trkpt lat="46.52162" lon="5.66476">
        <ele>437.6</ele>
        <time>2020-09-23T12:22:10Z</time>
      </trkpt>
      <trkpt lat="46.52157" lon="5.66476">
        <ele>438.1</ele>
        <time>2020-09-23T12:22:15Z</time>
      </trkpt>
      <trkpt lat="46.52152" lon="5.66477">
        <ele>438.8</ele>
        <time>2020-09-23T12:22:20Z</time>
      </trkpt>
      <trkpt lat="46.52147" lon="5.66479">
        <ele>439.7</ele>
        <time>2020-09-23T12:22:25Z</time>
      </trkpt>
      <trkpt lat="46.52142" lon="5.6648">
        <ele>440.7</ele>
        <time>2020-09-23T12:22:30Z</time>
      </trkpt>
      <trkpt lat="46.52137" lon="5.66482">
        <ele>440.9</ele>
        <time>2020-09-23T12:22:35Z</time>
      </trkpt>
      <trkpt lat="46.52131" lon="5.66481">
        <ele>440.6</ele>
        <time>2020-09-23T12:22:40Z</time>
      </trkpt>
      <trkpt lat="46.52126" lon="5.6648">
        <ele>439.8</ele>
        <time>2020-09-23T12:22:45Z</time>
      </trkpt>
      <trkpt lat="46.52122" lon="5.66482">
        <ele>439.9</ele>
        <time>2020-09-23T12:22:50Z</time>
      </trkpt>
      <trkpt lat="46.52117" lon="5.66482">
        <ele>441.7</ele>
        <time>2020-09-23T12:22:57Z</time>
      </trkpt>
      <trkpt lat="46.52112" lon="5.66483">
        <ele>442.9</ele>
        <time>2020-09-23T12:23:01Z</time>
      </trkpt>
      <trkpt lat="46.52107" lon="5.66483">
        <ele>443.9</ele>
        <time>2020-09-23T12:23:05Z</time>
      </trkpt>
      <trkpt lat="46.52102" lon="5.66483">
        <ele>444.8</ele>
        <time>2020-09-23T12:23:09Z</time>
      </trkpt>
      <trkpt lat="46.52098" lon="5.6648">
        <ele>444.7</ele>
        <time>2020-09-23T12:23:14Z</time>
      </trkpt>
      <trkpt lat="46.52093" lon="5.66476">
        <ele>443.4</ele>
        <time>2020-09-23T12:23:19Z</time>
      </trkpt>
      <trkpt lat="46.52088" lon="5.66475">
        <ele>442</ele>
        <time>2020-09-23T12:23:24Z</time>
      </trkpt>
      <trkpt lat="46.52084" lon="5.66475">
        <ele>441.3</ele>
        <time>2020-09-23T12:23:28Z</time>
      </trkpt>
      <trkpt lat="46.52078" lon="5.66474">
        <ele>440.9</ele>
        <time>2020-09-23T12:23:32Z</time>
      </trkpt>
      <trkpt lat="46.52074" lon="5.66472">
        <ele>441</ele>
        <time>2020-09-23T12:23:36Z</time>
      </trkpt>
      <trkpt lat="46.52069" lon="5.66468">
        <ele>441.5</ele>
        <time>2020-09-23T12:23:41Z</time>
      </trkpt>
      <trkpt lat="46.52065" lon="5.66465">
        <ele>442</ele>
        <time>2020-09-23T12:23:46Z</time>
      </trkpt>
      <trkpt lat="46.52061" lon="5.66462">
        <ele>442.5</ele>
        <time>2020-09-23T12:23:51Z</time>
      </trkpt>
      <trkpt lat="46.52056" lon="5.6646">
        <ele>442.9</ele>
        <time>2020-09-23T12:23:56Z</time>
      </trkpt>
      <trkpt lat="46.5205" lon="5.66459">
        <ele>443.2</ele>
        <time>2020-09-23T12:24:01Z</time>
      </trkpt>
      <trkpt lat="46.52045" lon="5.66457">
        <ele>443.6</ele>
        <time>2020-09-23T12:24:06Z</time>
      </trkpt>
      <trkpt lat="46.5204" lon="5.66454">
        <ele>444</ele>
        <time>2020-09-23T12:24:10Z</time>
      </trkpt>
      <trkpt lat="46.52036" lon="5.66451">
        <ele>444.5</ele>
        <time>2020-09-23T12:24:15Z</time>
      </trkpt>
      <trkpt lat="46.52031" lon="5.66448">
        <ele>445.3</ele>
        <time>2020-09-23T12:24:20Z</time>
      </trkpt>
      <trkpt lat="46.52027" lon="5.66445">
        <ele>446.2</ele>
        <time>2020-09-23T12:24:25Z</time>
      </trkpt>
      <trkpt lat="46.52023" lon="5.66441">
        <ele>447.1</ele>
        <time>2020-09-23T12:24:30Z</time>
      </trkpt>
      <trkpt lat="46.52018" lon="5.66439">
        <ele>447.7</ele>
        <time>2020-09-23T12:24:34Z</time>
      </trkpt>
      <trkpt lat="46.52014" lon="5.66437">
        <ele>448.1</ele>
        <time>2020-09-23T12:24:38Z</time>
      </trkpt>
      <trkpt lat="46.52009" lon="5.66435">
        <ele>448.5</ele>
        <time>2020-09-23T12:24:42Z</time>
      </trkpt>
      <trkpt lat="46.52005" lon="5.66432">
        <ele>448.8</ele>
        <time>2020-09-23T12:24:46Z</time>
      </trkpt>
      <trkpt lat="46.52" lon="5.66431">
        <ele>449.8</ele>
        <time>2020-09-23T12:24:52Z</time>
      </trkpt>
      <trkpt lat="46.51995" lon="5.66431">
        <ele>451</ele>
        <time>2020-09-23T12:24:58Z</time>
      </trkpt>
      <trkpt lat="46.51989" lon="5.66431">
        <ele>451.6</ele>
        <time>2020-09-23T12:25:03Z</time>
      </trkpt>
      <trkpt lat="46.51985" lon="5.66431">
        <ele>451.9</ele>
        <time>2020-09-23T12:25:07Z</time>
      </trkpt>
      <trkpt lat="46.5198" lon="5.66431">
        <ele>451.9</ele>
        <time>2020-09-23T12:25:11Z</time>
      </trkpt>
      <trkpt lat="46.51975" lon="5.66431">
        <ele>451.9</ele>
        <time>2020-09-23T12:25:16Z</time>
      </trkpt>
      <trkpt lat="46.51969" lon="5.66431">
        <ele>452</ele>
        <time>2020-09-23T12:25:21Z</time>
      </trkpt>
      <trkpt lat="46.51964" lon="5.6643">
        <ele>452</ele>
        <time>2020-09-23T12:25:26Z</time>
      </trkpt>
      <trkpt lat="46.51959" lon="5.6643">
        <ele>452.3</ele>
        <time>2020-09-23T12:25:31Z</time>
      </trkpt>
      <trkpt lat="46.51954" lon="5.6643">
        <ele>452.8</ele>
        <time>2020-09-23T12:25:36Z</time>
      </trkpt>
      <trkpt lat="46.51949" lon="5.66429">
        <ele>453</ele>
        <time>2020-09-23T12:25:41Z</time>
      </trkpt>
      <trkpt lat="46.51944" lon="5.66428">
        <ele>453.3</ele>
        <time>2020-09-23T12:25:47Z</time>
      </trkpt>
      <trkpt lat="46.5194" lon="5.66426">
        <ele>453.2</ele>
        <time>2020-09-23T12:25:52Z</time>
      </trkpt>
      <trkpt lat="46.51934" lon="5.66425">
        <ele>453.3</ele>
        <time>2020-09-23T12:25:58Z</time>
      </trkpt>
      <trkpt lat="46.5193" lon="5.66422">
        <ele>453.4</ele>
        <time>2020-09-23T12:26:03Z</time>
      </trkpt>
      <trkpt lat="46.51925" lon="5.66421">
        <ele>453.9</ele>
        <time>2020-09-23T12:26:08Z</time>
      </trkpt>
      <trkpt lat="46.51921" lon="5.66418">
        <ele>455.2</ele>
        <time>2020-09-23T12:26:14Z</time>
      </trkpt>
      <trkpt lat="46.51916" lon="5.66415">
        <ele>456.5</ele>
        <time>2020-09-23T12:26:20Z</time>
      </trkpt>
      <trkpt lat="46.51912" lon="5.66411">
        <ele>457.4</ele>
        <time>2020-09-23T12:26:25Z</time>
      </trkpt>
      <trkpt lat="46.51908" lon="5.66406">
        <ele>458.2</ele>
        <time>2020-09-23T12:26:30Z</time>
      </trkpt>
      <trkpt lat="46.51904" lon="5.66401">
        <ele>458.7</ele>
        <time>2020-09-23T12:26:35Z</time>
      </trkpt>
      <trkpt lat="46.519" lon="5.66398">
        <ele>459</ele>
        <time>2020-09-23T12:26:40Z</time>
      </trkpt>
      <trkpt lat="46.51895" lon="5.66397">
        <ele>459.7</ele>
        <time>2020-09-23T12:26:45Z</time>
      </trkpt>
      <trkpt lat="46.5189" lon="5.66396">
        <ele>460.7</ele>
        <time>2020-09-23T12:26:50Z</time>
      </trkpt>
      <trkpt lat="46.51885" lon="5.66397">
        <ele>461.5</ele>
        <time>2020-09-23T12:26:55Z</time>
      </trkpt>
      <trkpt lat="46.5188" lon="5.66397">
        <ele>462.1</ele>
        <time>2020-09-23T12:27:00Z</time>
      </trkpt>
      <trkpt lat="46.51875" lon="5.66397">
        <ele>462.6</ele>
        <time>2020-09-23T12:27:05Z</time>
      </trkpt>
      <trkpt lat="46.5187" lon="5.66399">
        <ele>462.7</ele>
        <time>2020-09-23T12:27:10Z</time>
      </trkpt>
      <trkpt lat="46.51866" lon="5.664">
        <ele>462.9</ele>
        <time>2020-09-23T12:27:28Z</time>
      </trkpt>
      <trkpt lat="46.51861" lon="5.664">
        <ele>463</ele>
        <time>2020-09-23T12:27:33Z</time>
      </trkpt>
      <trkpt lat="46.51856" lon="5.66402">
        <ele>463.2</ele>
        <time>2020-09-23T12:27:37Z</time>
      </trkpt>
      <trkpt lat="46.51851" lon="5.66404">
        <ele>463.8</ele>
        <time>2020-09-23T12:27:42Z</time>
      </trkpt>
      <trkpt lat="46.51846" lon="5.66406">
        <ele>464.8</ele>
        <time>2020-09-23T12:27:48Z</time>
      </trkpt>
      <trkpt lat="46.51843" lon="5.6641">
        <ele>465.5</ele>
        <time>2020-09-23T12:27:54Z</time>
      </trkpt>
      <trkpt lat="46.51837" lon="5.66409">
        <ele>465.9</ele>
        <time>2020-09-23T12:28:00Z</time>
      </trkpt>
      <trkpt lat="46.51832" lon="5.66408">
        <ele>466.4</ele>
        <time>2020-09-23T12:28:06Z</time>
      </trkpt>
      <trkpt lat="46.51827" lon="5.66408">
        <ele>467.1</ele>
        <time>2020-09-23T12:28:13Z</time>
      </trkpt>
      <trkpt lat="46.51822" lon="5.66407">
        <ele>467.6</ele>
        <time>2020-09-23T12:28:19Z</time>
      </trkpt>
      <trkpt lat="46.51817" lon="5.66406">
        <ele>467.8</ele>
        <time>2020-09-23T12:28:24Z</time>
      </trkpt>
      <trkpt lat="46.51811" lon="5.66406">
        <ele>467.9</ele>
        <time>2020-09-23T12:28:28Z</time>
      </trkpt>
      <trkpt lat="46.51806" lon="5.66407">
        <ele>467.9</ele>
        <time>2020-09-23T12:28:33Z</time>
      </trkpt>
      <trkpt lat="46.51802" lon="5.66409">
        <ele>468.2</ele>
        <time>2020-09-23T12:28:38Z</time>
      </trkpt>
      <trkpt lat="46.51797" lon="5.66412">
        <ele>468.4</ele>
        <time>2020-09-23T12:28:43Z</time>
      </trkpt>
      <trkpt lat="46.51793" lon="5.66414">
        <ele>468.5</ele>
        <time>2020-09-23T12:28:49Z</time>
      </trkpt>
      <trkpt lat="46.51788" lon="5.66416">
        <ele>468.7</ele>
        <time>2020-09-23T12:28:54Z</time>
      </trkpt>
      <trkpt lat="46.51782" lon="5.66417">
        <ele>469</ele>
        <time>2020-09-23T12:29:00Z</time>
      </trkpt>
      <trkpt lat="46.51777" lon="5.66417">
        <ele>469.1</ele>
        <time>2020-09-23T12:29:05Z</time>
      </trkpt>
      <trkpt lat="46.51772" lon="5.66417">
        <ele>469.1</ele>
        <time>2020-09-23T12:29:10Z</time>
      </trkpt>
      <trkpt lat="46.51767" lon="5.66416">
        <ele>469.3</ele>
        <time>2020-09-23T12:29:15Z</time>
      </trkpt>
      <trkpt lat="46.51761" lon="5.66416">
        <ele>469.7</ele>
        <time>2020-09-23T12:29:20Z</time>
      </trkpt>
      <trkpt lat="46.51756" lon="5.66413">
        <ele>470.3</ele>
        <time>2020-09-23T12:29:26Z</time>
      </trkpt>
      <trkpt lat="46.51751" lon="5.66409">
        <ele>470.3</ele>
        <time>2020-09-23T12:29:31Z</time>
      </trkpt>
      <trkpt lat="46.51747" lon="5.66411">
        <ele>469.2</ele>
        <time>2020-09-23T12:29:38Z</time>
      </trkpt>
      <trkpt lat="46.51742" lon="5.6641">
        <ele>468.6</ele>
        <time>2020-09-23T12:29:43Z</time>
      </trkpt>
      <trkpt lat="46.51737" lon="5.66411">
        <ele>468.6</ele>
        <time>2020-09-23T12:29:49Z</time>
      </trkpt>
      <trkpt lat="46.51732" lon="5.6641">
        <ele>469</ele>
        <time>2020-09-23T12:29:54Z</time>
      </trkpt>
      <trkpt lat="46.51727" lon="5.66406">
        <ele>469.3</ele>
        <time>2020-09-23T12:29:59Z</time>
      </trkpt>
      <trkpt lat="46.51722" lon="5.66405">
        <ele>469.6</ele>
        <time>2020-09-23T12:30:04Z</time>
      </trkpt>
      <trkpt lat="46.51717" lon="5.66407">
        <ele>470</ele>
        <time>2020-09-23T12:30:08Z</time>
      </trkpt>
      <trkpt lat="46.51713" lon="5.66411">
        <ele>470.4</ele>
        <time>2020-09-23T12:30:12Z</time>
      </trkpt>
      <trkpt lat="46.51708" lon="5.66413">
        <ele>470.6</ele>
        <time>2020-09-23T12:30:16Z</time>
      </trkpt>
      <trkpt lat="46.51703" lon="5.66415">
        <ele>470.8</ele>
        <time>2020-09-23T12:30:21Z</time>
      </trkpt>
      <trkpt lat="46.51698" lon="5.66415">
        <ele>471.3</ele>
        <time>2020-09-23T12:30:26Z</time>
      </trkpt>
      <trkpt lat="46.51692" lon="5.66415">
        <ele>472.1</ele>
        <time>2020-09-23T12:30:31Z</time>
      </trkpt>
      <trkpt lat="46.51687" lon="5.66414">
        <ele>473.2</ele>
        <time>2020-09-23T12:30:36Z</time>
      </trkpt>
      <trkpt lat="46.51682" lon="5.66413">
        <ele>474.7</ele>
        <time>2020-09-23T12:30:42Z</time>
      </trkpt>
      <trkpt lat="46.51677" lon="5.66414">
        <ele>475.9</ele>
        <time>2020-09-23T12:30:47Z</time>
      </trkpt>
      <trkpt lat="46.51673" lon="5.66415">
        <ele>476.7</ele>
        <time>2020-09-23T12:30:53Z</time>
      </trkpt>
      <trkpt lat="46.51668" lon="5.66416">
        <ele>476.7</ele>
        <time>2020-09-23T12:30:58Z</time>
      </trkpt>
      <trkpt lat="46.51663" lon="5.66417">
        <ele>476.6</ele>
        <time>2020-09-23T12:31:03Z</time>
      </trkpt>
      <trkpt lat="46.51658" lon="5.6642">
        <ele>476.3</ele>
        <time>2020-09-23T12:31:08Z</time>
      </trkpt>
      <trkpt lat="46.51653" lon="5.66422">
        <ele>476.1</ele>
        <time>2020-09-23T12:31:13Z</time>
      </trkpt>
      <trkpt lat="46.51648" lon="5.66425">
        <ele>476.1</ele>
        <time>2020-09-23T12:31:18Z</time>
      </trkpt>
      <trkpt lat="46.51643" lon="5.66428">
        <ele>476.6</ele>
        <time>2020-09-23T12:31:23Z</time>
      </trkpt>
      <trkpt lat="46.51639" lon="5.6643">
        <ele>477.1</ele>
        <time>2020-09-23T12:31:27Z</time>
      </trkpt>
      <trkpt lat="46.51634" lon="5.66429">
        <ele>477.6</ele>
        <time>2020-09-23T12:31:32Z</time>
      </trkpt>
      <trkpt lat="46.51629" lon="5.66428">
        <ele>478</ele>
        <time>2020-09-23T12:31:37Z</time>
      </trkpt>
      <trkpt lat="46.51624" lon="5.66428">
        <ele>478.6</ele>
        <time>2020-09-23T12:31:42Z</time>
      </trkpt>
      <trkpt lat="46.51619" lon="5.66427">
        <ele>478.9</ele>
        <time>2020-09-23T12:31:47Z</time>
      </trkpt>
      <trkpt lat="46.51614" lon="5.66426">
        <ele>479.2</ele>
        <time>2020-09-23T12:31:53Z</time>
      </trkpt>
      <trkpt lat="46.51609" lon="5.66425">
        <ele>478.9</ele>
        <time>2020-09-23T12:31:58Z</time>
      </trkpt>
      <trkpt lat="46.51604" lon="5.66423">
        <ele>477.8</ele>
        <time>2020-09-23T12:32:04Z</time>
      </trkpt>
      <trkpt lat="46.51599" lon="5.6642">
        <ele>478</ele>
        <time>2020-09-23T12:32:09Z</time>
      </trkpt>
      <trkpt lat="46.51594" lon="5.66418">
        <ele>479.6</ele>
        <time>2020-09-23T12:32:14Z</time>
      </trkpt>
      <trkpt lat="46.5159" lon="5.66416">
        <ele>481.5</ele>
        <time>2020-09-23T12:32:19Z</time>
      </trkpt>
      <trkpt lat="46.51585" lon="5.66414">
        <ele>483</ele>
        <time>2020-09-23T12:32:24Z</time>
      </trkpt>
      <trkpt lat="46.5158" lon="5.66412">
        <ele>484.3</ele>
        <time>2020-09-23T12:32:29Z</time>
      </trkpt>
      <trkpt lat="46.51576" lon="5.66412">
        <ele>485.4</ele>
        <time>2020-09-23T12:32:36Z</time>
      </trkpt>
      <trkpt lat="46.51571" lon="5.66409">
        <ele>485.5</ele>
        <time>2020-09-23T12:32:43Z</time>
      </trkpt>
      <trkpt lat="46.51567" lon="5.66406">
        <ele>485.1</ele>
        <time>2020-09-23T12:32:49Z</time>
      </trkpt>
      <trkpt lat="46.51562" lon="5.66405">
        <ele>484.9</ele>
        <time>2020-09-23T12:32:55Z</time>
      </trkpt>
      <trkpt lat="46.51557" lon="5.66405">
        <ele>485.1</ele>
        <time>2020-09-23T12:33:00Z</time>
      </trkpt>
      <trkpt lat="46.51553" lon="5.664">
        <ele>485.1</ele>
        <time>2020-09-23T12:33:06Z</time>
      </trkpt>
      <trkpt lat="46.51549" lon="5.66397">
        <ele>485.1</ele>
        <time>2020-09-23T12:33:12Z</time>
      </trkpt>
      <trkpt lat="46.51545" lon="5.66393">
        <ele>484.7</ele>
        <time>2020-09-23T12:33:18Z</time>
      </trkpt>
      <trkpt lat="46.51541" lon="5.6639">
        <ele>484.3</ele>
        <time>2020-09-23T12:33:22Z</time>
      </trkpt>
      <trkpt lat="46.51536" lon="5.66386">
        <ele>484.1</ele>
        <time>2020-09-23T12:33:26Z</time>
      </trkpt>
      <trkpt lat="46.51531" lon="5.66384">
        <ele>483.9</ele>
        <time>2020-09-23T12:33:32Z</time>
      </trkpt>
      <trkpt lat="46.51526" lon="5.66382">
        <ele>483.6</ele>
        <time>2020-09-23T12:33:38Z</time>
      </trkpt>
      <trkpt lat="46.51522" lon="5.66379">
        <ele>483.2</ele>
        <time>2020-09-23T12:33:44Z</time>
      </trkpt>
      <trkpt lat="46.51517" lon="5.66376">
        <ele>482.9</ele>
        <time>2020-09-23T12:33:50Z</time>
      </trkpt>
      <trkpt lat="46.51512" lon="5.66374">
        <ele>482.4</ele>
        <time>2020-09-23T12:33:55Z</time>
      </trkpt>
      <trkpt lat="46.51508" lon="5.66372">
        <ele>484.8</ele>
        <time>2020-09-23T12:33:58Z</time>
      </trkpt>
      <trkpt lat="46.51503" lon="5.6637">
        <ele>487.4</ele>
        <time>2020-09-23T12:34:02Z</time>
      </trkpt>
      <trkpt lat="46.51498" lon="5.66371">
        <ele>489.3</ele>
        <time>2020-09-23T12:34:08Z</time>
      </trkpt>
      <trkpt lat="46.51493" lon="5.66373">
        <ele>489.7</ele>
        <time>2020-09-23T12:34:12Z</time>
      </trkpt>
      <trkpt lat="46.51488" lon="5.66373">
        <ele>489.9</ele>
        <time>2020-09-23T12:34:16Z</time>
      </trkpt>
      <trkpt lat="46.51483" lon="5.66374">
        <ele>490.7</ele>
        <time>2020-09-23T12:34:21Z</time>
      </trkpt>
      <trkpt lat="46.51479" lon="5.66376">
        <ele>491</ele>
        <time>2020-09-23T12:34:26Z</time>
      </trkpt>
      <trkpt lat="46.51474" lon="5.66377">
        <ele>490.9</ele>
        <time>2020-09-23T12:34:34Z</time>
      </trkpt>
      <trkpt lat="46.51469" lon="5.66378">
        <ele>489.5</ele>
        <time>2020-09-23T12:34:41Z</time>
      </trkpt>
      <trkpt lat="46.51464" lon="5.66379">
        <ele>488.1</ele>
        <time>2020-09-23T12:34:45Z</time>
      </trkpt>
      <trkpt lat="46.51459" lon="5.6638">
        <ele>486</ele>
        <time>2020-09-23T12:34:50Z</time>
      </trkpt>
      <trkpt lat="46.51454" lon="5.66382">
        <ele>484.9</ele>
        <time>2020-09-23T12:34:54Z</time>
      </trkpt>
      <trkpt lat="46.5145" lon="5.66384">
        <ele>483.8</ele>
        <time>2020-09-23T12:34:59Z</time>
      </trkpt>
      <trkpt lat="46.51445" lon="5.66385">
        <ele>482.7</ele>
        <time>2020-09-23T12:35:04Z</time>
      </trkpt>
      <trkpt lat="46.5144" lon="5.66386">
        <ele>482.1</ele>
        <time>2020-09-23T12:35:09Z</time>
      </trkpt>
      <trkpt lat="46.51435" lon="5.66385">
        <ele>481.6</ele>
        <time>2020-09-23T12:35:14Z</time>
      </trkpt>
      <trkpt lat="46.51429" lon="5.66383">
        <ele>481.1</ele>
        <time>2020-09-23T12:35:19Z</time>
      </trkpt>
      <trkpt lat="46.51424" lon="5.66384">
        <ele>481.2</ele>
        <time>2020-09-23T12:35:23Z</time>
      </trkpt>
      <trkpt lat="46.51419" lon="5.66386">
        <ele>481.6</ele>
        <time>2020-09-23T12:35:27Z</time>
      </trkpt>
      <trkpt lat="46.51414" lon="5.66385">
        <ele>482.3</ele>
        <time>2020-09-23T12:35:32Z</time>
      </trkpt>
      <trkpt lat="46.51409" lon="5.66383">
        <ele>482.8</ele>
        <time>2020-09-23T12:35:38Z</time>
      </trkpt>
      <trkpt lat="46.51404" lon="5.66381">
        <ele>483.4</ele>
        <time>2020-09-23T12:35:46Z</time>
      </trkpt>
      <trkpt lat="46.514" lon="5.66378">
        <ele>483.6</ele>
        <time>2020-09-23T12:35:52Z</time>
      </trkpt>
      <trkpt lat="46.51397" lon="5.66372">
        <ele>483.5</ele>
        <time>2020-09-23T12:35:59Z</time>
      </trkpt>
      <trkpt lat="46.51399" lon="5.66367">
        <ele>487.3</ele>
        <time>2020-09-23T12:36:35Z</time>
      </trkpt>
      <trkpt lat="46.51395" lon="5.66362">
        <ele>487.9</ele>
        <time>2020-09-23T12:36:47Z</time>
      </trkpt>
      <trkpt lat="46.51392" lon="5.66356">
        <ele>486.5</ele>
        <time>2020-09-23T12:36:57Z</time>
      </trkpt>
      <trkpt lat="46.5139" lon="5.66349">
        <ele>486</ele>
        <time>2020-09-23T12:37:00Z</time>
      </trkpt>
      <trkpt lat="46.51389" lon="5.66341">
        <ele>484.4</ele>
        <time>2020-09-23T12:37:04Z</time>
      </trkpt>
      <trkpt lat="46.51387" lon="5.66335">
        <ele>482.7</ele>
        <time>2020-09-23T12:37:08Z</time>
      </trkpt>
      <trkpt lat="46.51385" lon="5.66328">
        <ele>482.9</ele>
        <time>2020-09-23T12:37:13Z</time>
      </trkpt>
      <trkpt lat="46.51383" lon="5.66321">
        <ele>482.5</ele>
        <time>2020-09-23T12:37:20Z</time>
      </trkpt>
      <trkpt lat="46.51379" lon="5.66316">
        <ele>482.2</ele>
        <time>2020-09-23T12:37:25Z</time>
      </trkpt>
      <trkpt lat="46.51374" lon="5.66314">
        <ele>481.8</ele>
        <time>2020-09-23T12:37:31Z</time>
      </trkpt>
      <trkpt lat="46.51369" lon="5.66313">
        <ele>481.1</ele>
        <time>2020-09-23T12:37:38Z</time>
      </trkpt>
      <trkpt lat="46.51364" lon="5.66313">
        <ele>480.6</ele>
        <time>2020-09-23T12:37:43Z</time>
      </trkpt>
      <trkpt lat="46.51359" lon="5.6631">
        <ele>480.1</ele>
        <time>2020-09-23T12:37:48Z</time>
      </trkpt>
      <trkpt lat="46.51355" lon="5.66308">
        <ele>479.9</ele>
        <time>2020-09-23T12:37:52Z</time>
      </trkpt>
      <trkpt lat="46.5135" lon="5.66304">
        <ele>479.9</ele>
        <time>2020-09-23T12:37:57Z</time>
      </trkpt>
      <trkpt lat="46.51345" lon="5.66301">
        <ele>480.1</ele>
        <time>2020-09-23T12:38:02Z</time>
      </trkpt>
      <trkpt lat="46.5134" lon="5.66301">
        <ele>480</ele>
        <time>2020-09-23T12:38:07Z</time>
      </trkpt>
      <trkpt lat="46.51335" lon="5.663">
        <ele>479.8</ele>
        <time>2020-09-23T12:38:11Z</time>
      </trkpt>
      <trkpt lat="46.51331" lon="5.66299">
        <ele>479.9</ele>
        <time>2020-09-23T12:38:14Z</time>
      </trkpt>
      <trkpt lat="46.51325" lon="5.66298">
        <ele>479.9</ele>
        <time>2020-09-23T12:38:18Z</time>
      </trkpt>
      <trkpt lat="46.51321" lon="5.66298">
        <ele>480</ele>
        <time>2020-09-23T12:38:23Z</time>
      </trkpt>
      <trkpt lat="46.51316" lon="5.663">
        <ele>480</ele>
        <time>2020-09-23T12:38:31Z</time>
      </trkpt>
      <trkpt lat="46.51311" lon="5.66302">
        <ele>479.9</ele>
        <time>2020-09-23T12:38:44Z</time>
      </trkpt>
      <trkpt lat="46.51308" lon="5.66307">
        <ele>480</ele>
        <time>2020-09-23T12:38:49Z</time>
      </trkpt>
      <trkpt lat="46.51304" lon="5.66311">
        <ele>480.4</ele>
        <time>2020-09-23T12:38:55Z</time>
      </trkpt>
      <trkpt lat="46.51299" lon="5.66313">
        <ele>480.9</ele>
        <time>2020-09-23T12:39:00Z</time>
      </trkpt>
      <trkpt lat="46.51295" lon="5.66318">
        <ele>481.5</ele>
        <time>2020-09-23T12:39:05Z</time>
      </trkpt>
      <trkpt lat="46.51292" lon="5.66323">
        <ele>481.8</ele>
        <time>2020-09-23T12:39:09Z</time>
      </trkpt>
      <trkpt lat="46.51288" lon="5.66326">
        <ele>482</ele>
        <time>2020-09-23T12:39:17Z</time>
      </trkpt>
      <trkpt lat="46.51283" lon="5.66326">
        <ele>482.1</ele>
        <time>2020-09-23T12:39:24Z</time>
      </trkpt>
      <trkpt lat="46.51278" lon="5.66326">
        <ele>482.1</ele>
        <time>2020-09-23T12:39:29Z</time>
      </trkpt>
      <trkpt lat="46.51274" lon="5.66329">
        <ele>483.8</ele>
        <time>2020-09-23T12:39:35Z</time>
      </trkpt>
      <trkpt lat="46.51269" lon="5.66335">
        <ele>485</ele>
        <time>2020-09-23T12:39:42Z</time>
      </trkpt>
      <trkpt lat="46.51265" lon="5.66338">
        <ele>484.7</ele>
        <time>2020-09-23T12:39:47Z</time>
      </trkpt>
      <trkpt lat="46.51261" lon="5.66341">
        <ele>484.9</ele>
        <time>2020-09-23T12:39:53Z</time>
      </trkpt>
      <trkpt lat="46.51256" lon="5.66344">
        <ele>485.4</ele>
        <time>2020-09-23T12:39:58Z</time>
      </trkpt>
      <trkpt lat="46.51251" lon="5.66345">
        <ele>485.7</ele>
        <time>2020-09-23T12:40:01Z</time>
      </trkpt>
      <trkpt lat="46.51244" lon="5.66346">
        <ele>486.3</ele>
        <time>2020-09-23T12:40:04Z</time>
      </trkpt>
      <trkpt lat="46.51239" lon="5.66346">
        <ele>486.9</ele>
        <time>2020-09-23T12:40:07Z</time>
      </trkpt>
      <trkpt lat="46.51235" lon="5.66351">
        <ele>487.9</ele>
        <time>2020-09-23T12:40:12Z</time>
      </trkpt>
      <trkpt lat="46.51231" lon="5.66355">
        <ele>488.8</ele>
        <time>2020-09-23T12:40:18Z</time>
      </trkpt>
      <trkpt lat="46.51228" lon="5.66361">
        <ele>489.9</ele>
        <time>2020-09-23T12:40:24Z</time>
      </trkpt>
      <trkpt lat="46.51225" lon="5.66367">
        <ele>491.3</ele>
        <time>2020-09-23T12:40:30Z</time>
      </trkpt>
      <trkpt lat="46.51223" lon="5.66374">
        <ele>493</ele>
        <time>2020-09-23T12:40:37Z</time>
      </trkpt>
      <trkpt lat="46.51222" lon="5.66381">
        <ele>493.7</ele>
        <time>2020-09-23T12:40:43Z</time>
      </trkpt>
      <trkpt lat="46.5122" lon="5.66387">
        <ele>494.3</ele>
        <time>2020-09-23T12:40:49Z</time>
      </trkpt>
      <trkpt lat="46.51215" lon="5.66389">
        <ele>495</ele>
        <time>2020-09-23T12:40:56Z</time>
      </trkpt>
      <trkpt lat="46.51212" lon="5.66394">
        <ele>498.8</ele>
        <time>2020-09-23T12:41:03Z</time>
      </trkpt>
      <trkpt lat="46.51208" lon="5.66398">
        <ele>502.4</ele>
        <time>2020-09-23T12:41:13Z</time>
      </trkpt>
      <trkpt lat="46.51204" lon="5.66403">
        <ele>504.4</ele>
        <time>2020-09-23T12:41:20Z</time>
      </trkpt>
      <trkpt lat="46.51199" lon="5.66405">
        <ele>506.5</ele>
        <time>2020-09-23T12:41:25Z</time>
      </trkpt>
      <trkpt lat="46.51195" lon="5.66407">
        <ele>508.6</ele>
        <time>2020-09-23T12:41:31Z</time>
      </trkpt>
      <trkpt lat="46.5119" lon="5.66411">
        <ele>510</ele>
        <time>2020-09-23T12:41:36Z</time>
      </trkpt>
      <trkpt lat="46.51186" lon="5.66415">
        <ele>511</ele>
        <time>2020-09-23T12:41:42Z</time>
      </trkpt>
      <trkpt lat="46.51182" lon="5.66418">
        <ele>511.4</ele>
        <time>2020-09-23T12:41:49Z</time>
      </trkpt>
      <trkpt lat="46.51179" lon="5.66423">
        <ele>506.2</ele>
        <time>2020-09-23T12:43:42Z</time>
      </trkpt>
      <trkpt lat="46.51175" lon="5.6642">
        <ele>506.2</ele>
        <time>2020-09-23T12:44:01Z</time>
      </trkpt>
      <trkpt lat="46.51172" lon="5.66415">
        <ele>507.6</ele>
        <time>2020-09-23T12:44:11Z</time>
      </trkpt>
      <trkpt lat="46.51167" lon="5.66418">
        <ele>509.4</ele>
        <time>2020-09-23T12:44:27Z</time>
      </trkpt>
      <trkpt lat="46.51167" lon="5.66424">
        <ele>509.7</ele>
        <time>2020-09-23T12:45:27Z</time>
      </trkpt>
      <trkpt lat="46.51163" lon="5.66428">
        <ele>509.8</ele>
        <time>2020-09-23T12:45:36Z</time>
      </trkpt>
      <trkpt lat="46.51159" lon="5.66432">
        <ele>510.8</ele>
        <time>2020-09-23T12:45:45Z</time>
      </trkpt>
      <trkpt lat="46.51155" lon="5.66435">
        <ele>511.8</ele>
        <time>2020-09-23T12:45:53Z</time>
      </trkpt>
      <trkpt lat="46.5115" lon="5.66438">
        <ele>512.4</ele>
        <time>2020-09-23T12:46:02Z</time>
      </trkpt>
      <trkpt lat="46.51144" lon="5.66441">
        <ele>513</ele>
        <time>2020-09-23T12:46:14Z</time>
      </trkpt>
      <trkpt lat="46.5114" lon="5.66444">
        <ele>513</ele>
        <time>2020-09-23T12:46:19Z</time>
      </trkpt>
      <trkpt lat="46.51135" lon="5.66448">
        <ele>511.9</ele>
        <time>2020-09-23T12:46:35Z</time>
      </trkpt>
      <trkpt lat="46.5113" lon="5.66451">
        <ele>511.9</ele>
        <time>2020-09-23T12:46:39Z</time>
      </trkpt>
      <trkpt lat="46.51126" lon="5.66455">
        <ele>512.4</ele>
        <time>2020-09-23T12:46:47Z</time>
      </trkpt>
      <trkpt lat="46.51122" lon="5.6646">
        <ele>512.8</ele>
        <time>2020-09-23T12:46:52Z</time>
      </trkpt>
      <trkpt lat="46.51118" lon="5.66464">
        <ele>513.1</ele>
        <time>2020-09-23T12:46:57Z</time>
      </trkpt>
      <trkpt lat="46.51113" lon="5.66465">
        <ele>513.2</ele>
        <time>2020-09-23T12:47:03Z</time>
      </trkpt>
      <trkpt lat="46.51108" lon="5.66466">
        <ele>512.8</ele>
        <time>2020-09-23T12:47:10Z</time>
      </trkpt>
      <trkpt lat="46.51103" lon="5.66468">
        <ele>512.8</ele>
        <time>2020-09-23T12:47:16Z</time>
      </trkpt>
      <trkpt lat="46.51099" lon="5.6647">
        <ele>513</ele>
        <time>2020-09-23T12:47:21Z</time>
      </trkpt>
      <trkpt lat="46.51094" lon="5.66471">
        <ele>512.9</ele>
        <time>2020-09-23T12:47:26Z</time>
      </trkpt>
      <trkpt lat="46.51089" lon="5.66475">
        <ele>513</ele>
        <time>2020-09-23T12:47:32Z</time>
      </trkpt>
      <trkpt lat="46.51086" lon="5.6648">
        <ele>513.1</ele>
        <time>2020-09-23T12:47:38Z</time>
      </trkpt>
      <trkpt lat="46.51082" lon="5.66485">
        <ele>512.9</ele>
        <time>2020-09-23T12:47:43Z</time>
      </trkpt>
      <trkpt lat="46.51079" lon="5.66491">
        <ele>512.4</ele>
        <time>2020-09-23T12:47:48Z</time>
      </trkpt>
      <trkpt lat="46.51078" lon="5.66498">
        <ele>511.6</ele>
        <time>2020-09-23T12:47:53Z</time>
      </trkpt>
      <trkpt lat="46.51076" lon="5.66506">
        <ele>510.5</ele>
        <time>2020-09-23T12:47:58Z</time>
      </trkpt>
      <trkpt lat="46.51073" lon="5.66512">
        <ele>509.7</ele>
        <time>2020-09-23T12:48:03Z</time>
      </trkpt>
      <trkpt lat="46.5107" lon="5.66517">
        <ele>509.1</ele>
        <time>2020-09-23T12:48:08Z</time>
      </trkpt>
      <trkpt lat="46.51067" lon="5.66523">
        <ele>508.8</ele>
        <time>2020-09-23T12:48:12Z</time>
      </trkpt>
      <trkpt lat="46.51064" lon="5.66528">
        <ele>508.3</ele>
        <time>2020-09-23T12:48:19Z</time>
      </trkpt>
      <trkpt lat="46.51062" lon="5.66535">
        <ele>507.9</ele>
        <time>2020-09-23T12:48:24Z</time>
      </trkpt>
      <trkpt lat="46.51062" lon="5.66542">
        <ele>507.4</ele>
        <time>2020-09-23T12:48:30Z</time>
      </trkpt>
      <trkpt lat="46.51065" lon="5.66547">
        <ele>506.9</ele>
        <time>2020-09-23T12:48:36Z</time>
      </trkpt>
      <trkpt lat="46.51067" lon="5.66554">
        <ele>506.3</ele>
        <time>2020-09-23T12:48:42Z</time>
      </trkpt>
      <trkpt lat="46.51069" lon="5.66561">
        <ele>505.3</ele>
        <time>2020-09-23T12:48:50Z</time>
      </trkpt>
      <trkpt lat="46.5107" lon="5.66567">
        <ele>504.6</ele>
        <time>2020-09-23T12:48:56Z</time>
      </trkpt>
      <trkpt lat="46.5107" lon="5.66574">
        <ele>504</ele>
        <time>2020-09-23T12:49:02Z</time>
      </trkpt>
      <trkpt lat="46.51069" lon="5.66582">
        <ele>503.8</ele>
        <time>2020-09-23T12:49:07Z</time>
      </trkpt>
      <trkpt lat="46.51068" lon="5.66589">
        <ele>503.7</ele>
        <time>2020-09-23T12:49:12Z</time>
      </trkpt>
      <trkpt lat="46.51068" lon="5.66596">
        <ele>503.9</ele>
        <time>2020-09-23T12:49:19Z</time>
      </trkpt>
      <trkpt lat="46.51065" lon="5.66603">
        <ele>504.2</ele>
        <time>2020-09-23T12:49:32Z</time>
      </trkpt>
      <trkpt lat="46.51063" lon="5.66609">
        <ele>504</ele>
        <time>2020-09-23T12:49:37Z</time>
      </trkpt>
      <trkpt lat="46.5106" lon="5.66616">
        <ele>503.8</ele>
        <time>2020-09-23T12:49:40Z</time>
      </trkpt>
      <trkpt lat="46.51056" lon="5.66621">
        <ele>503.6</ele>
        <time>2020-09-23T12:49:43Z</time>
      </trkpt>
      <trkpt lat="46.51051" lon="5.6662">
        <ele>503.4</ele>
        <time>2020-09-23T12:49:48Z</time>
      </trkpt>
      <trkpt lat="46.51046" lon="5.66619">
        <ele>502.5</ele>
        <time>2020-09-23T12:49:53Z</time>
      </trkpt>
      <trkpt lat="46.51042" lon="5.66618">
        <ele>501.3</ele>
        <time>2020-09-23T12:49:58Z</time>
      </trkpt>
      <trkpt lat="46.51037" lon="5.66619">
        <ele>500.4</ele>
        <time>2020-09-23T12:50:03Z</time>
      </trkpt>
      <trkpt lat="46.51032" lon="5.66619">
        <ele>499.9</ele>
        <time>2020-09-23T12:50:07Z</time>
      </trkpt>
      <trkpt lat="46.51027" lon="5.6662">
        <ele>499.3</ele>
        <time>2020-09-23T12:50:11Z</time>
      </trkpt>
      <trkpt lat="46.51022" lon="5.6662">
        <ele>498.6</ele>
        <time>2020-09-23T12:50:15Z</time>
      </trkpt>
      <trkpt lat="46.51017" lon="5.66618">
        <ele>498</ele>
        <time>2020-09-23T12:50:19Z</time>
      </trkpt>
      <trkpt lat="46.51013" lon="5.66617">
        <ele>497.3</ele>
        <time>2020-09-23T12:50:23Z</time>
      </trkpt>
      <trkpt lat="46.51008" lon="5.66616">
        <ele>496.3</ele>
        <time>2020-09-23T12:50:29Z</time>
      </trkpt>
      <trkpt lat="46.51003" lon="5.66614">
        <ele>495.6</ele>
        <time>2020-09-23T12:50:34Z</time>
      </trkpt>
      <trkpt lat="46.50999" lon="5.66613">
        <ele>495.2</ele>
        <time>2020-09-23T12:50:39Z</time>
      </trkpt>
      <trkpt lat="46.50994" lon="5.66611">
        <ele>494.8</ele>
        <time>2020-09-23T12:50:46Z</time>
      </trkpt>
      <trkpt lat="46.50989" lon="5.6661">
        <ele>494.1</ele>
        <time>2020-09-23T12:50:51Z</time>
      </trkpt>
      <trkpt lat="46.50984" lon="5.66609">
        <ele>493.7</ele>
        <time>2020-09-23T12:50:55Z</time>
      </trkpt>
      <trkpt lat="46.50979" lon="5.66609">
        <ele>493.5</ele>
        <time>2020-09-23T12:50:59Z</time>
      </trkpt>
      <trkpt lat="46.50974" lon="5.66609">
        <ele>493.4</ele>
        <time>2020-09-23T12:51:04Z</time>
      </trkpt>
      <trkpt lat="46.50969" lon="5.66607">
        <ele>493.4</ele>
        <time>2020-09-23T12:51:08Z</time>
      </trkpt>
      <trkpt lat="46.50964" lon="5.66606">
        <ele>493.3</ele>
        <time>2020-09-23T12:51:13Z</time>
      </trkpt>
      <trkpt lat="46.50959" lon="5.66607">
        <ele>493.2</ele>
        <time>2020-09-23T12:51:18Z</time>
      </trkpt>
      <trkpt lat="46.50955" lon="5.66609">
        <ele>493.2</ele>
        <time>2020-09-23T12:51:22Z</time>
      </trkpt>
      <trkpt lat="46.5095" lon="5.6661">
        <ele>493.5</ele>
        <time>2020-09-23T12:51:26Z</time>
      </trkpt>
      <trkpt lat="46.50946" lon="5.66613">
        <ele>494.2</ele>
        <time>2020-09-23T12:51:32Z</time>
      </trkpt>
      <trkpt lat="46.50942" lon="5.66616">
        <ele>495</ele>
        <time>2020-09-23T12:51:37Z</time>
      </trkpt>
      <trkpt lat="46.50938" lon="5.66618">
        <ele>495.8</ele>
        <time>2020-09-23T12:51:42Z</time>
      </trkpt>
      <trkpt lat="46.50933" lon="5.66622">
        <ele>496.7</ele>
        <time>2020-09-23T12:51:48Z</time>
      </trkpt>
      <trkpt lat="46.50929" lon="5.66626">
        <ele>497.2</ele>
        <time>2020-09-23T12:51:52Z</time>
      </trkpt>
      <trkpt lat="46.50924" lon="5.6663">
        <ele>497.6</ele>
        <time>2020-09-23T12:51:56Z</time>
      </trkpt>
      <trkpt lat="46.50919" lon="5.6663">
        <ele>497.8</ele>
        <time>2020-09-23T12:52:01Z</time>
      </trkpt>
      <trkpt lat="46.50914" lon="5.6663">
        <ele>498</ele>
        <time>2020-09-23T12:52:06Z</time>
      </trkpt>
      <trkpt lat="46.50909" lon="5.6663">
        <ele>498.1</ele>
        <time>2020-09-23T12:52:11Z</time>
      </trkpt>
      <trkpt lat="46.50904" lon="5.6663">
        <ele>498.1</ele>
        <time>2020-09-23T12:52:16Z</time>
      </trkpt>
      <trkpt lat="46.50899" lon="5.66629">
        <ele>498</ele>
        <time>2020-09-23T12:52:22Z</time>
      </trkpt>
      <trkpt lat="46.50894" lon="5.66631">
        <ele>497.7</ele>
        <time>2020-09-23T12:52:27Z</time>
      </trkpt>
      <trkpt lat="46.50888" lon="5.66639">
        <ele>496</ele>
        <time>2020-09-23T12:52:30Z</time>
      </trkpt>
      <trkpt lat="46.50884" lon="5.66643">
        <ele>494.4</ele>
        <time>2020-09-23T12:52:35Z</time>
      </trkpt>
      <trkpt lat="46.50877" lon="5.66647">
        <ele>495.7</ele>
        <time>2020-09-23T12:52:41Z</time>
      </trkpt>
      <trkpt lat="46.50873" lon="5.6665">
        <ele>497.4</ele>
        <time>2020-09-23T12:52:44Z</time>
      </trkpt>
      <trkpt lat="46.50868" lon="5.6665">
        <ele>500.7</ele>
        <time>2020-09-23T12:52:50Z</time>
      </trkpt>
      <trkpt lat="46.50863" lon="5.66652">
        <ele>503.4</ele>
        <time>2020-09-23T12:52:56Z</time>
      </trkpt>
      <trkpt lat="46.50858" lon="5.66655">
        <ele>505.8</ele>
        <time>2020-09-23T12:53:02Z</time>
      </trkpt>
      <trkpt lat="46.50853" lon="5.66659">
        <ele>507.1</ele>
        <time>2020-09-23T12:53:06Z</time>
      </trkpt>
      <trkpt lat="46.50848" lon="5.66664">
        <ele>507.9</ele>
        <time>2020-09-23T12:53:10Z</time>
      </trkpt>
      <trkpt lat="46.50844" lon="5.66667">
        <ele>508.5</ele>
        <time>2020-09-23T12:53:15Z</time>
      </trkpt>
      <trkpt lat="46.50841" lon="5.66674">
        <ele>509.1</ele>
        <time>2020-09-23T12:53:20Z</time>
      </trkpt>
      <trkpt lat="46.50838" lon="5.66681">
        <ele>509.3</ele>
        <time>2020-09-23T12:53:24Z</time>
      </trkpt>
      <trkpt lat="46.50835" lon="5.66688">
        <ele>508.7</ele>
        <time>2020-09-23T12:53:29Z</time>
      </trkpt>
      <trkpt lat="46.50832" lon="5.66694">
        <ele>508.1</ele>
        <time>2020-09-23T12:53:33Z</time>
      </trkpt>
      <trkpt lat="46.5083" lon="5.66701">
        <ele>507</ele>
        <time>2020-09-23T12:53:37Z</time>
      </trkpt>
      <trkpt lat="46.50828" lon="5.66707">
        <ele>505.8</ele>
        <time>2020-09-23T12:53:41Z</time>
      </trkpt>
      <trkpt lat="46.50825" lon="5.66712">
        <ele>504.6</ele>
        <time>2020-09-23T12:53:45Z</time>
      </trkpt>
      <trkpt lat="46.50821" lon="5.66718">
        <ele>503.7</ele>
        <time>2020-09-23T12:53:50Z</time>
      </trkpt>
      <trkpt lat="46.50819" lon="5.66724">
        <ele>503.2</ele>
        <time>2020-09-23T12:53:55Z</time>
      </trkpt>
      <trkpt lat="46.50817" lon="5.66731">
        <ele>502.8</ele>
        <time>2020-09-23T12:54:00Z</time>
      </trkpt>
      <trkpt lat="46.5082" lon="5.66736">
        <ele>504.6</ele>
        <time>2020-09-23T12:54:16Z</time>
      </trkpt>
      <trkpt lat="46.50818" lon="5.66742">
        <ele>505.8</ele>
        <time>2020-09-23T12:54:25Z</time>
      </trkpt>
      <trkpt lat="46.50816" lon="5.66749">
        <ele>506.2</ele>
        <time>2020-09-23T12:54:31Z</time>
      </trkpt>
      <trkpt lat="46.50817" lon="5.66755">
        <ele>506.4</ele>
        <time>2020-09-23T12:54:37Z</time>
      </trkpt>
      <trkpt lat="46.50814" lon="5.66763">
        <ele>505.4</ele>
        <time>2020-09-23T12:54:43Z</time>
      </trkpt>
      <trkpt lat="46.50812" lon="5.6677">
        <ele>504.1</ele>
        <time>2020-09-23T12:54:48Z</time>
      </trkpt>
      <trkpt lat="46.5081" lon="5.66778">
        <ele>503.6</ele>
        <time>2020-09-23T12:54:53Z</time>
      </trkpt>
      <trkpt lat="46.50809" lon="5.66785">
        <ele>503.9</ele>
        <time>2020-09-23T12:54:58Z</time>
      </trkpt>
      <trkpt lat="46.50807" lon="5.66791">
        <ele>504.2</ele>
        <time>2020-09-23T12:55:03Z</time>
      </trkpt>
      <trkpt lat="46.50805" lon="5.66798">
        <ele>504.6</ele>
        <time>2020-09-23T12:55:07Z</time>
      </trkpt>
      <trkpt lat="46.50801" lon="5.66802">
        <ele>504.9</ele>
        <time>2020-09-23T12:55:11Z</time>
      </trkpt>
      <trkpt lat="46.50799" lon="5.66808">
        <ele>504.9</ele>
        <time>2020-09-23T12:55:15Z</time>
      </trkpt>
      <trkpt lat="46.50796" lon="5.66813">
        <ele>505</ele>
        <time>2020-09-23T12:55:19Z</time>
      </trkpt>
      <trkpt lat="46.50794" lon="5.6682">
        <ele>505.2</ele>
        <time>2020-09-23T12:55:23Z</time>
      </trkpt>
      <trkpt lat="46.50791" lon="5.66827">
        <ele>505.4</ele>
        <time>2020-09-23T12:55:28Z</time>
      </trkpt>
      <trkpt lat="46.50789" lon="5.66833">
        <ele>505.5</ele>
        <time>2020-09-23T12:55:33Z</time>
      </trkpt>
      <trkpt lat="46.50786" lon="5.6684">
        <ele>505.6</ele>
        <time>2020-09-23T12:55:38Z</time>
      </trkpt>
      <trkpt lat="46.50782" lon="5.66844">
        <ele>505.4</ele>
        <time>2020-09-23T12:55:42Z</time>
      </trkpt>
      <trkpt lat="46.50779" lon="5.66849">
        <ele>504.9</ele>
        <time>2020-09-23T12:55:49Z</time>
      </trkpt>
      <trkpt lat="46.50775" lon="5.66853">
        <ele>504.4</ele>
        <time>2020-09-23T12:55:55Z</time>
      </trkpt>
      <trkpt lat="46.50772" lon="5.66858">
        <ele>503.9</ele>
        <time>2020-09-23T12:56:00Z</time>
      </trkpt>
      <trkpt lat="46.50769" lon="5.66863">
        <ele>503.4</ele>
        <time>2020-09-23T12:56:06Z</time>
      </trkpt>
      <trkpt lat="46.50764" lon="5.66879">
        <ele>505</ele>
        <time>2020-09-23T12:56:09Z</time>
      </trkpt>
      <trkpt lat="46.50763" lon="5.66885">
        <ele>505.7</ele>
        <time>2020-09-23T12:56:12Z</time>
      </trkpt>
      <trkpt lat="46.5076" lon="5.66891">
        <ele>506.7</ele>
        <time>2020-09-23T12:56:19Z</time>
      </trkpt>
      <trkpt lat="46.50756" lon="5.66897">
        <ele>507.1</ele>
        <time>2020-09-23T12:56:25Z</time>
      </trkpt>
      <trkpt lat="46.50753" lon="5.66902">
        <ele>507.1</ele>
        <time>2020-09-23T12:56:31Z</time>
      </trkpt>
      <trkpt lat="46.50751" lon="5.66909">
        <ele>506.9</ele>
        <time>2020-09-23T12:56:37Z</time>
      </trkpt>
      <trkpt lat="46.50748" lon="5.66916">
        <ele>506.6</ele>
        <time>2020-09-23T12:56:43Z</time>
      </trkpt>
      <trkpt lat="46.50746" lon="5.66921">
        <ele>506.4</ele>
        <time>2020-09-23T12:56:47Z</time>
      </trkpt>
      <trkpt lat="46.50744" lon="5.66927">
        <ele>506.2</ele>
        <time>2020-09-23T12:56:51Z</time>
      </trkpt>
      <trkpt lat="46.50741" lon="5.66933">
        <ele>505.9</ele>
        <time>2020-09-23T12:56:55Z</time>
      </trkpt>
      <trkpt lat="46.50738" lon="5.66939">
        <ele>505.7</ele>
        <time>2020-09-23T12:56:59Z</time>
      </trkpt>
      <trkpt lat="46.50735" lon="5.66944">
        <ele>505.5</ele>
        <time>2020-09-23T12:57:03Z</time>
      </trkpt>
      <trkpt lat="46.50732" lon="5.6695">
        <ele>505.1</ele>
        <time>2020-09-23T12:57:09Z</time>
      </trkpt>
      <trkpt lat="46.50727" lon="5.66956">
        <ele>504.5</ele>
        <time>2020-09-23T12:57:14Z</time>
      </trkpt>
      <trkpt lat="46.50724" lon="5.6696">
        <ele>504.2</ele>
        <time>2020-09-23T12:57:17Z</time>
      </trkpt>
      <trkpt lat="46.5072" lon="5.66965">
        <ele>503.8</ele>
        <time>2020-09-23T12:57:21Z</time>
      </trkpt>
      <trkpt lat="46.50717" lon="5.66971">
        <ele>503.6</ele>
        <time>2020-09-23T12:57:25Z</time>
      </trkpt>
      <trkpt lat="46.50715" lon="5.66978">
        <ele>503.2</ele>
        <time>2020-09-23T12:57:30Z</time>
      </trkpt>
      <trkpt lat="46.50713" lon="5.66984">
        <ele>503.1</ele>
        <time>2020-09-23T12:57:34Z</time>
      </trkpt>
      <trkpt lat="46.50713" lon="5.66991">
        <ele>503.4</ele>
        <time>2020-09-23T12:57:39Z</time>
      </trkpt>
      <trkpt lat="46.5071" lon="5.66996">
        <ele>503.7</ele>
        <time>2020-09-23T12:57:45Z</time>
      </trkpt>
      <trkpt lat="46.50709" lon="5.67003">
        <ele>504.5</ele>
        <time>2020-09-23T12:57:54Z</time>
      </trkpt>
      <trkpt lat="46.50709" lon="5.6701">
        <ele>504.8</ele>
        <time>2020-09-23T12:58:00Z</time>
      </trkpt>
      <trkpt lat="46.50709" lon="5.67017">
        <ele>505.1</ele>
        <time>2020-09-23T12:58:05Z</time>
      </trkpt>
      <trkpt lat="46.50706" lon="5.67022">
        <ele>505.7</ele>
        <time>2020-09-23T12:58:10Z</time>
      </trkpt>
      <trkpt lat="46.50707" lon="5.67031">
        <ele>506.8</ele>
        <time>2020-09-23T12:58:15Z</time>
      </trkpt>
      <trkpt lat="46.50708" lon="5.67038">
        <ele>508</ele>
        <time>2020-09-23T12:58:19Z</time>
      </trkpt>
      <trkpt lat="46.50705" lon="5.67045">
        <ele>509.3</ele>
        <time>2020-09-23T12:58:24Z</time>
      </trkpt>
      <trkpt lat="46.50701" lon="5.67049">
        <ele>510.4</ele>
        <time>2020-09-23T12:58:30Z</time>
      </trkpt>
      <trkpt lat="46.50697" lon="5.67053">
        <ele>511.2</ele>
        <time>2020-09-23T12:58:36Z</time>
      </trkpt>
      <trkpt lat="46.50693" lon="5.67058">
        <ele>511.5</ele>
        <time>2020-09-23T12:58:41Z</time>
      </trkpt>
      <trkpt lat="46.5069" lon="5.67064">
        <ele>511.6</ele>
        <time>2020-09-23T12:58:46Z</time>
      </trkpt>
      <trkpt lat="46.50689" lon="5.67071">
        <ele>511.8</ele>
        <time>2020-09-23T12:58:51Z</time>
      </trkpt>
      <trkpt lat="46.50687" lon="5.67078">
        <ele>512</ele>
        <time>2020-09-23T12:58:56Z</time>
      </trkpt>
      <trkpt lat="46.50685" lon="5.67084">
        <ele>512.3</ele>
        <time>2020-09-23T12:59:01Z</time>
      </trkpt>
      <trkpt lat="46.50682" lon="5.6709">
        <ele>512.4</ele>
        <time>2020-09-23T12:59:31Z</time>
      </trkpt>
      <trkpt lat="46.50681" lon="5.67096">
        <ele>514</ele>
        <time>2020-09-23T12:59:43Z</time>
      </trkpt>
      <trkpt lat="46.50682" lon="5.67103">
        <ele>513.9</ele>
        <time>2020-09-23T13:00:01Z</time>
      </trkpt>
      <trkpt lat="46.50682" lon="5.6711">
        <ele>513.5</ele>
        <time>2020-09-23T13:00:07Z</time>
      </trkpt>
      <trkpt lat="46.50682" lon="5.67117">
        <ele>512.9</ele>
        <time>2020-09-23T13:00:13Z</time>
      </trkpt>
      <trkpt lat="46.50682" lon="5.67124">
        <ele>512.2</ele>
        <time>2020-09-23T13:00:19Z</time>
      </trkpt>
      <trkpt lat="46.50682" lon="5.67131">
        <ele>511.1</ele>
        <time>2020-09-23T13:00:28Z</time>
      </trkpt>
      <trkpt lat="46.50678" lon="5.67133">
        <ele>508.9</ele>
        <time>2020-09-23T13:01:01Z</time>
      </trkpt>
      <trkpt lat="46.50674" lon="5.67137">
        <ele>507.7</ele>
        <time>2020-09-23T13:01:07Z</time>
      </trkpt>
      <trkpt lat="46.50671" lon="5.67143">
        <ele>506.7</ele>
        <time>2020-09-23T13:01:13Z</time>
      </trkpt>
      <trkpt lat="46.50668" lon="5.67148">
        <ele>506</ele>
        <time>2020-09-23T13:01:18Z</time>
      </trkpt>
      <trkpt lat="46.50664" lon="5.67154">
        <ele>505.9</ele>
        <time>2020-09-23T13:01:24Z</time>
      </trkpt>
      <trkpt lat="46.5066" lon="5.67158">
        <ele>506.3</ele>
        <time>2020-09-23T13:01:29Z</time>
      </trkpt>
      <trkpt lat="46.50657" lon="5.67162">
        <ele>506.8</ele>
        <time>2020-09-23T13:01:34Z</time>
      </trkpt>
      <trkpt lat="46.50652" lon="5.67167">
        <ele>507.3</ele>
        <time>2020-09-23T13:01:39Z</time>
      </trkpt>
      <trkpt lat="46.50648" lon="5.67171">
        <ele>507.4</ele>
        <time>2020-09-23T13:01:43Z</time>
      </trkpt>
      <trkpt lat="46.50645" lon="5.67177">
        <ele>507.7</ele>
        <time>2020-09-23T13:01:47Z</time>
      </trkpt>
      <trkpt lat="46.5064" lon="5.6718">
        <ele>507.9</ele>
        <time>2020-09-23T13:01:52Z</time>
      </trkpt>
      <trkpt lat="46.50635" lon="5.67182">
        <ele>508.3</ele>
        <time>2020-09-23T13:01:57Z</time>
      </trkpt>
      <trkpt lat="46.5063" lon="5.67181">
        <ele>508.9</ele>
        <time>2020-09-23T13:02:02Z</time>
      </trkpt>
      <trkpt lat="46.50625" lon="5.6718">
        <ele>509.3</ele>
        <time>2020-09-23T13:02:07Z</time>
      </trkpt>
      <trkpt lat="46.5062" lon="5.67182">
        <ele>509.8</ele>
        <time>2020-09-23T13:02:12Z</time>
      </trkpt>
      <trkpt lat="46.50616" lon="5.67185">
        <ele>510.4</ele>
        <time>2020-09-23T13:02:17Z</time>
      </trkpt>
      <trkpt lat="46.50612" lon="5.67189">
        <ele>511</ele>
        <time>2020-09-23T13:02:22Z</time>
      </trkpt>
      <trkpt lat="46.50607" lon="5.6719">
        <ele>511.2</ele>
        <time>2020-09-23T13:02:29Z</time>
      </trkpt>
      <trkpt lat="46.50602" lon="5.67193">
        <ele>511</ele>
        <time>2020-09-23T13:02:35Z</time>
      </trkpt>
      <trkpt lat="46.50598" lon="5.67196">
        <ele>510.5</ele>
        <time>2020-09-23T13:02:43Z</time>
      </trkpt>
      <trkpt lat="46.50594" lon="5.67201">
        <ele>510.2</ele>
        <time>2020-09-23T13:02:48Z</time>
      </trkpt>
      <trkpt lat="46.5059" lon="5.67205">
        <ele>510.2</ele>
        <time>2020-09-23T13:02:52Z</time>
      </trkpt>
      <trkpt lat="46.50586" lon="5.67209">
        <ele>510.1</ele>
        <time>2020-09-23T13:02:58Z</time>
      </trkpt>
      <trkpt lat="46.50583" lon="5.67215">
        <ele>510.2</ele>
        <time>2020-09-23T13:03:04Z</time>
      </trkpt>
      <trkpt lat="46.5058" lon="5.67221">
        <ele>510.3</ele>
        <time>2020-09-23T13:03:09Z</time>
      </trkpt>
      <trkpt lat="46.50578" lon="5.67228">
        <ele>510.4</ele>
        <time>2020-09-23T13:03:14Z</time>
      </trkpt>
      <trkpt lat="46.50575" lon="5.67235">
        <ele>510.4</ele>
        <time>2020-09-23T13:03:19Z</time>
      </trkpt>
      <trkpt lat="46.50573" lon="5.67242">
        <ele>510.5</ele>
        <time>2020-09-23T13:03:24Z</time>
      </trkpt>
      <trkpt lat="46.50571" lon="5.6725">
        <ele>510.6</ele>
        <time>2020-09-23T13:03:29Z</time>
      </trkpt>
      <trkpt lat="46.50572" lon="5.67258">
        <ele>510.6</ele>
        <time>2020-09-23T13:03:34Z</time>
      </trkpt>
      <trkpt lat="46.50572" lon="5.67266">
        <ele>510.5</ele>
        <time>2020-09-23T13:03:39Z</time>
      </trkpt>
      <trkpt lat="46.5057" lon="5.67272">
        <ele>510.5</ele>
        <time>2020-09-23T13:03:43Z</time>
      </trkpt>
      <trkpt lat="46.50568" lon="5.67279">
        <ele>510.6</ele>
        <time>2020-09-23T13:03:47Z</time>
      </trkpt>
      <trkpt lat="46.50567" lon="5.67286">
        <ele>511</ele>
        <time>2020-09-23T13:03:53Z</time>
      </trkpt>
      <trkpt lat="46.50566" lon="5.67293">
        <ele>511.3</ele>
        <time>2020-09-23T13:03:58Z</time>
      </trkpt>
      <trkpt lat="46.50565" lon="5.67302">
        <ele>511.7</ele>
        <time>2020-09-23T13:04:03Z</time>
      </trkpt>
      <trkpt lat="46.50565" lon="5.67309">
        <ele>512.1</ele>
        <time>2020-09-23T13:04:07Z</time>
      </trkpt>
      <trkpt lat="46.50565" lon="5.67317">
        <ele>512.4</ele>
        <time>2020-09-23T13:04:11Z</time>
      </trkpt>
      <trkpt lat="46.50565" lon="5.67325">
        <ele>512.6</ele>
        <time>2020-09-23T13:04:15Z</time>
      </trkpt>
      <trkpt lat="46.50567" lon="5.67332">
        <ele>512.6</ele>
        <time>2020-09-23T13:04:19Z</time>
      </trkpt>
      <trkpt lat="46.50569" lon="5.67339">
        <ele>512.3</ele>
        <time>2020-09-23T13:04:24Z</time>
      </trkpt>
      <trkpt lat="46.5057" lon="5.67346">
        <ele>512.3</ele>
        <time>2020-09-23T13:04:28Z</time>
      </trkpt>
      <trkpt lat="46.50571" lon="5.67353">
        <ele>512.1</ele>
        <time>2020-09-23T13:04:33Z</time>
      </trkpt>
      <trkpt lat="46.50572" lon="5.6736">
        <ele>511.9</ele>
        <time>2020-09-23T13:04:38Z</time>
      </trkpt>
      <trkpt lat="46.50573" lon="5.67367">
        <ele>511.8</ele>
        <time>2020-09-23T13:04:43Z</time>
      </trkpt>
      <trkpt lat="46.50574" lon="5.67374">
        <ele>512</ele>
        <time>2020-09-23T13:04:48Z</time>
      </trkpt>
      <trkpt lat="46.50574" lon="5.67381">
        <ele>512.1</ele>
        <time>2020-09-23T13:04:53Z</time>
      </trkpt>
      <trkpt lat="46.50575" lon="5.67388">
        <ele>511.9</ele>
        <time>2020-09-23T13:04:58Z</time>
      </trkpt>
      <trkpt lat="46.50575" lon="5.67396">
        <ele>511.2</ele>
        <time>2020-09-23T13:05:04Z</time>
      </trkpt>
      <trkpt lat="46.50574" lon="5.67403">
        <ele>510.1</ele>
        <time>2020-09-23T13:05:09Z</time>
      </trkpt>
      <trkpt lat="46.50575" lon="5.6741">
        <ele>509.3</ele>
        <time>2020-09-23T13:05:14Z</time>
      </trkpt>
      <trkpt lat="46.50575" lon="5.67418">
        <ele>508.6</ele>
        <time>2020-09-23T13:05:19Z</time>
      </trkpt>
      <trkpt lat="46.50575" lon="5.67425">
        <ele>508</ele>
        <time>2020-09-23T13:05:23Z</time>
      </trkpt>
      <trkpt lat="46.50575" lon="5.67433">
        <ele>507.5</ele>
        <time>2020-09-23T13:05:28Z</time>
      </trkpt>
      <trkpt lat="46.50574" lon="5.6744">
        <ele>506.7</ele>
        <time>2020-09-23T13:05:33Z</time>
      </trkpt>
      <trkpt lat="46.50574" lon="5.67448">
        <ele>505.9</ele>
        <time>2020-09-23T13:05:38Z</time>
      </trkpt>
      <trkpt lat="46.50574" lon="5.67456">
        <ele>504.9</ele>
        <time>2020-09-23T13:05:43Z</time>
      </trkpt>
      <trkpt lat="46.50574" lon="5.67463">
        <ele>503.8</ele>
        <time>2020-09-23T13:05:48Z</time>
      </trkpt>
      <trkpt lat="46.50575" lon="5.6747">
        <ele>502.8</ele>
        <time>2020-09-23T13:05:53Z</time>
      </trkpt>
      <trkpt lat="46.50575" lon="5.67477">
        <ele>501.9</ele>
        <time>2020-09-23T13:05:58Z</time>
      </trkpt>
      <trkpt lat="46.50577" lon="5.67484">
        <ele>501.2</ele>
        <time>2020-09-23T13:06:03Z</time>
      </trkpt>
      <trkpt lat="46.50575" lon="5.67495">
        <ele>507.4</ele>
        <time>2020-09-23T13:06:06Z</time>
      </trkpt>
      <trkpt lat="46.50576" lon="5.67502">
        <ele>511.1</ele>
        <time>2020-09-23T13:06:10Z</time>
      </trkpt>
      <trkpt lat="46.50577" lon="5.6751">
        <ele>513.4</ele>
        <time>2020-09-23T13:06:15Z</time>
      </trkpt>
      <trkpt lat="46.50579" lon="5.67517">
        <ele>514.4</ele>
        <time>2020-09-23T13:06:19Z</time>
      </trkpt>
      <trkpt lat="46.50581" lon="5.67524">
        <ele>515.5</ele>
        <time>2020-09-23T13:06:24Z</time>
      </trkpt>
      <trkpt lat="46.50584" lon="5.67529">
        <ele>516.2</ele>
        <time>2020-09-23T13:06:28Z</time>
      </trkpt>
      <trkpt lat="46.50587" lon="5.67536">
        <ele>517</ele>
        <time>2020-09-23T13:06:33Z</time>
      </trkpt>
      <trkpt lat="46.50589" lon="5.67542">
        <ele>517.5</ele>
        <time>2020-09-23T13:06:38Z</time>
      </trkpt>
      <trkpt lat="46.5059" lon="5.67549">
        <ele>517.7</ele>
        <time>2020-09-23T13:06:43Z</time>
      </trkpt>
      <trkpt lat="46.50591" lon="5.67556">
        <ele>517.5</ele>
        <time>2020-09-23T13:06:48Z</time>
      </trkpt>
      <trkpt lat="46.50591" lon="5.67563">
        <ele>517.2</ele>
        <time>2020-09-23T13:06:53Z</time>
      </trkpt>
      <trkpt lat="46.50589" lon="5.6757">
        <ele>517</ele>
        <time>2020-09-23T13:06:57Z</time>
      </trkpt>
      <trkpt lat="46.50588" lon="5.67577">
        <ele>516.7</ele>
        <time>2020-09-23T13:07:01Z</time>
      </trkpt>
      <trkpt lat="46.50586" lon="5.67583">
        <ele>516.2</ele>
        <time>2020-09-23T13:07:05Z</time>
      </trkpt>
      <trkpt lat="46.50584" lon="5.67589">
        <ele>515.5</ele>
        <time>2020-09-23T13:07:09Z</time>
      </trkpt>
      <trkpt lat="46.50582" lon="5.67596">
        <ele>514.7</ele>
        <time>2020-09-23T13:07:13Z</time>
      </trkpt>
      <trkpt lat="46.50581" lon="5.67603">
        <ele>513.9</ele>
        <time>2020-09-23T13:07:17Z</time>
      </trkpt>
      <trkpt lat="46.50582" lon="5.6761">
        <ele>513</ele>
        <time>2020-09-23T13:07:22Z</time>
      </trkpt>
      <trkpt lat="46.50584" lon="5.67618">
        <ele>511.6</ele>
        <time>2020-09-23T13:07:28Z</time>
      </trkpt>
      <trkpt lat="46.50586" lon="5.67625">
        <ele>510.7</ele>
        <time>2020-09-23T13:07:33Z</time>
      </trkpt>
      <trkpt lat="46.50589" lon="5.67631">
        <ele>509.7</ele>
        <time>2020-09-23T13:07:38Z</time>
      </trkpt>
      <trkpt lat="46.50593" lon="5.67636">
        <ele>508.7</ele>
        <time>2020-09-23T13:07:43Z</time>
      </trkpt>
      <trkpt lat="46.50597" lon="5.67639">
        <ele>508.1</ele>
        <time>2020-09-23T13:07:47Z</time>
      </trkpt>
      <trkpt lat="46.50601" lon="5.67642">
        <ele>507.4</ele>
        <time>2020-09-23T13:07:51Z</time>
      </trkpt>
      <trkpt lat="46.50604" lon="5.67648">
        <ele>505.4</ele>
        <time>2020-09-23T13:07:58Z</time>
      </trkpt>
      <trkpt lat="46.50608" lon="5.67652">
        <ele>504</ele>
        <time>2020-09-23T13:08:04Z</time>
      </trkpt>
      <trkpt lat="46.50613" lon="5.67656">
        <ele>503</ele>
        <time>2020-09-23T13:08:09Z</time>
      </trkpt>
      <trkpt lat="46.50617" lon="5.67661">
        <ele>502.1</ele>
        <time>2020-09-23T13:08:14Z</time>
      </trkpt>
      <trkpt lat="46.50621" lon="5.67664">
        <ele>501.3</ele>
        <time>2020-09-23T13:08:18Z</time>
      </trkpt>
      <trkpt lat="46.50625" lon="5.67667">
        <ele>500.6</ele>
        <time>2020-09-23T13:08:22Z</time>
      </trkpt>
      <trkpt lat="46.50629" lon="5.67669">
        <ele>499.8</ele>
        <time>2020-09-23T13:08:26Z</time>
      </trkpt>
      <trkpt lat="46.50634" lon="5.67672">
        <ele>499</ele>
        <time>2020-09-23T13:08:31Z</time>
      </trkpt>
      <trkpt lat="46.50638" lon="5.67676">
        <ele>498.2</ele>
        <time>2020-09-23T13:08:36Z</time>
      </trkpt>
      <trkpt lat="46.50643" lon="5.67679">
        <ele>497.4</ele>
        <time>2020-09-23T13:08:41Z</time>
      </trkpt>
      <trkpt lat="46.50646" lon="5.67684">
        <ele>496.5</ele>
        <time>2020-09-23T13:08:46Z</time>
      </trkpt>
      <trkpt lat="46.5065" lon="5.67688">
        <ele>496.2</ele>
        <time>2020-09-23T13:08:50Z</time>
      </trkpt>
      <trkpt lat="46.50653" lon="5.67694">
        <ele>496.2</ele>
        <time>2020-09-23T13:08:55Z</time>
      </trkpt>
      <trkpt lat="46.50656" lon="5.67701">
        <ele>496.5</ele>
        <time>2020-09-23T13:09:00Z</time>
      </trkpt>
      <trkpt lat="46.50658" lon="5.67708">
        <ele>496.7</ele>
        <time>2020-09-23T13:09:05Z</time>
      </trkpt>
      <trkpt lat="46.50661" lon="5.67715">
        <ele>497.1</ele>
        <time>2020-09-23T13:09:10Z</time>
      </trkpt>
      <trkpt lat="46.50665" lon="5.67721">
        <ele>497.4</ele>
        <time>2020-09-23T13:09:15Z</time>
      </trkpt>
      <trkpt lat="46.50668" lon="5.67726">
        <ele>497.6</ele>
        <time>2020-09-23T13:09:20Z</time>
      </trkpt>
      <trkpt lat="46.50673" lon="5.6773">
        <ele>497.9</ele>
        <time>2020-09-23T13:09:26Z</time>
      </trkpt>
      <trkpt lat="46.50677" lon="5.67733">
        <ele>498.1</ele>
        <time>2020-09-23T13:09:31Z</time>
      </trkpt>
      <trkpt lat="46.50682" lon="5.67735">
        <ele>498.4</ele>
        <time>2020-09-23T13:09:36Z</time>
      </trkpt>
      <trkpt lat="46.50687" lon="5.67735">
        <ele>498.6</ele>
        <time>2020-09-23T13:09:42Z</time>
      </trkpt>
      <trkpt lat="46.50693" lon="5.67736">
        <ele>498.9</ele>
        <time>2020-09-23T13:09:48Z</time>
      </trkpt>
      <trkpt lat="46.50698" lon="5.67737">
        <ele>498.9</ele>
        <time>2020-09-23T13:09:54Z</time>
      </trkpt>
      <trkpt lat="46.50703" lon="5.67738">
        <ele>498.6</ele>
        <time>2020-09-23T13:10:00Z</time>
      </trkpt>
      <trkpt lat="46.50707" lon="5.67736">
        <ele>497.7</ele>
        <time>2020-09-23T13:10:06Z</time>
      </trkpt>
      <trkpt lat="46.5071" lon="5.6773">
        <ele>496.9</ele>
        <time>2020-09-23T13:10:11Z</time>
      </trkpt>
      <trkpt lat="46.50713" lon="5.67725">
        <ele>496.2</ele>
        <time>2020-09-23T13:10:16Z</time>
      </trkpt>
      <trkpt lat="46.50714" lon="5.67718">
        <ele>495.9</ele>
        <time>2020-09-23T13:10:21Z</time>
      </trkpt>
      <trkpt lat="46.50716" lon="5.67712">
        <ele>495.3</ele>
        <time>2020-09-23T13:10:26Z</time>
      </trkpt>
      <trkpt lat="46.50717" lon="5.67704">
        <ele>495.1</ele>
        <time>2020-09-23T13:10:29Z</time>
      </trkpt>
      <trkpt lat="46.50718" lon="5.67697">
        <ele>493.7</ele>
        <time>2020-09-23T13:10:34Z</time>
      </trkpt>
      <trkpt lat="46.50716" lon="5.67691">
        <ele>491.7</ele>
        <time>2020-09-23T13:10:42Z</time>
      </trkpt>
      <trkpt lat="46.50714" lon="5.67682">
        <ele>490.7</ele>
        <time>2020-09-23T13:10:53Z</time>
      </trkpt>
      <trkpt lat="46.50714" lon="5.67675">
        <ele>490.5</ele>
        <time>2020-09-23T13:10:56Z</time>
      </trkpt>
      <trkpt lat="46.50714" lon="5.67668">
        <ele>490</ele>
        <time>2020-09-23T13:11:00Z</time>
      </trkpt>
      <trkpt lat="46.50714" lon="5.67661">
        <ele>489.1</ele>
        <time>2020-09-23T13:11:05Z</time>
      </trkpt>
      <trkpt lat="46.50714" lon="5.67654">
        <ele>488.3</ele>
        <time>2020-09-23T13:11:11Z</time>
      </trkpt>
      <trkpt lat="46.50715" lon="5.67648">
        <ele>487.9</ele>
        <time>2020-09-23T13:11:16Z</time>
      </trkpt>
      <trkpt lat="46.50716" lon="5.67641">
        <ele>487.7</ele>
        <time>2020-09-23T13:11:21Z</time>
      </trkpt>
      <trkpt lat="46.50714" lon="5.67634">
        <ele>487.6</ele>
        <time>2020-09-23T13:11:26Z</time>
      </trkpt>
      <trkpt lat="46.50712" lon="5.67629">
        <ele>487</ele>
        <time>2020-09-23T13:11:34Z</time>
      </trkpt>
      <trkpt lat="46.50714" lon="5.67619">
        <ele>491</ele>
        <time>2020-09-23T13:11:38Z</time>
      </trkpt>
      <trkpt lat="46.50717" lon="5.67611">
        <ele>494.2</ele>
        <time>2020-09-23T13:11:41Z</time>
      </trkpt>
      <trkpt lat="46.50716" lon="5.67604">
        <ele>496.6</ele>
        <time>2020-09-23T13:11:47Z</time>
      </trkpt>
      <trkpt lat="46.50715" lon="5.67597">
        <ele>497.9</ele>
        <time>2020-09-23T13:12:07Z</time>
      </trkpt>
      <trkpt lat="46.50715" lon="5.67591">
        <ele>497.7</ele>
        <time>2020-09-23T13:12:12Z</time>
      </trkpt>
      <trkpt lat="46.50714" lon="5.67583">
        <ele>497.6</ele>
        <time>2020-09-23T13:12:18Z</time>
      </trkpt>
      <trkpt lat="46.5071" lon="5.67579">
        <ele>497.6</ele>
        <time>2020-09-23T13:12:24Z</time>
      </trkpt>
      <trkpt lat="46.50708" lon="5.67572">
        <ele>497.5</ele>
        <time>2020-09-23T13:12:30Z</time>
      </trkpt>
      <trkpt lat="46.50706" lon="5.67565">
        <ele>496.3</ele>
        <time>2020-09-23T13:12:36Z</time>
      </trkpt>
      <trkpt lat="46.50704" lon="5.67559">
        <ele>494.5</ele>
        <time>2020-09-23T13:12:42Z</time>
      </trkpt>
      <trkpt lat="46.50704" lon="5.67551">
        <ele>492.6</ele>
        <time>2020-09-23T13:12:49Z</time>
      </trkpt>
      <trkpt lat="46.50701" lon="5.67545">
        <ele>491.6</ele>
        <time>2020-09-23T13:12:56Z</time>
      </trkpt>
      <trkpt lat="46.507" lon="5.67538">
        <ele>491.2</ele>
        <time>2020-09-23T13:13:04Z</time>
      </trkpt>
      <trkpt lat="46.50698" lon="5.67532">
        <ele>490.9</ele>
        <time>2020-09-23T13:13:11Z</time>
      </trkpt>
      <trkpt lat="46.50694" lon="5.67526">
        <ele>490.4</ele>
        <time>2020-09-23T13:13:16Z</time>
      </trkpt>
      <trkpt lat="46.50691" lon="5.6752">
        <ele>489.8</ele>
        <time>2020-09-23T13:13:22Z</time>
      </trkpt>
      <trkpt lat="46.50688" lon="5.67515">
        <ele>489.4</ele>
        <time>2020-09-23T13:13:27Z</time>
      </trkpt>
      <trkpt lat="46.50685" lon="5.67508">
        <ele>488.6</ele>
        <time>2020-09-23T13:13:33Z</time>
      </trkpt>
      <trkpt lat="46.50684" lon="5.67502">
        <ele>488.1</ele>
        <time>2020-09-23T13:13:40Z</time>
      </trkpt>
      <trkpt lat="46.50681" lon="5.67496">
        <ele>487.9</ele>
        <time>2020-09-23T13:13:47Z</time>
      </trkpt>
      <trkpt lat="46.50679" lon="5.6749">
        <ele>487.4</ele>
        <time>2020-09-23T13:13:59Z</time>
      </trkpt>
      <trkpt lat="46.50676" lon="5.67483">
        <ele>487.4</ele>
        <time>2020-09-23T13:14:08Z</time>
      </trkpt>
      <trkpt lat="46.50674" lon="5.67477">
        <ele>487.3</ele>
        <time>2020-09-23T13:14:13Z</time>
      </trkpt>
      <trkpt lat="46.50674" lon="5.67469">
        <ele>487.6</ele>
        <time>2020-09-23T13:14:18Z</time>
      </trkpt>
      <trkpt lat="46.50675" lon="5.67462">
        <ele>487.6</ele>
        <time>2020-09-23T13:14:23Z</time>
      </trkpt>
      <trkpt lat="46.50677" lon="5.67456">
        <ele>487.3</ele>
        <time>2020-09-23T13:14:29Z</time>
      </trkpt>
      <trkpt lat="46.50678" lon="5.67449">
        <ele>487.2</ele>
        <time>2020-09-23T13:14:34Z</time>
      </trkpt>
      <trkpt lat="46.50679" lon="5.67442">
        <ele>487</ele>
        <time>2020-09-23T13:14:39Z</time>
      </trkpt>
      <trkpt lat="46.50677" lon="5.67435">
        <ele>486.3</ele>
        <time>2020-09-23T13:14:47Z</time>
      </trkpt>
      <trkpt lat="46.50676" lon="5.67429">
        <ele>484.3</ele>
        <time>2020-09-23T13:14:57Z</time>
      </trkpt>
      <trkpt lat="46.50677" lon="5.67422">
        <ele>482.9</ele>
        <time>2020-09-23T13:15:02Z</time>
      </trkpt>
      <trkpt lat="46.50678" lon="5.67415">
        <ele>482.7</ele>
        <time>2020-09-23T13:15:09Z</time>
      </trkpt>
      <trkpt lat="46.50679" lon="5.67408">
        <ele>483.3</ele>
        <time>2020-09-23T13:15:17Z</time>
      </trkpt>
      <trkpt lat="46.50679" lon="5.67402">
        <ele>483.6</ele>
        <time>2020-09-23T13:15:25Z</time>
      </trkpt>
      <trkpt lat="46.50676" lon="5.67396">
        <ele>483.8</ele>
        <time>2020-09-23T13:15:32Z</time>
      </trkpt>
      <trkpt lat="46.50674" lon="5.6739">
        <ele>483.4</ele>
        <time>2020-09-23T13:15:39Z</time>
      </trkpt>
      <trkpt lat="46.50672" lon="5.67383">
        <ele>483.4</ele>
        <time>2020-09-23T13:15:47Z</time>
      </trkpt>
      <trkpt lat="46.5067" lon="5.67376">
        <ele>483.5</ele>
        <time>2020-09-23T13:15:52Z</time>
      </trkpt>
      <trkpt lat="46.50669" lon="5.67369">
        <ele>483.6</ele>
        <time>2020-09-23T13:15:57Z</time>
      </trkpt>
      <trkpt lat="46.50669" lon="5.67362">
        <ele>483.6</ele>
        <time>2020-09-23T13:16:01Z</time>
      </trkpt>
      <trkpt lat="46.50668" lon="5.67355">
        <ele>483.7</ele>
        <time>2020-09-23T13:16:06Z</time>
      </trkpt>
      <trkpt lat="46.50668" lon="5.67348">
        <ele>483.6</ele>
        <time>2020-09-23T13:16:11Z</time>
      </trkpt>
      <trkpt lat="46.50668" lon="5.67341">
        <ele>483.4</ele>
        <time>2020-09-23T13:16:17Z</time>
      </trkpt>
      <trkpt lat="46.50669" lon="5.67333">
        <ele>483.3</ele>
        <time>2020-09-23T13:16:22Z</time>
      </trkpt>
      <trkpt lat="46.50672" lon="5.67327">
        <ele>483</ele>
        <time>2020-09-23T13:16:27Z</time>
      </trkpt>
      <trkpt lat="46.50677" lon="5.67316">
        <ele>483.3</ele>
        <time>2020-09-23T13:16:32Z</time>
      </trkpt>
      <trkpt lat="46.5068" lon="5.6731">
        <ele>483.6</ele>
        <time>2020-09-23T13:16:35Z</time>
      </trkpt>
      <trkpt lat="46.50682" lon="5.67304">
        <ele>483.9</ele>
        <time>2020-09-23T13:16:40Z</time>
      </trkpt>
      <trkpt lat="46.50683" lon="5.67298">
        <ele>484</ele>
        <time>2020-09-23T13:16:45Z</time>
      </trkpt>
      <trkpt lat="46.50684" lon="5.67291">
        <ele>483.5</ele>
        <time>2020-09-23T13:16:52Z</time>
      </trkpt>
      <trkpt lat="46.50684" lon="5.67283">
        <ele>483.2</ele>
        <time>2020-09-23T13:16:56Z</time>
      </trkpt>
      <trkpt lat="46.50685" lon="5.67276">
        <ele>483</ele>
        <time>2020-09-23T13:17:01Z</time>
      </trkpt>
      <trkpt lat="46.50687" lon="5.6727">
        <ele>482.8</ele>
        <time>2020-09-23T13:17:08Z</time>
      </trkpt>
      <trkpt lat="46.50689" lon="5.67263">
        <ele>482.4</ele>
        <time>2020-09-23T13:17:15Z</time>
      </trkpt>
      <trkpt lat="46.5069" lon="5.67256">
        <ele>482.3</ele>
        <time>2020-09-23T13:17:20Z</time>
      </trkpt>
      <trkpt lat="46.50691" lon="5.67249">
        <ele>482.4</ele>
        <time>2020-09-23T13:17:27Z</time>
      </trkpt>
      <trkpt lat="46.50692" lon="5.67241">
        <ele>485.2</ele>
        <time>2020-09-23T13:17:30Z</time>
      </trkpt>
      <trkpt lat="46.50694" lon="5.67235">
        <ele>488.5</ele>
        <time>2020-09-23T13:17:35Z</time>
      </trkpt>
      <trkpt lat="46.50697" lon="5.67229">
        <ele>490.7</ele>
        <time>2020-09-23T13:17:42Z</time>
      </trkpt>
      <trkpt lat="46.50699" lon="5.67223">
        <ele>491.5</ele>
        <time>2020-09-23T13:17:47Z</time>
      </trkpt>
      <trkpt lat="46.50702" lon="5.67217">
        <ele>491.9</ele>
        <time>2020-09-23T13:17:53Z</time>
      </trkpt>
      <trkpt lat="46.50703" lon="5.67207">
        <ele>491</ele>
        <time>2020-09-23T13:17:56Z</time>
      </trkpt>
      <trkpt lat="46.50705" lon="5.67201">
        <ele>490.3</ele>
        <time>2020-09-23T13:18:00Z</time>
      </trkpt>
      <trkpt lat="46.50709" lon="5.67197">
        <ele>489.6</ele>
        <time>2020-09-23T13:18:06Z</time>
      </trkpt>
      <trkpt lat="46.50713" lon="5.67193">
        <ele>489</ele>
        <time>2020-09-23T13:18:12Z</time>
      </trkpt>
      <trkpt lat="46.50715" lon="5.67187">
        <ele>488.6</ele>
        <time>2020-09-23T13:18:17Z</time>
      </trkpt>
      <trkpt lat="46.50716" lon="5.67177">
        <ele>488.2</ele>
        <time>2020-09-23T13:18:22Z</time>
      </trkpt>
      <trkpt lat="46.50718" lon="5.6717">
        <ele>487.9</ele>
        <time>2020-09-23T13:18:26Z</time>
      </trkpt>
      <trkpt lat="46.50722" lon="5.67165">
        <ele>487.2</ele>
        <time>2020-09-23T13:18:33Z</time>
      </trkpt>
      <trkpt lat="46.5072" lon="5.67157">
        <ele>487</ele>
        <time>2020-09-23T13:18:36Z</time>
      </trkpt>
      <trkpt lat="46.50721" lon="5.6715">
        <ele>486.6</ele>
        <time>2020-09-23T13:18:40Z</time>
      </trkpt>
      <trkpt lat="46.50724" lon="5.67146">
        <ele>486.2</ele>
        <time>2020-09-23T13:18:45Z</time>
      </trkpt>
      <trkpt lat="46.50728" lon="5.67141">
        <ele>485.7</ele>
        <time>2020-09-23T13:18:51Z</time>
      </trkpt>
      <trkpt lat="46.50731" lon="5.67136">
        <ele>485.3</ele>
        <time>2020-09-23T13:18:55Z</time>
      </trkpt>
      <trkpt lat="46.50734" lon="5.67131">
        <ele>485</ele>
        <time>2020-09-23T13:18:59Z</time>
      </trkpt>
      <trkpt lat="46.50738" lon="5.67125">
        <ele>484.9</ele>
        <time>2020-09-23T13:19:03Z</time>
      </trkpt>
      <trkpt lat="46.50739" lon="5.67119">
        <ele>484.6</ele>
        <time>2020-09-23T13:19:08Z</time>
      </trkpt>
      <trkpt lat="46.5074" lon="5.67112">
        <ele>484.4</ele>
        <time>2020-09-23T13:19:15Z</time>
      </trkpt>
      <trkpt lat="46.50743" lon="5.67105">
        <ele>484.3</ele>
        <time>2020-09-23T13:19:20Z</time>
      </trkpt>
      <trkpt lat="46.50746" lon="5.67099">
        <ele>484</ele>
        <time>2020-09-23T13:19:26Z</time>
      </trkpt>
      <trkpt lat="46.50747" lon="5.67092">
        <ele>483.7</ele>
        <time>2020-09-23T13:19:32Z</time>
      </trkpt>
      <trkpt lat="46.5075" lon="5.67085">
        <ele>483.1</ele>
        <time>2020-09-23T13:19:37Z</time>
      </trkpt>
      <trkpt lat="46.50754" lon="5.67079">
        <ele>482.4</ele>
        <time>2020-09-23T13:19:42Z</time>
      </trkpt>
      <trkpt lat="46.50759" lon="5.67074">
        <ele>482</ele>
        <time>2020-09-23T13:19:46Z</time>
      </trkpt>
      <trkpt lat="46.50763" lon="5.6707">
        <ele>481.2</ele>
        <time>2020-09-23T13:19:51Z</time>
      </trkpt>
      <trkpt lat="46.50766" lon="5.67065">
        <ele>480.6</ele>
        <time>2020-09-23T13:19:56Z</time>
      </trkpt>
      <trkpt lat="46.50769" lon="5.67059">
        <ele>479.8</ele>
        <time>2020-09-23T13:20:02Z</time>
      </trkpt>
      <trkpt lat="46.50771" lon="5.67052">
        <ele>478.9</ele>
        <time>2020-09-23T13:20:08Z</time>
      </trkpt>
      <trkpt lat="46.50775" lon="5.67046">
        <ele>478</ele>
        <time>2020-09-23T13:20:14Z</time>
      </trkpt>
      <trkpt lat="46.50779" lon="5.67039">
        <ele>476.1</ele>
        <time>2020-09-23T13:20:24Z</time>
      </trkpt>
      <trkpt lat="46.50783" lon="5.67032">
        <ele>475.1</ele>
        <time>2020-09-23T13:20:28Z</time>
      </trkpt>
      <trkpt lat="46.50783" lon="5.67025">
        <ele>472.2</ele>
        <time>2020-09-23T13:20:36Z</time>
      </trkpt>
      <trkpt lat="46.50785" lon="5.6702">
        <ele>470.2</ele>
        <time>2020-09-23T13:20:43Z</time>
      </trkpt>
      <trkpt lat="46.50788" lon="5.67014">
        <ele>468</ele>
        <time>2020-09-23T13:20:51Z</time>
      </trkpt>
      <trkpt lat="46.50793" lon="5.6701">
        <ele>466.4</ele>
        <time>2020-09-23T13:20:59Z</time>
      </trkpt>
      <trkpt lat="46.50796" lon="5.67006">
        <ele>465.8</ele>
        <time>2020-09-23T13:21:03Z</time>
      </trkpt>
      <trkpt lat="46.508" lon="5.67001">
        <ele>465.3</ele>
        <time>2020-09-23T13:21:07Z</time>
      </trkpt>
      <trkpt lat="46.50803" lon="5.66995">
        <ele>464.6</ele>
        <time>2020-09-23T13:21:12Z</time>
      </trkpt>
      <trkpt lat="46.50808" lon="5.66991">
        <ele>463.9</ele>
        <time>2020-09-23T13:21:16Z</time>
      </trkpt>
      <trkpt lat="46.50813" lon="5.66986">
        <ele>463.4</ele>
        <time>2020-09-23T13:21:20Z</time>
      </trkpt>
      <trkpt lat="46.50817" lon="5.66984">
        <ele>463.1</ele>
        <time>2020-09-23T13:21:23Z</time>
      </trkpt>
      <trkpt lat="46.50821" lon="5.6698">
        <ele>462.2</ele>
        <time>2020-09-23T13:21:30Z</time>
      </trkpt>
      <trkpt lat="46.50825" lon="5.66975">
        <ele>461.8</ele>
        <time>2020-09-23T13:21:36Z</time>
      </trkpt>
      <trkpt lat="46.50829" lon="5.6697">
        <ele>461.6</ele>
        <time>2020-09-23T13:21:41Z</time>
      </trkpt>
      <trkpt lat="46.50833" lon="5.66967">
        <ele>461.4</ele>
        <time>2020-09-23T13:21:46Z</time>
      </trkpt>
      <trkpt lat="46.50841" lon="5.66962">
        <ele>464.6</ele>
        <time>2020-09-23T13:21:53Z</time>
      </trkpt>
      <trkpt lat="46.50845" lon="5.6696">
        <ele>467</ele>
        <time>2020-09-23T13:21:56Z</time>
      </trkpt>
      <trkpt lat="46.50851" lon="5.66957">
        <ele>471.2</ele>
        <time>2020-09-23T13:22:10Z</time>
      </trkpt>
      <trkpt lat="46.50856" lon="5.66955">
        <ele>471.6</ele>
        <time>2020-09-23T13:22:16Z</time>
      </trkpt>
      <trkpt lat="46.5086" lon="5.66951">
        <ele>471.8</ele>
        <time>2020-09-23T13:22:23Z</time>
      </trkpt>
      <trkpt lat="46.50865" lon="5.6695">
        <ele>471.9</ele>
        <time>2020-09-23T13:22:29Z</time>
      </trkpt>
      <trkpt lat="46.5087" lon="5.66949">
        <ele>471.8</ele>
        <time>2020-09-23T13:22:34Z</time>
      </trkpt>
      <trkpt lat="46.50874" lon="5.66946">
        <ele>471.8</ele>
        <time>2020-09-23T13:22:39Z</time>
      </trkpt>
      <trkpt lat="46.50879" lon="5.66944">
        <ele>471.5</ele>
        <time>2020-09-23T13:22:44Z</time>
      </trkpt>
      <trkpt lat="46.50884" lon="5.66941">
        <ele>470.8</ele>
        <time>2020-09-23T13:22:49Z</time>
      </trkpt>
      <trkpt lat="46.50889" lon="5.66938">
        <ele>469.7</ele>
        <time>2020-09-23T13:22:53Z</time>
      </trkpt>
      <trkpt lat="46.50894" lon="5.66935">
        <ele>468.8</ele>
        <time>2020-09-23T13:22:57Z</time>
      </trkpt>
      <trkpt lat="46.50899" lon="5.66933">
        <ele>468</ele>
        <time>2020-09-23T13:23:01Z</time>
      </trkpt>
      <trkpt lat="46.50903" lon="5.66931">
        <ele>467.2</ele>
        <time>2020-09-23T13:23:05Z</time>
      </trkpt>
      <trkpt lat="46.50907" lon="5.66927">
        <ele>466.5</ele>
        <time>2020-09-23T13:23:10Z</time>
      </trkpt>
      <trkpt lat="46.50911" lon="5.66924">
        <ele>466.1</ele>
        <time>2020-09-23T13:23:15Z</time>
      </trkpt>
      <trkpt lat="46.50915" lon="5.66921">
        <ele>466.1</ele>
        <time>2020-09-23T13:23:19Z</time>
      </trkpt>
      <trkpt lat="46.50919" lon="5.66916">
        <ele>466.1</ele>
        <time>2020-09-23T13:23:23Z</time>
      </trkpt>
      <trkpt lat="46.50923" lon="5.66912">
        <ele>466.2</ele>
        <time>2020-09-23T13:23:29Z</time>
      </trkpt>
      <trkpt lat="46.50928" lon="5.66909">
        <ele>466</ele>
        <time>2020-09-23T13:23:36Z</time>
      </trkpt>
      <trkpt lat="46.50933" lon="5.66908">
        <ele>464.9</ele>
        <time>2020-09-23T13:23:44Z</time>
      </trkpt>
      <trkpt lat="46.50937" lon="5.66903">
        <ele>463</ele>
        <time>2020-09-23T13:23:50Z</time>
      </trkpt>
      <trkpt lat="46.50941" lon="5.669">
        <ele>460.4</ele>
        <time>2020-09-23T13:23:56Z</time>
      </trkpt>
      <trkpt lat="46.50944" lon="5.66895">
        <ele>458.2</ele>
        <time>2020-09-23T13:24:01Z</time>
      </trkpt>
      <trkpt lat="46.50959" lon="5.66893">
        <ele>461.1</ele>
        <time>2020-09-23T13:24:06Z</time>
      </trkpt>
      <trkpt lat="46.50967" lon="5.66892">
        <ele>463.9</ele>
        <time>2020-09-23T13:24:09Z</time>
      </trkpt>
      <trkpt lat="46.50971" lon="5.66888">
        <ele>466.6</ele>
        <time>2020-09-23T13:24:16Z</time>
      </trkpt>
      <trkpt lat="46.50976" lon="5.66886">
        <ele>465.7</ele>
        <time>2020-09-23T13:24:21Z</time>
      </trkpt>
      <trkpt lat="46.5098" lon="5.66882">
        <ele>464.5</ele>
        <time>2020-09-23T13:24:26Z</time>
      </trkpt>
      <trkpt lat="46.50985" lon="5.66879">
        <ele>463.1</ele>
        <time>2020-09-23T13:24:31Z</time>
      </trkpt>
      <trkpt lat="46.5099" lon="5.66878">
        <ele>461.8</ele>
        <time>2020-09-23T13:24:38Z</time>
      </trkpt>
      <trkpt lat="46.50995" lon="5.66877">
        <ele>460.7</ele>
        <time>2020-09-23T13:24:45Z</time>
      </trkpt>
      <trkpt lat="46.50999" lon="5.66874">
        <ele>460.2</ele>
        <time>2020-09-23T13:24:51Z</time>
      </trkpt>
      <trkpt lat="46.51004" lon="5.66873">
        <ele>459.5</ele>
        <time>2020-09-23T13:25:00Z</time>
      </trkpt>
      <trkpt lat="46.51009" lon="5.66872">
        <ele>459.3</ele>
        <time>2020-09-23T13:25:04Z</time>
      </trkpt>
      <trkpt lat="46.51014" lon="5.66871">
        <ele>458.8</ele>
        <time>2020-09-23T13:25:09Z</time>
      </trkpt>
      <trkpt lat="46.51019" lon="5.6687">
        <ele>458.5</ele>
        <time>2020-09-23T13:25:14Z</time>
      </trkpt>
      <trkpt lat="46.51023" lon="5.66868">
        <ele>458.2</ele>
        <time>2020-09-23T13:25:19Z</time>
      </trkpt>
      <trkpt lat="46.51028" lon="5.66867">
        <ele>457.8</ele>
        <time>2020-09-23T13:25:25Z</time>
      </trkpt>
      <trkpt lat="46.51032" lon="5.66863">
        <ele>457.5</ele>
        <time>2020-09-23T13:25:29Z</time>
      </trkpt>
      <trkpt lat="46.51038" lon="5.66862">
        <ele>456.9</ele>
        <time>2020-09-23T13:25:33Z</time>
      </trkpt>
      <trkpt lat="46.51044" lon="5.66861">
        <ele>456.5</ele>
        <time>2020-09-23T13:25:36Z</time>
      </trkpt>
      <trkpt lat="46.5105" lon="5.6686">
        <ele>455.9</ele>
        <time>2020-09-23T13:25:40Z</time>
      </trkpt>
      <trkpt lat="46.51055" lon="5.66858">
        <ele>455</ele>
        <time>2020-09-23T13:25:44Z</time>
      </trkpt>
      <trkpt lat="46.5106" lon="5.66857">
        <ele>454.2</ele>
        <time>2020-09-23T13:25:49Z</time>
      </trkpt>
      <trkpt lat="46.51065" lon="5.66856">
        <ele>453.3</ele>
        <time>2020-09-23T13:25:53Z</time>
      </trkpt>
      <trkpt lat="46.5107" lon="5.66855">
        <ele>452.7</ele>
        <time>2020-09-23T13:25:57Z</time>
      </trkpt>
      <trkpt lat="46.51075" lon="5.66856">
        <ele>452.1</ele>
        <time>2020-09-23T13:26:02Z</time>
      </trkpt>
      <trkpt lat="46.5108" lon="5.66856">
        <ele>450.4</ele>
        <time>2020-09-23T13:26:11Z</time>
      </trkpt>
      <trkpt lat="46.51085" lon="5.66858">
        <ele>449.3</ele>
        <time>2020-09-23T13:26:18Z</time>
      </trkpt>
      <trkpt lat="46.5109" lon="5.66859">
        <ele>448.4</ele>
        <time>2020-09-23T13:26:24Z</time>
      </trkpt>
      <trkpt lat="46.51096" lon="5.66857">
        <ele>447.5</ele>
        <time>2020-09-23T13:26:29Z</time>
      </trkpt>
      <trkpt lat="46.511" lon="5.66856">
        <ele>446.8</ele>
        <time>2020-09-23T13:26:33Z</time>
      </trkpt>
      <trkpt lat="46.51105" lon="5.66854">
        <ele>446.1</ele>
        <time>2020-09-23T13:26:37Z</time>
      </trkpt>
      <trkpt lat="46.5111" lon="5.66852">
        <ele>445.5</ele>
        <time>2020-09-23T13:26:41Z</time>
      </trkpt>
      <trkpt lat="46.51115" lon="5.66851">
        <ele>444.9</ele>
        <time>2020-09-23T13:26:46Z</time>
      </trkpt>
      <trkpt lat="46.5112" lon="5.66851">
        <ele>444.4</ele>
        <time>2020-09-23T13:26:50Z</time>
      </trkpt>
      <trkpt lat="46.51126" lon="5.66851">
        <ele>443.6</ele>
        <time>2020-09-23T13:26:55Z</time>
      </trkpt>
      <trkpt lat="46.5113" lon="5.66852">
        <ele>442.6</ele>
        <time>2020-09-23T13:27:00Z</time>
      </trkpt>
      <trkpt lat="46.51135" lon="5.66853">
        <ele>441.3</ele>
        <time>2020-09-23T13:27:06Z</time>
      </trkpt>
      <trkpt lat="46.5114" lon="5.66852">
        <ele>439.7</ele>
        <time>2020-09-23T13:27:12Z</time>
      </trkpt>
      <trkpt lat="46.51145" lon="5.6685">
        <ele>438.6</ele>
        <time>2020-09-23T13:27:17Z</time>
      </trkpt>
      <trkpt lat="46.5115" lon="5.66847">
        <ele>437.4</ele>
        <time>2020-09-23T13:27:23Z</time>
      </trkpt>
      <trkpt lat="46.51155" lon="5.66847">
        <ele>435.9</ele>
        <time>2020-09-23T13:27:30Z</time>
      </trkpt>
      <trkpt lat="46.5116" lon="5.6685">
        <ele>434.6</ele>
        <time>2020-09-23T13:27:36Z</time>
      </trkpt>
      <trkpt lat="46.51164" lon="5.66853">
        <ele>433.8</ele>
        <time>2020-09-23T13:27:43Z</time>
      </trkpt>
      <trkpt lat="46.51169" lon="5.66856">
        <ele>433.4</ele>
        <time>2020-09-23T13:27:48Z</time>
      </trkpt>
      <trkpt lat="46.51173" lon="5.66857">
        <ele>433.3</ele>
        <time>2020-09-23T13:27:51Z</time>
      </trkpt>
      <trkpt lat="46.51179" lon="5.66858">
        <ele>433.2</ele>
        <time>2020-09-23T13:27:54Z</time>
      </trkpt>
      <trkpt lat="46.51184" lon="5.66858">
        <ele>433.3</ele>
        <time>2020-09-23T13:27:57Z</time>
      </trkpt>
      <trkpt lat="46.51189" lon="5.66858">
        <ele>433.5</ele>
        <time>2020-09-23T13:28:01Z</time>
      </trkpt>
      <trkpt lat="46.51193" lon="5.66863">
        <ele>433.7</ele>
        <time>2020-09-23T13:28:08Z</time>
      </trkpt>
      <trkpt lat="46.51196" lon="5.66868">
        <ele>433.8</ele>
        <time>2020-09-23T13:28:12Z</time>
      </trkpt>
      <trkpt lat="46.51199" lon="5.66872">
        <ele>433.6</ele>
        <time>2020-09-23T13:28:16Z</time>
      </trkpt>
      <trkpt lat="46.51204" lon="5.66876">
        <ele>433.6</ele>
        <time>2020-09-23T13:28:20Z</time>
      </trkpt>
      <trkpt lat="46.51208" lon="5.66888">
        <ele>439</ele>
        <time>2020-09-23T13:28:24Z</time>
      </trkpt>
      <trkpt lat="46.5121" lon="5.66897">
        <ele>442.8</ele>
        <time>2020-09-23T13:28:27Z</time>
      </trkpt>
      <trkpt lat="46.51212" lon="5.66903">
        <ele>447.6</ele>
        <time>2020-09-23T13:28:33Z</time>
      </trkpt>
      <trkpt lat="46.51217" lon="5.66907">
        <ele>449.2</ele>
        <time>2020-09-23T13:28:42Z</time>
      </trkpt>
      <trkpt lat="46.51226" lon="5.66912">
        <ele>451.9</ele>
        <time>2020-09-23T13:28:45Z</time>
      </trkpt>
      <trkpt lat="46.51231" lon="5.66911">
        <ele>453.4</ele>
        <time>2020-09-23T13:28:49Z</time>
      </trkpt>
      <trkpt lat="46.51236" lon="5.6691">
        <ele>453.8</ele>
        <time>2020-09-23T13:28:53Z</time>
      </trkpt>
      <trkpt lat="46.51241" lon="5.6691">
        <ele>453.5</ele>
        <time>2020-09-23T13:28:58Z</time>
      </trkpt>
      <trkpt lat="46.51244" lon="5.66917">
        <ele>454.3</ele>
        <time>2020-09-23T13:29:04Z</time>
      </trkpt>
      <trkpt lat="46.51246" lon="5.66923">
        <ele>455.3</ele>
        <time>2020-09-23T13:29:08Z</time>
      </trkpt>
      <trkpt lat="46.51252" lon="5.66924">
        <ele>455.8</ele>
        <time>2020-09-23T13:29:14Z</time>
      </trkpt>
      <trkpt lat="46.51257" lon="5.66925">
        <ele>454.9</ele>
        <time>2020-09-23T13:29:19Z</time>
      </trkpt>
      <trkpt lat="46.51261" lon="5.66926">
        <ele>453.5</ele>
        <time>2020-09-23T13:29:25Z</time>
      </trkpt>
      <trkpt lat="46.51266" lon="5.66928">
        <ele>451.7</ele>
        <time>2020-09-23T13:29:30Z</time>
      </trkpt>
      <trkpt lat="46.5127" lon="5.66931">
        <ele>450.5</ele>
        <time>2020-09-23T13:29:35Z</time>
      </trkpt>
      <trkpt lat="46.51275" lon="5.66933">
        <ele>448.7</ele>
        <time>2020-09-23T13:29:42Z</time>
      </trkpt>
      <trkpt lat="46.5128" lon="5.66934">
        <ele>446.9</ele>
        <time>2020-09-23T13:29:48Z</time>
      </trkpt>
      <trkpt lat="46.51283" lon="5.66941">
        <ele>445</ele>
        <time>2020-09-23T13:29:54Z</time>
      </trkpt>
      <trkpt lat="46.51285" lon="5.66948">
        <ele>443.3</ele>
        <time>2020-09-23T13:29:59Z</time>
      </trkpt>
      <trkpt lat="46.51288" lon="5.66953">
        <ele>442</ele>
        <time>2020-09-23T13:30:04Z</time>
      </trkpt>
      <trkpt lat="46.51292" lon="5.66957">
        <ele>442.1</ele>
        <time>2020-09-23T13:30:08Z</time>
      </trkpt>
      <trkpt lat="46.51297" lon="5.66958">
        <ele>442.3</ele>
        <time>2020-09-23T13:30:12Z</time>
      </trkpt>
      <trkpt lat="46.51302" lon="5.66958">
        <ele>442.5</ele>
        <time>2020-09-23T13:30:17Z</time>
      </trkpt>
      <trkpt lat="46.51307" lon="5.66958">
        <ele>442.3</ele>
        <time>2020-09-23T13:30:23Z</time>
      </trkpt>
      <trkpt lat="46.51311" lon="5.66959">
        <ele>441.8</ele>
        <time>2020-09-23T13:30:28Z</time>
      </trkpt>
      <trkpt lat="46.51316" lon="5.66961">
        <ele>441</ele>
        <time>2020-09-23T13:30:33Z</time>
      </trkpt>
      <trkpt lat="46.51324" lon="5.6697">
        <ele>442</ele>
        <time>2020-09-23T13:30:36Z</time>
      </trkpt>
      <trkpt lat="46.51328" lon="5.66976">
        <ele>443</ele>
        <time>2020-09-23T13:30:39Z</time>
      </trkpt>
      <trkpt lat="46.51332" lon="5.66981">
        <ele>445.4</ele>
        <time>2020-09-23T13:30:46Z</time>
      </trkpt>
      <trkpt lat="46.51336" lon="5.66985">
        <ele>445.9</ele>
        <time>2020-09-23T13:30:53Z</time>
      </trkpt>
      <trkpt lat="46.51339" lon="5.66989">
        <ele>445.7</ele>
        <time>2020-09-23T13:30:59Z</time>
      </trkpt>
      <trkpt lat="46.51343" lon="5.66993">
        <ele>445.9</ele>
        <time>2020-09-23T13:31:06Z</time>
      </trkpt>
      <trkpt lat="46.51348" lon="5.66997">
        <ele>446.2</ele>
        <time>2020-09-23T13:31:11Z</time>
      </trkpt>
      <trkpt lat="46.51356" lon="5.67003">
        <ele>447.6</ele>
        <time>2020-09-23T13:31:15Z</time>
      </trkpt>
      <trkpt lat="46.51361" lon="5.67006">
        <ele>448.8</ele>
        <time>2020-09-23T13:31:18Z</time>
      </trkpt>
      <trkpt lat="46.51365" lon="5.6701">
        <ele>450.6</ele>
        <time>2020-09-23T13:31:23Z</time>
      </trkpt>
      <trkpt lat="46.51369" lon="5.67016">
        <ele>451.6</ele>
        <time>2020-09-23T13:31:29Z</time>
      </trkpt>
      <trkpt lat="46.51373" lon="5.6702">
        <ele>451.9</ele>
        <time>2020-09-23T13:31:34Z</time>
      </trkpt>
      <trkpt lat="46.51376" lon="5.67026">
        <ele>451.7</ele>
        <time>2020-09-23T13:31:39Z</time>
      </trkpt>
      <trkpt lat="46.5138" lon="5.6703">
        <ele>450.9</ele>
        <time>2020-09-23T13:31:45Z</time>
      </trkpt>
      <trkpt lat="46.51383" lon="5.67035">
        <ele>450.2</ele>
        <time>2020-09-23T13:31:49Z</time>
      </trkpt>
      <trkpt lat="46.51387" lon="5.6704">
        <ele>449.6</ele>
        <time>2020-09-23T13:31:54Z</time>
      </trkpt>
      <trkpt lat="46.51389" lon="5.67046">
        <ele>448.7</ele>
        <time>2020-09-23T13:32:02Z</time>
      </trkpt>
      <trkpt lat="46.51392" lon="5.67052">
        <ele>448</ele>
        <time>2020-09-23T13:32:08Z</time>
      </trkpt>
      <trkpt lat="46.51399" lon="5.67059">
        <ele>447.9</ele>
        <time>2020-09-23T13:32:11Z</time>
      </trkpt>
      <trkpt lat="46.51402" lon="5.67063">
        <ele>447.5</ele>
        <time>2020-09-23T13:32:17Z</time>
      </trkpt>
      <trkpt lat="46.51406" lon="5.67069">
        <ele>446</ele>
        <time>2020-09-23T13:32:27Z</time>
      </trkpt>
      <trkpt lat="46.51414" lon="5.67076">
        <ele>446.6</ele>
        <time>2020-09-23T13:32:34Z</time>
      </trkpt>
      <trkpt lat="46.51419" lon="5.67081">
        <ele>447.7</ele>
        <time>2020-09-23T13:32:37Z</time>
      </trkpt>
      <trkpt lat="46.51423" lon="5.67083">
        <ele>448.9</ele>
        <time>2020-09-23T13:32:42Z</time>
      </trkpt>
      <trkpt lat="46.51427" lon="5.67088">
        <ele>449.5</ele>
        <time>2020-09-23T13:32:46Z</time>
      </trkpt>
      <trkpt lat="46.5143" lon="5.67094">
        <ele>450.4</ele>
        <time>2020-09-23T13:32:51Z</time>
      </trkpt>
      <trkpt lat="46.51435" lon="5.67097">
        <ele>450.5</ele>
        <time>2020-09-23T13:32:56Z</time>
      </trkpt>
      <trkpt lat="46.51438" lon="5.67101">
        <ele>449.3</ele>
        <time>2020-09-23T13:33:02Z</time>
      </trkpt>
      <trkpt lat="46.51442" lon="5.67106">
        <ele>447.9</ele>
        <time>2020-09-23T13:33:06Z</time>
      </trkpt>
      <trkpt lat="46.51445" lon="5.67111">
        <ele>446.6</ele>
        <time>2020-09-23T13:33:11Z</time>
      </trkpt>
      <trkpt lat="46.51448" lon="5.67115">
        <ele>445.5</ele>
        <time>2020-09-23T13:33:16Z</time>
      </trkpt>
      <trkpt lat="46.51452" lon="5.6712">
        <ele>444.2</ele>
        <time>2020-09-23T13:33:22Z</time>
      </trkpt>
      <trkpt lat="46.51457" lon="5.67124">
        <ele>443.7</ele>
        <time>2020-09-23T13:33:29Z</time>
      </trkpt>
      <trkpt lat="46.51461" lon="5.67128">
        <ele>443.1</ele>
        <time>2020-09-23T13:33:34Z</time>
      </trkpt>
      <trkpt lat="46.51464" lon="5.67132">
        <ele>442.2</ele>
        <time>2020-09-23T13:33:38Z</time>
      </trkpt>
      <trkpt lat="46.51469" lon="5.67136">
        <ele>441.1</ele>
        <time>2020-09-23T13:33:43Z</time>
      </trkpt>
      <trkpt lat="46.51474" lon="5.67139">
        <ele>440.2</ele>
        <time>2020-09-23T13:33:48Z</time>
      </trkpt>
      <trkpt lat="46.51478" lon="5.67143">
        <ele>439.2</ele>
        <time>2020-09-23T13:33:52Z</time>
      </trkpt>
      <trkpt lat="46.51482" lon="5.67148">
        <ele>438</ele>
        <time>2020-09-23T13:33:57Z</time>
      </trkpt>
      <trkpt lat="46.51486" lon="5.67152">
        <ele>436.8</ele>
        <time>2020-09-23T13:34:03Z</time>
      </trkpt>
      <trkpt lat="46.5149" lon="5.67156">
        <ele>436</ele>
        <time>2020-09-23T13:34:08Z</time>
      </trkpt>
      <trkpt lat="46.51494" lon="5.67163">
        <ele>437.4</ele>
        <time>2020-09-23T13:34:11Z</time>
      </trkpt>
      <trkpt lat="46.51497" lon="5.67169">
        <ele>438.3</ele>
        <time>2020-09-23T13:34:14Z</time>
      </trkpt>
      <trkpt lat="46.515" lon="5.67175">
        <ele>439.3</ele>
        <time>2020-09-23T13:34:18Z</time>
      </trkpt>
      <trkpt lat="46.51503" lon="5.6718">
        <ele>439.6</ele>
        <time>2020-09-23T13:34:22Z</time>
      </trkpt>
      <trkpt lat="46.51507" lon="5.67184">
        <ele>439.3</ele>
        <time>2020-09-23T13:34:28Z</time>
      </trkpt>
      <trkpt lat="46.51509" lon="5.67192">
        <ele>440.1</ele>
        <time>2020-09-23T13:34:33Z</time>
      </trkpt>
      <trkpt lat="46.51509" lon="5.67199">
        <ele>440.9</ele>
        <time>2020-09-23T13:34:36Z</time>
      </trkpt>
      <trkpt lat="46.5151" lon="5.67206">
        <ele>442</ele>
        <time>2020-09-23T13:34:41Z</time>
      </trkpt>
      <trkpt lat="46.51513" lon="5.67213">
        <ele>442.4</ele>
        <time>2020-09-23T13:34:48Z</time>
      </trkpt>
      <trkpt lat="46.51516" lon="5.67219">
        <ele>442.2</ele>
        <time>2020-09-23T13:34:54Z</time>
      </trkpt>
      <trkpt lat="46.51519" lon="5.67225">
        <ele>441.9</ele>
        <time>2020-09-23T13:34:58Z</time>
      </trkpt>
      <trkpt lat="46.51523" lon="5.67229">
        <ele>443.8</ele>
        <time>2020-09-23T13:35:01Z</time>
      </trkpt>
      <trkpt lat="46.51527" lon="5.67233">
        <ele>445.9</ele>
        <time>2020-09-23T13:35:05Z</time>
      </trkpt>
      <trkpt lat="46.51531" lon="5.67238">
        <ele>448</ele>
        <time>2020-09-23T13:35:12Z</time>
      </trkpt>
      <trkpt lat="46.51535" lon="5.67243">
        <ele>449.1</ele>
        <time>2020-09-23T13:35:18Z</time>
      </trkpt>
      <trkpt lat="46.51538" lon="5.67248">
        <ele>449.6</ele>
        <time>2020-09-23T13:35:24Z</time>
      </trkpt>
      <trkpt lat="46.5154" lon="5.67255">
        <ele>449.8</ele>
        <time>2020-09-23T13:35:30Z</time>
      </trkpt>
      <trkpt lat="46.51542" lon="5.67262">
        <ele>449.9</ele>
        <time>2020-09-23T13:35:37Z</time>
      </trkpt>
      <trkpt lat="46.51545" lon="5.67266">
        <ele>449.7</ele>
        <time>2020-09-23T13:35:43Z</time>
      </trkpt>
      <trkpt lat="46.51548" lon="5.67271">
        <ele>449.5</ele>
        <time>2020-09-23T13:35:48Z</time>
      </trkpt>
      <trkpt lat="46.51549" lon="5.67278">
        <ele>448.9</ele>
        <time>2020-09-23T13:36:01Z</time>
      </trkpt>
      <trkpt lat="46.51552" lon="5.67284">
        <ele>448.9</ele>
        <time>2020-09-23T13:36:07Z</time>
      </trkpt>
      <trkpt lat="46.51556" lon="5.67289">
        <ele>448.9</ele>
        <time>2020-09-23T13:36:13Z</time>
      </trkpt>
      <trkpt lat="46.51559" lon="5.67295">
        <ele>449</ele>
        <time>2020-09-23T13:36:19Z</time>
      </trkpt>
      <trkpt lat="46.51562" lon="5.673">
        <ele>449.2</ele>
        <time>2020-09-23T13:36:24Z</time>
      </trkpt>
      <trkpt lat="46.51565" lon="5.67305">
        <ele>449.4</ele>
        <time>2020-09-23T13:36:30Z</time>
      </trkpt>
      <trkpt lat="46.51569" lon="5.67311">
        <ele>449.4</ele>
        <time>2020-09-23T13:36:35Z</time>
      </trkpt>
      <trkpt lat="46.51573" lon="5.67315">
        <ele>448.9</ele>
        <time>2020-09-23T13:36:41Z</time>
      </trkpt>
      <trkpt lat="46.51577" lon="5.6732">
        <ele>448.3</ele>
        <time>2020-09-23T13:36:46Z</time>
      </trkpt>
      <trkpt lat="46.51581" lon="5.67325">
        <ele>447.2</ele>
        <time>2020-09-23T13:36:52Z</time>
      </trkpt>
      <trkpt lat="46.51583" lon="5.67331">
        <ele>446.2</ele>
        <time>2020-09-23T13:36:57Z</time>
      </trkpt>
      <trkpt lat="46.51593" lon="5.67332">
        <ele>444.8</ele>
        <time>2020-09-23T13:37:00Z</time>
      </trkpt>
      <trkpt lat="46.51598" lon="5.67333">
        <ele>443.5</ele>
        <time>2020-09-23T13:37:04Z</time>
      </trkpt>
      <trkpt lat="46.51603" lon="5.67334">
        <ele>440.6</ele>
        <time>2020-09-23T13:37:12Z</time>
      </trkpt>
      <trkpt lat="46.51608" lon="5.67336">
        <ele>438.5</ele>
        <time>2020-09-23T13:37:18Z</time>
      </trkpt>
      <trkpt lat="46.51612" lon="5.67342">
        <ele>436.8</ele>
        <time>2020-09-23T13:37:23Z</time>
      </trkpt>
      <trkpt lat="46.51616" lon="5.67344">
        <ele>435.3</ele>
        <time>2020-09-23T13:37:28Z</time>
      </trkpt>
      <trkpt lat="46.5162" lon="5.67348">
        <ele>433.9</ele>
        <time>2020-09-23T13:37:33Z</time>
      </trkpt>
      <trkpt lat="46.51624" lon="5.67352">
        <ele>432.5</ele>
        <time>2020-09-23T13:37:38Z</time>
      </trkpt>
      <trkpt lat="46.51629" lon="5.67354">
        <ele>431.4</ele>
        <time>2020-09-23T13:37:43Z</time>
      </trkpt>
      <trkpt lat="46.51634" lon="5.67353">
        <ele>429.5</ele>
        <time>2020-09-23T13:37:49Z</time>
      </trkpt>
      <trkpt lat="46.51639" lon="5.67352">
        <ele>427.7</ele>
        <time>2020-09-23T13:37:55Z</time>
      </trkpt>
      <trkpt lat="46.51644" lon="5.67354">
        <ele>428.1</ele>
        <time>2020-09-23T13:37:59Z</time>
      </trkpt>
      <trkpt lat="46.51647" lon="5.67358">
        <ele>429.3</ele>
        <time>2020-09-23T13:38:02Z</time>
      </trkpt>
      <trkpt lat="46.51651" lon="5.67363">
        <ele>431.4</ele>
        <time>2020-09-23T13:38:11Z</time>
      </trkpt>
      <trkpt lat="46.51654" lon="5.67366">
        <ele>432</ele>
        <time>2020-09-23T13:38:17Z</time>
      </trkpt>
      <trkpt lat="46.51658" lon="5.67371">
        <ele>432.5</ele>
        <time>2020-09-23T13:38:23Z</time>
      </trkpt>
      <trkpt lat="46.51662" lon="5.67372">
        <ele>434.7</ele>
        <time>2020-09-23T13:38:35Z</time>
      </trkpt>
      <trkpt lat="46.51667" lon="5.67371">
        <ele>435.2</ele>
        <time>2020-09-23T13:38:44Z</time>
      </trkpt>
      <trkpt lat="46.51672" lon="5.67369">
        <ele>435</ele>
        <time>2020-09-23T13:38:50Z</time>
      </trkpt>
      <trkpt lat="46.51677" lon="5.67367">
        <ele>434.6</ele>
        <time>2020-09-23T13:38:57Z</time>
      </trkpt>
      <trkpt lat="46.51681" lon="5.67366">
        <ele>434.1</ele>
        <time>2020-09-23T13:39:01Z</time>
      </trkpt>
      <trkpt lat="46.51686" lon="5.67364">
        <ele>433.5</ele>
        <time>2020-09-23T13:39:06Z</time>
      </trkpt>
      <trkpt lat="46.51691" lon="5.67362">
        <ele>432.9</ele>
        <time>2020-09-23T13:39:11Z</time>
      </trkpt>
      <trkpt lat="46.51695" lon="5.6736">
        <ele>432.2</ele>
        <time>2020-09-23T13:39:17Z</time>
      </trkpt>
      <trkpt lat="46.51699" lon="5.67356">
        <ele>431.5</ele>
        <time>2020-09-23T13:39:24Z</time>
      </trkpt>
      <trkpt lat="46.51704" lon="5.67358">
        <ele>430.1</ele>
        <time>2020-09-23T13:39:34Z</time>
      </trkpt>
      <trkpt lat="46.51708" lon="5.67356">
        <ele>430.8</ele>
        <time>2020-09-23T13:39:57Z</time>
      </trkpt>
      <trkpt lat="46.51708" lon="5.67349">
        <ele>431.6</ele>
        <time>2020-09-23T13:40:03Z</time>
      </trkpt>
      <trkpt lat="46.5171" lon="5.67343">
        <ele>432.5</ele>
        <time>2020-09-23T13:40:11Z</time>
      </trkpt>
      <trkpt lat="46.51714" lon="5.67339">
        <ele>432.9</ele>
        <time>2020-09-23T13:40:16Z</time>
      </trkpt>
      <trkpt lat="46.51717" lon="5.67335">
        <ele>433</ele>
        <time>2020-09-23T13:40:21Z</time>
      </trkpt>
      <trkpt lat="46.51722" lon="5.67335">
        <ele>433.2</ele>
        <time>2020-09-23T13:40:26Z</time>
      </trkpt>
      <trkpt lat="46.51727" lon="5.67336">
        <ele>433.3</ele>
        <time>2020-09-23T13:40:29Z</time>
      </trkpt>
      <trkpt lat="46.51732" lon="5.67338">
        <ele>432.9</ele>
        <time>2020-09-23T13:40:33Z</time>
      </trkpt>
      <trkpt lat="46.51737" lon="5.6734">
        <ele>432</ele>
        <time>2020-09-23T13:40:38Z</time>
      </trkpt>
      <trkpt lat="46.51742" lon="5.67338">
        <ele>430.9</ele>
        <time>2020-09-23T13:40:45Z</time>
      </trkpt>
      <trkpt lat="46.51746" lon="5.67336">
        <ele>429.8</ele>
        <time>2020-09-23T13:40:55Z</time>
      </trkpt>
      <trkpt lat="46.5175" lon="5.67332">
        <ele>429.6</ele>
        <time>2020-09-23T13:41:02Z</time>
      </trkpt>
      <trkpt lat="46.51753" lon="5.67327">
        <ele>429.3</ele>
        <time>2020-09-23T13:41:10Z</time>
      </trkpt>
      <trkpt lat="46.51756" lon="5.67321">
        <ele>428.8</ele>
        <time>2020-09-23T13:41:17Z</time>
      </trkpt>
      <trkpt lat="46.5176" lon="5.67318">
        <ele>428.5</ele>
        <time>2020-09-23T13:41:22Z</time>
      </trkpt>
      <trkpt lat="46.51764" lon="5.67312">
        <ele>428.2</ele>
        <time>2020-09-23T13:41:27Z</time>
      </trkpt>
      <trkpt lat="46.51767" lon="5.67308">
        <ele>428.1</ele>
        <time>2020-09-23T13:41:32Z</time>
      </trkpt>
      <trkpt lat="46.51771" lon="5.67303">
        <ele>427.9</ele>
        <time>2020-09-23T13:41:38Z</time>
      </trkpt>
      <trkpt lat="46.51775" lon="5.67298">
        <ele>427.6</ele>
        <time>2020-09-23T13:41:43Z</time>
      </trkpt>
      <trkpt lat="46.5178" lon="5.67293">
        <ele>427.4</ele>
        <time>2020-09-23T13:41:48Z</time>
      </trkpt>
      <trkpt lat="46.51784" lon="5.6729">
        <ele>427.5</ele>
        <time>2020-09-23T13:41:53Z</time>
      </trkpt>
      <trkpt lat="46.51788" lon="5.67286">
        <ele>427.7</ele>
        <time>2020-09-23T13:41:58Z</time>
      </trkpt>
      <trkpt lat="46.51792" lon="5.67285">
        <ele>427.6</ele>
        <time>2020-09-23T13:42:04Z</time>
      </trkpt>
      <trkpt lat="46.51798" lon="5.67284">
        <ele>427.5</ele>
        <time>2020-09-23T13:42:09Z</time>
      </trkpt>
      <trkpt lat="46.51803" lon="5.67281">
        <ele>427.3</ele>
        <time>2020-09-23T13:42:14Z</time>
      </trkpt>
      <trkpt lat="46.51807" lon="5.67279">
        <ele>427</ele>
        <time>2020-09-23T13:42:18Z</time>
      </trkpt>
      <trkpt lat="46.51812" lon="5.67277">
        <ele>426.6</ele>
        <time>2020-09-23T13:42:22Z</time>
      </trkpt>
      <trkpt lat="46.51817" lon="5.67276">
        <ele>426.1</ele>
        <time>2020-09-23T13:42:26Z</time>
      </trkpt>
      <trkpt lat="46.51821" lon="5.67273">
        <ele>425.6</ele>
        <time>2020-09-23T13:42:30Z</time>
      </trkpt>
      <trkpt lat="46.51825" lon="5.6727">
        <ele>425</ele>
        <time>2020-09-23T13:42:35Z</time>
      </trkpt>
      <trkpt lat="46.51829" lon="5.67265">
        <ele>425</ele>
        <time>2020-09-23T13:42:39Z</time>
      </trkpt>
      <trkpt lat="46.51834" lon="5.67262">
        <ele>424.7</ele>
        <time>2020-09-23T13:42:45Z</time>
      </trkpt>
      <trkpt lat="46.51838" lon="5.67259">
        <ele>425</ele>
        <time>2020-09-23T13:42:54Z</time>
      </trkpt>
      <trkpt lat="46.51842" lon="5.67255">
        <ele>426.1</ele>
        <time>2020-09-23T13:43:01Z</time>
      </trkpt>
      <trkpt lat="46.51846" lon="5.67252">
        <ele>427.7</ele>
        <time>2020-09-23T13:43:06Z</time>
      </trkpt>
      <trkpt lat="46.5185" lon="5.67248">
        <ele>428.9</ele>
        <time>2020-09-23T13:43:16Z</time>
      </trkpt>
      <trkpt lat="46.51854" lon="5.67244">
        <ele>429.8</ele>
        <time>2020-09-23T13:43:25Z</time>
      </trkpt>
      <trkpt lat="46.51858" lon="5.6724">
        <ele>430.2</ele>
        <time>2020-09-23T13:43:30Z</time>
      </trkpt>
      <trkpt lat="46.51863" lon="5.67239">
        <ele>432.3</ele>
        <time>2020-09-23T13:43:40Z</time>
      </trkpt>
      <trkpt lat="46.51868" lon="5.67238">
        <ele>433.4</ele>
        <time>2020-09-23T13:44:00Z</time>
      </trkpt>
      <trkpt lat="46.51872" lon="5.67241">
        <ele>435.4</ele>
        <time>2020-09-23T13:44:18Z</time>
      </trkpt>
      <trkpt lat="46.51872" lon="5.67234">
        <ele>437</ele>
        <time>2020-09-23T13:44:43Z</time>
      </trkpt>
      <trkpt lat="46.51877" lon="5.67231">
        <ele>440.1</ele>
        <time>2020-09-23T13:45:39Z</time>
      </trkpt>
      <trkpt lat="46.51882" lon="5.6723">
        <ele>443.8</ele>
        <time>2020-09-23T13:45:47Z</time>
      </trkpt>
      <trkpt lat="46.51886" lon="5.67227">
        <ele>445.8</ele>
        <time>2020-09-23T13:45:53Z</time>
      </trkpt>
      <trkpt lat="46.5189" lon="5.67224">
        <ele>447.5</ele>
        <time>2020-09-23T13:46:00Z</time>
      </trkpt>
      <trkpt lat="46.51894" lon="5.67219">
        <ele>447.1</ele>
        <time>2020-09-23T13:46:04Z</time>
      </trkpt>
      <trkpt lat="46.51898" lon="5.67217">
        <ele>446.2</ele>
        <time>2020-09-23T13:46:10Z</time>
      </trkpt>
      <trkpt lat="46.51903" lon="5.67215">
        <ele>444.4</ele>
        <time>2020-09-23T13:46:19Z</time>
      </trkpt>
      <trkpt lat="46.51908" lon="5.67212">
        <ele>443.3</ele>
        <time>2020-09-23T13:46:24Z</time>
      </trkpt>
      <trkpt lat="46.51914" lon="5.6721">
        <ele>443.1</ele>
        <time>2020-09-23T13:46:28Z</time>
      </trkpt>
      <trkpt lat="46.51918" lon="5.67207">
        <ele>442.9</ele>
        <time>2020-09-23T13:46:32Z</time>
      </trkpt>
      <trkpt lat="46.51922" lon="5.67204">
        <ele>442.5</ele>
        <time>2020-09-23T13:46:36Z</time>
      </trkpt>
      <trkpt lat="46.51927" lon="5.67207">
        <ele>442.7</ele>
        <time>2020-09-23T13:46:41Z</time>
      </trkpt>
      <trkpt lat="46.51932" lon="5.67211">
        <ele>442.8</ele>
        <time>2020-09-23T13:46:45Z</time>
      </trkpt>
      <trkpt lat="46.51937" lon="5.67215">
        <ele>443.8</ele>
        <time>2020-09-23T13:46:48Z</time>
      </trkpt>
      <trkpt lat="46.51943" lon="5.67219">
        <ele>445.9</ele>
        <time>2020-09-23T13:46:51Z</time>
      </trkpt>
      <trkpt lat="46.51947" lon="5.67216">
        <ele>446.7</ele>
        <time>2020-09-23T13:46:58Z</time>
      </trkpt>
      <trkpt lat="46.51951" lon="5.67211">
        <ele>444.1</ele>
        <time>2020-09-23T13:47:04Z</time>
      </trkpt>
      <trkpt lat="46.51954" lon="5.67206">
        <ele>434.6</ele>
        <time>2020-09-23T13:47:44Z</time>
      </trkpt>
      <trkpt lat="46.51956" lon="5.672">
        <ele>435.1</ele>
        <time>2020-09-23T13:47:50Z</time>
      </trkpt>
      <trkpt lat="46.51961" lon="5.67195">
        <ele>435.4</ele>
        <time>2020-09-23T13:47:57Z</time>
      </trkpt>
      <trkpt lat="46.51965" lon="5.67193">
        <ele>434.6</ele>
        <time>2020-09-23T13:48:02Z</time>
      </trkpt>
      <trkpt lat="46.5197" lon="5.67191">
        <ele>433.2</ele>
        <time>2020-09-23T13:48:08Z</time>
      </trkpt>
      <trkpt lat="46.51975" lon="5.67189">
        <ele>431.9</ele>
        <time>2020-09-23T13:48:13Z</time>
      </trkpt>
      <trkpt lat="46.5198" lon="5.6719">
        <ele>430.8</ele>
        <time>2020-09-23T13:48:18Z</time>
      </trkpt>
      <trkpt lat="46.51985" lon="5.67191">
        <ele>429.8</ele>
        <time>2020-09-23T13:48:23Z</time>
      </trkpt>
      <trkpt lat="46.5199" lon="5.67191">
        <ele>428.9</ele>
        <time>2020-09-23T13:48:28Z</time>
      </trkpt>
      <trkpt lat="46.51995" lon="5.67193">
        <ele>428.2</ele>
        <time>2020-09-23T13:48:33Z</time>
      </trkpt>
      <trkpt lat="46.52" lon="5.67194">
        <ele>428.4</ele>
        <time>2020-09-23T13:48:39Z</time>
      </trkpt>
      <trkpt lat="46.52005" lon="5.67198">
        <ele>429.5</ele>
        <time>2020-09-23T13:48:44Z</time>
      </trkpt>
      <trkpt lat="46.52009" lon="5.67202">
        <ele>431.1</ele>
        <time>2020-09-23T13:48:49Z</time>
      </trkpt>
      <trkpt lat="46.52013" lon="5.67206">
        <ele>432.3</ele>
        <time>2020-09-23T13:48:54Z</time>
      </trkpt>
      <trkpt lat="46.52016" lon="5.67211">
        <ele>433.7</ele>
        <time>2020-09-23T13:49:00Z</time>
      </trkpt>
      <trkpt lat="46.5202" lon="5.67216">
        <ele>434.4</ele>
        <time>2020-09-23T13:49:05Z</time>
      </trkpt>
      <trkpt lat="46.52025" lon="5.67219">
        <ele>435.1</ele>
        <time>2020-09-23T13:49:10Z</time>
      </trkpt>
      <trkpt lat="46.5203" lon="5.67222">
        <ele>435.5</ele>
        <time>2020-09-23T13:49:15Z</time>
      </trkpt>
      <trkpt lat="46.52035" lon="5.67225">
        <ele>435.4</ele>
        <time>2020-09-23T13:49:20Z</time>
      </trkpt>
      <trkpt lat="46.52039" lon="5.67223">
        <ele>434.7</ele>
        <time>2020-09-23T13:49:26Z</time>
      </trkpt>
      <trkpt lat="46.52044" lon="5.67225">
        <ele>433.2</ele>
        <time>2020-09-23T13:49:38Z</time>
      </trkpt>
      <trkpt lat="46.52049" lon="5.67222">
        <ele>432.2</ele>
        <time>2020-09-23T13:49:48Z</time>
      </trkpt>
      <trkpt lat="46.52053" lon="5.67221">
        <ele>432.3</ele>
        <time>2020-09-23T13:49:56Z</time>
      </trkpt>
      <trkpt lat="46.52057" lon="5.67218">
        <ele>432.4</ele>
        <time>2020-09-23T13:50:02Z</time>
      </trkpt>
      <trkpt lat="46.52059" lon="5.6721">
        <ele>432</ele>
        <time>2020-09-23T13:50:08Z</time>
      </trkpt>
      <trkpt lat="46.52059" lon="5.67203">
        <ele>431.5</ele>
        <time>2020-09-23T13:50:12Z</time>
      </trkpt>
      <trkpt lat="46.52062" lon="5.67197">
        <ele>430.9</ele>
        <time>2020-09-23T13:50:16Z</time>
      </trkpt>
      <trkpt lat="46.52062" lon="5.6719">
        <ele>430.1</ele>
        <time>2020-09-23T13:50:21Z</time>
      </trkpt>
      <trkpt lat="46.52064" lon="5.67183">
        <ele>429.4</ele>
        <time>2020-09-23T13:50:30Z</time>
      </trkpt>
      <trkpt lat="46.52065" lon="5.67177">
        <ele>429.3</ele>
        <time>2020-09-23T13:50:35Z</time>
      </trkpt>
      <trkpt lat="46.52065" lon="5.6717">
        <ele>429.3</ele>
        <time>2020-09-23T13:50:40Z</time>
      </trkpt>
      <trkpt lat="46.52066" lon="5.67163">
        <ele>429.5</ele>
        <time>2020-09-23T13:50:45Z</time>
      </trkpt>
      <trkpt lat="46.52069" lon="5.67156">
        <ele>429.7</ele>
        <time>2020-09-23T13:50:51Z</time>
      </trkpt>
      <trkpt lat="46.52072" lon="5.6715">
        <ele>430.3</ele>
        <time>2020-09-23T13:50:56Z</time>
      </trkpt>
      <trkpt lat="46.52075" lon="5.67144">
        <ele>430.9</ele>
        <time>2020-09-23T13:51:02Z</time>
      </trkpt>
      <trkpt lat="46.52079" lon="5.6714">
        <ele>431.3</ele>
        <time>2020-09-23T13:51:08Z</time>
      </trkpt>
      <trkpt lat="46.52083" lon="5.67137">
        <ele>431.5</ele>
        <time>2020-09-23T13:51:13Z</time>
      </trkpt>
      <trkpt lat="46.52086" lon="5.6713">
        <ele>437.7</ele>
        <time>2020-09-23T13:51:22Z</time>
      </trkpt>
      <trkpt lat="46.52087" lon="5.67124">
        <ele>444</ele>
        <time>2020-09-23T13:51:27Z</time>
      </trkpt>
      <trkpt lat="46.52092" lon="5.67123">
        <ele>449.6</ele>
        <time>2020-09-23T13:51:34Z</time>
      </trkpt>
      <trkpt lat="46.52097" lon="5.67123">
        <ele>452.2</ele>
        <time>2020-09-23T13:51:39Z</time>
      </trkpt>
      <trkpt lat="46.52096" lon="5.67116">
        <ele>454</ele>
        <time>2020-09-23T13:51:50Z</time>
      </trkpt>
      <trkpt lat="46.52092" lon="5.67112">
        <ele>453.4</ele>
        <time>2020-09-23T13:51:56Z</time>
      </trkpt>
      <trkpt lat="46.52089" lon="5.67106">
        <ele>452.1</ele>
        <time>2020-09-23T13:52:04Z</time>
      </trkpt>
      <trkpt lat="46.52085" lon="5.6711">
        <ele>447.3</ele>
        <time>2020-09-23T13:53:11Z</time>
      </trkpt>
      <trkpt lat="46.52088" lon="5.67106">
        <ele>443.7</ele>
        <time>2020-09-23T13:53:33Z</time>
      </trkpt>
      <trkpt lat="46.52094" lon="5.67103">
        <ele>442.6</ele>
        <time>2020-09-23T13:53:51Z</time>
      </trkpt>
      <trkpt lat="46.52099" lon="5.67103">
        <ele>440.7</ele>
        <time>2020-09-23T13:53:58Z</time>
      </trkpt>
    </trkseg>
  </trk>
</gpx>